<?xml version="1.0" encoding="UTF-8" standalone="no" ?>
<gpx xmlns="http://www.topografix.com/GPX/1/1" xmlns:xsi="http://www.w3.org/2001/XMLSchema-instance" xsi:schemaLocation="http://www.topografix.com/GPX/1/1 http://www.topografix.com/GPX/1/1/gpx.xsd" version="1.1" creator="VisuGPX - https://www.visugpx.com">
  <metadata>
    <name>De Vincennes à Poitiers</name>
  </metadata>
  <trk>
    <name><![CDATA[De Vincennes à Poitiers]]></name>
    <trkseg>
      <trkpt lat="46.58052" lon="0.34027">
        <ele>120.588054</ele>
        <time>2021-12-03T20:09:44.200Z</time>
      </trkpt>
      <trkpt lat="46.58048" lon="0.34056">
        <ele>120.588054</ele>
        <time>2021-12-03T20:09:50.218Z</time>
      </trkpt>
      <trkpt lat="46.58056" lon="0.3406">
        <ele>120.588054</ele>
        <time>2021-12-03T20:09:52.032Z</time>
      </trkpt>
      <trkpt lat="46.58057" lon="0.34069">
        <ele>120.588054</ele>
        <time>2021-12-03T20:09:53.278Z</time>
      </trkpt>
      <trkpt lat="46.58089" lon="0.34089">
        <ele>120.588054</ele>
        <time>2021-12-03T20:10:01.163Z</time>
      </trkpt>
      <trkpt lat="46.58093" lon="0.34092">
        <ele>120.588054</ele>
        <time>2021-12-03T20:10:02.213Z</time>
      </trkpt>
      <trkpt lat="46.58097" lon="0.34095">
        <ele>120.588054</ele>
        <time>2021-12-03T20:10:03.308Z</time>
      </trkpt>
      <trkpt lat="46.58157" lon="0.3413">
        <ele>119.798643</ele>
        <time>2021-12-03T20:10:16.946Z</time>
      </trkpt>
      <trkpt lat="46.58163" lon="0.34133">
        <ele>119.711612</ele>
        <time>2021-12-03T20:10:18.137Z</time>
      </trkpt>
      <trkpt lat="46.58165" lon="0.34134">
        <ele>119.679136</ele>
        <time>2021-12-03T20:10:18.600Z</time>
      </trkpt>
      <trkpt lat="46.58172" lon="0.34138">
        <ele>119.565848</ele>
        <time>2021-12-03T20:10:20.141Z</time>
      </trkpt>
      <trkpt lat="46.58172" lon="0.34137">
        <ele>119.556642</ele>
        <time>2021-12-03T20:10:20.268Z</time>
      </trkpt>
      <trkpt lat="46.58235" lon="0.34142">
        <ele>118.63084</ele>
        <time>2021-12-03T20:10:32.706Z</time>
      </trkpt>
      <trkpt lat="46.58239" lon="0.34142">
        <ele>118.576449</ele>
        <time>2021-12-03T20:10:33.495Z</time>
      </trkpt>
      <trkpt lat="46.58229" lon="0.34215">
        <ele>117.75303</ele>
        <time>2021-12-03T20:10:44.389Z</time>
      </trkpt>
      <trkpt lat="46.58228" lon="0.34236">
        <ele>117.414849</ele>
        <time>2021-12-03T20:10:47.394Z</time>
      </trkpt>
      <trkpt lat="46.58229" lon="0.34286">
        <ele>116.621245</ele>
        <time>2021-12-03T20:10:54.380Z</time>
      </trkpt>
      <trkpt lat="46.58232" lon="0.34296">
        <ele>116.454049</ele>
        <time>2021-12-03T20:10:55.840Z</time>
      </trkpt>
      <trkpt lat="46.58254" lon="0.34326">
        <ele>115.744239</ele>
        <time>2021-12-03T20:11:01.445Z</time>
      </trkpt>
      <trkpt lat="46.58264" lon="0.34334">
        <ele>115.494383</ele>
        <time>2021-12-03T20:11:03.406Z</time>
      </trkpt>
      <trkpt lat="46.58303" lon="0.34356">
        <ele>114.538542</ele>
        <time>2021-12-03T20:11:10.741Z</time>
      </trkpt>
      <trkpt lat="46.58307" lon="0.34363">
        <ele>114.388285</ele>
        <time>2021-12-03T20:11:11.875Z</time>
      </trkpt>
      <trkpt lat="46.58291" lon="0.34434">
        <ele>112.595786</ele>
        <time>2021-12-03T20:11:20.840Z</time>
      </trkpt>
      <trkpt lat="46.58285" lon="0.34455">
        <ele>111.877123</ele>
        <time>2021-12-03T20:11:23.730Z</time>
      </trkpt>
      <trkpt lat="46.58282" lon="0.34468">
        <ele>111.457688</ele>
        <time>2021-12-03T20:11:25.289Z</time>
      </trkpt>
      <trkpt lat="46.58264" lon="0.3457">
        <ele>108.158588</ele>
        <time>2021-12-03T20:11:37.007Z</time>
      </trkpt>
      <trkpt lat="46.58244" lon="0.34669">
        <ele>104.633254</ele>
        <time>2021-12-03T20:11:48.119Z</time>
      </trkpt>
      <trkpt lat="46.58226" lon="0.34742">
        <ele>101.254297</ele>
        <time>2021-12-03T20:11:56.292Z</time>
      </trkpt>
      <trkpt lat="46.58204" lon="0.34833">
        <ele>96.995854</ele>
        <time>2021-12-03T20:12:06.546Z</time>
      </trkpt>
      <trkpt lat="46.58199" lon="0.34888">
        <ele>94.596378</ele>
        <time>2021-12-03T20:12:12.308Z</time>
      </trkpt>
      <trkpt lat="46.58188" lon="0.34944">
        <ele>91.981459</ele>
        <time>2021-12-03T20:12:18.454Z</time>
      </trkpt>
      <trkpt lat="46.58175" lon="0.35019">
        <ele>88.551499</ele>
        <time>2021-12-03T20:12:26.439Z</time>
      </trkpt>
      <trkpt lat="46.58173" lon="0.35032">
        <ele>87.951162</ele>
        <time>2021-12-03T20:12:27.841Z</time>
      </trkpt>
      <trkpt lat="46.58172" lon="0.35034">
        <ele>87.826107</ele>
        <time>2021-12-03T20:12:28.153Z</time>
      </trkpt>
      <trkpt lat="46.58159" lon="0.35097">
        <ele>84.884894</ele>
        <time>2021-12-03T20:12:35.455Z</time>
      </trkpt>
      <trkpt lat="46.58128" lon="0.35209">
        <ele>80.786851</ele>
        <time>2021-12-03T20:12:49.280Z</time>
      </trkpt>
      <trkpt lat="46.58123" lon="0.35228">
        <ele>80.292039</ele>
        <time>2021-12-03T20:12:51.664Z</time>
      </trkpt>
      <trkpt lat="46.58119" lon="0.35243">
        <ele>79.887535</ele>
        <time>2021-12-03T20:12:53.617Z</time>
      </trkpt>
      <trkpt lat="46.58109" lon="0.35284">
        <ele>78.813505</ele>
        <time>2021-12-03T20:12:58.904Z</time>
      </trkpt>
      <trkpt lat="46.58161" lon="0.35292">
        <ele>76.906661</ele>
        <time>2021-12-03T20:13:08.267Z</time>
      </trkpt>
      <trkpt lat="46.58178" lon="0.35282">
        <ele>76.242918</ele>
        <time>2021-12-03T20:13:11.760Z</time>
      </trkpt>
      <trkpt lat="46.58189" lon="0.35271">
        <ele>75.917726</ele>
        <time>2021-12-03T20:13:14.343Z</time>
      </trkpt>
      <trkpt lat="46.582" lon="0.35263">
        <ele>75.920992</ele>
        <time>2021-12-03T20:13:16.878Z</time>
      </trkpt>
      <trkpt lat="46.58211" lon="0.35259">
        <ele>75.923851</ele>
        <time>2021-12-03T20:13:19.095Z</time>
      </trkpt>
      <trkpt lat="46.58262" lon="0.35242">
        <ele>75.937753</ele>
        <time>2021-12-03T20:13:31.108Z</time>
      </trkpt>
      <trkpt lat="46.58273" lon="0.35238">
        <ele>75.940913</ele>
        <time>2021-12-03T20:13:34.311Z</time>
      </trkpt>
      <trkpt lat="46.5828" lon="0.35236">
        <ele>75.942769</ele>
        <time>2021-12-03T20:13:36.174Z</time>
      </trkpt>
      <trkpt lat="46.58349" lon="0.35212">
        <ele>75.961573</ele>
        <time>2021-12-03T20:13:55.648Z</time>
      </trkpt>
      <trkpt lat="46.58371" lon="0.35203">
        <ele>76.208317</ele>
        <time>2021-12-03T20:14:01.467Z</time>
      </trkpt>
      <trkpt lat="46.58404" lon="0.35188">
        <ele>76.889205</ele>
        <time>2021-12-03T20:14:10.620Z</time>
      </trkpt>
      <trkpt lat="46.58407" lon="0.35204">
        <ele>77.104393</ele>
        <time>2021-12-03T20:14:14.049Z</time>
      </trkpt>
      <trkpt lat="46.58415" lon="0.35242">
        <ele>77.650288</ele>
        <time>2021-12-03T20:14:23.985Z</time>
      </trkpt>
      <trkpt lat="46.58444" lon="0.35269">
        <ele>78.319393</ele>
        <time>2021-12-03T20:14:34.766Z</time>
      </trkpt>
      <trkpt lat="46.58443" lon="0.35272">
        <ele>78.363443</ele>
        <time>2021-12-03T20:14:35.486Z</time>
      </trkpt>
      <trkpt lat="46.58429" lon="0.35349">
        <ele>79.444794</ele>
        <time>2021-12-03T20:15:03.366Z</time>
      </trkpt>
      <trkpt lat="46.58419" lon="0.35403">
        <ele>81.587252</ele>
        <time>2021-12-03T20:15:24.161Z</time>
      </trkpt>
      <trkpt lat="46.58413" lon="0.35434">
        <ele>82.876347</ele>
        <time>2021-12-03T20:15:36.881Z</time>
      </trkpt>
      <trkpt lat="46.58442" lon="0.35433">
        <ele>84.573078</ele>
        <time>2021-12-03T20:15:50.462Z</time>
      </trkpt>
      <trkpt lat="46.58418" lon="0.3547">
        <ele>86.617915</ele>
        <time>2021-12-03T20:16:09.277Z</time>
      </trkpt>
      <trkpt lat="46.5843" lon="0.35537">
        <ele>89.432515</ele>
        <time>2021-12-03T20:16:43.019Z</time>
      </trkpt>
      <trkpt lat="46.5851" lon="0.35553">
        <ele>95.449118</ele>
        <time>2021-12-03T20:17:46.050Z</time>
      </trkpt>
      <trkpt lat="46.58541" lon="0.35571">
        <ele>97.995879</ele>
        <time>2021-12-03T20:18:09.692Z</time>
      </trkpt>
      <trkpt lat="46.58571" lon="0.3561">
        <ele>101.104395</ele>
        <time>2021-12-03T20:18:34.527Z</time>
      </trkpt>
      <trkpt lat="46.58597" lon="0.35631">
        <ele>103.412849</ele>
        <time>2021-12-03T20:18:52.797Z</time>
      </trkpt>
      <trkpt lat="46.58616" lon="0.35639">
        <ele>104.710491</ele>
        <time>2021-12-03T20:19:06.415Z</time>
      </trkpt>
      <trkpt lat="46.58633" lon="0.35532">
        <ele>109.086997</ele>
        <time>2021-12-03T20:19:56.105Z</time>
      </trkpt>
      <trkpt lat="46.58641" lon="0.3553">
        <ele>109.608692</ele>
        <time>2021-12-03T20:20:01.703Z</time>
      </trkpt>
      <trkpt lat="46.58684" lon="0.35521">
        <ele>112.076675</ele>
        <time>2021-12-03T20:20:25.019Z</time>
      </trkpt>
      <trkpt lat="46.58735" lon="0.35509">
        <ele>114.828919</ele>
        <time>2021-12-03T20:20:49.262Z</time>
      </trkpt>
      <trkpt lat="46.58776" lon="0.3551">
        <ele>116.387207</ele>
        <time>2021-12-03T20:21:10.180Z</time>
      </trkpt>
      <trkpt lat="46.58846" lon="0.35521">
        <ele>119.011808</ele>
        <time>2021-12-03T20:21:47.029Z</time>
      </trkpt>
      <trkpt lat="46.58877" lon="0.35527">
        <ele>120.183692</ele>
        <time>2021-12-03T20:22:00.365Z</time>
      </trkpt>
      <trkpt lat="46.58953" lon="0.35541">
        <ele>121.488303</ele>
        <time>2021-12-03T20:22:27.648Z</time>
      </trkpt>
      <trkpt lat="46.58977" lon="0.35546">
        <ele>121.6588</ele>
        <time>2021-12-03T20:22:34.743Z</time>
      </trkpt>
      <trkpt lat="46.5897" lon="0.35609">
        <ele>121.975911</ele>
        <time>2021-12-03T20:22:45.643Z</time>
      </trkpt>
      <trkpt lat="46.5897" lon="0.35619">
        <ele>122.02757</ele>
        <time>2021-12-03T20:22:47.156Z</time>
      </trkpt>
      <trkpt lat="46.58962" lon="0.35706">
        <ele>122.419144</ele>
        <time>2021-12-03T20:23:00.357Z</time>
      </trkpt>
      <trkpt lat="46.5896" lon="0.35721">
        <ele>122.421427</ele>
        <time>2021-12-03T20:23:02.455Z</time>
      </trkpt>
      <trkpt lat="46.58947" lon="0.35859">
        <ele>122.44297</ele>
        <time>2021-12-03T20:23:23.459Z</time>
      </trkpt>
      <trkpt lat="46.58944" lon="0.35897">
        <ele>122.448913</ele>
        <time>2021-12-03T20:23:29.916Z</time>
      </trkpt>
      <trkpt lat="46.58941" lon="0.3593">
        <ele>122.454089</ele>
        <time>2021-12-03T20:23:35.780Z</time>
      </trkpt>
      <trkpt lat="46.58937" lon="0.35965">
        <ele>122.544357</ele>
        <time>2021-12-03T20:23:42.515Z</time>
      </trkpt>
      <trkpt lat="46.58937" lon="0.3597">
        <ele>122.583662</ele>
        <time>2021-12-03T20:23:43.454Z</time>
      </trkpt>
      <trkpt lat="46.58935" lon="0.35986">
        <ele>122.71483</ele>
        <time>2021-12-03T20:23:46.536Z</time>
      </trkpt>
      <trkpt lat="46.58948" lon="0.35995">
        <ele>122.887623</ele>
        <time>2021-12-03T20:23:50.923Z</time>
      </trkpt>
      <trkpt lat="46.58953" lon="0.36">
        <ele>122.962456</ele>
        <time>2021-12-03T20:23:52.803Z</time>
      </trkpt>
      <trkpt lat="46.59001" lon="0.36041">
        <ele>123.628299</ele>
        <time>2021-12-03T20:24:09.966Z</time>
      </trkpt>
      <trkpt lat="46.59037" lon="0.36079">
        <ele>124.163128</ele>
        <time>2021-12-03T20:24:24.448Z</time>
      </trkpt>
      <trkpt lat="46.59051" lon="0.36096">
        <ele>124.381875</ele>
        <time>2021-12-03T20:24:30.332Z</time>
      </trkpt>
      <trkpt lat="46.59097" lon="0.36152">
        <ele>124.669772</ele>
        <time>2021-12-03T20:24:48.202Z</time>
      </trkpt>
      <trkpt lat="46.59158" lon="0.36209">
        <ele>124.758825</ele>
        <time>2021-12-03T20:25:06.858Z</time>
      </trkpt>
      <trkpt lat="46.59168" lon="0.36216">
        <ele>124.772621</ele>
        <time>2021-12-03T20:25:09.395Z</time>
      </trkpt>
      <trkpt lat="46.59257" lon="0.36274">
        <ele>124.025384</ele>
        <time>2021-12-03T20:25:29.451Z</time>
      </trkpt>
      <trkpt lat="46.59341" lon="0.36324">
        <ele>122.239602</ele>
        <time>2021-12-03T20:25:45.691Z</time>
      </trkpt>
      <trkpt lat="46.59343" lon="0.36335">
        <ele>122.079637</ele>
        <time>2021-12-03T20:25:47.182Z</time>
      </trkpt>
      <trkpt lat="46.59352" lon="0.36341">
        <ele>121.891578</ele>
        <time>2021-12-03T20:25:48.917Z</time>
      </trkpt>
      <trkpt lat="46.59362" lon="0.36327">
        <ele>121.624423</ele>
        <time>2021-12-03T20:25:51.357Z</time>
      </trkpt>
      <trkpt lat="46.59378" lon="0.36332">
        <ele>121.303007</ele>
        <time>2021-12-03T20:25:54.392Z</time>
      </trkpt>
      <trkpt lat="46.59415" lon="0.36343">
        <ele>120.673167</ele>
        <time>2021-12-03T20:26:01.422Z</time>
      </trkpt>
      <trkpt lat="46.59434" lon="0.36348">
        <ele>120.358501</ele>
        <time>2021-12-03T20:26:04.919Z</time>
      </trkpt>
      <trkpt lat="46.5947" lon="0.36354">
        <ele>119.763213</ele>
        <time>2021-12-03T20:26:11.671Z</time>
      </trkpt>
      <trkpt lat="46.59504" lon="0.36345">
        <ele>119.189646</ele>
        <time>2021-12-03T20:26:18.306Z</time>
      </trkpt>
      <trkpt lat="46.59533" lon="0.3635">
        <ele>118.707906</ele>
        <time>2021-12-03T20:26:23.958Z</time>
      </trkpt>
      <trkpt lat="46.59559" lon="0.36364">
        <ele>118.276876</ele>
        <time>2021-12-03T20:26:29.597Z</time>
      </trkpt>
      <trkpt lat="46.59583" lon="0.36388">
        <ele>118.02044</ele>
        <time>2021-12-03T20:26:35.751Z</time>
      </trkpt>
      <trkpt lat="46.59593" lon="0.36396">
        <ele>117.930065</ele>
        <time>2021-12-03T20:26:37.958Z</time>
      </trkpt>
      <trkpt lat="46.59598" lon="0.36397">
        <ele>117.88031</ele>
        <time>2021-12-03T20:26:39.168Z</time>
      </trkpt>
      <trkpt lat="46.59639" lon="0.36411">
        <ele>117.51287</ele>
        <time>2021-12-03T20:26:48.398Z</time>
      </trkpt>
      <trkpt lat="46.59709" lon="0.36437">
        <ele>116.890426</ele>
        <time>2021-12-03T20:27:02.920Z</time>
      </trkpt>
      <trkpt lat="46.59737" lon="0.36451">
        <ele>116.602397</ele>
        <time>2021-12-03T20:27:08.878Z</time>
      </trkpt>
      <trkpt lat="46.59805" lon="0.36489">
        <ele>115.849787</ele>
        <time>2021-12-03T20:27:23.438Z</time>
      </trkpt>
      <trkpt lat="46.59811" lon="0.36492">
        <ele>115.784688</ele>
        <time>2021-12-03T20:27:24.766Z</time>
      </trkpt>
      <trkpt lat="46.59814" lon="0.36515">
        <ele>115.620759</ele>
        <time>2021-12-03T20:27:27.874Z</time>
      </trkpt>
      <trkpt lat="46.59825" lon="0.36522">
        <ele>115.500988</ele>
        <time>2021-12-03T20:27:30.219Z</time>
      </trkpt>
      <trkpt lat="46.59836" lon="0.36515">
        <ele>115.377698</ele>
        <time>2021-12-03T20:27:32.730Z</time>
      </trkpt>
      <trkpt lat="46.59843" lon="0.36526">
        <ele>115.271185</ele>
        <time>2021-12-03T20:27:34.727Z</time>
      </trkpt>
      <trkpt lat="46.59856" lon="0.36527">
        <ele>115.140787</ele>
        <time>2021-12-03T20:27:39.152Z</time>
      </trkpt>
      <trkpt lat="46.59906" lon="0.36565">
        <ele>114.730908</ele>
        <time>2021-12-03T20:27:59.368Z</time>
      </trkpt>
      <trkpt lat="46.59984" lon="0.36626">
        <ele>114.292328</ele>
        <time>2021-12-03T20:28:31.706Z</time>
      </trkpt>
      <trkpt lat="46.60028" lon="0.3666">
        <ele>114.046798</ele>
        <time>2021-12-03T20:28:50.305Z</time>
      </trkpt>
      <trkpt lat="46.60067" lon="0.36682">
        <ele>113.975894</ele>
        <time>2021-12-03T20:29:06.174Z</time>
      </trkpt>
      <trkpt lat="46.60137" lon="0.36682">
        <ele>113.917401</ele>
        <time>2021-12-03T20:29:32.462Z</time>
      </trkpt>
      <trkpt lat="46.60201" lon="0.36701">
        <ele>113.862579</ele>
        <time>2021-12-03T20:29:57.130Z</time>
      </trkpt>
      <trkpt lat="46.60296" lon="0.36756">
        <ele>114.086534</ele>
        <time>2021-12-03T20:30:37.205Z</time>
      </trkpt>
      <trkpt lat="46.60389" lon="0.36802">
        <ele>114.306948</ele>
        <time>2021-12-03T20:31:17.112Z</time>
      </trkpt>
      <trkpt lat="46.60447" lon="0.3683">
        <ele>114.276506</ele>
        <time>2021-12-03T20:31:32.481Z</time>
      </trkpt>
      <trkpt lat="46.60575" lon="0.36926">
        <ele>113.876693</ele>
        <time>2021-12-03T20:32:04.321Z</time>
      </trkpt>
      <trkpt lat="46.60664" lon="0.36977">
        <ele>112.925347</ele>
        <time>2021-12-03T20:32:37.468Z</time>
      </trkpt>
      <trkpt lat="46.60715" lon="0.36997">
        <ele>112.392243</ele>
        <time>2021-12-03T20:32:55.622Z</time>
      </trkpt>
      <trkpt lat="46.60901" lon="0.37042">
        <ele>110.60944</ele>
        <time>2021-12-03T20:34:01.421Z</time>
      </trkpt>
      <trkpt lat="46.6106" lon="0.37073">
        <ele>110.366965</ele>
        <time>2021-12-03T20:35:03.556Z</time>
      </trkpt>
      <trkpt lat="46.61128" lon="0.37111">
        <ele>109.141042</ele>
        <time>2021-12-03T20:35:30.551Z</time>
      </trkpt>
      <trkpt lat="46.61184" lon="0.37137">
        <ele>108.050668</ele>
        <time>2021-12-03T20:35:50.959Z</time>
      </trkpt>
      <trkpt lat="46.61418" lon="0.37223">
        <ele>98.4507</ele>
        <time>2021-12-03T20:37:02.242Z</time>
      </trkpt>
      <trkpt lat="46.61426" lon="0.37203">
        <ele>97.374376</ele>
        <time>2021-12-03T20:37:06.697Z</time>
      </trkpt>
      <trkpt lat="46.61459" lon="0.37296">
        <ele>92.613196</ele>
        <time>2021-12-03T20:37:26.052Z</time>
      </trkpt>
      <trkpt lat="46.61484" lon="0.37329">
        <ele>90.373637</ele>
        <time>2021-12-03T20:37:35.289Z</time>
      </trkpt>
      <trkpt lat="46.61481" lon="0.37391">
        <ele>87.57069</ele>
        <time>2021-12-03T20:37:46.940Z</time>
      </trkpt>
      <trkpt lat="46.61491" lon="0.37429">
        <ele>86.294817</ele>
        <time>2021-12-03T20:37:54.432Z</time>
      </trkpt>
      <trkpt lat="46.61505" lon="0.37436">
        <ele>85.762679</ele>
        <time>2021-12-03T20:37:58.929Z</time>
      </trkpt>
      <trkpt lat="46.61508" lon="0.37434">
        <ele>85.65772</ele>
        <time>2021-12-03T20:37:59.798Z</time>
      </trkpt>
      <trkpt lat="46.61556" lon="0.37394">
        <ele>83.710373</ele>
        <time>2021-12-03T20:38:09.853Z</time>
      </trkpt>
      <trkpt lat="46.61566" lon="0.37387">
        <ele>83.32725</ele>
        <time>2021-12-03T20:38:13.497Z</time>
      </trkpt>
      <trkpt lat="46.6157" lon="0.3737">
        <ele>82.895865</ele>
        <time>2021-12-03T20:38:17.428Z</time>
      </trkpt>
      <trkpt lat="46.61574" lon="0.37356">
        <ele>82.541999</ele>
        <time>2021-12-03T20:38:20.527Z</time>
      </trkpt>
      <trkpt lat="46.61584" lon="0.37347">
        <ele>82.121494</ele>
        <time>2021-12-03T20:38:24.644Z</time>
      </trkpt>
      <trkpt lat="46.61626" lon="0.37328">
        <ele>80.614304</ele>
        <time>2021-12-03T20:38:38.952Z</time>
      </trkpt>
      <trkpt lat="46.61636" lon="0.37306">
        <ele>80.342328</ele>
        <time>2021-12-03T20:38:45.231Z</time>
      </trkpt>
      <trkpt lat="46.61771" lon="0.37269">
        <ele>78.331843</ele>
        <time>2021-12-03T20:39:31.636Z</time>
      </trkpt>
      <trkpt lat="46.61799" lon="0.37234">
        <ele>78.203297</ele>
        <time>2021-12-03T20:39:44.530Z</time>
      </trkpt>
      <trkpt lat="46.61816" lon="0.37271">
        <ele>78.638343</ele>
        <time>2021-12-03T20:39:55.758Z</time>
      </trkpt>
      <trkpt lat="46.61824" lon="0.37277">
        <ele>78.773603</ele>
        <time>2021-12-03T20:39:59.314Z</time>
      </trkpt>
      <trkpt lat="46.61885" lon="0.37268">
        <ele>79.660145</ele>
        <time>2021-12-03T20:40:27.077Z</time>
      </trkpt>
      <trkpt lat="46.61911" lon="0.37268">
        <ele>80.026209</ele>
        <time>2021-12-03T20:40:40.363Z</time>
      </trkpt>
      <trkpt lat="46.61929" lon="0.37276">
        <ele>80.307353</ele>
        <time>2021-12-03T20:40:50.916Z</time>
      </trkpt>
      <trkpt lat="46.62049" lon="0.37379">
        <ele>87.026846</ele>
        <time>2021-12-03T20:42:24.253Z</time>
      </trkpt>
      <trkpt lat="46.62121" lon="0.37472">
        <ele>92.909814</ele>
        <time>2021-12-03T20:43:40.164Z</time>
      </trkpt>
      <trkpt lat="46.6221" lon="0.37545">
        <ele>100.44253</ele>
        <time>2021-12-03T20:45:07.355Z</time>
      </trkpt>
      <trkpt lat="46.62261" lon="0.37575">
        <ele>104.292864</ele>
        <time>2021-12-03T20:45:52.844Z</time>
      </trkpt>
      <trkpt lat="46.62311" lon="0.37619">
        <ele>107.455692</ele>
        <time>2021-12-03T20:46:38.505Z</time>
      </trkpt>
      <trkpt lat="46.62483" lon="0.37714">
        <ele>115.480275</ele>
        <time>2021-12-03T20:48:38.080Z</time>
      </trkpt>
      <trkpt lat="46.62628" lon="0.37783">
        <ele>118.583128</ele>
        <time>2021-12-03T20:49:49.855Z</time>
      </trkpt>
      <trkpt lat="46.6284" lon="0.37864">
        <ele>119.335248</ele>
        <time>2021-12-03T20:51:15.864Z</time>
      </trkpt>
      <trkpt lat="46.62958" lon="0.37917">
        <ele>119.223381</ele>
        <time>2021-12-03T20:51:45.189Z</time>
      </trkpt>
      <trkpt lat="46.63177" lon="0.38032">
        <ele>117.879117</ele>
        <time>2021-12-03T20:52:38.779Z</time>
      </trkpt>
      <trkpt lat="46.63326" lon="0.38087">
        <ele>115.133228</ele>
        <time>2021-12-03T20:53:10.385Z</time>
      </trkpt>
      <trkpt lat="46.63749" lon="0.38252">
        <ele>100.628381</ele>
        <time>2021-12-03T20:55:24.819Z</time>
      </trkpt>
      <trkpt lat="46.63915" lon="0.38273">
        <ele>92.148155</ele>
        <time>2021-12-03T20:56:12.628Z</time>
      </trkpt>
      <trkpt lat="46.64078" lon="0.38339">
        <ele>82.946256</ele>
        <time>2021-12-03T20:56:59.583Z</time>
      </trkpt>
      <trkpt lat="46.64116" lon="0.38364">
        <ele>80.689175</ele>
        <time>2021-12-03T20:57:11.810Z</time>
      </trkpt>
      <trkpt lat="46.64245" lon="0.38431">
        <ele>76.959517</ele>
        <time>2021-12-03T20:57:37.329Z</time>
      </trkpt>
      <trkpt lat="46.64374" lon="0.38516">
        <ele>76.119864</ele>
        <time>2021-12-03T20:58:08.910Z</time>
      </trkpt>
      <trkpt lat="46.64404" lon="0.38547">
        <ele>76.435598</ele>
        <time>2021-12-03T20:58:19.683Z</time>
      </trkpt>
      <trkpt lat="46.64462" lon="0.38595">
        <ele>77.005506</ele>
        <time>2021-12-03T20:58:43.045Z</time>
      </trkpt>
      <trkpt lat="46.6449" lon="0.38609">
        <ele>78.344584</ele>
        <time>2021-12-03T20:58:56.049Z</time>
      </trkpt>
      <trkpt lat="46.64534" lon="0.38634">
        <ele>80.711498</ele>
        <time>2021-12-03T20:59:20.387Z</time>
      </trkpt>
      <trkpt lat="46.64567" lon="0.38661">
        <ele>82.586961</ele>
        <time>2021-12-03T20:59:42.967Z</time>
      </trkpt>
      <trkpt lat="46.6467" lon="0.38806">
        <ele>89.894443</ele>
        <time>2021-12-03T21:01:10.322Z</time>
      </trkpt>
      <trkpt lat="46.64745" lon="0.38967">
        <ele>96.157156</ele>
        <time>2021-12-03T21:02:20.714Z</time>
      </trkpt>
      <trkpt lat="46.64798" lon="0.3907">
        <ele>98.637121</ele>
        <time>2021-12-03T21:02:57.055Z</time>
      </trkpt>
      <trkpt lat="46.65075" lon="0.39591">
        <ele>106.709743</ele>
        <time>2021-12-03T21:06:34.592Z</time>
      </trkpt>
      <trkpt lat="46.65094" lon="0.39615">
        <ele>107.044515</ele>
        <time>2021-12-03T21:06:45.662Z</time>
      </trkpt>
      <trkpt lat="46.65097" lon="0.39628">
        <ele>107.175692</ele>
        <time>2021-12-03T21:06:48.820Z</time>
      </trkpt>
      <trkpt lat="46.65151" lon="0.39703">
        <ele>108.205282</ele>
        <time>2021-12-03T21:07:23.347Z</time>
      </trkpt>
      <trkpt lat="46.65194" lon="0.39749">
        <ele>108.89366</ele>
        <time>2021-12-03T21:07:48.076Z</time>
      </trkpt>
      <trkpt lat="46.65479" lon="0.40034">
        <ele>111.229352</ele>
        <time>2021-12-03T21:10:18.858Z</time>
      </trkpt>
      <trkpt lat="46.65697" lon="0.40244">
        <ele>103.994394</ele>
        <time>2021-12-03T21:11:39.554Z</time>
      </trkpt>
      <trkpt lat="46.6588" lon="0.40431">
        <ele>98.52941</ele>
        <time>2021-12-03T21:12:50.859Z</time>
      </trkpt>
      <trkpt lat="46.65999" lon="0.40518">
        <ele>96.765703</ele>
        <time>2021-12-03T21:13:37.170Z</time>
      </trkpt>
      <trkpt lat="46.66019" lon="0.40533">
        <ele>96.589141</ele>
        <time>2021-12-03T21:13:45.582Z</time>
      </trkpt>
      <trkpt lat="46.66192" lon="0.40688">
        <ele>95.148477</ele>
        <time>2021-12-03T21:14:59.595Z</time>
      </trkpt>
      <trkpt lat="46.6627" lon="0.40761">
        <ele>94.624592</ele>
        <time>2021-12-03T21:15:32.370Z</time>
      </trkpt>
      <trkpt lat="46.66362" lon="0.40889">
        <ele>94.125198</ele>
        <time>2021-12-03T21:16:18.444Z</time>
      </trkpt>
      <trkpt lat="46.66437" lon="0.40972">
        <ele>94.95376</ele>
        <time>2021-12-03T21:16:59.242Z</time>
      </trkpt>
      <trkpt lat="46.66513" lon="0.41051">
        <ele>96.044871</ele>
        <time>2021-12-03T21:17:43.511Z</time>
      </trkpt>
      <trkpt lat="46.66516" lon="0.41043">
        <ele>96.120599</ele>
        <time>2021-12-03T21:17:45.591Z</time>
      </trkpt>
      <trkpt lat="46.66667" lon="0.41184">
        <ele>98.95334</ele>
        <time>2021-12-03T21:19:11.004Z</time>
      </trkpt>
      <trkpt lat="46.66831" lon="0.41338">
        <ele>101.967049</ele>
        <time>2021-12-03T21:20:42.706Z</time>
      </trkpt>
      <trkpt lat="46.66987" lon="0.41479">
        <ele>105.439016</ele>
        <time>2021-12-03T21:22:15.551Z</time>
      </trkpt>
      <trkpt lat="46.67112" lon="0.41604">
        <ele>107.725681</ele>
        <time>2021-12-03T21:23:04.851Z</time>
      </trkpt>
      <trkpt lat="46.67287" lon="0.41771">
        <ele>109.013826</ele>
        <time>2021-12-03T21:24:31.919Z</time>
      </trkpt>
      <trkpt lat="46.67356" lon="0.41841">
        <ele>108.705629</ele>
        <time>2021-12-03T21:25:03.217Z</time>
      </trkpt>
      <trkpt lat="46.67526" lon="0.42074">
        <ele>107.028805</ele>
        <time>2021-12-03T21:26:26.330Z</time>
      </trkpt>
      <trkpt lat="46.67884" lon="0.42462">
        <ele>101.554838</ele>
        <time>2021-12-03T21:29:01.933Z</time>
      </trkpt>
      <trkpt lat="46.68014" lon="0.42604">
        <ele>97.498994</ele>
        <time>2021-12-03T21:29:52.996Z</time>
      </trkpt>
      <trkpt lat="46.68156" lon="0.42761">
        <ele>92.972733</ele>
        <time>2021-12-03T21:30:47.334Z</time>
      </trkpt>
      <trkpt lat="46.68489" lon="0.43114">
        <ele>92.962735</ele>
        <time>2021-12-03T21:33:29.557Z</time>
      </trkpt>
      <trkpt lat="46.68583" lon="0.43233">
        <ele>94.710988</ele>
        <time>2021-12-03T21:34:29.293Z</time>
      </trkpt>
      <trkpt lat="46.68666" lon="0.43312">
        <ele>97.192131</ele>
        <time>2021-12-03T21:35:22.685Z</time>
      </trkpt>
      <trkpt lat="46.68914" lon="0.4354">
        <ele>104.433354</ele>
        <time>2021-12-03T21:38:09.265Z</time>
      </trkpt>
      <trkpt lat="46.69094" lon="0.43722">
        <ele>103.768364</ele>
        <time>2021-12-03T21:39:29.138Z</time>
      </trkpt>
      <trkpt lat="46.69233" lon="0.43883">
        <ele>99.46595</ele>
        <time>2021-12-03T21:40:24.304Z</time>
      </trkpt>
      <trkpt lat="46.69332" lon="0.43984">
        <ele>96.078336</ele>
        <time>2021-12-03T21:41:02.150Z</time>
      </trkpt>
      <trkpt lat="46.69407" lon="0.44086">
        <ele>93.558649</ele>
        <time>2021-12-03T21:41:35.447Z</time>
      </trkpt>
      <trkpt lat="46.69497" lon="0.44146">
        <ele>91.50271</ele>
        <time>2021-12-03T21:42:07.787Z</time>
      </trkpt>
      <trkpt lat="46.69655" lon="0.44285">
        <ele>88.42797</ele>
        <time>2021-12-03T21:43:09.132Z</time>
      </trkpt>
      <trkpt lat="46.69838" lon="0.44427">
        <ele>86.223486</ele>
        <time>2021-12-03T21:43:54.121Z</time>
      </trkpt>
      <trkpt lat="46.69954" lon="0.44558">
        <ele>85.015719</ele>
        <time>2021-12-03T21:44:26.248Z</time>
      </trkpt>
      <trkpt lat="46.69884" lon="0.44797">
        <ele>83.805178</ele>
        <time>2021-12-03T21:45:03.225Z</time>
      </trkpt>
      <trkpt lat="46.69821" lon="0.45065">
        <ele>82.848792</ele>
        <time>2021-12-03T21:45:45.966Z</time>
      </trkpt>
      <trkpt lat="46.69814" lon="0.45125">
        <ele>82.642589</ele>
        <time>2021-12-03T21:45:54.930Z</time>
      </trkpt>
      <trkpt lat="46.69812" lon="0.45202">
        <ele>82.381441</ele>
        <time>2021-12-03T21:46:05.979Z</time>
      </trkpt>
      <trkpt lat="46.69807" lon="0.45684">
        <ele>80.003764</ele>
        <time>2021-12-03T21:47:14.842Z</time>
      </trkpt>
      <trkpt lat="46.69814" lon="0.45733">
        <ele>79.771911</ele>
        <time>2021-12-03T21:47:22.211Z</time>
      </trkpt>
      <trkpt lat="46.69843" lon="0.45853">
        <ele>79.574464</ele>
        <time>2021-12-03T21:47:41.290Z</time>
      </trkpt>
      <trkpt lat="46.69901" lon="0.45851">
        <ele>79.443319</ele>
        <time>2021-12-03T21:48:03.156Z</time>
      </trkpt>
      <trkpt lat="46.69968" lon="0.45861">
        <ele>79.46516</ele>
        <time>2021-12-03T21:48:28.720Z</time>
      </trkpt>
      <trkpt lat="46.70006" lon="0.45872">
        <ele>79.57483</ele>
        <time>2021-12-03T21:48:43.686Z</time>
      </trkpt>
      <trkpt lat="46.7013" lon="0.45935">
        <ele>79.916802</ele>
        <time>2021-12-03T21:49:37.084Z</time>
      </trkpt>
      <trkpt lat="46.70186" lon="0.45947">
        <ele>80.012727</ele>
        <time>2021-12-03T21:50:00.157Z</time>
      </trkpt>
      <trkpt lat="46.70259" lon="0.45952">
        <ele>80.13519</ele>
        <time>2021-12-03T21:50:28.571Z</time>
      </trkpt>
      <trkpt lat="46.70327" lon="0.45948">
        <ele>79.877669</ele>
        <time>2021-12-03T21:50:53.994Z</time>
      </trkpt>
      <trkpt lat="46.70472" lon="0.45903">
        <ele>78.803913</ele>
        <time>2021-12-03T21:51:46.163Z</time>
      </trkpt>
      <trkpt lat="46.70651" lon="0.45871">
        <ele>77.478619</ele>
        <time>2021-12-03T21:52:49.550Z</time>
      </trkpt>
      <trkpt lat="46.70544" lon="0.46045">
        <ele>78.308732</ele>
        <time>2021-12-03T21:53:58.611Z</time>
      </trkpt>
      <trkpt lat="46.70846" lon="0.46428">
        <ele>80.688367</ele>
        <time>2021-12-03T21:56:49.584Z</time>
      </trkpt>
      <trkpt lat="46.70951" lon="0.46594">
        <ele>79.646058</ele>
        <time>2021-12-03T21:57:44.003Z</time>
      </trkpt>
      <trkpt lat="46.70958" lon="0.4659">
        <ele>79.551282</ele>
        <time>2021-12-03T21:57:45.529Z</time>
      </trkpt>
      <trkpt lat="46.70963" lon="0.466">
        <ele>79.450539</ele>
        <time>2021-12-03T21:57:48.213Z</time>
      </trkpt>
      <trkpt lat="46.71231" lon="0.46849">
        <ele>75.653825</ele>
        <time>2021-12-03T21:59:37.578Z</time>
      </trkpt>
      <trkpt lat="46.71598" lon="0.47184">
        <ele>72.544958</ele>
        <time>2021-12-03T22:02:12.988Z</time>
      </trkpt>
      <trkpt lat="46.71596" lon="0.47258">
        <ele>72.386909</ele>
        <time>2021-12-03T22:02:24.535Z</time>
      </trkpt>
      <trkpt lat="46.71607" lon="0.47348">
        <ele>72.1891</ele>
        <time>2021-12-03T22:02:39.674Z</time>
      </trkpt>
      <trkpt lat="46.71597" lon="0.47385">
        <ele>72.454045</ele>
        <time>2021-12-03T22:02:46.290Z</time>
      </trkpt>
      <trkpt lat="46.71556" lon="0.47458">
        <ele>73.707643</ele>
        <time>2021-12-03T22:03:03.700Z</time>
      </trkpt>
      <trkpt lat="46.71581" lon="0.4752">
        <ele>74.651799</ele>
        <time>2021-12-03T22:03:20.591Z</time>
      </trkpt>
      <trkpt lat="46.71599" lon="0.47625">
        <ele>77.427753</ele>
        <time>2021-12-03T22:03:54.881Z</time>
      </trkpt>
      <trkpt lat="46.71738" lon="0.47654">
        <ele>87.717069</ele>
        <time>2021-12-03T22:05:56.499Z</time>
      </trkpt>
      <trkpt lat="46.71814" lon="0.47647">
        <ele>93.389346</ele>
        <time>2021-12-03T22:07:09.770Z</time>
      </trkpt>
      <trkpt lat="46.71869" lon="0.47649">
        <ele>97.429546</ele>
        <time>2021-12-03T22:07:56.062Z</time>
      </trkpt>
      <trkpt lat="46.7192" lon="0.47663">
        <ele>101.252525</ele>
        <time>2021-12-03T22:08:36.471Z</time>
      </trkpt>
      <trkpt lat="46.7194" lon="0.47679">
        <ele>102.428828</ele>
        <time>2021-12-03T22:08:51.730Z</time>
      </trkpt>
      <trkpt lat="46.71959" lon="0.47723">
        <ele>103.312391</ele>
        <time>2021-12-03T22:09:12.605Z</time>
      </trkpt>
      <trkpt lat="46.71984" lon="0.47752">
        <ele>104.089375</ele>
        <time>2021-12-03T22:09:29.125Z</time>
      </trkpt>
      <trkpt lat="46.72125" lon="0.47892">
        <ele>106.984747</ele>
        <time>2021-12-03T22:10:47.743Z</time>
      </trkpt>
      <trkpt lat="46.72197" lon="0.47941">
        <ele>107.428957</ele>
        <time>2021-12-03T22:11:21.168Z</time>
      </trkpt>
      <trkpt lat="46.72287" lon="0.48056">
        <ele>105.958341</ele>
        <time>2021-12-03T22:12:03.697Z</time>
      </trkpt>
      <trkpt lat="46.7234" lon="0.48139">
        <ele>104.515233</ele>
        <time>2021-12-03T22:12:28.564Z</time>
      </trkpt>
      <trkpt lat="46.72436" lon="0.48325">
        <ele>98.897448</ele>
        <time>2021-12-03T22:13:16.470Z</time>
      </trkpt>
      <trkpt lat="46.72463" lon="0.48455">
        <ele>96.072034</ele>
        <time>2021-12-03T22:13:44.740Z</time>
      </trkpt>
      <trkpt lat="46.72554" lon="0.48382">
        <ele>93.305985</ele>
        <time>2021-12-03T22:14:17.783Z</time>
      </trkpt>
      <trkpt lat="46.72719" lon="0.48236">
        <ele>90.526923</ele>
        <time>2021-12-03T22:15:24.073Z</time>
      </trkpt>
      <trkpt lat="46.72878" lon="0.47927">
        <ele>89.29035</ele>
        <time>2021-12-03T22:17:01.185Z</time>
      </trkpt>
      <trkpt lat="46.72919" lon="0.47961">
        <ele>89.1491</ele>
        <time>2021-12-03T22:17:12.360Z</time>
      </trkpt>
      <trkpt lat="46.73051" lon="0.48092">
        <ele>87.386139</ele>
        <time>2021-12-03T22:17:49.516Z</time>
      </trkpt>
      <trkpt lat="46.7312" lon="0.48167">
        <ele>85.687281</ele>
        <time>2021-12-03T22:18:05.747Z</time>
      </trkpt>
      <trkpt lat="46.73271" lon="0.48491">
        <ele>75.387539</ele>
        <time>2021-12-03T22:18:51.771Z</time>
      </trkpt>
      <trkpt lat="46.73342" lon="0.48647">
        <ele>72.957114</ele>
        <time>2021-12-03T22:19:21.174Z</time>
      </trkpt>
      <trkpt lat="46.73349" lon="0.48657">
        <ele>72.918391</ele>
        <time>2021-12-03T22:19:24.032Z</time>
      </trkpt>
      <trkpt lat="46.73365" lon="0.48664">
        <ele>72.849139</ele>
        <time>2021-12-03T22:19:29.076Z</time>
      </trkpt>
      <trkpt lat="46.73404" lon="0.4866">
        <ele>72.687433</ele>
        <time>2021-12-03T22:19:44.638Z</time>
      </trkpt>
      <trkpt lat="46.73468" lon="0.48537">
        <ele>72.078841</ele>
        <time>2021-12-03T22:20:21.454Z</time>
      </trkpt>
      <trkpt lat="46.73486" lon="0.48467">
        <ele>71.662424</ele>
        <time>2021-12-03T22:20:38.486Z</time>
      </trkpt>
      <trkpt lat="46.73511" lon="0.48424">
        <ele>71.34815</ele>
        <time>2021-12-03T22:20:52.149Z</time>
      </trkpt>
      <trkpt lat="46.73573" lon="0.48445">
        <ele>70.918908</ele>
        <time>2021-12-03T22:21:16.371Z</time>
      </trkpt>
      <trkpt lat="46.73622" lon="0.48471">
        <ele>70.80402</ele>
        <time>2021-12-03T22:21:38.022Z</time>
      </trkpt>
      <trkpt lat="46.73775" lon="0.48588">
        <ele>69.869128</ele>
        <time>2021-12-03T22:22:41.140Z</time>
      </trkpt>
      <trkpt lat="46.73881" lon="0.48685">
        <ele>68.455984</ele>
        <time>2021-12-03T22:23:23.727Z</time>
      </trkpt>
      <trkpt lat="46.73875" lon="0.48712">
        <ele>68.228646</ele>
        <time>2021-12-03T22:23:28.181Z</time>
      </trkpt>
      <trkpt lat="46.73853" lon="0.48767">
        <ele>67.732491</ele>
        <time>2021-12-03T22:23:36.812Z</time>
      </trkpt>
      <trkpt lat="46.73892" lon="0.48818">
        <ele>67.142318</ele>
        <time>2021-12-03T22:23:54.735Z</time>
      </trkpt>
      <trkpt lat="46.73915" lon="0.48836">
        <ele>66.846582</ele>
        <time>2021-12-03T22:24:04.360Z</time>
      </trkpt>
      <trkpt lat="46.73982" lon="0.48908">
        <ele>66.034618</ele>
        <time>2021-12-03T22:24:34.597Z</time>
      </trkpt>
      <trkpt lat="46.74036" lon="0.48951">
        <ele>65.496976</ele>
        <time>2021-12-03T22:24:55.757Z</time>
      </trkpt>
      <trkpt lat="46.7408" lon="0.49001">
        <ele>65.015471</ele>
        <time>2021-12-03T22:25:15.501Z</time>
      </trkpt>
      <trkpt lat="46.74101" lon="0.49036">
        <ele>64.827532</ele>
        <time>2021-12-03T22:25:27.033Z</time>
      </trkpt>
      <trkpt lat="46.74213" lon="0.4927">
        <ele>63.962481</ele>
        <time>2021-12-03T22:26:39.082Z</time>
      </trkpt>
      <trkpt lat="46.74347" lon="0.49401">
        <ele>63.39023</ele>
        <time>2021-12-03T22:27:15.797Z</time>
      </trkpt>
      <trkpt lat="46.74423" lon="0.49488">
        <ele>63.608958</ele>
        <time>2021-12-03T22:27:38.968Z</time>
      </trkpt>
      <trkpt lat="46.74458" lon="0.49917">
        <ele>66.14983</ele>
        <time>2021-12-03T22:29:48.913Z</time>
      </trkpt>
      <trkpt lat="46.74471" lon="0.49937">
        <ele>66.382547</ele>
        <time>2021-12-03T22:29:57.369Z</time>
      </trkpt>
      <trkpt lat="46.74528" lon="0.49995">
        <ele>67.259325</ele>
        <time>2021-12-03T22:30:29.868Z</time>
      </trkpt>
      <trkpt lat="46.74601" lon="0.50059">
        <ele>68.336049</ele>
        <time>2021-12-03T22:31:09.587Z</time>
      </trkpt>
      <trkpt lat="46.7462" lon="0.50067">
        <ele>68.578314</ele>
        <time>2021-12-03T22:31:18.501Z</time>
      </trkpt>
      <trkpt lat="46.74865" lon="0.50302">
        <ele>71.960222</ele>
        <time>2021-12-03T22:33:30.848Z</time>
      </trkpt>
      <trkpt lat="46.74902" lon="0.50318">
        <ele>72.235159</ele>
        <time>2021-12-03T22:33:46.947Z</time>
      </trkpt>
      <trkpt lat="46.75074" lon="0.5043">
        <ele>73.565159</ele>
        <time>2021-12-03T22:35:05.928Z</time>
      </trkpt>
      <trkpt lat="46.75192" lon="0.50518">
        <ele>74.573667</ele>
        <time>2021-12-03T22:36:03.123Z</time>
      </trkpt>
      <trkpt lat="46.75212" lon="0.50531">
        <ele>74.688714</ele>
        <time>2021-12-03T22:36:12.377Z</time>
      </trkpt>
      <trkpt lat="46.75267" lon="0.50597">
        <ele>75.038096</ele>
        <time>2021-12-03T22:36:41.974Z</time>
      </trkpt>
      <trkpt lat="46.75335" lon="0.50657">
        <ele>75.431925</ele>
        <time>2021-12-03T22:37:14.284Z</time>
      </trkpt>
      <trkpt lat="46.75429" lon="0.50755">
        <ele>75.627677</ele>
        <time>2021-12-03T22:37:59.455Z</time>
      </trkpt>
      <trkpt lat="46.75631" lon="0.50924">
        <ele>75.666858</ele>
        <time>2021-12-03T22:39:28.726Z</time>
      </trkpt>
      <trkpt lat="46.75921" lon="0.51155">
        <ele>73.715304</ele>
        <time>2021-12-03T22:41:30.321Z</time>
      </trkpt>
      <trkpt lat="46.75962" lon="0.512">
        <ele>73.196068</ele>
        <time>2021-12-03T22:41:47.211Z</time>
      </trkpt>
      <trkpt lat="46.76006" lon="0.51232">
        <ele>71.277946</ele>
        <time>2021-12-03T22:42:02.928Z</time>
      </trkpt>
      <trkpt lat="46.76134" lon="0.51298">
        <ele>66.010191</ele>
        <time>2021-12-03T22:42:42.917Z</time>
      </trkpt>
      <trkpt lat="46.76191" lon="0.51298">
        <ele>63.666041</ele>
        <time>2021-12-03T22:42:59.194Z</time>
      </trkpt>
      <trkpt lat="46.76242" lon="0.51321">
        <ele>61.482917</ele>
        <time>2021-12-03T22:43:08.341Z</time>
      </trkpt>
      <trkpt lat="46.76277" lon="0.51322">
        <ele>59.997926</ele>
        <time>2021-12-03T22:43:19.138Z</time>
      </trkpt>
      <trkpt lat="46.76401" lon="0.51298">
        <ele>57.016307</ele>
        <time>2021-12-03T22:43:58.865Z</time>
      </trkpt>
      <trkpt lat="46.76467" lon="0.51294">
        <ele>55.778889</ele>
        <time>2021-12-03T22:44:21.935Z</time>
      </trkpt>
      <trkpt lat="46.76598" lon="0.51343">
        <ele>54.823229</ele>
        <time>2021-12-03T22:45:10.927Z</time>
      </trkpt>
      <trkpt lat="46.76704" lon="0.51364">
        <ele>54.469263</ele>
        <time>2021-12-03T22:45:50.693Z</time>
      </trkpt>
      <trkpt lat="46.76793" lon="0.51392">
        <ele>54.41074</ele>
        <time>2021-12-03T22:46:12.524Z</time>
      </trkpt>
      <trkpt lat="46.76815" lon="0.51453">
        <ele>54.386711</ele>
        <time>2021-12-03T22:46:23.713Z</time>
      </trkpt>
      <trkpt lat="46.7684" lon="0.51505">
        <ele>54.456364</ele>
        <time>2021-12-03T22:46:34.091Z</time>
      </trkpt>
      <trkpt lat="46.76863" lon="0.51546">
        <ele>54.514907</ele>
        <time>2021-12-03T22:46:42.965Z</time>
      </trkpt>
      <trkpt lat="46.76865" lon="0.51549">
        <ele>54.520352</ele>
        <time>2021-12-03T22:46:43.804Z</time>
      </trkpt>
      <trkpt lat="46.76941" lon="0.51646">
        <ele>54.676248</ele>
        <time>2021-12-03T22:47:07.813Z</time>
      </trkpt>
      <trkpt lat="46.76988" lon="0.51751">
        <ele>54.746985</ele>
        <time>2021-12-03T22:47:28.645Z</time>
      </trkpt>
      <trkpt lat="46.77046" lon="0.51862">
        <ele>54.798587</ele>
        <time>2021-12-03T22:47:50.746Z</time>
      </trkpt>
      <trkpt lat="46.77122" lon="0.51967">
        <ele>54.545989</ele>
        <time>2021-12-03T22:48:14.011Z</time>
      </trkpt>
      <trkpt lat="46.77239" lon="0.5218">
        <ele>54.053201</ele>
        <time>2021-12-03T22:48:54.920Z</time>
      </trkpt>
      <trkpt lat="46.77299" lon="0.52262">
        <ele>53.881816</ele>
        <time>2021-12-03T22:49:13.435Z</time>
      </trkpt>
      <trkpt lat="46.77407" lon="0.5239">
        <ele>53.848075</ele>
        <time>2021-12-03T22:49:45.290Z</time>
      </trkpt>
      <trkpt lat="46.77454" lon="0.52474">
        <ele>53.912119</ele>
        <time>2021-12-03T22:50:02.831Z</time>
      </trkpt>
      <trkpt lat="46.77566" lon="0.52763">
        <ele>54.175531</ele>
        <time>2021-12-03T22:50:56.821Z</time>
      </trkpt>
      <trkpt lat="46.77586" lon="0.52938">
        <ele>54.22403</ele>
        <time>2021-12-03T22:51:25.547Z</time>
      </trkpt>
      <trkpt lat="46.77596" lon="0.52991">
        <ele>54.195748</ele>
        <time>2021-12-03T22:51:34.293Z</time>
      </trkpt>
      <trkpt lat="46.77609" lon="0.53053">
        <ele>54.162548</ele>
        <time>2021-12-03T22:51:44.346Z</time>
      </trkpt>
      <trkpt lat="46.77635" lon="0.53134">
        <ele>54.103897</ele>
        <time>2021-12-03T22:51:57.905Z</time>
      </trkpt>
      <trkpt lat="46.77574" lon="0.5326">
        <ele>53.860991</ele>
        <time>2021-12-03T22:52:21.232Z</time>
      </trkpt>
      <trkpt lat="46.77545" lon="0.53357">
        <ele>53.719222</ele>
        <time>2021-12-03T22:52:37.186Z</time>
      </trkpt>
      <trkpt lat="46.77641" lon="0.53323">
        <ele>53.841698</ele>
        <time>2021-12-03T22:53:02.314Z</time>
      </trkpt>
      <trkpt lat="46.77672" lon="0.53483">
        <ele>53.759182</ele>
        <time>2021-12-03T22:53:31.462Z</time>
      </trkpt>
      <trkpt lat="46.77814" lon="0.53435">
        <ele>53.093214</ele>
        <time>2021-12-03T22:54:02.437Z</time>
      </trkpt>
      <trkpt lat="46.77822" lon="0.53433">
        <ele>53.026899</ele>
        <time>2021-12-03T22:54:03.997Z</time>
      </trkpt>
      <trkpt lat="46.77865" lon="0.53413">
        <ele>52.648257</ele>
        <time>2021-12-03T22:54:13.082Z</time>
      </trkpt>
      <trkpt lat="46.77916" lon="0.53369">
        <ele>52.153542</ele>
        <time>2021-12-03T22:54:25.195Z</time>
      </trkpt>
      <trkpt lat="46.77918" lon="0.53388">
        <ele>52.040079</ele>
        <time>2021-12-03T22:54:29.918Z</time>
      </trkpt>
      <trkpt lat="46.77891" lon="0.53415">
        <ele>51.767484</ele>
        <time>2021-12-03T22:54:41.500Z</time>
      </trkpt>
      <trkpt lat="46.77885" lon="0.53441">
        <ele>51.61647</ele>
        <time>2021-12-03T22:54:48.182Z</time>
      </trkpt>
      <trkpt lat="46.77946" lon="0.53634">
        <ele>50.628891</ele>
        <time>2021-12-03T22:55:40.560Z</time>
      </trkpt>
      <trkpt lat="46.77964" lon="0.53674">
        <ele>50.405282</ele>
        <time>2021-12-03T22:55:52.570Z</time>
      </trkpt>
      <trkpt lat="46.78027" lon="0.53654">
        <ele>50.084145</ele>
        <time>2021-12-03T22:56:15.579Z</time>
      </trkpt>
      <trkpt lat="46.78031" lon="0.53681">
        <ele>49.987948</ele>
        <time>2021-12-03T22:56:22.560Z</time>
      </trkpt>
      <trkpt lat="46.78059" lon="0.53755">
        <ele>49.700067</ele>
        <time>2021-12-03T22:56:43.238Z</time>
      </trkpt>
      <trkpt lat="46.78073" lon="0.53779">
        <ele>49.589497</ele>
        <time>2021-12-03T22:56:51.191Z</time>
      </trkpt>
      <trkpt lat="46.78215" lon="0.53955">
        <ele>49.13104</ele>
        <time>2021-12-03T22:58:00.920Z</time>
      </trkpt>
      <trkpt lat="46.7823" lon="0.53962">
        <ele>49.114869</ele>
        <time>2021-12-03T22:58:07.062Z</time>
      </trkpt>
      <trkpt lat="46.78291" lon="0.53964">
        <ele>49.178283</ele>
        <time>2021-12-03T22:58:29.995Z</time>
      </trkpt>
      <trkpt lat="46.78304" lon="0.53972">
        <ele>49.192468</ele>
        <time>2021-12-03T22:58:35.191Z</time>
      </trkpt>
      <trkpt lat="46.78328" lon="0.54047">
        <ele>49.251701</ele>
        <time>2021-12-03T22:58:57.182Z</time>
      </trkpt>
      <trkpt lat="46.78339" lon="0.54036">
        <ele>49.265475</ele>
        <time>2021-12-03T22:59:02.506Z</time>
      </trkpt>
      <trkpt lat="46.78321" lon="0.53944">
        <ele>49.542983</ele>
        <time>2021-12-03T22:59:29.140Z</time>
      </trkpt>
      <trkpt lat="46.78319" lon="0.53905">
        <ele>49.727042</ele>
        <time>2021-12-03T22:59:40.271Z</time>
      </trkpt>
      <trkpt lat="46.78334" lon="0.53689">
        <ele>50.682292</ele>
        <time>2021-12-03T23:00:44.073Z</time>
      </trkpt>
      <trkpt lat="46.78328" lon="0.53648">
        <ele>50.815863</ele>
        <time>2021-12-03T23:00:56.435Z</time>
      </trkpt>
      <trkpt lat="46.7837" lon="0.53657">
        <ele>51.01149</ele>
        <time>2021-12-03T23:01:08.298Z</time>
      </trkpt>
      <trkpt lat="46.79103" lon="0.53746">
        <ele>51.877562</ele>
        <time>2021-12-03T23:04:11.149Z</time>
      </trkpt>
      <trkpt lat="46.79179" lon="0.53749">
        <ele>51.906801</ele>
        <time>2021-12-03T23:04:29.055Z</time>
      </trkpt>
      <trkpt lat="46.79245" lon="0.53729">
        <ele>52.067899</ele>
        <time>2021-12-03T23:04:45.544Z</time>
      </trkpt>
      <trkpt lat="46.79382" lon="0.53681">
        <ele>52.542451</ele>
        <time>2021-12-03T23:05:23.813Z</time>
      </trkpt>
      <trkpt lat="46.79378" lon="0.53659">
        <ele>52.63201</ele>
        <time>2021-12-03T23:05:30.378Z</time>
      </trkpt>
      <trkpt lat="46.79386" lon="0.53649">
        <ele>52.688471</ele>
        <time>2021-12-03T23:05:34.669Z</time>
      </trkpt>
      <trkpt lat="46.7943" lon="0.5363">
        <ele>52.95187</ele>
        <time>2021-12-03T23:05:50.445Z</time>
      </trkpt>
      <trkpt lat="46.79498" lon="0.53602">
        <ele>53.306261</ele>
        <time>2021-12-03T23:06:20.059Z</time>
      </trkpt>
      <trkpt lat="46.79505" lon="0.53614">
        <ele>53.291163</ele>
        <time>2021-12-03T23:06:24.276Z</time>
      </trkpt>
      <trkpt lat="46.79507" lon="0.53629">
        <ele>53.276763</ele>
        <time>2021-12-03T23:06:28.394Z</time>
      </trkpt>
      <trkpt lat="46.79553" lon="0.53611">
        <ele>53.210951</ele>
        <time>2021-12-03T23:06:40.234Z</time>
      </trkpt>
      <trkpt lat="46.79563" lon="0.53601">
        <ele>53.194751</ele>
        <time>2021-12-03T23:06:42.899Z</time>
      </trkpt>
      <trkpt lat="46.79583" lon="0.53589">
        <ele>53.165101</ele>
        <time>2021-12-03T23:06:47.839Z</time>
      </trkpt>
      <trkpt lat="46.79616" lon="0.53581">
        <ele>53.118283</ele>
        <time>2021-12-03T23:06:55.464Z</time>
      </trkpt>
      <trkpt lat="46.79622" lon="0.53579">
        <ele>53.109891</ele>
        <time>2021-12-03T23:06:56.915Z</time>
      </trkpt>
      <trkpt lat="46.79641" lon="0.53579">
        <ele>53.084332</ele>
        <time>2021-12-03T23:07:02.118Z</time>
      </trkpt>
      <trkpt lat="46.79696" lon="0.53539">
        <ele>53.062461</ele>
        <time>2021-12-03T23:07:20.531Z</time>
      </trkpt>
      <trkpt lat="46.7974" lon="0.53511">
        <ele>53.057846</ele>
        <time>2021-12-03T23:07:35.674Z</time>
      </trkpt>
      <trkpt lat="46.79757" lon="0.53503">
        <ele>53.056105</ele>
        <time>2021-12-03T23:07:41.313Z</time>
      </trkpt>
      <trkpt lat="46.79759" lon="0.53488">
        <ele>53.05516</ele>
        <time>2021-12-03T23:07:44.256Z</time>
      </trkpt>
      <trkpt lat="46.79764" lon="0.53486">
        <ele>53.054669</ele>
        <time>2021-12-03T23:07:45.418Z</time>
      </trkpt>
      <trkpt lat="46.79778" lon="0.53481">
        <ele>53.053295</ele>
        <time>2021-12-03T23:07:48.805Z</time>
      </trkpt>
      <trkpt lat="46.79813" lon="0.53466">
        <ele>53.049994</ele>
        <time>2021-12-03T23:07:57.889Z</time>
      </trkpt>
      <trkpt lat="46.79823" lon="0.53461">
        <ele>53.05016</ele>
        <time>2021-12-03T23:08:00.569Z</time>
      </trkpt>
      <trkpt lat="46.79851" lon="0.53445">
        <ele>53.050664</ele>
        <time>2021-12-03T23:08:08.457Z</time>
      </trkpt>
      <trkpt lat="46.7986" lon="0.53438">
        <ele>53.050826</ele>
        <time>2021-12-03T23:08:11.224Z</time>
      </trkpt>
      <trkpt lat="46.79868" lon="0.53436">
        <ele>53.050958</ele>
        <time>2021-12-03T23:08:13.315Z</time>
      </trkpt>
      <trkpt lat="46.79892" lon="0.53482">
        <ele>53.051621</ele>
        <time>2021-12-03T23:08:23.958Z</time>
      </trkpt>
      <trkpt lat="46.79913" lon="0.53552">
        <ele>53.052478</ele>
        <time>2021-12-03T23:08:36.457Z</time>
      </trkpt>
      <trkpt lat="46.79925" lon="0.53623">
        <ele>53.064621</ele>
        <time>2021-12-03T23:08:47.787Z</time>
      </trkpt>
      <trkpt lat="46.79953" lon="0.53713">
        <ele>53.099489</ele>
        <time>2021-12-03T23:09:02.681Z</time>
      </trkpt>
      <trkpt lat="46.79956" lon="0.53725">
        <ele>53.103982</ele>
        <time>2021-12-03T23:09:04.559Z</time>
      </trkpt>
      <trkpt lat="46.80043" lon="0.53887">
        <ele>53.822256</ele>
        <time>2021-12-03T23:09:46.238Z</time>
      </trkpt>
      <trkpt lat="46.80044" lon="0.53889">
        <ele>53.836433</ele>
        <time>2021-12-03T23:09:46.602Z</time>
      </trkpt>
      <trkpt lat="46.80068" lon="0.53922">
        <ele>54.20876</ele>
        <time>2021-12-03T23:09:56.690Z</time>
      </trkpt>
      <trkpt lat="46.80097" lon="0.53968">
        <ele>54.691281</ele>
        <time>2021-12-03T23:10:10.862Z</time>
      </trkpt>
      <trkpt lat="46.80105" lon="0.53982">
        <ele>54.828977</ele>
        <time>2021-12-03T23:10:14.785Z</time>
      </trkpt>
      <trkpt lat="46.80113" lon="0.53999">
        <ele>54.986158</ele>
        <time>2021-12-03T23:10:19.575Z</time>
      </trkpt>
      <trkpt lat="46.80114" lon="0.54023">
        <ele>55.167454</ele>
        <time>2021-12-03T23:10:25.055Z</time>
      </trkpt>
      <trkpt lat="46.80157" lon="0.5407">
        <ele>55.460879</ele>
        <time>2021-12-03T23:10:41.948Z</time>
      </trkpt>
      <trkpt lat="46.80219" lon="0.54105">
        <ele>55.834488</ele>
        <time>2021-12-03T23:10:57.408Z</time>
      </trkpt>
      <trkpt lat="46.80225" lon="0.54107">
        <ele>55.864718</ele>
        <time>2021-12-03T23:10:58.573Z</time>
      </trkpt>
      <trkpt lat="46.8023" lon="0.54108">
        <ele>55.895508</ele>
        <time>2021-12-03T23:10:59.774Z</time>
      </trkpt>
      <trkpt lat="46.80235" lon="0.54117">
        <ele>55.938508</ele>
        <time>2021-12-03T23:11:01.477Z</time>
      </trkpt>
      <trkpt lat="46.80239" lon="0.54115">
        <ele>55.966168</ele>
        <time>2021-12-03T23:11:02.538Z</time>
      </trkpt>
      <trkpt lat="46.80245" lon="0.54114">
        <ele>56.000133</ele>
        <time>2021-12-03T23:11:04.087Z</time>
      </trkpt>
      <trkpt lat="46.8025" lon="0.54113">
        <ele>56.029373</ele>
        <time>2021-12-03T23:11:05.422Z</time>
      </trkpt>
      <trkpt lat="46.80287" lon="0.5412">
        <ele>56.238949</ele>
        <time>2021-12-03T23:11:15.023Z</time>
      </trkpt>
      <trkpt lat="46.80296" lon="0.54122">
        <ele>56.292349</ele>
        <time>2021-12-03T23:11:17.434Z</time>
      </trkpt>
      <trkpt lat="46.80426" lon="0.54147">
        <ele>57.055062</ele>
        <time>2021-12-03T23:11:52.660Z</time>
      </trkpt>
      <trkpt lat="46.80433" lon="0.54152">
        <ele>57.100346</ele>
        <time>2021-12-03T23:11:54.982Z</time>
      </trkpt>
      <trkpt lat="46.80441" lon="0.54154">
        <ele>57.148274</ele>
        <time>2021-12-03T23:11:57.187Z</time>
      </trkpt>
      <trkpt lat="46.80451" lon="0.54151">
        <ele>57.209772</ele>
        <time>2021-12-03T23:11:59.723Z</time>
      </trkpt>
      <trkpt lat="46.80469" lon="0.54158">
        <ele>57.344005</ele>
        <time>2021-12-03T23:12:05.068Z</time>
      </trkpt>
      <trkpt lat="46.80496" lon="0.54192">
        <ele>57.60701</ele>
        <time>2021-12-03T23:12:14.601Z</time>
      </trkpt>
      <trkpt lat="46.80505" lon="0.54216">
        <ele>57.741092</ele>
        <time>2021-12-03T23:12:19.103Z</time>
      </trkpt>
      <trkpt lat="46.80509" lon="0.54244">
        <ele>57.887915</ele>
        <time>2021-12-03T23:12:24.844Z</time>
      </trkpt>
      <trkpt lat="46.80506" lon="0.54258">
        <ele>57.959193</ele>
        <time>2021-12-03T23:12:27.177Z</time>
      </trkpt>
      <trkpt lat="46.80505" lon="0.54263">
        <ele>57.983356</ele>
        <time>2021-12-03T23:12:27.949Z</time>
      </trkpt>
      <trkpt lat="46.80511" lon="0.54269">
        <ele>58.037251</ele>
        <time>2021-12-03T23:12:29.976Z</time>
      </trkpt>
      <trkpt lat="46.80514" lon="0.54267">
        <ele>58.061718</ele>
        <time>2021-12-03T23:12:31.037Z</time>
      </trkpt>
      <trkpt lat="46.80523" lon="0.54269">
        <ele>58.128949</ele>
        <time>2021-12-03T23:12:34.091Z</time>
      </trkpt>
      <trkpt lat="46.80568" lon="0.54278">
        <ele>58.463425</ele>
        <time>2021-12-03T23:12:47.232Z</time>
      </trkpt>
      <trkpt lat="46.80574" lon="0.54279">
        <ele>58.5031</ele>
        <time>2021-12-03T23:12:48.615Z</time>
      </trkpt>
      <trkpt lat="46.80583" lon="0.54279">
        <ele>58.559593</ele>
        <time>2021-12-03T23:12:51.044Z</time>
      </trkpt>
      <trkpt lat="46.80592" lon="0.54278">
        <ele>58.616238</ele>
        <time>2021-12-03T23:12:53.981Z</time>
      </trkpt>
      <trkpt lat="46.80651" lon="0.5429">
        <ele>58.982343</ele>
        <time>2021-12-03T23:13:09.358Z</time>
      </trkpt>
      <trkpt lat="46.8065" lon="0.54297">
        <ele>59.015218</ele>
        <time>2021-12-03T23:13:10.908Z</time>
      </trkpt>
      <trkpt lat="46.80648" lon="0.54316">
        <ele>59.094115</ele>
        <time>2021-12-03T23:13:14.634Z</time>
      </trkpt>
      <trkpt lat="46.80677" lon="0.5432">
        <ele>59.272165</ele>
        <time>2021-12-03T23:13:24.293Z</time>
      </trkpt>
      <trkpt lat="46.80692" lon="0.54341">
        <ele>59.398287</ele>
        <time>2021-12-03T23:13:31.071Z</time>
      </trkpt>
      <trkpt lat="46.80752" lon="0.54351">
        <ele>59.684459</ele>
        <time>2021-12-03T23:13:51.513Z</time>
      </trkpt>
      <trkpt lat="46.80765" lon="0.54336">
        <ele>59.727519</ele>
        <time>2021-12-03T23:13:57.067Z</time>
      </trkpt>
      <trkpt lat="46.80775" lon="0.54336">
        <ele>59.751714</ele>
        <time>2021-12-03T23:14:00.398Z</time>
      </trkpt>
      <trkpt lat="46.80784" lon="0.54342">
        <ele>59.777727</ele>
        <time>2021-12-03T23:14:03.836Z</time>
      </trkpt>
      <trkpt lat="46.8079" lon="0.54359">
        <ele>59.810558</ele>
        <time>2021-12-03T23:14:08.076Z</time>
      </trkpt>
      <trkpt lat="46.80811" lon="0.54362">
        <ele>59.86226</ele>
        <time>2021-12-03T23:14:12.821Z</time>
      </trkpt>
      <trkpt lat="46.80824" lon="0.54364">
        <ele>59.895303</ele>
        <time>2021-12-03T23:14:16.076Z</time>
      </trkpt>
      <trkpt lat="46.80832" lon="0.54366">
        <ele>59.91579</ele>
        <time>2021-12-03T23:14:17.993Z</time>
      </trkpt>
      <trkpt lat="46.80831" lon="0.54377">
        <ele>59.935274</ele>
        <time>2021-12-03T23:14:20.288Z</time>
      </trkpt>
      <trkpt lat="46.80978" lon="0.54407">
        <ele>60.310327</ele>
        <time>2021-12-03T23:15:06.616Z</time>
      </trkpt>
      <trkpt lat="46.80982" lon="0.54363">
        <ele>60.38613</ele>
        <time>2021-12-03T23:15:16.367Z</time>
      </trkpt>
      <trkpt lat="46.80983" lon="0.54353">
        <ele>60.40439</ele>
        <time>2021-12-03T23:15:18.668Z</time>
      </trkpt>
      <trkpt lat="46.80995" lon="0.54355">
        <ele>60.435575</ele>
        <time>2021-12-03T23:15:21.781Z</time>
      </trkpt>
      <trkpt lat="46.81013" lon="0.54358">
        <ele>60.481229</ele>
        <time>2021-12-03T23:15:26.332Z</time>
      </trkpt>
      <trkpt lat="46.81036" lon="0.54363">
        <ele>60.541788</ele>
        <time>2021-12-03T23:15:32.177Z</time>
      </trkpt>
      <trkpt lat="46.8105" lon="0.54365">
        <ele>60.588094</ele>
        <time>2021-12-03T23:15:35.760Z</time>
      </trkpt>
      <trkpt lat="46.81137" lon="0.54383">
        <ele>60.868799</ele>
        <time>2021-12-03T23:15:57.444Z</time>
      </trkpt>
      <trkpt lat="46.81136" lon="0.54391">
        <ele>60.888356</ele>
        <time>2021-12-03T23:15:58.982Z</time>
      </trkpt>
      <trkpt lat="46.81134" lon="0.54414">
        <ele>60.939229</ele>
        <time>2021-12-03T23:16:02.954Z</time>
      </trkpt>
      <trkpt lat="46.81128" lon="0.54477">
        <ele>61.078646</ele>
        <time>2021-12-03T23:16:13.766Z</time>
      </trkpt>
      <trkpt lat="46.81134" lon="0.54483">
        <ele>61.1019</ele>
        <time>2021-12-03T23:16:15.679Z</time>
      </trkpt>
      <trkpt lat="46.812" lon="0.54483">
        <ele>61.307361</ele>
        <time>2021-12-03T23:16:32.100Z</time>
      </trkpt>
      <trkpt lat="46.81238" lon="0.54487">
        <ele>61.429265</ele>
        <time>2021-12-03T23:16:41.861Z</time>
      </trkpt>
      <trkpt lat="46.81245" lon="0.54488">
        <ele>61.449364</ele>
        <time>2021-12-03T23:16:43.512Z</time>
      </trkpt>
      <trkpt lat="46.81269" lon="0.54499">
        <ele>61.528299</ele>
        <time>2021-12-03T23:16:49.936Z</time>
      </trkpt>
      <trkpt lat="46.81302" lon="0.54513">
        <ele>61.637517</ele>
        <time>2021-12-03T23:16:58.725Z</time>
      </trkpt>
      <trkpt lat="46.81351" lon="0.54535">
        <ele>61.538177</ele>
        <time>2021-12-03T23:17:10.936Z</time>
      </trkpt>
      <trkpt lat="46.81371" lon="0.54544">
        <ele>61.461183</ele>
        <time>2021-12-03T23:17:15.671Z</time>
      </trkpt>
      <trkpt lat="46.8139" lon="0.54544">
        <ele>61.395957</ele>
        <time>2021-12-03T23:17:19.658Z</time>
      </trkpt>
      <trkpt lat="46.81424" lon="0.54532">
        <ele>61.269738</ele>
        <time>2021-12-03T23:17:27.212Z</time>
      </trkpt>
      <trkpt lat="46.81472" lon="0.54513">
        <ele>61.090219</ele>
        <time>2021-12-03T23:17:37.722Z</time>
      </trkpt>
      <trkpt lat="46.81475" lon="0.54508">
        <ele>61.071023</ele>
        <time>2021-12-03T23:17:38.801Z</time>
      </trkpt>
      <trkpt lat="46.81497" lon="0.5451">
        <ele>60.941557</ele>
        <time>2021-12-03T23:17:43.300Z</time>
      </trkpt>
      <trkpt lat="46.81508" lon="0.54517">
        <ele>60.830959</ele>
        <time>2021-12-03T23:17:45.846Z</time>
      </trkpt>
      <trkpt lat="46.81519" lon="0.54527">
        <ele>60.722216</ele>
        <time>2021-12-03T23:17:48.411Z</time>
      </trkpt>
      <trkpt lat="46.81528" lon="0.54526">
        <ele>60.640566</ele>
        <time>2021-12-03T23:17:50.261Z</time>
      </trkpt>
      <trkpt lat="46.81551" lon="0.54546">
        <ele>60.40479</ele>
        <time>2021-12-03T23:17:55.671Z</time>
      </trkpt>
      <trkpt lat="46.8156" lon="0.54551">
        <ele>60.319845</ele>
        <time>2021-12-03T23:17:57.550Z</time>
      </trkpt>
      <trkpt lat="46.81571" lon="0.54556">
        <ele>60.210875</ele>
        <time>2021-12-03T23:17:59.985Z</time>
      </trkpt>
      <trkpt lat="46.81585" lon="0.54548">
        <ele>60.077815</ele>
        <time>2021-12-03T23:18:04.054Z</time>
      </trkpt>
      <trkpt lat="46.81619" lon="0.54553">
        <ele>59.779314</ele>
        <time>2021-12-03T23:18:13.149Z</time>
      </trkpt>
      <trkpt lat="46.81667" lon="0.5456">
        <ele>59.387149</ele>
        <time>2021-12-03T23:18:26.560Z</time>
      </trkpt>
      <trkpt lat="46.81676" lon="0.54562">
        <ele>59.338415</ele>
        <time>2021-12-03T23:18:29.342Z</time>
      </trkpt>
      <trkpt lat="46.81723" lon="0.54569">
        <ele>59.090597</ele>
        <time>2021-12-03T23:18:43.231Z</time>
      </trkpt>
      <trkpt lat="46.81777" lon="0.54576">
        <ele>58.811156</ele>
        <time>2021-12-03T23:18:58.492Z</time>
      </trkpt>
      <trkpt lat="46.81775" lon="0.54594">
        <ele>58.745882</ele>
        <time>2021-12-03T23:19:01.262Z</time>
      </trkpt>
      <trkpt lat="46.8184" lon="0.54603">
        <ele>58.409199</ele>
        <time>2021-12-03T23:19:15.096Z</time>
      </trkpt>
      <trkpt lat="46.81847" lon="0.54604">
        <ele>58.374449</ele>
        <time>2021-12-03T23:19:16.666Z</time>
      </trkpt>
      <trkpt lat="46.81905" lon="0.54613">
        <ele>58.078572</ele>
        <time>2021-12-03T23:19:29.246Z</time>
      </trkpt>
      <trkpt lat="46.81912" lon="0.54605">
        <ele>58.031522</ele>
        <time>2021-12-03T23:19:31.350Z</time>
      </trkpt>
      <trkpt lat="46.81913" lon="0.54601">
        <ele>58.016003</ele>
        <time>2021-12-03T23:19:32.068Z</time>
      </trkpt>
      <trkpt lat="46.81914" lon="0.54589">
        <ele>57.974287</ele>
        <time>2021-12-03T23:19:33.866Z</time>
      </trkpt>
      <trkpt lat="46.81916" lon="0.5457">
        <ele>57.908717</ele>
        <time>2021-12-03T23:19:36.630Z</time>
      </trkpt>
      <trkpt lat="46.81916" lon="0.54563">
        <ele>57.883825</ele>
        <time>2021-12-03T23:19:37.677Z</time>
      </trkpt>
      <trkpt lat="46.81985" lon="0.54523">
        <ele>57.474984</ele>
        <time>2021-12-03T23:19:54.086Z</time>
      </trkpt>
      <trkpt lat="46.8206" lon="0.54478">
        <ele>56.885886</ele>
        <time>2021-12-03T23:20:11.929Z</time>
      </trkpt>
      <trkpt lat="46.82075" lon="0.54454">
        <ele>56.72473</ele>
        <time>2021-12-03T23:20:16.855Z</time>
      </trkpt>
      <trkpt lat="46.82095" lon="0.54448">
        <ele>56.575828</ele>
        <time>2021-12-03T23:20:21.185Z</time>
      </trkpt>
      <trkpt lat="46.821" lon="0.54451">
        <ele>56.53395</ele>
        <time>2021-12-03T23:20:22.412Z</time>
      </trkpt>
      <trkpt lat="46.82109" lon="0.54444">
        <ele>56.457669</ele>
        <time>2021-12-03T23:20:24.584Z</time>
      </trkpt>
      <trkpt lat="46.82143" lon="0.54447">
        <ele>56.208345</ele>
        <time>2021-12-03T23:20:31.838Z</time>
      </trkpt>
      <trkpt lat="46.8215" lon="0.54448">
        <ele>56.164758</ele>
        <time>2021-12-03T23:20:33.145Z</time>
      </trkpt>
      <trkpt lat="46.82175" lon="0.54451">
        <ele>55.984888</ele>
        <time>2021-12-03T23:20:38.427Z</time>
      </trkpt>
      <trkpt lat="46.82194" lon="0.54453">
        <ele>55.852799</ele>
        <time>2021-12-03T23:20:42.306Z</time>
      </trkpt>
      <trkpt lat="46.8228" lon="0.54465">
        <ele>55.244095</ele>
        <time>2021-12-03T23:21:00.193Z</time>
      </trkpt>
      <trkpt lat="46.82382" lon="0.54483">
        <ele>54.87428</ele>
        <time>2021-12-03T23:21:22.643Z</time>
      </trkpt>
      <trkpt lat="46.82397" lon="0.54485">
        <ele>54.842948</ele>
        <time>2021-12-03T23:21:26.121Z</time>
      </trkpt>
      <trkpt lat="46.82451" lon="0.54492">
        <ele>54.736125</ele>
        <time>2021-12-03T23:21:38.027Z</time>
      </trkpt>
      <trkpt lat="46.82467" lon="0.54502">
        <ele>54.700819</ele>
        <time>2021-12-03T23:21:42.043Z</time>
      </trkpt>
      <trkpt lat="46.82469" lon="0.54507">
        <ele>54.692178</ele>
        <time>2021-12-03T23:21:43.107Z</time>
      </trkpt>
      <trkpt lat="46.82477" lon="0.54512">
        <ele>54.674416</ele>
        <time>2021-12-03T23:21:45.215Z</time>
      </trkpt>
      <trkpt lat="46.82485" lon="0.54505">
        <ele>54.655674</ele>
        <time>2021-12-03T23:21:47.277Z</time>
      </trkpt>
      <trkpt lat="46.82495" lon="0.54502">
        <ele>54.660258</ele>
        <time>2021-12-03T23:21:49.737Z</time>
      </trkpt>
      <trkpt lat="46.82529" lon="0.54499">
        <ele>54.688906</ele>
        <time>2021-12-03T23:21:57.855Z</time>
      </trkpt>
      <trkpt lat="46.82785" lon="0.54545">
        <ele>54.771232</ele>
        <time>2021-12-03T23:22:59.062Z</time>
      </trkpt>
      <trkpt lat="46.82795" lon="0.54547">
        <ele>54.768284</ele>
        <time>2021-12-03T23:23:01.421Z</time>
      </trkpt>
      <trkpt lat="46.82908" lon="0.54567">
        <ele>54.475994</ele>
        <time>2021-12-03T23:23:26.409Z</time>
      </trkpt>
      <trkpt lat="46.82952" lon="0.54575">
        <ele>54.28708</ele>
        <time>2021-12-03T23:23:35.896Z</time>
      </trkpt>
      <trkpt lat="46.83031" lon="0.54589">
        <ele>53.943444</ele>
        <time>2021-12-03T23:23:52.745Z</time>
      </trkpt>
      <trkpt lat="46.83227" lon="0.54624">
        <ele>53.0408</ele>
        <time>2021-12-03T23:24:35.246Z</time>
      </trkpt>
      <trkpt lat="46.83228" lon="0.54624">
        <ele>53.036067</ele>
        <time>2021-12-03T23:24:35.534Z</time>
      </trkpt>
      <trkpt lat="46.83232" lon="0.54625">
        <ele>53.020867</ele>
        <time>2021-12-03T23:24:36.459Z</time>
      </trkpt>
      <trkpt lat="46.83386" lon="0.54652">
        <ele>52.499173</ele>
        <time>2021-12-03T23:25:10.189Z</time>
      </trkpt>
      <trkpt lat="46.83386" lon="0.54655">
        <ele>52.50285</ele>
        <time>2021-12-03T23:25:10.815Z</time>
      </trkpt>
      <trkpt lat="46.83415" lon="0.54659">
        <ele>52.545415</ele>
        <time>2021-12-03T23:25:17.890Z</time>
      </trkpt>
      <trkpt lat="46.83446" lon="0.54663">
        <ele>52.590305</ele>
        <time>2021-12-03T23:25:25.285Z</time>
      </trkpt>
      <trkpt lat="46.83493" lon="0.54677">
        <ele>52.658554</ele>
        <time>2021-12-03T23:25:37.216Z</time>
      </trkpt>
      <trkpt lat="46.83535" lon="0.54689">
        <ele>52.720329</ele>
        <time>2021-12-03T23:25:48.069Z</time>
      </trkpt>
      <trkpt lat="46.83604" lon="0.547">
        <ele>52.976601</ele>
        <time>2021-12-03T23:26:06.628Z</time>
      </trkpt>
      <trkpt lat="46.8363" lon="0.54708">
        <ele>53.099347</ele>
        <time>2021-12-03T23:26:14.169Z</time>
      </trkpt>
      <trkpt lat="46.83668" lon="0.54719">
        <ele>53.276644</ele>
        <time>2021-12-03T23:26:24.709Z</time>
      </trkpt>
      <trkpt lat="46.83702" lon="0.54729">
        <ele>53.434637</ele>
        <time>2021-12-03T23:26:33.844Z</time>
      </trkpt>
      <trkpt lat="46.83773" lon="0.5475">
        <ele>53.575684</ele>
        <time>2021-12-03T23:26:50.938Z</time>
      </trkpt>
      <trkpt lat="46.83811" lon="0.54759">
        <ele>53.582473</ele>
        <time>2021-12-03T23:26:59.416Z</time>
      </trkpt>
      <trkpt lat="46.83869" lon="0.54744">
        <ele>53.592984</ele>
        <time>2021-12-03T23:27:12.934Z</time>
      </trkpt>
      <trkpt lat="46.83899" lon="0.54738">
        <ele>53.598326</ele>
        <time>2021-12-03T23:27:20.021Z</time>
      </trkpt>
      <trkpt lat="46.83919" lon="0.54741">
        <ele>53.608725</ele>
        <time>2021-12-03T23:27:24.793Z</time>
      </trkpt>
      <trkpt lat="46.83969" lon="0.54778">
        <ele>53.656721</ele>
        <time>2021-12-03T23:27:37.614Z</time>
      </trkpt>
      <trkpt lat="46.83989" lon="0.548">
        <ele>53.677985</ele>
        <time>2021-12-03T23:27:43.401Z</time>
      </trkpt>
      <trkpt lat="46.83994" lon="0.54821">
        <ele>53.691005</ele>
        <time>2021-12-03T23:27:47.070Z</time>
      </trkpt>
      <trkpt lat="46.84006" lon="0.54834">
        <ele>53.704081</ele>
        <time>2021-12-03T23:27:50.724Z</time>
      </trkpt>
      <trkpt lat="46.84015" lon="0.54881">
        <ele>53.732639</ele>
        <time>2021-12-03T23:27:58.877Z</time>
      </trkpt>
      <trkpt lat="46.8402" lon="0.54894">
        <ele>53.741032</ele>
        <time>2021-12-03T23:28:01.199Z</time>
      </trkpt>
      <trkpt lat="46.84023" lon="0.54896">
        <ele>53.743784</ele>
        <time>2021-12-03T23:28:01.999Z</time>
      </trkpt>
      <trkpt lat="46.8404" lon="0.54903">
        <ele>53.747755</ele>
        <time>2021-12-03T23:28:06.344Z</time>
      </trkpt>
      <trkpt lat="46.84064" lon="0.54895">
        <ele>53.725888</ele>
        <time>2021-12-03T23:28:12.430Z</time>
      </trkpt>
      <trkpt lat="46.84067" lon="0.54912">
        <ele>53.714842</ele>
        <time>2021-12-03T23:28:16.521Z</time>
      </trkpt>
      <trkpt lat="46.84072" lon="0.54914">
        <ele>53.71067</ele>
        <time>2021-12-03T23:28:18.009Z</time>
      </trkpt>
      <trkpt lat="46.84078" lon="0.54917">
        <ele>53.704491</ele>
        <time>2021-12-03T23:28:20.135Z</time>
      </trkpt>
      <trkpt lat="46.84085" lon="0.54919">
        <ele>53.698126</ele>
        <time>2021-12-03T23:28:22.414Z</time>
      </trkpt>
      <trkpt lat="46.84099" lon="0.54924">
        <ele>53.685783</ele>
        <time>2021-12-03T23:28:26.806Z</time>
      </trkpt>
      <trkpt lat="46.84113" lon="0.5493">
        <ele>53.672983</ele>
        <time>2021-12-03T23:28:31.182Z</time>
      </trkpt>
      <trkpt lat="46.84124" lon="0.54933">
        <ele>53.662914</ele>
        <time>2021-12-03T23:28:34.573Z</time>
      </trkpt>
      <trkpt lat="46.84138" lon="0.54937">
        <ele>53.650655</ele>
        <time>2021-12-03T23:28:38.750Z</time>
      </trkpt>
      <trkpt lat="46.84152" lon="0.54941">
        <ele>53.637671</ele>
        <time>2021-12-03T23:28:43.005Z</time>
      </trkpt>
      <trkpt lat="46.84167" lon="0.54945">
        <ele>53.625055</ele>
        <time>2021-12-03T23:28:47.198Z</time>
      </trkpt>
      <trkpt lat="46.84181" lon="0.54949">
        <ele>53.611941</ele>
        <time>2021-12-03T23:28:51.520Z</time>
      </trkpt>
      <trkpt lat="46.84195" lon="0.54952">
        <ele>53.599801</ele>
        <time>2021-12-03T23:28:55.504Z</time>
      </trkpt>
      <trkpt lat="46.84209" lon="0.54956">
        <ele>53.546828</ele>
        <time>2021-12-03T23:28:59.636Z</time>
      </trkpt>
      <trkpt lat="46.84223" lon="0.5496">
        <ele>53.467894</ele>
        <time>2021-12-03T23:29:03.805Z</time>
      </trkpt>
      <trkpt lat="46.84236" lon="0.54964">
        <ele>53.393607</ele>
        <time>2021-12-03T23:29:07.720Z</time>
      </trkpt>
      <trkpt lat="46.84251" lon="0.54969">
        <ele>53.31325</ele>
        <time>2021-12-03T23:29:11.945Z</time>
      </trkpt>
      <trkpt lat="46.84266" lon="0.54974">
        <ele>53.231967</ele>
        <time>2021-12-03T23:29:16.154Z</time>
      </trkpt>
      <trkpt lat="46.84279" lon="0.54978">
        <ele>53.158948</ele>
        <time>2021-12-03T23:29:19.969Z</time>
      </trkpt>
      <trkpt lat="46.8429" lon="0.54981">
        <ele>53.096159</ele>
        <time>2021-12-03T23:29:23.209Z</time>
      </trkpt>
      <trkpt lat="46.84296" lon="0.54932">
        <ele>52.912102</ele>
        <time>2021-12-03T23:29:32.771Z</time>
      </trkpt>
      <trkpt lat="46.84335" lon="0.54943">
        <ele>52.701325</ele>
        <time>2021-12-03T23:29:41.407Z</time>
      </trkpt>
      <trkpt lat="46.84399" lon="0.54975">
        <ele>52.665085</ele>
        <time>2021-12-03T23:29:57.211Z</time>
      </trkpt>
      <trkpt lat="46.84401" lon="0.54977">
        <ele>52.667708</ele>
        <time>2021-12-03T23:29:57.934Z</time>
      </trkpt>
      <trkpt lat="46.84463" lon="0.5501">
        <ele>52.724622</ele>
        <time>2021-12-03T23:30:14.170Z</time>
      </trkpt>
      <trkpt lat="46.84489" lon="0.55019">
        <ele>52.748231</ele>
        <time>2021-12-03T23:30:21.354Z</time>
      </trkpt>
      <trkpt lat="46.84503" lon="0.55023">
        <ele>52.760958</ele>
        <time>2021-12-03T23:30:25.229Z</time>
      </trkpt>
      <trkpt lat="46.84511" lon="0.55025">
        <ele>52.768202</ele>
        <time>2021-12-03T23:30:27.483Z</time>
      </trkpt>
      <trkpt lat="46.84512" lon="0.55008">
        <ele>52.781884</ele>
        <time>2021-12-03T23:30:31.413Z</time>
      </trkpt>
      <trkpt lat="46.84582" lon="0.5501">
        <ele>52.97627</ele>
        <time>2021-12-03T23:30:55.195Z</time>
      </trkpt>
      <trkpt lat="46.84582" lon="0.55026">
        <ele>53.008032</ele>
        <time>2021-12-03T23:30:58.944Z</time>
      </trkpt>
      <trkpt lat="46.84608" lon="0.55027">
        <ele>53.079782</ele>
        <time>2021-12-03T23:31:05.825Z</time>
      </trkpt>
      <trkpt lat="46.84645" lon="0.55028">
        <ele>53.184096</ele>
        <time>2021-12-03T23:31:15.065Z</time>
      </trkpt>
      <trkpt lat="46.84713" lon="0.55047">
        <ele>53.194474</ele>
        <time>2021-12-03T23:31:31.585Z</time>
      </trkpt>
      <trkpt lat="46.8476" lon="0.55061">
        <ele>53.087615</ele>
        <time>2021-12-03T23:31:42.937Z</time>
      </trkpt>
      <trkpt lat="46.84803" lon="0.55073">
        <ele>52.990324</ele>
        <time>2021-12-03T23:31:53.013Z</time>
      </trkpt>
      <trkpt lat="46.84847" lon="0.55085">
        <ele>52.890082</ele>
        <time>2021-12-03T23:32:03.349Z</time>
      </trkpt>
      <trkpt lat="46.84877" lon="0.55093">
        <ele>52.804884</ele>
        <time>2021-12-03T23:32:10.443Z</time>
      </trkpt>
      <trkpt lat="46.85064" lon="0.55145">
        <ele>52.142318</ele>
        <time>2021-12-03T23:32:54.913Z</time>
      </trkpt>
      <trkpt lat="46.85176" lon="0.55176">
        <ele>51.462145</ele>
        <time>2021-12-03T23:33:20.096Z</time>
      </trkpt>
      <trkpt lat="46.85166" lon="0.55318">
        <ele>51.259252</ele>
        <time>2021-12-03T23:33:41.054Z</time>
      </trkpt>
      <trkpt lat="46.8518" lon="0.55329">
        <ele>51.256969</ele>
        <time>2021-12-03T23:33:44.733Z</time>
      </trkpt>
      <trkpt lat="46.85523" lon="0.55406">
        <ele>51.809234</ele>
        <time>2021-12-03T23:35:15.975Z</time>
      </trkpt>
      <trkpt lat="46.85821" lon="0.555">
        <ele>51.242409</ele>
        <time>2021-12-03T23:36:26.851Z</time>
      </trkpt>
      <trkpt lat="46.85825" lon="0.55522">
        <ele>51.234248</ele>
        <time>2021-12-03T23:36:31.157Z</time>
      </trkpt>
      <trkpt lat="46.85878" lon="0.55598">
        <ele>51.195059</ele>
        <time>2021-12-03T23:36:49.542Z</time>
      </trkpt>
      <trkpt lat="46.85953" lon="0.55672">
        <ele>51.070846</ele>
        <time>2021-12-03T23:37:11.225Z</time>
      </trkpt>
      <trkpt lat="46.86014" lon="0.55697">
        <ele>50.695205</ele>
        <time>2021-12-03T23:37:25.461Z</time>
      </trkpt>
      <trkpt lat="46.86203" lon="0.557">
        <ele>49.580785</ele>
        <time>2021-12-03T23:38:07.150Z</time>
      </trkpt>
      <trkpt lat="46.8624" lon="0.55695">
        <ele>49.361819</ele>
        <time>2021-12-03T23:38:15.608Z</time>
      </trkpt>
      <trkpt lat="46.86294" lon="0.5566">
        <ele>49.030635</ele>
        <time>2021-12-03T23:38:29.088Z</time>
      </trkpt>
      <trkpt lat="46.86315" lon="0.55663">
        <ele>48.998841</ele>
        <time>2021-12-03T23:38:34.005Z</time>
      </trkpt>
      <trkpt lat="46.86514" lon="0.55828">
        <ele>48.931274</ele>
        <time>2021-12-03T23:39:28.985Z</time>
      </trkpt>
      <trkpt lat="46.86605" lon="0.55916">
        <ele>49.175626</ele>
        <time>2021-12-03T23:39:57.721Z</time>
      </trkpt>
      <trkpt lat="46.86626" lon="0.55963">
        <ele>49.312301</ele>
        <time>2021-12-03T23:40:08.499Z</time>
      </trkpt>
      <trkpt lat="46.86619" lon="0.56004">
        <ele>49.41408</ele>
        <time>2021-12-03T23:40:16.536Z</time>
      </trkpt>
      <trkpt lat="46.866" lon="0.56069">
        <ele>49.585768</ele>
        <time>2021-12-03T23:40:29.346Z</time>
      </trkpt>
      <trkpt lat="46.86604" lon="0.56112">
        <ele>49.688629</ele>
        <time>2021-12-03T23:40:36.779Z</time>
      </trkpt>
      <trkpt lat="46.86623" lon="0.56147">
        <ele>49.797523</ele>
        <time>2021-12-03T23:40:44.604Z</time>
      </trkpt>
      <trkpt lat="46.8669" lon="0.56174">
        <ele>49.757178</ele>
        <time>2021-12-03T23:41:01.743Z</time>
      </trkpt>
      <trkpt lat="46.86693" lon="0.56166">
        <ele>49.752978</ele>
        <time>2021-12-03T23:41:03.217Z</time>
      </trkpt>
      <trkpt lat="46.86696" lon="0.56157">
        <ele>49.748678</ele>
        <time>2021-12-03T23:41:04.842Z</time>
      </trkpt>
      <trkpt lat="46.86901" lon="0.56302">
        <ele>49.288235</ele>
        <time>2021-12-03T23:41:58.584Z</time>
      </trkpt>
      <trkpt lat="46.8691" lon="0.56296">
        <ele>49.259089</ele>
        <time>2021-12-03T23:42:00.822Z</time>
      </trkpt>
      <trkpt lat="46.86927" lon="0.56314">
        <ele>49.196375</ele>
        <time>2021-12-03T23:42:05.334Z</time>
      </trkpt>
      <trkpt lat="46.86943" lon="0.56316">
        <ele>49.144494</ele>
        <time>2021-12-03T23:42:09.283Z</time>
      </trkpt>
      <trkpt lat="46.86962" lon="0.56327">
        <ele>49.090668</ele>
        <time>2021-12-03T23:42:13.735Z</time>
      </trkpt>
      <trkpt lat="46.8709" lon="0.56451">
        <ele>48.700357</ele>
        <time>2021-12-03T23:42:49.163Z</time>
      </trkpt>
      <trkpt lat="46.87089" lon="0.56459">
        <ele>48.686409</ele>
        <time>2021-12-03T23:42:50.428Z</time>
      </trkpt>
      <trkpt lat="46.87093" lon="0.56466">
        <ele>48.680581</ele>
        <time>2021-12-03T23:42:52.222Z</time>
      </trkpt>
      <trkpt lat="46.87173" lon="0.56582">
        <ele>49.168624</ele>
        <time>2021-12-03T23:43:22.965Z</time>
      </trkpt>
      <trkpt lat="46.87291" lon="0.56664">
        <ele>49.848126</ele>
        <time>2021-12-03T23:43:59.124Z</time>
      </trkpt>
      <trkpt lat="46.87318" lon="0.56671">
        <ele>50.017606</ele>
        <time>2021-12-03T23:44:06.912Z</time>
      </trkpt>
      <trkpt lat="46.87356" lon="0.5666">
        <ele>50.249301</ele>
        <time>2021-12-03T23:44:17.874Z</time>
      </trkpt>
      <trkpt lat="46.87375" lon="0.56661">
        <ele>50.365507</ele>
        <time>2021-12-03T23:44:23.244Z</time>
      </trkpt>
      <trkpt lat="46.87425" lon="0.56694">
        <ele>50.642657</ele>
        <time>2021-12-03T23:44:38.510Z</time>
      </trkpt>
      <trkpt lat="46.87443" lon="0.56707">
        <ele>50.719252</ele>
        <time>2021-12-03T23:44:43.861Z</time>
      </trkpt>
      <trkpt lat="46.87446" lon="0.56709">
        <ele>50.731509</ele>
        <time>2021-12-03T23:44:44.759Z</time>
      </trkpt>
      <trkpt lat="46.87469" lon="0.56717">
        <ele>50.824691</ele>
        <time>2021-12-03T23:44:51.150Z</time>
      </trkpt>
      <trkpt lat="46.8749" lon="0.56716">
        <ele>50.90447</ele>
        <time>2021-12-03T23:44:56.812Z</time>
      </trkpt>
      <trkpt lat="46.87549" lon="0.56699">
        <ele>51.139362</ele>
        <time>2021-12-03T23:45:12.973Z</time>
      </trkpt>
      <trkpt lat="46.87566" lon="0.56704">
        <ele>51.209006</ele>
        <time>2021-12-03T23:45:17.459Z</time>
      </trkpt>
      <trkpt lat="46.87587" lon="0.56729">
        <ele>51.165126</ele>
        <time>2021-12-03T23:45:23.999Z</time>
      </trkpt>
      <trkpt lat="46.87604" lon="0.56717">
        <ele>51.081649</ele>
        <time>2021-12-03T23:45:28.470Z</time>
      </trkpt>
      <trkpt lat="46.87618" lon="0.56719">
        <ele>51.019212</ele>
        <time>2021-12-03T23:45:31.801Z</time>
      </trkpt>
      <trkpt lat="46.87637" lon="0.56706">
        <ele>50.929547</ele>
        <time>2021-12-03T23:45:36.539Z</time>
      </trkpt>
      <trkpt lat="46.87646" lon="0.56708">
        <ele>50.886687</ele>
        <time>2021-12-03T23:45:38.766Z</time>
      </trkpt>
      <trkpt lat="46.87651" lon="0.56711">
        <ele>50.8632</ele>
        <time>2021-12-03T23:45:39.959Z</time>
      </trkpt>
      <trkpt lat="46.8766" lon="0.56716">
        <ele>50.821772</ele>
        <time>2021-12-03T23:45:42.068Z</time>
      </trkpt>
      <trkpt lat="46.87718" lon="0.56756">
        <ele>50.540073</ele>
        <time>2021-12-03T23:45:56.380Z</time>
      </trkpt>
      <trkpt lat="46.87733" lon="0.56775">
        <ele>50.45127</ele>
        <time>2021-12-03T23:46:00.824Z</time>
      </trkpt>
      <trkpt lat="46.87746" lon="0.56816">
        <ele>50.199821</ele>
        <time>2021-12-03T23:46:07.454Z</time>
      </trkpt>
      <trkpt lat="46.87758" lon="0.56833">
        <ele>50.063727</ele>
        <time>2021-12-03T23:46:11.046Z</time>
      </trkpt>
      <trkpt lat="46.8783" lon="0.56925">
        <ele>49.284288</ele>
        <time>2021-12-03T23:46:32.020Z</time>
      </trkpt>
      <trkpt lat="46.87878" lon="0.56921">
        <ele>48.954534</ele>
        <time>2021-12-03T23:46:42.759Z</time>
      </trkpt>
      <trkpt lat="46.87909" lon="0.56916">
        <ele>48.859533</ele>
        <time>2021-12-03T23:46:49.592Z</time>
      </trkpt>
      <trkpt lat="46.87915" lon="0.56914">
        <ele>48.840579</ele>
        <time>2021-12-03T23:46:50.954Z</time>
      </trkpt>
      <trkpt lat="46.87927" lon="0.56912">
        <ele>48.804252</ele>
        <time>2021-12-03T23:46:53.621Z</time>
      </trkpt>
      <trkpt lat="46.87928" lon="0.56928">
        <ele>48.771823</ele>
        <time>2021-12-03T23:46:55.956Z</time>
      </trkpt>
      <trkpt lat="46.87931" lon="0.56971">
        <ele>48.680332</ele>
        <time>2021-12-03T23:47:02.736Z</time>
      </trkpt>
      <trkpt lat="46.8794" lon="0.56991">
        <ele>48.629769</ele>
        <time>2021-12-03T23:47:06.504Z</time>
      </trkpt>
      <trkpt lat="46.87958" lon="0.5702">
        <ele>48.546614</ele>
        <time>2021-12-03T23:47:13.022Z</time>
      </trkpt>
      <trkpt lat="46.87981" lon="0.57054">
        <ele>48.44733</ele>
        <time>2021-12-03T23:47:21.177Z</time>
      </trkpt>
      <trkpt lat="46.87988" lon="0.57064">
        <ele>48.461195</ele>
        <time>2021-12-03T23:47:23.711Z</time>
      </trkpt>
      <trkpt lat="46.88006" lon="0.5709">
        <ele>48.556993</ele>
        <time>2021-12-03T23:47:30.233Z</time>
      </trkpt>
      <trkpt lat="46.88017" lon="0.57107">
        <ele>48.621833</ele>
        <time>2021-12-03T23:47:34.582Z</time>
      </trkpt>
      <trkpt lat="46.88059" lon="0.57168">
        <ele>48.846673</ele>
        <time>2021-12-03T23:47:50.477Z</time>
      </trkpt>
      <trkpt lat="46.88076" lon="0.57177">
        <ele>48.915829</ele>
        <time>2021-12-03T23:47:55.435Z</time>
      </trkpt>
      <trkpt lat="46.88159" lon="0.57177">
        <ele>49.161377</ele>
        <time>2021-12-03T23:48:17.940Z</time>
      </trkpt>
      <trkpt lat="46.88161" lon="0.57177">
        <ele>49.163667</ele>
        <time>2021-12-03T23:48:18.417Z</time>
      </trkpt>
      <trkpt lat="46.88229" lon="0.57175">
        <ele>49.250446</ele>
        <time>2021-12-03T23:48:35.662Z</time>
      </trkpt>
      <trkpt lat="46.88259" lon="0.57175">
        <ele>49.28849</ele>
        <time>2021-12-03T23:48:42.829Z</time>
      </trkpt>
      <trkpt lat="46.88379" lon="0.57174">
        <ele>49.363655</ele>
        <time>2021-12-03T23:49:11.872Z</time>
      </trkpt>
      <trkpt lat="46.88409" lon="0.57188">
        <ele>49.367805</ele>
        <time>2021-12-03T23:49:19.348Z</time>
      </trkpt>
      <trkpt lat="46.88553" lon="0.574">
        <ele>49.381874</ele>
        <time>2021-12-03T23:50:10.102Z</time>
      </trkpt>
      <trkpt lat="46.8859" lon="0.57409">
        <ele>49.382834</ele>
        <time>2021-12-03T23:50:18.807Z</time>
      </trkpt>
      <trkpt lat="46.88626" lon="0.57406">
        <ele>49.323045</ele>
        <time>2021-12-03T23:50:27.273Z</time>
      </trkpt>
      <trkpt lat="46.88668" lon="0.5743">
        <ele>49.168454</ele>
        <time>2021-12-03T23:50:37.709Z</time>
      </trkpt>
      <trkpt lat="46.88719" lon="0.57415">
        <ele>48.988258</ele>
        <time>2021-12-03T23:50:49.733Z</time>
      </trkpt>
      <trkpt lat="46.88751" lon="0.57416">
        <ele>48.878272</ele>
        <time>2021-12-03T23:50:57.083Z</time>
      </trkpt>
      <trkpt lat="46.88786" lon="0.57401">
        <ele>48.763568</ele>
        <time>2021-12-03T23:51:05.328Z</time>
      </trkpt>
      <trkpt lat="46.88805" lon="0.574">
        <ele>48.741293</ele>
        <time>2021-12-03T23:51:09.927Z</time>
      </trkpt>
      <trkpt lat="46.88893" lon="0.57431">
        <ele>48.640106</ele>
        <time>2021-12-03T23:51:31.314Z</time>
      </trkpt>
      <trkpt lat="46.88941" lon="0.57455">
        <ele>48.582959</ele>
        <time>2021-12-03T23:51:43.641Z</time>
      </trkpt>
      <trkpt lat="46.88974" lon="0.57461">
        <ele>48.620091</ele>
        <time>2021-12-03T23:51:51.910Z</time>
      </trkpt>
      <trkpt lat="46.89006" lon="0.57481">
        <ele>48.729785</ele>
        <time>2021-12-03T23:52:00.686Z</time>
      </trkpt>
      <trkpt lat="46.89038" lon="0.57485">
        <ele>48.829801</ele>
        <time>2021-12-03T23:52:08.907Z</time>
      </trkpt>
      <trkpt lat="46.89104" lon="0.57517">
        <ele>49.047133</ele>
        <time>2021-12-03T23:52:27.767Z</time>
      </trkpt>
      <trkpt lat="46.89135" lon="0.57524">
        <ele>49.143401</ele>
        <time>2021-12-03T23:52:36.333Z</time>
      </trkpt>
      <trkpt lat="46.8915" lon="0.5753">
        <ele>49.185953</ele>
        <time>2021-12-03T23:52:40.614Z</time>
      </trkpt>
      <trkpt lat="46.89157" lon="0.57556">
        <ele>49.236589</ele>
        <time>2021-12-03T23:52:45.570Z</time>
      </trkpt>
      <trkpt lat="46.89142" lon="0.5764">
        <ele>49.397206</ele>
        <time>2021-12-03T23:53:01.224Z</time>
      </trkpt>
      <trkpt lat="46.89139" lon="0.57665">
        <ele>49.44431</ele>
        <time>2021-12-03T23:53:05.634Z</time>
      </trkpt>
      <trkpt lat="46.89151" lon="0.57684">
        <ele>49.491776</ele>
        <time>2021-12-03T23:53:10.113Z</time>
      </trkpt>
      <trkpt lat="46.89184" lon="0.57693">
        <ele>49.58262</ele>
        <time>2021-12-03T23:53:18.448Z</time>
      </trkpt>
      <trkpt lat="46.8926" lon="0.57736">
        <ele>49.481367</ele>
        <time>2021-12-03T23:53:37.949Z</time>
      </trkpt>
      <trkpt lat="46.89346" lon="0.5777">
        <ele>49.303779</ele>
        <time>2021-12-03T23:53:58.665Z</time>
      </trkpt>
      <trkpt lat="46.8939" lon="0.57771">
        <ele>49.20838</ele>
        <time>2021-12-03T23:54:08.942Z</time>
      </trkpt>
      <trkpt lat="46.89467" lon="0.57792">
        <ele>49.026592</ele>
        <time>2021-12-03T23:54:27.242Z</time>
      </trkpt>
      <trkpt lat="46.89516" lon="0.57823">
        <ele>48.902141</ele>
        <time>2021-12-03T23:54:39.839Z</time>
      </trkpt>
      <trkpt lat="46.8955" lon="0.57835">
        <ele>48.818524</ele>
        <time>2021-12-03T23:54:48.251Z</time>
      </trkpt>
      <trkpt lat="46.89575" lon="0.57855">
        <ele>48.751291</ele>
        <time>2021-12-03T23:54:54.982Z</time>
      </trkpt>
      <trkpt lat="46.89596" lon="0.57857">
        <ele>48.702579</ele>
        <time>2021-12-03T23:54:59.816Z</time>
      </trkpt>
      <trkpt lat="46.89607" lon="0.57861">
        <ele>48.675175</ele>
        <time>2021-12-03T23:55:02.557Z</time>
      </trkpt>
      <trkpt lat="46.89632" lon="0.57758">
        <ele>48.499794</ele>
        <time>2021-12-03T23:55:24.425Z</time>
      </trkpt>
      <trkpt lat="46.89645" lon="0.57681">
        <ele>48.353765</ele>
        <time>2021-12-03T23:55:40.259Z</time>
      </trkpt>
      <trkpt lat="46.89718" lon="0.5742">
        <ele>47.667522</ele>
        <time>2021-12-03T23:56:36.590Z</time>
      </trkpt>
      <trkpt lat="46.8973" lon="0.57405">
        <ele>47.597084</ele>
        <time>2021-12-03T23:56:41.083Z</time>
      </trkpt>
      <trkpt lat="46.89742" lon="0.57406">
        <ele>47.541462</ele>
        <time>2021-12-03T23:56:44.725Z</time>
      </trkpt>
      <trkpt lat="46.89762" lon="0.57419">
        <ele>47.443382</ele>
        <time>2021-12-03T23:56:50.965Z</time>
      </trkpt>
      <trkpt lat="46.89772" lon="0.57408">
        <ele>47.386167</ele>
        <time>2021-12-03T23:56:54.746Z</time>
      </trkpt>
      <trkpt lat="46.89778" lon="0.57387">
        <ele>47.314539</ele>
        <time>2021-12-03T23:56:59.218Z</time>
      </trkpt>
      <trkpt lat="46.8981" lon="0.57405">
        <ele>47.159734</ele>
        <time>2021-12-03T23:57:08.985Z</time>
      </trkpt>
      <trkpt lat="46.89836" lon="0.57408">
        <ele>47.041113</ele>
        <time>2021-12-03T23:57:16.596Z</time>
      </trkpt>
      <trkpt lat="46.89859" lon="0.57423">
        <ele>46.934063</ele>
        <time>2021-12-03T23:57:23.820Z</time>
      </trkpt>
      <trkpt lat="46.89903" lon="0.57434">
        <ele>46.754252</ele>
        <time>2021-12-03T23:57:36.652Z</time>
      </trkpt>
      <trkpt lat="46.89927" lon="0.57452">
        <ele>46.646574</ele>
        <time>2021-12-03T23:57:44.160Z</time>
      </trkpt>
      <trkpt lat="46.89933" lon="0.57454">
        <ele>46.620761</ele>
        <time>2021-12-03T23:57:46.002Z</time>
      </trkpt>
      <trkpt lat="46.89942" lon="0.57457">
        <ele>46.584532</ele>
        <time>2021-12-03T23:57:48.504Z</time>
      </trkpt>
      <trkpt lat="46.8995" lon="0.57448">
        <ele>46.543383</ele>
        <time>2021-12-03T23:57:51.420Z</time>
      </trkpt>
      <trkpt lat="46.89962" lon="0.57449">
        <ele>46.491907</ele>
        <time>2021-12-03T23:57:55.171Z</time>
      </trkpt>
      <trkpt lat="46.90002" lon="0.57475">
        <ele>46.316039</ele>
        <time>2021-12-03T23:58:08.002Z</time>
      </trkpt>
      <trkpt lat="46.90011" lon="0.57462">
        <ele>46.271559</ele>
        <time>2021-12-03T23:58:11.589Z</time>
      </trkpt>
      <trkpt lat="46.9002" lon="0.57468">
        <ele>46.305507</ele>
        <time>2021-12-03T23:58:14.057Z</time>
      </trkpt>
      <trkpt lat="46.90052" lon="0.57491">
        <ele>46.425761</ele>
        <time>2021-12-03T23:58:22.778Z</time>
      </trkpt>
      <trkpt lat="46.90104" lon="0.5753">
        <ele>46.619107</ele>
        <time>2021-12-03T23:58:37.995Z</time>
      </trkpt>
      <trkpt lat="46.90129" lon="0.57552">
        <ele>46.718155</ele>
        <time>2021-12-03T23:58:46.111Z</time>
      </trkpt>
      <trkpt lat="46.90232" lon="0.57634">
        <ele>47.371714</ele>
        <time>2021-12-03T23:59:19.575Z</time>
      </trkpt>
      <trkpt lat="46.90236" lon="0.57637">
        <ele>47.399596</ele>
        <time>2021-12-03T23:59:20.695Z</time>
      </trkpt>
      <trkpt lat="46.90324" lon="0.57707">
        <ele>48.099326</ele>
        <time>2021-12-03T23:59:49.635Z</time>
      </trkpt>
      <trkpt lat="46.90344" lon="0.57721">
        <ele>48.196859</ele>
        <time>2021-12-03T23:59:55.865Z</time>
      </trkpt>
      <trkpt lat="46.9048" lon="0.57837">
        <ele>48.800009</ele>
        <time>2021-12-04T00:00:37.203Z</time>
      </trkpt>
      <trkpt lat="46.90586" lon="0.57928">
        <ele>49.18834</ele>
        <time>2021-12-04T00:01:09.471Z</time>
      </trkpt>
      <trkpt lat="46.90627" lon="0.57965">
        <ele>49.342139</ele>
        <time>2021-12-04T00:01:22.397Z</time>
      </trkpt>
      <trkpt lat="46.90654" lon="0.58029">
        <ele>49.376481</ele>
        <time>2021-12-04T00:01:35.281Z</time>
      </trkpt>
      <trkpt lat="46.90685" lon="0.58026">
        <ele>49.373215</ele>
        <time>2021-12-04T00:01:43.191Z</time>
      </trkpt>
      <trkpt lat="46.90706" lon="0.58034">
        <ele>49.370977</ele>
        <time>2021-12-04T00:01:48.575Z</time>
      </trkpt>
      <trkpt lat="46.90866" lon="0.58169">
        <ele>49.25547</ele>
        <time>2021-12-04T00:02:31.774Z</time>
      </trkpt>
      <trkpt lat="46.9107" lon="0.58405">
        <ele>49.358189</ele>
        <time>2021-12-04T00:03:36.368Z</time>
      </trkpt>
      <trkpt lat="46.9121" lon="0.58583">
        <ele>49.824172</ele>
        <time>2021-12-04T00:04:24.498Z</time>
      </trkpt>
      <trkpt lat="46.91266" lon="0.5864">
        <ele>49.855746</ele>
        <time>2021-12-04T00:04:41.431Z</time>
      </trkpt>
      <trkpt lat="46.91278" lon="0.58652">
        <ele>49.862318</ele>
        <time>2021-12-04T00:04:44.867Z</time>
      </trkpt>
      <trkpt lat="46.91378" lon="0.58774">
        <ele>49.934702</ele>
        <time>2021-12-04T00:05:16.185Z</time>
      </trkpt>
      <trkpt lat="46.91486" lon="0.58904">
        <ele>50.049844</ele>
        <time>2021-12-04T00:05:51.192Z</time>
      </trkpt>
      <trkpt lat="46.91625" lon="0.59077">
        <ele>50.503163</ele>
        <time>2021-12-04T00:06:38.182Z</time>
      </trkpt>
      <trkpt lat="46.91637" lon="0.59089">
        <ele>50.546511</ele>
        <time>2021-12-04T00:06:42.052Z</time>
      </trkpt>
      <trkpt lat="46.91658" lon="0.59122">
        <ele>50.638348</ele>
        <time>2021-12-04T00:06:49.982Z</time>
      </trkpt>
      <trkpt lat="46.91771" lon="0.59261">
        <ele>51.08215</ele>
        <time>2021-12-04T00:07:28.533Z</time>
      </trkpt>
      <trkpt lat="46.91805" lon="0.59293">
        <ele>51.198624</ele>
        <time>2021-12-04T00:07:38.915Z</time>
      </trkpt>
      <trkpt lat="46.9199" lon="0.59514">
        <ele>51.54564</ele>
        <time>2021-12-04T00:08:40.991Z</time>
      </trkpt>
      <trkpt lat="46.9237" lon="0.59887">
        <ele>49.638172</ele>
        <time>2021-12-04T00:10:24.772Z</time>
      </trkpt>
      <trkpt lat="46.92521" lon="0.60047">
        <ele>49.314546</ele>
        <time>2021-12-04T00:11:09.091Z</time>
      </trkpt>
      <trkpt lat="46.92538" lon="0.60091">
        <ele>49.283067</ele>
        <time>2021-12-04T00:11:17.376Z</time>
      </trkpt>
      <trkpt lat="46.92547" lon="0.60102">
        <ele>49.271948</ele>
        <time>2021-12-04T00:11:20.499Z</time>
      </trkpt>
      <trkpt lat="46.92567" lon="0.60094">
        <ele>49.252712</ele>
        <time>2021-12-04T00:11:25.434Z</time>
      </trkpt>
      <trkpt lat="46.92627" lon="0.60143">
        <ele>49.189294</ele>
        <time>2021-12-04T00:11:41.989Z</time>
      </trkpt>
      <trkpt lat="46.92777" lon="0.60293">
        <ele>48.941362</ele>
        <time>2021-12-04T00:12:25.026Z</time>
      </trkpt>
      <trkpt lat="46.9279" lon="0.60335">
        <ele>48.910907</ele>
        <time>2021-12-04T00:12:32.658Z</time>
      </trkpt>
      <trkpt lat="46.92798" lon="0.60332">
        <ele>48.904144</ele>
        <time>2021-12-04T00:12:34.718Z</time>
      </trkpt>
      <trkpt lat="46.92802" lon="0.6034">
        <ele>48.898503</ele>
        <time>2021-12-04T00:12:36.246Z</time>
      </trkpt>
      <trkpt lat="46.92807" lon="0.60346">
        <ele>48.892867</ele>
        <time>2021-12-04T00:12:37.766Z</time>
      </trkpt>
      <trkpt lat="46.92824" lon="0.60351">
        <ele>48.878679</ele>
        <time>2021-12-04T00:12:41.629Z</time>
      </trkpt>
      <trkpt lat="46.92837" lon="0.60341">
        <ele>48.86672</ele>
        <time>2021-12-04T00:12:44.924Z</time>
      </trkpt>
      <trkpt lat="46.92844" lon="0.60343">
        <ele>48.860468</ele>
        <time>2021-12-04T00:12:46.618Z</time>
      </trkpt>
      <trkpt lat="46.92882" lon="0.6038">
        <ele>48.822377</ele>
        <time>2021-12-04T00:12:57.465Z</time>
      </trkpt>
      <trkpt lat="46.92925" lon="0.60411">
        <ele>48.782044</ele>
        <time>2021-12-04T00:13:08.961Z</time>
      </trkpt>
      <trkpt lat="46.92935" lon="0.60416">
        <ele>48.754326</ele>
        <time>2021-12-04T00:13:11.628Z</time>
      </trkpt>
      <trkpt lat="46.93128" lon="0.60472">
        <ele>48.187529</ele>
        <time>2021-12-04T00:13:57.400Z</time>
      </trkpt>
      <trkpt lat="46.93186" lon="0.60484">
        <ele>47.989548</ele>
        <time>2021-12-04T00:14:10.977Z</time>
      </trkpt>
      <trkpt lat="46.93221" lon="0.605">
        <ele>47.866368</ele>
        <time>2021-12-04T00:14:19.384Z</time>
      </trkpt>
      <trkpt lat="46.93316" lon="0.60529">
        <ele>47.568941</ele>
        <time>2021-12-04T00:14:41.489Z</time>
      </trkpt>
      <trkpt lat="46.93545" lon="0.60595">
        <ele>47.446964</ele>
        <time>2021-12-04T00:15:36.808Z</time>
      </trkpt>
      <trkpt lat="46.93555" lon="0.60593">
        <ele>47.474593</ele>
        <time>2021-12-04T00:15:39.568Z</time>
      </trkpt>
      <trkpt lat="46.93568" lon="0.60596">
        <ele>47.508289</ele>
        <time>2021-12-04T00:15:42.969Z</time>
      </trkpt>
      <trkpt lat="46.93598" lon="0.60605">
        <ele>47.591927</ele>
        <time>2021-12-04T00:15:51.172Z</time>
      </trkpt>
      <trkpt lat="46.93641" lon="0.60612">
        <ele>47.751223</ele>
        <time>2021-12-04T00:16:03.094Z</time>
      </trkpt>
      <trkpt lat="46.93723" lon="0.60633">
        <ele>48.350464</ele>
        <time>2021-12-04T00:16:27.203Z</time>
      </trkpt>
      <trkpt lat="46.93755" lon="0.60643">
        <ele>48.582798</ele>
        <time>2021-12-04T00:16:36.438Z</time>
      </trkpt>
      <trkpt lat="46.93762" lon="0.60765">
        <ele>49.067858</ele>
        <time>2021-12-04T00:16:58.738Z</time>
      </trkpt>
      <trkpt lat="46.93761" lon="0.60851">
        <ele>49.255322</ele>
        <time>2021-12-04T00:17:13.817Z</time>
      </trkpt>
      <trkpt lat="46.93761" lon="0.60865">
        <ele>49.286268</ele>
        <time>2021-12-04T00:17:16.317Z</time>
      </trkpt>
      <trkpt lat="46.9376" lon="0.60869">
        <ele>49.295625</ele>
        <time>2021-12-04T00:17:17.417Z</time>
      </trkpt>
      <trkpt lat="46.93731" lon="0.60864">
        <ele>49.388818</ele>
        <time>2021-12-04T00:17:28.959Z</time>
      </trkpt>
      <trkpt lat="46.9373" lon="0.60884">
        <ele>49.433318</ele>
        <time>2021-12-04T00:17:32.456Z</time>
      </trkpt>
      <trkpt lat="46.93762" lon="0.60893">
        <ele>49.53647</ele>
        <time>2021-12-04T00:17:45.266Z</time>
      </trkpt>
      <trkpt lat="46.93758" lon="0.61033">
        <ele>50.073832</ele>
        <time>2021-12-04T00:18:10.780Z</time>
      </trkpt>
      <trkpt lat="46.93756" lon="0.61121">
        <ele>50.420129</ele>
        <time>2021-12-04T00:18:27.279Z</time>
      </trkpt>
      <trkpt lat="46.93776" lon="0.6133">
        <ele>51.328254</ele>
        <time>2021-12-04T00:19:08.065Z</time>
      </trkpt>
      <trkpt lat="46.93769" lon="0.61416">
        <ele>51.713457</ele>
        <time>2021-12-04T00:19:23.771Z</time>
      </trkpt>
      <trkpt lat="46.94087" lon="0.61272">
        <ele>51.926709</ele>
        <time>2021-12-04T00:20:38.132Z</time>
      </trkpt>
      <trkpt lat="46.94115" lon="0.61267">
        <ele>51.995499</ele>
        <time>2021-12-04T00:20:46.449Z</time>
      </trkpt>
      <trkpt lat="46.94135" lon="0.61264">
        <ele>52.459485</ele>
        <time>2021-12-04T00:20:56.160Z</time>
      </trkpt>
      <trkpt lat="46.94157" lon="0.6127">
        <ele>53.05917</ele>
        <time>2021-12-04T00:21:06.936Z</time>
      </trkpt>
      <trkpt lat="46.94394" lon="0.61485">
        <ele>60.519796</ele>
        <time>2021-12-04T00:23:47.297Z</time>
      </trkpt>
      <trkpt lat="46.94772" lon="0.61622">
        <ele>64.208656</ele>
        <time>2021-12-04T00:26:42.270Z</time>
      </trkpt>
      <trkpt lat="46.94789" lon="0.6164">
        <ele>63.861189</ele>
        <time>2021-12-04T00:26:48.547Z</time>
      </trkpt>
      <trkpt lat="46.94854" lon="0.61564">
        <ele>60.233136</ele>
        <time>2021-12-04T00:27:02.813Z</time>
      </trkpt>
      <trkpt lat="46.94916" lon="0.61431">
        <ele>55.71668</ele>
        <time>2021-12-04T00:27:21.245Z</time>
      </trkpt>
      <trkpt lat="46.94944" lon="0.61394">
        <ele>54.592255</ele>
        <time>2021-12-04T00:27:27.891Z</time>
      </trkpt>
      <trkpt lat="46.95018" lon="0.6138">
        <ele>52.334951</ele>
        <time>2021-12-04T00:27:42.251Z</time>
      </trkpt>
      <trkpt lat="46.95047" lon="0.61313">
        <ele>50.826077</ele>
        <time>2021-12-04T00:27:53.067Z</time>
      </trkpt>
      <trkpt lat="46.95088" lon="0.61246">
        <ele>49.876508</ele>
        <time>2021-12-04T00:28:05.614Z</time>
      </trkpt>
      <trkpt lat="46.95191" lon="0.61109">
        <ele>47.909483</ele>
        <time>2021-12-04T00:28:34.338Z</time>
      </trkpt>
      <trkpt lat="46.95238" lon="0.61062">
        <ele>47.419653</ele>
        <time>2021-12-04T00:28:46.112Z</time>
      </trkpt>
      <trkpt lat="46.95285" lon="0.61036">
        <ele>46.973534</ele>
        <time>2021-12-04T00:28:57.254Z</time>
      </trkpt>
      <trkpt lat="46.9531" lon="0.61032">
        <ele>46.755064</ele>
        <time>2021-12-04T00:29:02.911Z</time>
      </trkpt>
      <trkpt lat="46.9556" lon="0.6101">
        <ele>46.788109</ele>
        <time>2021-12-04T00:30:04.548Z</time>
      </trkpt>
      <trkpt lat="46.95601" lon="0.60998">
        <ele>46.94314</ele>
        <time>2021-12-04T00:30:15.958Z</time>
      </trkpt>
      <trkpt lat="46.95662" lon="0.60968">
        <ele>47.183078</ele>
        <time>2021-12-04T00:30:33.832Z</time>
      </trkpt>
      <trkpt lat="46.95685" lon="0.60939">
        <ele>47.281739</ele>
        <time>2021-12-04T00:30:42.080Z</time>
      </trkpt>
      <trkpt lat="46.95745" lon="0.60937">
        <ele>47.408876</ele>
        <time>2021-12-04T00:30:57.916Z</time>
      </trkpt>
      <trkpt lat="46.95785" lon="0.60939">
        <ele>47.494565</ele>
        <time>2021-12-04T00:31:08.096Z</time>
      </trkpt>
      <trkpt lat="46.95936" lon="0.60927">
        <ele>47.546473</ele>
        <time>2021-12-04T00:32:05.474Z</time>
      </trkpt>
      <trkpt lat="46.9621" lon="0.6093">
        <ele>47.173425</ele>
        <time>2021-12-04T00:33:48.380Z</time>
      </trkpt>
      <trkpt lat="46.96657" lon="0.60923">
        <ele>47.615306</ele>
        <time>2021-12-04T00:36:41.474Z</time>
      </trkpt>
      <trkpt lat="46.96726" lon="0.60912">
        <ele>47.706909</ele>
        <time>2021-12-04T00:37:08.681Z</time>
      </trkpt>
      <trkpt lat="46.968" lon="0.60909">
        <ele>47.870131</ele>
        <time>2021-12-04T00:37:37.533Z</time>
      </trkpt>
      <trkpt lat="46.9688" lon="0.60888">
        <ele>48.095814</ele>
        <time>2021-12-04T00:38:09.690Z</time>
      </trkpt>
      <trkpt lat="46.96967" lon="0.60887">
        <ele>48.357613</ele>
        <time>2021-12-04T00:38:45.349Z</time>
      </trkpt>
      <trkpt lat="46.9713" lon="0.60848">
        <ele>48.81287</ele>
        <time>2021-12-04T00:39:51.940Z</time>
      </trkpt>
      <trkpt lat="46.9725" lon="0.60811">
        <ele>48.592139</ele>
        <time>2021-12-04T00:40:20.704Z</time>
      </trkpt>
      <trkpt lat="46.97247" lon="0.6079">
        <ele>48.566468</ele>
        <time>2021-12-04T00:40:23.890Z</time>
      </trkpt>
      <trkpt lat="46.97245" lon="0.60767">
        <ele>48.53791</ele>
        <time>2021-12-04T00:40:27.634Z</time>
      </trkpt>
      <trkpt lat="46.97243" lon="0.60749">
        <ele>48.51135</ele>
        <time>2021-12-04T00:40:30.403Z</time>
      </trkpt>
      <trkpt lat="46.97237" lon="0.60592">
        <ele>48.200295</ele>
        <time>2021-12-04T00:40:55.095Z</time>
      </trkpt>
      <trkpt lat="46.97342" lon="0.60554">
        <ele>48.075445</ele>
        <time>2021-12-04T00:41:19.383Z</time>
      </trkpt>
      <trkpt lat="46.97394" lon="0.60534">
        <ele>48.17511</ele>
        <time>2021-12-04T00:41:32.139Z</time>
      </trkpt>
      <trkpt lat="46.97504" lon="0.60494">
        <ele>48.476668</ele>
        <time>2021-12-04T00:42:00.708Z</time>
      </trkpt>
      <trkpt lat="46.9755" lon="0.60478">
        <ele>48.717936</ele>
        <time>2021-12-04T00:42:13.141Z</time>
      </trkpt>
      <trkpt lat="46.97646" lon="0.60442">
        <ele>49.234632</ele>
        <time>2021-12-04T00:42:39.767Z</time>
      </trkpt>
      <trkpt lat="46.97687" lon="0.60426">
        <ele>49.331469</ele>
        <time>2021-12-04T00:42:50.769Z</time>
      </trkpt>
      <trkpt lat="46.9775" lon="0.60402">
        <ele>49.450835</ele>
        <time>2021-12-04T00:43:06.148Z</time>
      </trkpt>
      <trkpt lat="46.97853" lon="0.60363">
        <ele>50.057709</ele>
        <time>2021-12-04T00:43:30.144Z</time>
      </trkpt>
      <trkpt lat="46.9788" lon="0.60497">
        <ele>51.643892</ele>
        <time>2021-12-04T00:44:00.362Z</time>
      </trkpt>
      <trkpt lat="46.97888" lon="0.60538">
        <ele>52.127987</ele>
        <time>2021-12-04T00:44:12.020Z</time>
      </trkpt>
      <trkpt lat="46.97909" lon="0.60622">
        <ele>53.733584</ele>
        <time>2021-12-04T00:44:37.234Z</time>
      </trkpt>
      <trkpt lat="46.97956" lon="0.60723">
        <ele>56.552942</ele>
        <time>2021-12-04T00:45:15.275Z</time>
      </trkpt>
      <trkpt lat="46.98063" lon="0.6065">
        <ele>59.243718</ele>
        <time>2021-12-04T00:46:08.186Z</time>
      </trkpt>
      <trkpt lat="46.98136" lon="0.60635">
        <ele>59.993278</ele>
        <time>2021-12-04T00:46:28.797Z</time>
      </trkpt>
      <trkpt lat="46.98177" lon="0.60627">
        <ele>60.409413</ele>
        <time>2021-12-04T00:46:38.025Z</time>
      </trkpt>
      <trkpt lat="46.982" lon="0.60613">
        <ele>60.165299</ele>
        <time>2021-12-04T00:46:43.401Z</time>
      </trkpt>
      <trkpt lat="46.98237" lon="0.60578">
        <ele>59.172714</ele>
        <time>2021-12-04T00:46:52.212Z</time>
      </trkpt>
      <trkpt lat="46.98356" lon="0.6053">
        <ele>56.322788</ele>
        <time>2021-12-04T00:47:15.357Z</time>
      </trkpt>
      <trkpt lat="46.98393" lon="0.60505">
        <ele>55.345356</ele>
        <time>2021-12-04T00:47:22.879Z</time>
      </trkpt>
      <trkpt lat="46.98404" lon="0.60489">
        <ele>54.964772</ele>
        <time>2021-12-04T00:47:25.887Z</time>
      </trkpt>
      <trkpt lat="46.98412" lon="0.60464">
        <ele>54.52417</ele>
        <time>2021-12-04T00:47:29.327Z</time>
      </trkpt>
      <trkpt lat="46.98425" lon="0.60367">
        <ele>52.891841</ele>
        <time>2021-12-04T00:47:42.438Z</time>
      </trkpt>
      <trkpt lat="46.98446" lon="0.60367">
        <ele>52.391007</ele>
        <time>2021-12-04T00:47:46.615Z</time>
      </trkpt>
      <trkpt lat="46.98536" lon="0.60343">
        <ele>50.862425</ele>
        <time>2021-12-04T00:48:04.919Z</time>
      </trkpt>
      <trkpt lat="46.98671" lon="0.60304">
        <ele>48.914251</ele>
        <time>2021-12-04T00:48:33.686Z</time>
      </trkpt>
      <trkpt lat="46.98693" lon="0.60299">
        <ele>48.676192</ele>
        <time>2021-12-04T00:48:38.355Z</time>
      </trkpt>
      <trkpt lat="46.9894" lon="0.60193">
        <ele>46.278592</ele>
        <time>2021-12-04T00:49:33.749Z</time>
      </trkpt>
      <trkpt lat="46.98953" lon="0.60179">
        <ele>46.143836</ele>
        <time>2021-12-04T00:49:37.579Z</time>
      </trkpt>
      <trkpt lat="46.98958" lon="0.6016">
        <ele>46.036496</ele>
        <time>2021-12-04T00:49:40.686Z</time>
      </trkpt>
      <trkpt lat="46.98955" lon="0.60086">
        <ele>45.881704</ele>
        <time>2021-12-04T00:49:52.528Z</time>
      </trkpt>
      <trkpt lat="46.9896" lon="0.60067">
        <ele>45.867881</ele>
        <time>2021-12-04T00:49:55.914Z</time>
      </trkpt>
      <trkpt lat="46.98971" lon="0.60058">
        <ele>45.856122</ele>
        <time>2021-12-04T00:49:58.819Z</time>
      </trkpt>
      <trkpt lat="46.99241" lon="0.59942">
        <ele>45.618346</ele>
        <time>2021-12-04T00:51:07.826Z</time>
      </trkpt>
      <trkpt lat="46.9927" lon="0.59935">
        <ele>45.473973</ele>
        <time>2021-12-04T00:51:14.608Z</time>
      </trkpt>
      <trkpt lat="46.9934" lon="0.59932">
        <ele>44.805847</ele>
        <time>2021-12-04T00:51:29.927Z</time>
      </trkpt>
      <trkpt lat="46.99358" lon="0.59919">
        <ele>44.61637</ele>
        <time>2021-12-04T00:51:34.135Z</time>
      </trkpt>
      <trkpt lat="46.99395" lon="0.59934">
        <ele>44.258463</ele>
        <time>2021-12-04T00:51:41.489Z</time>
      </trkpt>
      <trkpt lat="46.99561" lon="0.59954">
        <ele>42.764952</ele>
        <time>2021-12-04T00:52:14.342Z</time>
      </trkpt>
      <trkpt lat="46.99603" lon="0.59959">
        <ele>42.389629</ele>
        <time>2021-12-04T00:52:23.776Z</time>
      </trkpt>
      <trkpt lat="46.99652" lon="0.59965">
        <ele>42.668514</ele>
        <time>2021-12-04T00:52:35.800Z</time>
      </trkpt>
      <trkpt lat="46.99759" lon="0.59977">
        <ele>43.616369</ele>
        <time>2021-12-04T00:53:07.812Z</time>
      </trkpt>
      <trkpt lat="46.99818" lon="0.59981">
        <ele>44.123798</ele>
        <time>2021-12-04T00:53:26.257Z</time>
      </trkpt>
      <trkpt lat="46.99845" lon="0.59962">
        <ele>44.363844</ele>
        <time>2021-12-04T00:53:35.163Z</time>
      </trkpt>
      <trkpt lat="46.99868" lon="0.59945">
        <ele>44.563894</ele>
        <time>2021-12-04T00:53:42.323Z</time>
      </trkpt>
      <trkpt lat="46.99884" lon="0.59943">
        <ele>44.69478</ele>
        <time>2021-12-04T00:53:46.952Z</time>
      </trkpt>
      <trkpt lat="46.99915" lon="0.59965">
        <ele>44.969073</ele>
        <time>2021-12-04T00:53:56.392Z</time>
      </trkpt>
      <trkpt lat="46.99951" lon="0.59998">
        <ele>45.306849</ele>
        <time>2021-12-04T00:54:07.324Z</time>
      </trkpt>
      <trkpt lat="46.99958" lon="0.5998">
        <ele>45.354351</ele>
        <time>2021-12-04T00:54:11.158Z</time>
      </trkpt>
      <trkpt lat="46.99986" lon="0.59945">
        <ele>45.383457</ele>
        <time>2021-12-04T00:54:20.440Z</time>
      </trkpt>
      <trkpt lat="47.00042" lon="0.59878">
        <ele>45.440367</ele>
        <time>2021-12-04T00:54:37.724Z</time>
      </trkpt>
      <trkpt lat="47.00086" lon="0.5988">
        <ele>45.475146</ele>
        <time>2021-12-04T00:54:48.462Z</time>
      </trkpt>
      <trkpt lat="47.00157" lon="0.59885">
        <ele>45.358789</ele>
        <time>2021-12-04T00:55:05.790Z</time>
      </trkpt>
      <trkpt lat="47.00296" lon="0.59895">
        <ele>44.917604</ele>
        <time>2021-12-04T00:55:38.140Z</time>
      </trkpt>
      <trkpt lat="47.00333" lon="0.59896">
        <ele>44.541289</ele>
        <time>2021-12-04T00:55:46.222Z</time>
      </trkpt>
      <trkpt lat="47.0035" lon="0.59915">
        <ele>44.312413</ele>
        <time>2021-12-04T00:55:50.738Z</time>
      </trkpt>
      <trkpt lat="47.00367" lon="0.59899">
        <ele>44.107817</ele>
        <time>2021-12-04T00:55:54.837Z</time>
      </trkpt>
      <trkpt lat="47.00415" lon="0.59945">
        <ele>43.518458</ele>
        <time>2021-12-04T00:56:06.056Z</time>
      </trkpt>
      <trkpt lat="47.00443" lon="0.59966">
        <ele>43.187439</ele>
        <time>2021-12-04T00:56:12.214Z</time>
      </trkpt>
      <trkpt lat="47.00468" lon="0.59982">
        <ele>42.933513</ele>
        <time>2021-12-04T00:56:17.440Z</time>
      </trkpt>
      <trkpt lat="47.00563" lon="0.6002">
        <ele>42.023487</ele>
        <time>2021-12-04T00:56:36.152Z</time>
      </trkpt>
      <trkpt lat="47.00682" lon="0.60047">
        <ele>42.35939</ele>
        <time>2021-12-04T00:57:06.752Z</time>
      </trkpt>
      <trkpt lat="47.00719" lon="0.60056">
        <ele>42.843605</ele>
        <time>2021-12-04T00:57:18.612Z</time>
      </trkpt>
      <trkpt lat="47.00772" lon="0.6007">
        <ele>43.533002</ele>
        <time>2021-12-04T00:57:37.452Z</time>
      </trkpt>
      <trkpt lat="47.00807" lon="0.60077">
        <ele>43.99551</ele>
        <time>2021-12-04T00:57:50.075Z</time>
      </trkpt>
      <trkpt lat="47.00817" lon="0.6008">
        <ele>44.136176</ele>
        <time>2021-12-04T00:57:53.663Z</time>
      </trkpt>
      <trkpt lat="47.00851" lon="0.60088">
        <ele>44.619279</ele>
        <time>2021-12-04T00:58:06.770Z</time>
      </trkpt>
      <trkpt lat="47.0086" lon="0.6009">
        <ele>44.747295</ele>
        <time>2021-12-04T00:58:10.145Z</time>
      </trkpt>
      <trkpt lat="47.00877" lon="0.60094">
        <ele>44.989305</ele>
        <time>2021-12-04T00:58:16.587Z</time>
      </trkpt>
      <trkpt lat="47.00896" lon="0.60083">
        <ele>45.269654</ele>
        <time>2021-12-04T00:58:23.724Z</time>
      </trkpt>
      <trkpt lat="47.01351" lon="0.60189">
        <ele>47.565651</ele>
        <time>2021-12-04T01:00:24.095Z</time>
      </trkpt>
      <trkpt lat="47.017" lon="0.60264">
        <ele>49.503308</ele>
        <time>2021-12-04T01:02:00.187Z</time>
      </trkpt>
      <trkpt lat="47.01946" lon="0.6032">
        <ele>52.620611</ele>
        <time>2021-12-04T01:03:18.812Z</time>
      </trkpt>
      <trkpt lat="47.01952" lon="0.60321">
        <ele>52.705329</ele>
        <time>2021-12-04T01:03:20.547Z</time>
      </trkpt>
      <trkpt lat="47.01957" lon="0.60335">
        <ele>52.876579</ele>
        <time>2021-12-04T01:03:24.643Z</time>
      </trkpt>
      <trkpt lat="47.01991" lon="0.60342">
        <ele>53.426778</ele>
        <time>2021-12-04T01:03:36.373Z</time>
      </trkpt>
      <trkpt lat="47.02077" lon="0.60361">
        <ele>54.911472</ele>
        <time>2021-12-04T01:04:06.916Z</time>
      </trkpt>
      <trkpt lat="47.02096" lon="0.60367">
        <ele>55.270394</ele>
        <time>2021-12-04T01:04:13.628Z</time>
      </trkpt>
      <trkpt lat="47.02185" lon="0.60393">
        <ele>56.959606</ele>
        <time>2021-12-04T01:04:44.234Z</time>
      </trkpt>
      <trkpt lat="47.02183" lon="0.60408">
        <ele>57.150828</ele>
        <time>2021-12-04T01:04:47.536Z</time>
      </trkpt>
      <trkpt lat="47.02186" lon="0.60424">
        <ele>57.361758</ele>
        <time>2021-12-04T01:04:53.144Z</time>
      </trkpt>
      <trkpt lat="47.02175" lon="0.60492">
        <ele>58.111049</ele>
        <time>2021-12-04T01:05:16.612Z</time>
      </trkpt>
      <trkpt lat="47.02206" lon="0.60497">
        <ele>58.610392</ele>
        <time>2021-12-04T01:05:27.881Z</time>
      </trkpt>
      <trkpt lat="47.02226" lon="0.6048">
        <ele>58.972186</ele>
        <time>2021-12-04T01:05:35.681Z</time>
      </trkpt>
      <trkpt lat="47.02271" lon="0.60483">
        <ele>59.673501</ele>
        <time>2021-12-04T01:05:50.483Z</time>
      </trkpt>
      <trkpt lat="47.02347" lon="0.6055">
        <ele>60.708084</ele>
        <time>2021-12-04T01:06:18.370Z</time>
      </trkpt>
      <trkpt lat="47.02379" lon="0.60629">
        <ele>61.293006</ele>
        <time>2021-12-04T01:06:36.971Z</time>
      </trkpt>
      <trkpt lat="47.02381" lon="0.60654">
        <ele>61.451278</ele>
        <time>2021-12-04T01:06:41.821Z</time>
      </trkpt>
      <trkpt lat="47.02374" lon="0.6069">
        <ele>61.692322</ele>
        <time>2021-12-04T01:06:49.326Z</time>
      </trkpt>
      <trkpt lat="47.02379" lon="0.60703">
        <ele>61.786556</ele>
        <time>2021-12-04T01:06:52.065Z</time>
      </trkpt>
      <trkpt lat="47.02392" lon="0.60727">
        <ele>61.931635</ele>
        <time>2021-12-04T01:06:57.839Z</time>
      </trkpt>
      <trkpt lat="47.02417" lon="0.60745">
        <ele>62.072569</ele>
        <time>2021-12-04T01:07:05.198Z</time>
      </trkpt>
      <trkpt lat="47.0243" lon="0.60766">
        <ele>62.167162</ele>
        <time>2021-12-04T01:07:10.131Z</time>
      </trkpt>
      <trkpt lat="47.02535" lon="0.60576">
        <ele>62.871786</ele>
        <time>2021-12-04T01:07:55.419Z</time>
      </trkpt>
      <trkpt lat="47.0258" lon="0.60631">
        <ele>62.995525</ele>
        <time>2021-12-04T01:08:18.791Z</time>
      </trkpt>
      <trkpt lat="47.02742" lon="0.60747">
        <ele>63.324234</ele>
        <time>2021-12-04T01:09:27.093Z</time>
      </trkpt>
      <trkpt lat="47.03154" lon="0.61331">
        <ele>65.724031</ele>
        <time>2021-12-04T01:13:20.969Z</time>
      </trkpt>
      <trkpt lat="47.03585" lon="0.61939">
        <ele>68.879612</ele>
        <time>2021-12-04T01:17:27.914Z</time>
      </trkpt>
      <trkpt lat="47.03683" lon="0.61831">
        <ele>69.775562</ele>
        <time>2021-12-04T01:18:20.413Z</time>
      </trkpt>
      <trkpt lat="47.04166" lon="0.62645">
        <ele>75.139681</ele>
        <time>2021-12-04T01:23:31.210Z</time>
      </trkpt>
      <trkpt lat="47.04009" lon="0.62812">
        <ele>77.63801</ele>
        <time>2021-12-04T01:25:02.274Z</time>
      </trkpt>
      <trkpt lat="47.04039" lon="0.62843">
        <ele>78.058607</ele>
        <time>2021-12-04T01:25:13.974Z</time>
      </trkpt>
      <trkpt lat="47.04175" lon="0.63042">
        <ele>80.277172</ele>
        <time>2021-12-04T01:26:11.415Z</time>
      </trkpt>
      <trkpt lat="47.04251" lon="0.63204">
        <ele>82.331743</ele>
        <time>2021-12-04T01:26:57.149Z</time>
      </trkpt>
      <trkpt lat="47.04204" lon="0.63252">
        <ele>83.582268</ele>
        <time>2021-12-04T01:27:17.897Z</time>
      </trkpt>
      <trkpt lat="47.04195" lon="0.63273">
        <ele>83.975994</ele>
        <time>2021-12-04T01:27:23.740Z</time>
      </trkpt>
      <trkpt lat="47.04203" lon="0.63304">
        <ele>84.497388</ele>
        <time>2021-12-04T01:27:33.482Z</time>
      </trkpt>
      <trkpt lat="47.04232" lon="0.63345">
        <ele>85.422377</ele>
        <time>2021-12-04T01:27:49.815Z</time>
      </trkpt>
      <trkpt lat="47.04232" lon="0.63363">
        <ele>85.718802</ele>
        <time>2021-12-04T01:27:54.879Z</time>
      </trkpt>
      <trkpt lat="47.04208" lon="0.6341">
        <ele>86.642556</ele>
        <time>2021-12-04T01:28:10.950Z</time>
      </trkpt>
      <trkpt lat="47.04199" lon="0.63444">
        <ele>86.788151</ele>
        <time>2021-12-04T01:28:19.755Z</time>
      </trkpt>
      <trkpt lat="47.04203" lon="0.63496">
        <ele>87.002341</ele>
        <time>2021-12-04T01:28:32.039Z</time>
      </trkpt>
      <trkpt lat="47.04213" lon="0.63515">
        <ele>87.09764</ele>
        <time>2021-12-04T01:28:37.334Z</time>
      </trkpt>
      <trkpt lat="47.04547" lon="0.63902">
        <ele>88.566523</ele>
        <time>2021-12-04T01:30:26.522Z</time>
      </trkpt>
      <trkpt lat="47.04688" lon="0.64068">
        <ele>86.711031</ele>
        <time>2021-12-04T01:31:04.281Z</time>
      </trkpt>
      <trkpt lat="47.04759" lon="0.64161">
        <ele>85.551249</ele>
        <time>2021-12-04T01:31:23.968Z</time>
      </trkpt>
      <trkpt lat="47.04768" lon="0.64164">
        <ele>85.448315</ele>
        <time>2021-12-04T01:31:25.662Z</time>
      </trkpt>
      <trkpt lat="47.04802" lon="0.64143">
        <ele>85.001411</ele>
        <time>2021-12-04T01:31:33.541Z</time>
      </trkpt>
      <trkpt lat="47.04866" lon="0.64259">
        <ele>84.048325</ele>
        <time>2021-12-04T01:32:01.368Z</time>
      </trkpt>
      <trkpt lat="47.04994" lon="0.64463">
        <ele>83.958343</ele>
        <time>2021-12-04T01:32:57.845Z</time>
      </trkpt>
      <trkpt lat="47.05034" lon="0.64748">
        <ele>84.641087</ele>
        <time>2021-12-04T01:34:10.366Z</time>
      </trkpt>
      <trkpt lat="47.05268" lon="0.64716">
        <ele>82.356867</ele>
        <time>2021-12-04T01:35:12.653Z</time>
      </trkpt>
      <trkpt lat="47.05403" lon="0.64708">
        <ele>80.884172</ele>
        <time>2021-12-04T01:35:48.297Z</time>
      </trkpt>
      <trkpt lat="47.05417" lon="0.64728">
        <ele>80.740442</ele>
        <time>2021-12-04T01:35:53.692Z</time>
      </trkpt>
      <trkpt lat="47.05511" lon="0.6492">
        <ele>80.277674</ele>
        <time>2021-12-04T01:36:41.595Z</time>
      </trkpt>
      <trkpt lat="47.05528" lon="0.64937">
        <ele>80.35433</ele>
        <time>2021-12-04T01:36:48.570Z</time>
      </trkpt>
      <trkpt lat="47.0554" lon="0.64935">
        <ele>80.398695</ele>
        <time>2021-12-04T01:36:52.561Z</time>
      </trkpt>
      <trkpt lat="47.05687" lon="0.65168">
        <ele>81.05917</ele>
        <time>2021-12-04T01:38:07.989Z</time>
      </trkpt>
      <trkpt lat="47.05713" lon="0.65208">
        <ele>81.156315</ele>
        <time>2021-12-04T01:38:21.649Z</time>
      </trkpt>
      <trkpt lat="47.05757" lon="0.65138">
        <ele>79.889891</ele>
        <time>2021-12-04T01:38:43.623Z</time>
      </trkpt>
      <trkpt lat="47.05811" lon="0.6507">
        <ele>78.256416</ele>
        <time>2021-12-04T01:39:01.034Z</time>
      </trkpt>
      <trkpt lat="47.05929" lon="0.64938">
        <ele>74.278542</ele>
        <time>2021-12-04T01:39:36.323Z</time>
      </trkpt>
      <trkpt lat="47.06059" lon="0.64836">
        <ele>70.833535</ele>
        <time>2021-12-04T01:40:12.821Z</time>
      </trkpt>
      <trkpt lat="47.06205" lon="0.64719">
        <ele>68.489693</ele>
        <time>2021-12-04T01:40:57.750Z</time>
      </trkpt>
      <trkpt lat="47.0631" lon="0.64656">
        <ele>67.515193</ele>
        <time>2021-12-04T01:41:29.434Z</time>
      </trkpt>
      <trkpt lat="47.06406" lon="0.6458">
        <ele>67.34716</ele>
        <time>2021-12-04T01:42:09.207Z</time>
      </trkpt>
      <trkpt lat="47.06516" lon="0.64564">
        <ele>67.62721</ele>
        <time>2021-12-04T01:42:53.408Z</time>
      </trkpt>
      <trkpt lat="47.0661" lon="0.64514">
        <ele>68.947185</ele>
        <time>2021-12-04T01:43:39.073Z</time>
      </trkpt>
      <trkpt lat="47.06651" lon="0.64487">
        <ele>69.541144</ele>
        <time>2021-12-04T01:44:00.933Z</time>
      </trkpt>
      <trkpt lat="47.06749" lon="0.64391">
        <ele>72.558371</ele>
        <time>2021-12-04T01:45:02.609Z</time>
      </trkpt>
      <trkpt lat="47.06817" lon="0.64362">
        <ele>74.463255</ele>
        <time>2021-12-04T01:45:43.214Z</time>
      </trkpt>
      <trkpt lat="47.06876" lon="0.64323">
        <ele>76.927085</ele>
        <time>2021-12-04T01:46:21.825Z</time>
      </trkpt>
      <trkpt lat="47.06887" lon="0.64405">
        <ele>79.111169</ele>
        <time>2021-12-04T01:46:56.811Z</time>
      </trkpt>
      <trkpt lat="47.06907" lon="0.64461">
        <ele>80.769478</ele>
        <time>2021-12-04T01:47:24.566Z</time>
      </trkpt>
      <trkpt lat="47.06945" lon="0.64519">
        <ele>82.985804</ele>
        <time>2021-12-04T01:47:59.009Z</time>
      </trkpt>
      <trkpt lat="47.06984" lon="0.64565">
        <ele>85.067708</ele>
        <time>2021-12-04T01:48:29.542Z</time>
      </trkpt>
      <trkpt lat="47.07005" lon="0.64611">
        <ele>86.637007</ele>
        <time>2021-12-04T01:48:53.785Z</time>
      </trkpt>
      <trkpt lat="47.07009" lon="0.64641">
        <ele>87.521465</ele>
        <time>2021-12-04T01:49:07.258Z</time>
      </trkpt>
      <trkpt lat="47.07016" lon="0.64656">
        <ele>88.022318</ele>
        <time>2021-12-04T01:49:15.066Z</time>
      </trkpt>
      <trkpt lat="47.07044" lon="0.647">
        <ele>89.75646</ele>
        <time>2021-12-04T01:49:41.359Z</time>
      </trkpt>
      <trkpt lat="47.07062" lon="0.64716">
        <ele>90.634382</ele>
        <time>2021-12-04T01:49:54.188Z</time>
      </trkpt>
      <trkpt lat="47.07097" lon="0.64732">
        <ele>92.247173</ele>
        <time>2021-12-04T01:50:18.172Z</time>
      </trkpt>
      <trkpt lat="47.0735" lon="0.64839">
        <ele>103.408484</ele>
        <time>2021-12-04T01:52:46.392Z</time>
      </trkpt>
      <trkpt lat="47.07388" lon="0.64857">
        <ele>104.999725</ele>
        <time>2021-12-04T01:53:10.947Z</time>
      </trkpt>
      <trkpt lat="47.07427" lon="0.64895">
        <ele>106.720091</ele>
        <time>2021-12-04T01:53:38.176Z</time>
      </trkpt>
      <trkpt lat="47.07459" lon="0.64964">
        <ele>108.819529</ele>
        <time>2021-12-04T01:54:12.488Z</time>
      </trkpt>
      <trkpt lat="47.0747" lon="0.64979">
        <ele>109.368692</ele>
        <time>2021-12-04T01:54:21.985Z</time>
      </trkpt>
      <trkpt lat="47.07532" lon="0.65003">
        <ele>111.441367</ele>
        <time>2021-12-04T01:55:01.378Z</time>
      </trkpt>
      <trkpt lat="47.07656" lon="0.65081">
        <ele>114.674267</ele>
        <time>2021-12-04T01:56:12.140Z</time>
      </trkpt>
      <trkpt lat="47.07725" lon="0.65141">
        <ele>114.945329</ele>
        <time>2021-12-04T01:56:47.550Z</time>
      </trkpt>
      <trkpt lat="47.07791" lon="0.65183">
        <ele>114.654476</ele>
        <time>2021-12-04T01:57:12.898Z</time>
      </trkpt>
      <trkpt lat="47.08058" lon="0.65351">
        <ele>110.280218</ele>
        <time>2021-12-04T01:58:11.241Z</time>
      </trkpt>
      <trkpt lat="47.08107" lon="0.65396">
        <ele>109.393545</ele>
        <time>2021-12-04T01:58:23.124Z</time>
      </trkpt>
      <trkpt lat="47.08119" lon="0.654">
        <ele>109.21037</ele>
        <time>2021-12-04T01:58:25.556Z</time>
      </trkpt>
      <trkpt lat="47.08309" lon="0.65594">
        <ele>106.028486</ele>
        <time>2021-12-04T01:59:13.783Z</time>
      </trkpt>
      <trkpt lat="47.08391" lon="0.65713">
        <ele>104.62032</ele>
        <time>2021-12-04T01:59:37.933Z</time>
      </trkpt>
      <trkpt lat="47.08404" lon="0.65743">
        <ele>104.323431</ele>
        <time>2021-12-04T01:59:43.044Z</time>
      </trkpt>
      <trkpt lat="47.08515" lon="0.65879">
        <ele>102.584488</ele>
        <time>2021-12-04T02:00:13.573Z</time>
      </trkpt>
      <trkpt lat="47.0852" lon="0.65904">
        <ele>102.370984</ele>
        <time>2021-12-04T02:00:17.348Z</time>
      </trkpt>
      <trkpt lat="47.08536" lon="0.6614">
        <ele>99.987087</ele>
        <time>2021-12-04T02:00:51.379Z</time>
      </trkpt>
      <trkpt lat="47.08556" lon="0.66178">
        <ele>99.45375</ele>
        <time>2021-12-04T02:00:57.859Z</time>
      </trkpt>
      <trkpt lat="47.08603" lon="0.66235">
        <ele>98.504686</ele>
        <time>2021-12-04T02:01:09.532Z</time>
      </trkpt>
      <trkpt lat="47.08652" lon="0.66344">
        <ele>97.220914</ele>
        <time>2021-12-04T02:01:26.840Z</time>
      </trkpt>
      <trkpt lat="47.08614" lon="0.66398">
        <ele>96.456592</ele>
        <time>2021-12-04T02:01:38.102Z</time>
      </trkpt>
      <trkpt lat="47.08588" lon="0.6642">
        <ele>96.378357</ele>
        <time>2021-12-04T02:01:45.119Z</time>
      </trkpt>
      <trkpt lat="47.08637" lon="0.66505">
        <ele>97.547519</ele>
        <time>2021-12-04T02:02:10.024Z</time>
      </trkpt>
      <trkpt lat="47.08711" lon="0.66633">
        <ele>99.299158</ele>
        <time>2021-12-04T02:02:54.357Z</time>
      </trkpt>
      <trkpt lat="47.08781" lon="0.66754">
        <ele>100.89638</ele>
        <time>2021-12-04T02:03:31.993Z</time>
      </trkpt>
      <trkpt lat="47.08799" lon="0.6675">
        <ele>101.169226</ele>
        <time>2021-12-04T02:03:39.581Z</time>
      </trkpt>
      <trkpt lat="47.09079" lon="0.66449">
        <ele>102.935009</ele>
        <time>2021-12-04T02:05:59.190Z</time>
      </trkpt>
      <trkpt lat="47.09156" lon="0.66599">
        <ele>103.779873</ele>
        <time>2021-12-04T02:06:52.992Z</time>
      </trkpt>
      <trkpt lat="47.09189" lon="0.66647">
        <ele>104.13982</ele>
        <time>2021-12-04T02:07:13.307Z</time>
      </trkpt>
      <trkpt lat="47.09347" lon="0.66825">
        <ele>105.464297</ele>
        <time>2021-12-04T02:08:39.207Z</time>
      </trkpt>
      <trkpt lat="47.09373" lon="0.66774">
        <ele>105.606295</ele>
        <time>2021-12-04T02:08:55.886Z</time>
      </trkpt>
      <trkpt lat="47.09388" lon="0.66762">
        <ele>105.53812</ele>
        <time>2021-12-04T02:09:02.317Z</time>
      </trkpt>
      <trkpt lat="47.09504" lon="0.6672">
        <ele>105.060754</ele>
        <time>2021-12-04T02:09:45.534Z</time>
      </trkpt>
      <trkpt lat="47.09552" lon="0.6671">
        <ele>104.931324</ele>
        <time>2021-12-04T02:10:03.104Z</time>
      </trkpt>
      <trkpt lat="47.09569" lon="0.66696">
        <ele>104.926412</ele>
        <time>2021-12-04T02:10:10.344Z</time>
      </trkpt>
      <trkpt lat="47.09602" lon="0.6662">
        <ele>104.91109</ele>
        <time>2021-12-04T02:10:33.051Z</time>
      </trkpt>
      <trkpt lat="47.09615" lon="0.66607">
        <ele>104.907165</ele>
        <time>2021-12-04T02:10:38.114Z</time>
      </trkpt>
      <trkpt lat="47.09625" lon="0.66605">
        <ele>104.904592</ele>
        <time>2021-12-04T02:10:41.185Z</time>
      </trkpt>
      <trkpt lat="47.09659" lon="0.66629">
        <ele>104.895256</ele>
        <time>2021-12-04T02:10:53.056Z</time>
      </trkpt>
      <trkpt lat="47.09798" lon="0.66774">
        <ele>106.063177</ele>
        <time>2021-12-04T02:11:52.223Z</time>
      </trkpt>
      <trkpt lat="47.09965" lon="0.66923">
        <ele>108.35707</ele>
        <time>2021-12-04T02:13:05.015Z</time>
      </trkpt>
      <trkpt lat="47.10096" lon="0.67043">
        <ele>110.730186</ele>
        <time>2021-12-04T02:14:08.245Z</time>
      </trkpt>
      <trkpt lat="47.10113" lon="0.67069">
        <ele>111.109591</ele>
        <time>2021-12-04T02:14:17.900Z</time>
      </trkpt>
      <trkpt lat="47.10117" lon="0.67085">
        <ele>111.293742</ele>
        <time>2021-12-04T02:14:22.544Z</time>
      </trkpt>
      <trkpt lat="47.10115" lon="0.67106">
        <ele>111.357294</ele>
        <time>2021-12-04T02:14:27.870Z</time>
      </trkpt>
      <trkpt lat="47.10093" lon="0.6718">
        <ele>111.545251</ele>
        <time>2021-12-04T02:14:47.244Z</time>
      </trkpt>
      <trkpt lat="47.10092" lon="0.67197">
        <ele>111.586089</ele>
        <time>2021-12-04T02:14:50.944Z</time>
      </trkpt>
      <trkpt lat="47.10105" lon="0.67219">
        <ele>111.652544</ele>
        <time>2021-12-04T02:14:57.171Z</time>
      </trkpt>
      <trkpt lat="47.10032" lon="0.6739">
        <ele>111.865608</ele>
        <time>2021-12-04T02:15:27.822Z</time>
      </trkpt>
      <trkpt lat="47.09986" lon="0.67553">
        <ele>111.738715</ele>
        <time>2021-12-04T02:15:54.789Z</time>
      </trkpt>
      <trkpt lat="47.09962" lon="0.67721">
        <ele>112.059677</ele>
        <time>2021-12-04T02:16:24.344Z</time>
      </trkpt>
      <trkpt lat="47.09958" lon="0.67881">
        <ele>112.153164</ele>
        <time>2021-12-04T02:16:51.188Z</time>
      </trkpt>
      <trkpt lat="47.09975" lon="0.68037">
        <ele>111.928397</ele>
        <time>2021-12-04T02:17:15.216Z</time>
      </trkpt>
      <trkpt lat="47.10102" lon="0.68874">
        <ele>108.633629</ele>
        <time>2021-12-04T02:19:17.731Z</time>
      </trkpt>
      <trkpt lat="47.10146" lon="0.69155">
        <ele>109.852935</ele>
        <time>2021-12-04T02:20:13.339Z</time>
      </trkpt>
      <trkpt lat="47.10172" lon="0.69271">
        <ele>110.429684</ele>
        <time>2021-12-04T02:20:36.859Z</time>
      </trkpt>
      <trkpt lat="47.10225" lon="0.6939">
        <ele>110.951471</ele>
        <time>2021-12-04T02:21:01.335Z</time>
      </trkpt>
      <trkpt lat="47.1031" lon="0.69514">
        <ele>111.236499</ele>
        <time>2021-12-04T02:21:29.652Z</time>
      </trkpt>
      <trkpt lat="47.10817" lon="0.70231">
        <ele>113.390618</ele>
        <time>2021-12-04T02:24:24.974Z</time>
      </trkpt>
      <trkpt lat="47.10888" lon="0.7034">
        <ele>113.689657</ele>
        <time>2021-12-04T02:24:50.247Z</time>
      </trkpt>
      <trkpt lat="47.1092" lon="0.70401">
        <ele>113.838156</ele>
        <time>2021-12-04T02:25:03.076Z</time>
      </trkpt>
      <trkpt lat="47.11031" lon="0.7066">
        <ele>114.59657</ele>
        <time>2021-12-04T02:25:55.192Z</time>
      </trkpt>
      <trkpt lat="47.11124" lon="0.70893">
        <ele>115.510705</ele>
        <time>2021-12-04T02:26:43.798Z</time>
      </trkpt>
      <trkpt lat="47.11152" lon="0.71007">
        <ele>115.776906</ele>
        <time>2021-12-04T02:27:04.708Z</time>
      </trkpt>
      <trkpt lat="47.11166" lon="0.71113">
        <ele>115.898015</ele>
        <time>2021-12-04T02:27:22.318Z</time>
      </trkpt>
      <trkpt lat="47.11173" lon="0.71497">
        <ele>115.860162</ele>
        <time>2021-12-04T02:28:22.388Z</time>
      </trkpt>
      <trkpt lat="47.11176" lon="0.71729">
        <ele>115.257375</ele>
        <time>2021-12-04T02:28:56.695Z</time>
      </trkpt>
      <trkpt lat="47.11192" lon="0.72124">
        <ele>113.987078</ele>
        <time>2021-12-04T02:29:53.424Z</time>
      </trkpt>
      <trkpt lat="47.11199" lon="0.72264">
        <ele>113.82489</ele>
        <time>2021-12-04T02:30:16.420Z</time>
      </trkpt>
      <trkpt lat="47.11181" lon="0.7236">
        <ele>114.0504</ele>
        <time>2021-12-04T02:30:33.638Z</time>
      </trkpt>
      <trkpt lat="47.11194" lon="0.72424">
        <ele>114.200823</ele>
        <time>2021-12-04T02:30:45.164Z</time>
      </trkpt>
      <trkpt lat="47.11196" lon="0.7244">
        <ele>114.238557</ele>
        <time>2021-12-04T02:30:48.083Z</time>
      </trkpt>
      <trkpt lat="47.11198" lon="0.72442">
        <ele>114.248754</ele>
        <time>2021-12-04T02:30:48.806Z</time>
      </trkpt>
      <trkpt lat="47.11205" lon="0.72469">
        <ele>114.314041</ele>
        <time>2021-12-04T02:30:53.692Z</time>
      </trkpt>
      <trkpt lat="47.11191" lon="0.72719">
        <ele>114.715541</ele>
        <time>2021-12-04T02:31:36.265Z</time>
      </trkpt>
      <trkpt lat="47.11189" lon="0.72792">
        <ele>114.744853</ele>
        <time>2021-12-04T02:31:47.537Z</time>
      </trkpt>
      <trkpt lat="47.11201" lon="0.72837">
        <ele>114.603083</ele>
        <time>2021-12-04T02:31:54.799Z</time>
      </trkpt>
      <trkpt lat="47.11209" lon="0.72858">
        <ele>114.533757</ele>
        <time>2021-12-04T02:31:58.246Z</time>
      </trkpt>
      <trkpt lat="47.11216" lon="0.72886">
        <ele>114.448948</ele>
        <time>2021-12-04T02:32:02.440Z</time>
      </trkpt>
      <trkpt lat="47.11215" lon="0.72922">
        <ele>114.344492</ele>
        <time>2021-12-04T02:32:07.462Z</time>
      </trkpt>
      <trkpt lat="47.11208" lon="0.7299">
        <ele>114.143698</ele>
        <time>2021-12-04T02:32:17.722Z</time>
      </trkpt>
      <trkpt lat="47.11197" lon="0.73106">
        <ele>113.862501</ele>
        <time>2021-12-04T02:32:34.954Z</time>
      </trkpt>
      <trkpt lat="47.11189" lon="0.73109">
        <ele>113.836768</ele>
        <time>2021-12-04T02:32:36.692Z</time>
      </trkpt>
      <trkpt lat="47.11187" lon="0.7312">
        <ele>113.81311</ele>
        <time>2021-12-04T02:32:38.309Z</time>
      </trkpt>
      <trkpt lat="47.11194" lon="0.73131">
        <ele>113.780977</ele>
        <time>2021-12-04T02:32:40.473Z</time>
      </trkpt>
      <trkpt lat="47.11199" lon="0.73172">
        <ele>113.690339</ele>
        <time>2021-12-04T02:32:46.713Z</time>
      </trkpt>
      <trkpt lat="47.11209" lon="0.73205">
        <ele>113.614595</ele>
        <time>2021-12-04T02:32:51.950Z</time>
      </trkpt>
      <trkpt lat="47.11251" lon="0.73244">
        <ele>113.471533</ele>
        <time>2021-12-04T02:33:03.257Z</time>
      </trkpt>
      <trkpt lat="47.11295" lon="0.7334">
        <ele>113.70598</ele>
        <time>2021-12-04T02:33:23.526Z</time>
      </trkpt>
      <trkpt lat="47.11323" lon="0.73383">
        <ele>113.827052</ele>
        <time>2021-12-04T02:33:33.636Z</time>
      </trkpt>
      <trkpt lat="47.11361" lon="0.73464">
        <ele>114.033243</ele>
        <time>2021-12-04T02:33:49.713Z</time>
      </trkpt>
      <trkpt lat="47.1149" lon="0.73752">
        <ele>114.995841</ele>
        <time>2021-12-04T02:34:49.844Z</time>
      </trkpt>
      <trkpt lat="47.11733" lon="0.74437">
        <ele>116.957762</ele>
        <time>2021-12-04T02:37:04.005Z</time>
      </trkpt>
      <trkpt lat="47.11962" lon="0.7507">
        <ele>116.578237</ele>
        <time>2021-12-04T02:38:54.761Z</time>
      </trkpt>
      <trkpt lat="47.12097" lon="0.75472">
        <ele>114.883582</ele>
        <time>2021-12-04T02:39:59.000Z</time>
      </trkpt>
      <trkpt lat="47.12128" lon="0.7556">
        <ele>114.561556</ele>
        <time>2021-12-04T02:40:13.327Z</time>
      </trkpt>
      <trkpt lat="47.12358" lon="0.76218">
        <ele>114.406949</ele>
        <time>2021-12-04T02:42:09.174Z</time>
      </trkpt>
      <trkpt lat="47.12377" lon="0.76208">
        <ele>114.407844</ele>
        <time>2021-12-04T02:42:14.426Z</time>
      </trkpt>
      <trkpt lat="47.12385" lon="0.76215">
        <ele>114.402943</ele>
        <time>2021-12-04T02:42:16.533Z</time>
      </trkpt>
      <trkpt lat="47.12425" lon="0.76318">
        <ele>114.279942</ele>
        <time>2021-12-04T02:42:36.026Z</time>
      </trkpt>
      <trkpt lat="47.12435" lon="0.76318">
        <ele>114.264073</ele>
        <time>2021-12-04T02:42:38.681Z</time>
      </trkpt>
      <trkpt lat="47.12509" lon="0.76267">
        <ele>114.140228</ele>
        <time>2021-12-04T02:42:57.591Z</time>
      </trkpt>
      <trkpt lat="47.12672" lon="0.76069">
        <ele>113.133064</ele>
        <time>2021-12-04T02:43:45.854Z</time>
      </trkpt>
      <trkpt lat="47.12748" lon="0.76185">
        <ele>112.423595</ele>
        <time>2021-12-04T02:44:25.456Z</time>
      </trkpt>
      <trkpt lat="47.12897" lon="0.76431">
        <ele>110.773508</ele>
        <time>2021-12-04T02:45:45.404Z</time>
      </trkpt>
      <trkpt lat="47.13003" lon="0.76654">
        <ele>109.84134</ele>
        <time>2021-12-04T02:46:52.704Z</time>
      </trkpt>
      <trkpt lat="47.13059" lon="0.7653">
        <ele>109.417083</ele>
        <time>2021-12-04T02:47:16.299Z</time>
      </trkpt>
      <trkpt lat="47.1307" lon="0.76521">
        <ele>109.36522</ele>
        <time>2021-12-04T02:47:19.180Z</time>
      </trkpt>
      <trkpt lat="47.13151" lon="0.76568">
        <ele>108.839139</ele>
        <time>2021-12-04T02:47:38.845Z</time>
      </trkpt>
      <trkpt lat="47.13209" lon="0.76581">
        <ele>108.245115</ele>
        <time>2021-12-04T02:47:51.733Z</time>
      </trkpt>
      <trkpt lat="47.13415" lon="0.76642">
        <ele>105.850485</ele>
        <time>2021-12-04T02:49:04.188Z</time>
      </trkpt>
      <trkpt lat="47.13535" lon="0.76661">
        <ele>104.550398</ele>
        <time>2021-12-04T02:49:45.697Z</time>
      </trkpt>
      <trkpt lat="47.13582" lon="0.76654">
        <ele>104.120061</ele>
        <time>2021-12-04T02:50:02.355Z</time>
      </trkpt>
      <trkpt lat="47.13609" lon="0.76671">
        <ele>103.852417</ele>
        <time>2021-12-04T02:50:12.811Z</time>
      </trkpt>
      <trkpt lat="47.13751" lon="0.76799">
        <ele>102.726725</ele>
        <time>2021-12-04T02:51:13.182Z</time>
      </trkpt>
      <trkpt lat="47.13864" lon="0.7694">
        <ele>102.148316</ele>
        <time>2021-12-04T02:52:07.246Z</time>
      </trkpt>
      <trkpt lat="47.14216" lon="0.77614">
        <ele>100.546021</ele>
        <time>2021-12-04T02:55:43.292Z</time>
      </trkpt>
      <trkpt lat="47.14213" lon="0.77639">
        <ele>100.487808</ele>
        <time>2021-12-04T02:55:47.498Z</time>
      </trkpt>
      <trkpt lat="47.14425" lon="0.77702">
        <ele>99.262012</ele>
        <time>2021-12-04T02:56:35.813Z</time>
      </trkpt>
      <trkpt lat="47.14454" lon="0.77729">
        <ele>99.096398</ele>
        <time>2021-12-04T02:56:43.183Z</time>
      </trkpt>
      <trkpt lat="47.14511" lon="0.77688">
        <ele>98.785301</ele>
        <time>2021-12-04T02:57:06.200Z</time>
      </trkpt>
      <trkpt lat="47.14539" lon="0.77678">
        <ele>98.64881</ele>
        <time>2021-12-04T02:57:16.547Z</time>
      </trkpt>
      <trkpt lat="47.14596" lon="0.77706">
        <ele>98.428075</ele>
        <time>2021-12-04T02:57:38.851Z</time>
      </trkpt>
      <trkpt lat="47.14651" lon="0.77753">
        <ele>98.709843</ele>
        <time>2021-12-04T02:58:03.200Z</time>
      </trkpt>
      <trkpt lat="47.14673" lon="0.77757">
        <ele>98.811091</ele>
        <time>2021-12-04T02:58:12.599Z</time>
      </trkpt>
      <trkpt lat="47.14732" lon="0.77737">
        <ele>99.077759</ele>
        <time>2021-12-04T02:58:38.286Z</time>
      </trkpt>
      <trkpt lat="47.14755" lon="0.77743">
        <ele>99.183504</ele>
        <time>2021-12-04T02:58:48.912Z</time>
      </trkpt>
      <trkpt lat="47.14824" lon="0.77793">
        <ele>99.800478</ele>
        <time>2021-12-04T02:59:22.498Z</time>
      </trkpt>
      <trkpt lat="47.14853" lon="0.7782">
        <ele>100.083335</ele>
        <time>2021-12-04T02:59:37.606Z</time>
      </trkpt>
      <trkpt lat="47.14902" lon="0.77942">
        <ele>100.655248</ele>
        <time>2021-12-04T03:00:18.368Z</time>
      </trkpt>
      <trkpt lat="47.14918" lon="0.77967">
        <ele>100.653358</ele>
        <time>2021-12-04T03:00:27.907Z</time>
      </trkpt>
      <trkpt lat="47.14955" lon="0.78003">
        <ele>100.649882</ele>
        <time>2021-12-04T03:00:44.537Z</time>
      </trkpt>
      <trkpt lat="47.15075" lon="0.78041">
        <ele>100.472763</ele>
        <time>2021-12-04T03:01:30.233Z</time>
      </trkpt>
      <trkpt lat="47.15119" lon="0.78043">
        <ele>100.268155</ele>
        <time>2021-12-04T03:01:46.080Z</time>
      </trkpt>
      <trkpt lat="47.15157" lon="0.78027">
        <ele>100.085601</ele>
        <time>2021-12-04T03:02:00.212Z</time>
      </trkpt>
      <trkpt lat="47.15186" lon="0.78034">
        <ele>99.949556</ele>
        <time>2021-12-04T03:02:10.866Z</time>
      </trkpt>
      <trkpt lat="47.15223" lon="0.78054">
        <ele>99.804002</ele>
        <time>2021-12-04T03:02:25.452Z</time>
      </trkpt>
      <trkpt lat="47.15289" lon="0.78062">
        <ele>99.793967</ele>
        <time>2021-12-04T03:02:50.261Z</time>
      </trkpt>
      <trkpt lat="47.15323" lon="0.7812">
        <ele>99.785903</ele>
        <time>2021-12-04T03:03:10.878Z</time>
      </trkpt>
      <trkpt lat="47.15382" lon="0.78203">
        <ele>99.774792</ele>
        <time>2021-12-04T03:03:42.457Z</time>
      </trkpt>
      <trkpt lat="47.15401" lon="0.78215">
        <ele>99.772583</ele>
        <time>2021-12-04T03:03:50.534Z</time>
      </trkpt>
      <trkpt lat="47.15494" lon="0.78232">
        <ele>99.762325</ele>
        <time>2021-12-04T03:04:26.674Z</time>
      </trkpt>
      <trkpt lat="47.15548" lon="0.78277">
        <ele>99.676604</ele>
        <time>2021-12-04T03:04:49.596Z</time>
      </trkpt>
      <trkpt lat="47.15611" lon="0.78309">
        <ele>99.459722</ele>
        <time>2021-12-04T03:05:14.035Z</time>
      </trkpt>
      <trkpt lat="47.15633" lon="0.78326">
        <ele>99.37656</ele>
        <time>2021-12-04T03:05:23.404Z</time>
      </trkpt>
      <trkpt lat="47.15676" lon="0.78376">
        <ele>99.199307</ele>
        <time>2021-12-04T03:05:43.480Z</time>
      </trkpt>
      <trkpt lat="47.15695" lon="0.78408">
        <ele>99.132144</ele>
        <time>2021-12-04T03:05:54.323Z</time>
      </trkpt>
      <trkpt lat="47.15736" lon="0.78445">
        <ele>99.042223</ele>
        <time>2021-12-04T03:06:12.010Z</time>
      </trkpt>
      <trkpt lat="47.15757" lon="0.78446">
        <ele>99.003186</ele>
        <time>2021-12-04T03:06:19.816Z</time>
      </trkpt>
      <trkpt lat="47.15791" lon="0.78422">
        <ele>98.932059</ele>
        <time>2021-12-04T03:06:34.188Z</time>
      </trkpt>
      <trkpt lat="47.1582" lon="0.78417">
        <ele>98.876302</ele>
        <time>2021-12-04T03:06:45.655Z</time>
      </trkpt>
      <trkpt lat="47.15834" lon="0.78409">
        <ele>98.848874</ele>
        <time>2021-12-04T03:06:51.032Z</time>
      </trkpt>
      <trkpt lat="47.15886" lon="0.78491">
        <ele>98.636235</ele>
        <time>2021-12-04T03:07:19.631Z</time>
      </trkpt>
      <trkpt lat="47.15891" lon="0.78494">
        <ele>98.620951</ele>
        <time>2021-12-04T03:07:21.590Z</time>
      </trkpt>
      <trkpt lat="47.15893" lon="0.78503">
        <ele>98.602364</ele>
        <time>2021-12-04T03:07:23.981Z</time>
      </trkpt>
      <trkpt lat="47.15889" lon="0.78512">
        <ele>98.581362</ele>
        <time>2021-12-04T03:07:26.705Z</time>
      </trkpt>
      <trkpt lat="47.15907" lon="0.78513">
        <ele>98.530958</ele>
        <time>2021-12-04T03:07:30.267Z</time>
      </trkpt>
      <trkpt lat="47.15939" lon="0.78529">
        <ele>98.432884</ele>
        <time>2021-12-04T03:07:37.687Z</time>
      </trkpt>
      <trkpt lat="47.1601" lon="0.78626">
        <ele>97.961401</ele>
        <time>2021-12-04T03:07:59.325Z</time>
      </trkpt>
      <trkpt lat="47.16023" lon="0.78645">
        <ele>97.84344</ele>
        <time>2021-12-04T03:08:04.642Z</time>
      </trkpt>
      <trkpt lat="47.16028" lon="0.78661">
        <ele>97.768525</ele>
        <time>2021-12-04T03:08:07.189Z</time>
      </trkpt>
      <trkpt lat="47.16017" lon="0.78667">
        <ele>97.692214</ele>
        <time>2021-12-04T03:08:09.977Z</time>
      </trkpt>
      <trkpt lat="47.16028" lon="0.78707">
        <ele>97.504527</ele>
        <time>2021-12-04T03:08:16.863Z</time>
      </trkpt>
      <trkpt lat="47.16023" lon="0.78708">
        <ele>97.47399</ele>
        <time>2021-12-04T03:08:18.828Z</time>
      </trkpt>
      <trkpt lat="47.16042" lon="0.78799">
        <ele>96.959235</ele>
        <time>2021-12-04T03:08:41.398Z</time>
      </trkpt>
      <trkpt lat="47.16053" lon="0.78825">
        <ele>96.71078</ele>
        <time>2021-12-04T03:08:48.548Z</time>
      </trkpt>
      <trkpt lat="47.16064" lon="0.78843">
        <ele>96.504282</ele>
        <time>2021-12-04T03:08:54.440Z</time>
      </trkpt>
      <trkpt lat="47.16078" lon="0.78892">
        <ele>96.063543</ele>
        <time>2021-12-04T03:09:07.043Z</time>
      </trkpt>
      <trkpt lat="47.16086" lon="0.78899">
        <ele>95.949021</ele>
        <time>2021-12-04T03:09:10.393Z</time>
      </trkpt>
      <trkpt lat="47.16097" lon="0.78897">
        <ele>95.814008</ele>
        <time>2021-12-04T03:09:14.109Z</time>
      </trkpt>
      <trkpt lat="47.16117" lon="0.78886">
        <ele>95.555524</ele>
        <time>2021-12-04T03:09:21.343Z</time>
      </trkpt>
      <trkpt lat="47.16166" lon="0.78862">
        <ele>94.933794</ele>
        <time>2021-12-04T03:09:38.610Z</time>
      </trkpt>
      <trkpt lat="47.16185" lon="0.78857">
        <ele>94.730741</ele>
        <time>2021-12-04T03:09:45.272Z</time>
      </trkpt>
      <trkpt lat="47.16181" lon="0.7895">
        <ele>94.068697</ele>
        <time>2021-12-04T03:09:57.871Z</time>
      </trkpt>
      <trkpt lat="47.16196" lon="0.79018">
        <ele>93.566845</ele>
        <time>2021-12-04T03:10:07.782Z</time>
      </trkpt>
      <trkpt lat="47.16211" lon="0.79012">
        <ele>93.410326</ele>
        <time>2021-12-04T03:10:13.239Z</time>
      </trkpt>
      <trkpt lat="47.16238" lon="0.78962">
        <ele>93.055967</ele>
        <time>2021-12-04T03:10:29.031Z</time>
      </trkpt>
      <trkpt lat="47.16343" lon="0.79144">
        <ele>92.427449</ele>
        <time>2021-12-04T03:11:29.343Z</time>
      </trkpt>
      <trkpt lat="47.16375" lon="0.79191">
        <ele>92.294668</ele>
        <time>2021-12-04T03:11:46.046Z</time>
      </trkpt>
      <trkpt lat="47.16482" lon="0.79255">
        <ele>91.960267</ele>
        <time>2021-12-04T03:12:28.582Z</time>
      </trkpt>
      <trkpt lat="47.16539" lon="0.7926">
        <ele>92.092545</ele>
        <time>2021-12-04T03:12:49.566Z</time>
      </trkpt>
      <trkpt lat="47.16544" lon="0.79424">
        <ele>92.719069</ele>
        <time>2021-12-04T03:13:35.744Z</time>
      </trkpt>
      <trkpt lat="47.16532" lon="0.79446">
        <ele>92.828249</ele>
        <time>2021-12-04T03:13:44.713Z</time>
      </trkpt>
      <trkpt lat="47.16549" lon="0.7944">
        <ele>92.97058</ele>
        <time>2021-12-04T03:13:53.008Z</time>
      </trkpt>
      <trkpt lat="47.16575" lon="0.79442">
        <ele>93.436996</ele>
        <time>2021-12-04T03:14:05.420Z</time>
      </trkpt>
      <trkpt lat="47.16605" lon="0.79454">
        <ele>93.98493</ele>
        <time>2021-12-04T03:14:20.445Z</time>
      </trkpt>
      <trkpt lat="47.16668" lon="0.79489">
        <ele>95.192674</ele>
        <time>2021-12-04T03:14:54.337Z</time>
      </trkpt>
      <trkpt lat="47.16712" lon="0.7952">
        <ele>96.07053</ele>
        <time>2021-12-04T03:15:18.928Z</time>
      </trkpt>
      <trkpt lat="47.16772" lon="0.79632">
        <ele>97.517812</ele>
        <time>2021-12-04T03:16:06.437Z</time>
      </trkpt>
      <trkpt lat="47.16789" lon="0.7964">
        <ele>97.786045</ele>
        <time>2021-12-04T03:16:14.321Z</time>
      </trkpt>
      <trkpt lat="47.16798" lon="0.79661">
        <ele>98.032602</ele>
        <time>2021-12-04T03:16:22.149Z</time>
      </trkpt>
      <trkpt lat="47.16844" lon="0.79747">
        <ele>98.941308</ele>
        <time>2021-12-04T03:16:49.320Z</time>
      </trkpt>
      <trkpt lat="47.16874" lon="0.79871">
        <ele>99.505525</ele>
        <time>2021-12-04T03:17:20.433Z</time>
      </trkpt>
      <trkpt lat="47.1692" lon="0.80018">
        <ele>100.048984</ele>
        <time>2021-12-04T03:17:56.202Z</time>
      </trkpt>
      <trkpt lat="47.16929" lon="0.80031">
        <ele>100.083659</ele>
        <time>2021-12-04T03:17:59.833Z</time>
      </trkpt>
      <trkpt lat="47.16965" lon="0.80031">
        <ele>100.188693</ele>
        <time>2021-12-04T03:18:09.092Z</time>
      </trkpt>
      <trkpt lat="47.17063" lon="0.79992">
        <ele>100.509575</ele>
        <time>2021-12-04T03:18:35.023Z</time>
      </trkpt>
      <trkpt lat="47.1716" lon="0.79899">
        <ele>101.105771</ele>
        <time>2021-12-04T03:19:07.029Z</time>
      </trkpt>
      <trkpt lat="47.17219" lon="0.79891">
        <ele>101.368458</ele>
        <time>2021-12-04T03:19:23.731Z</time>
      </trkpt>
      <trkpt lat="47.17255" lon="0.79894">
        <ele>101.355416</ele>
        <time>2021-12-04T03:19:33.437Z</time>
      </trkpt>
      <trkpt lat="47.17281" lon="0.79943">
        <ele>101.340127</ele>
        <time>2021-12-04T03:19:46.850Z</time>
      </trkpt>
      <trkpt lat="47.17306" lon="0.79928">
        <ele>101.330405</ele>
        <time>2021-12-04T03:19:55.217Z</time>
      </trkpt>
      <trkpt lat="47.17321" lon="0.79903">
        <ele>101.32242</ele>
        <time>2021-12-04T03:20:01.813Z</time>
      </trkpt>
      <trkpt lat="47.17325" lon="0.79899">
        <ele>101.320823</ele>
        <time>2021-12-04T03:20:02.864Z</time>
      </trkpt>
      <trkpt lat="47.17379" lon="0.80054">
        <ele>100.543299</ele>
        <time>2021-12-04T03:20:44.807Z</time>
      </trkpt>
      <trkpt lat="47.17425" lon="0.80133">
        <ele>99.861388</ele>
        <time>2021-12-04T03:21:09.345Z</time>
      </trkpt>
      <trkpt lat="47.17471" lon="0.80202">
        <ele>99.2957</ele>
        <time>2021-12-04T03:21:32.620Z</time>
      </trkpt>
      <trkpt lat="47.17532" lon="0.80264">
        <ele>98.72835</ele>
        <time>2021-12-04T03:21:58.901Z</time>
      </trkpt>
      <trkpt lat="47.17557" lon="0.80288">
        <ele>98.504613</ele>
        <time>2021-12-04T03:22:07.146Z</time>
      </trkpt>
      <trkpt lat="47.1756" lon="0.80303">
        <ele>98.423035</ele>
        <time>2021-12-04T03:22:09.475Z</time>
      </trkpt>
      <trkpt lat="47.17599" lon="0.80451">
        <ele>97.934336</ele>
        <time>2021-12-04T03:22:34.113Z</time>
      </trkpt>
      <trkpt lat="47.17609" lon="0.80557">
        <ele>97.693142</ele>
        <time>2021-12-04T03:22:50.938Z</time>
      </trkpt>
      <trkpt lat="47.17628" lon="0.80552">
        <ele>97.627987</ele>
        <time>2021-12-04T03:22:58.282Z</time>
      </trkpt>
      <trkpt lat="47.17658" lon="0.80593">
        <ele>97.798918</ele>
        <time>2021-12-04T03:23:13.752Z</time>
      </trkpt>
      <trkpt lat="47.17668" lon="0.80583">
        <ele>97.876929</ele>
        <time>2021-12-04T03:23:18.436Z</time>
      </trkpt>
      <trkpt lat="47.17688" lon="0.80556">
        <ele>98.056161</ele>
        <time>2021-12-04T03:23:29.442Z</time>
      </trkpt>
      <trkpt lat="47.17769" lon="0.8047">
        <ele>98.708409</ele>
        <time>2021-12-04T03:24:12.790Z</time>
      </trkpt>
      <trkpt lat="47.18086" lon="0.80019">
        <ele>104.234056</ele>
        <time>2021-12-04T03:27:41.831Z</time>
      </trkpt>
      <trkpt lat="47.18253" lon="0.80366">
        <ele>102.203054</ele>
        <time>2021-12-04T03:28:39.806Z</time>
      </trkpt>
      <trkpt lat="47.18351" lon="0.80525">
        <ele>100.761706</ele>
        <time>2021-12-04T03:29:09.087Z</time>
      </trkpt>
      <trkpt lat="47.18392" lon="0.80702">
        <ele>99.874293</ele>
        <time>2021-12-04T03:29:54.821Z</time>
      </trkpt>
      <trkpt lat="47.18436" lon="0.80835">
        <ele>99.28039</ele>
        <time>2021-12-04T03:30:31.628Z</time>
      </trkpt>
      <trkpt lat="47.18496" lon="0.81111">
        <ele>98.07154</ele>
        <time>2021-12-04T03:31:43.270Z</time>
      </trkpt>
      <trkpt lat="47.18505" lon="0.8121">
        <ele>97.484079</ele>
        <time>2021-12-04T03:32:07.300Z</time>
      </trkpt>
      <trkpt lat="47.18574" lon="0.81575">
        <ele>95.186085</ele>
        <time>2021-12-04T03:33:37.453Z</time>
      </trkpt>
      <trkpt lat="47.18573" lon="0.81659">
        <ele>95.360764</ele>
        <time>2021-12-04T03:33:58.562Z</time>
      </trkpt>
      <trkpt lat="47.18575" lon="0.81683">
        <ele>95.423961</ele>
        <time>2021-12-04T03:34:05.391Z</time>
      </trkpt>
      <trkpt lat="47.18581" lon="0.81696">
        <ele>95.462971</ele>
        <time>2021-12-04T03:34:09.415Z</time>
      </trkpt>
      <trkpt lat="47.18608" lon="0.81706">
        <ele>95.572128</ele>
        <time>2021-12-04T03:34:21.516Z</time>
      </trkpt>
      <trkpt lat="47.18664" lon="0.81699">
        <ele>95.786746</ele>
        <time>2021-12-04T03:34:45.938Z</time>
      </trkpt>
      <trkpt lat="47.18679" lon="0.81708">
        <ele>95.850587</ele>
        <time>2021-12-04T03:34:52.981Z</time>
      </trkpt>
      <trkpt lat="47.18728" lon="0.81767">
        <ele>96.430662</ele>
        <time>2021-12-04T03:35:22.158Z</time>
      </trkpt>
      <trkpt lat="47.18756" lon="0.81868">
        <ele>97.108383</ele>
        <time>2021-12-04T03:35:45.117Z</time>
      </trkpt>
      <trkpt lat="47.18876" lon="0.81816">
        <ele>97.346085</ele>
        <time>2021-12-04T03:36:17.413Z</time>
      </trkpt>
      <trkpt lat="47.1889" lon="0.81821">
        <ele>97.323067</ele>
        <time>2021-12-04T03:36:20.818Z</time>
      </trkpt>
      <trkpt lat="47.189" lon="0.81858">
        <ele>97.279427</ele>
        <time>2021-12-04T03:36:27.106Z</time>
      </trkpt>
      <trkpt lat="47.18914" lon="0.81875">
        <ele>97.250491</ele>
        <time>2021-12-04T03:36:31.315Z</time>
      </trkpt>
      <trkpt lat="47.18959" lon="0.81908">
        <ele>97.016508</ele>
        <time>2021-12-04T03:36:42.384Z</time>
      </trkpt>
      <trkpt lat="47.18972" lon="0.81962">
        <ele>96.538473</ele>
        <time>2021-12-04T03:36:50.495Z</time>
      </trkpt>
      <trkpt lat="47.18995" lon="0.82057">
        <ele>95.685404</ele>
        <time>2021-12-04T03:37:04.701Z</time>
      </trkpt>
      <trkpt lat="47.19013" lon="0.82122">
        <ele>95.090241</ele>
        <time>2021-12-04T03:37:21.080Z</time>
      </trkpt>
      <trkpt lat="47.19051" lon="0.82174">
        <ele>94.330085</ele>
        <time>2021-12-04T03:37:38.826Z</time>
      </trkpt>
      <trkpt lat="47.19101" lon="0.82247">
        <ele>93.275056</ele>
        <time>2021-12-04T03:38:02.553Z</time>
      </trkpt>
      <trkpt lat="47.19145" lon="0.82284">
        <ele>92.50181</ele>
        <time>2021-12-04T03:38:19.701Z</time>
      </trkpt>
      <trkpt lat="47.19203" lon="0.82374">
        <ele>91.269517</ele>
        <time>2021-12-04T03:38:48.239Z</time>
      </trkpt>
      <trkpt lat="47.19231" lon="0.82408">
        <ele>90.749291</ele>
        <time>2021-12-04T03:39:00.484Z</time>
      </trkpt>
      <trkpt lat="47.19311" lon="0.82482">
        <ele>89.498769</ele>
        <time>2021-12-04T03:39:32.935Z</time>
      </trkpt>
      <trkpt lat="47.19356" lon="0.826">
        <ele>88.792578</ele>
        <time>2021-12-04T03:40:05.249Z</time>
      </trkpt>
      <trkpt lat="47.19368" lon="0.82617">
        <ele>88.669092</ele>
        <time>2021-12-04T03:40:11.086Z</time>
      </trkpt>
      <trkpt lat="47.19413" lon="0.82653">
        <ele>88.272223</ele>
        <time>2021-12-04T03:40:30.394Z</time>
      </trkpt>
      <trkpt lat="47.1946" lon="0.82711">
        <ele>88.025138</ele>
        <time>2021-12-04T03:40:53.619Z</time>
      </trkpt>
      <trkpt lat="47.19544" lon="0.82788">
        <ele>87.629873</ele>
        <time>2021-12-04T03:41:31.335Z</time>
      </trkpt>
      <trkpt lat="47.19631" lon="0.82837">
        <ele>85.708944</ele>
        <time>2021-12-04T03:42:02.548Z</time>
      </trkpt>
      <trkpt lat="47.19677" lon="0.82871">
        <ele>84.391145</ele>
        <time>2021-12-04T03:42:18.636Z</time>
      </trkpt>
      <trkpt lat="47.19699" lon="0.82905">
        <ele>83.578419</ele>
        <time>2021-12-04T03:42:28.277Z</time>
      </trkpt>
      <trkpt lat="47.19697" lon="0.82926">
        <ele>83.194059</ele>
        <time>2021-12-04T03:42:32.660Z</time>
      </trkpt>
      <trkpt lat="47.1971" lon="0.83199">
        <ele>77.711504</ele>
        <time>2021-12-04T03:43:29.897Z</time>
      </trkpt>
      <trkpt lat="47.19717" lon="0.83206">
        <ele>77.660066</ele>
        <time>2021-12-04T03:43:31.835Z</time>
      </trkpt>
      <trkpt lat="47.19731" lon="0.83226">
        <ele>77.872452</ele>
        <time>2021-12-04T03:43:36.243Z</time>
      </trkpt>
      <trkpt lat="47.1974" lon="0.83251">
        <ele>78.082721</ele>
        <time>2021-12-04T03:43:40.928Z</time>
      </trkpt>
      <trkpt lat="47.19745" lon="0.83272">
        <ele>78.256205</ele>
        <time>2021-12-04T03:43:45.013Z</time>
      </trkpt>
      <trkpt lat="47.19746" lon="0.83297">
        <ele>78.442684</ele>
        <time>2021-12-04T03:43:49.932Z</time>
      </trkpt>
      <trkpt lat="47.19764" lon="0.83288">
        <ele>78.659679</ele>
        <time>2021-12-04T03:43:58.653Z</time>
      </trkpt>
      <trkpt lat="47.19796" lon="0.83279">
        <ele>79.014873</ele>
        <time>2021-12-04T03:44:14.689Z</time>
      </trkpt>
      <trkpt lat="47.19852" lon="0.83286">
        <ele>79.70958</ele>
        <time>2021-12-04T03:44:46.213Z</time>
      </trkpt>
      <trkpt lat="47.19877" lon="0.83308">
        <ele>80.733815</ele>
        <time>2021-12-04T03:45:03.482Z</time>
      </trkpt>
      <trkpt lat="47.19898" lon="0.8335">
        <ele>81.915447</ele>
        <time>2021-12-04T03:45:23.523Z</time>
      </trkpt>
      <trkpt lat="47.19931" lon="0.83387">
        <ele>83.326943</ele>
        <time>2021-12-04T03:45:48.221Z</time>
      </trkpt>
      <trkpt lat="47.19949" lon="0.83397">
        <ele>84.002115</ele>
        <time>2021-12-04T03:45:59.721Z</time>
      </trkpt>
      <trkpt lat="47.20034" lon="0.83408">
        <ele>86.865189</ele>
        <time>2021-12-04T03:46:50.950Z</time>
      </trkpt>
      <trkpt lat="47.201" lon="0.83435">
        <ele>89.180542</ele>
        <time>2021-12-04T03:47:32.671Z</time>
      </trkpt>
      <trkpt lat="47.20196" lon="0.83461">
        <ele>92.03083</ele>
        <time>2021-12-04T03:48:27.821Z</time>
      </trkpt>
      <trkpt lat="47.20264" lon="0.83511">
        <ele>93.068187</ele>
        <time>2021-12-04T03:49:04.557Z</time>
      </trkpt>
      <trkpt lat="47.20297" lon="0.83527">
        <ele>93.545809</ele>
        <time>2021-12-04T03:49:19.671Z</time>
      </trkpt>
      <trkpt lat="47.20351" lon="0.83496">
        <ele>94.216957</ele>
        <time>2021-12-04T03:49:33.991Z</time>
      </trkpt>
      <trkpt lat="47.2041" lon="0.83447">
        <ele>94.193044</ele>
        <time>2021-12-04T03:49:49.431Z</time>
      </trkpt>
      <trkpt lat="47.20531" lon="0.83946">
        <ele>94.007327</ele>
        <time>2021-12-04T03:52:04.842Z</time>
      </trkpt>
      <trkpt lat="47.2049" lon="0.83984">
        <ele>94.069229</ele>
        <time>2021-12-04T03:52:24.450Z</time>
      </trkpt>
      <trkpt lat="47.20632" lon="0.84062">
        <ele>94.078769</ele>
        <time>2021-12-04T03:53:24.608Z</time>
      </trkpt>
      <trkpt lat="47.20974" lon="0.8437">
        <ele>92.815186</ele>
        <time>2021-12-04T03:55:51.687Z</time>
      </trkpt>
      <trkpt lat="47.21268" lon="0.84401">
        <ele>93.136755</ele>
        <time>2021-12-04T03:57:46.338Z</time>
      </trkpt>
      <trkpt lat="47.21534" lon="0.84342">
        <ele>94.140046</ele>
        <time>2021-12-04T03:59:36.035Z</time>
      </trkpt>
      <trkpt lat="47.21859" lon="0.84232">
        <ele>94.82164</ele>
        <time>2021-12-04T04:01:47.862Z</time>
      </trkpt>
      <trkpt lat="47.22309" lon="0.84038">
        <ele>93.916291</ele>
        <time>2021-12-04T04:04:43.208Z</time>
      </trkpt>
      <trkpt lat="47.2241" lon="0.84007">
        <ele>93.701633</ele>
        <time>2021-12-04T04:05:21.529Z</time>
      </trkpt>
      <trkpt lat="47.22424" lon="0.84009">
        <ele>93.683962</ele>
        <time>2021-12-04T04:05:26.634Z</time>
      </trkpt>
      <trkpt lat="47.2242" lon="0.84024">
        <ele>93.702035</ele>
        <time>2021-12-04T04:05:29.161Z</time>
      </trkpt>
      <trkpt lat="47.22479" lon="0.84261">
        <ele>94.018472</ele>
        <time>2021-12-04T04:06:12.660Z</time>
      </trkpt>
      <trkpt lat="47.22491" lon="0.84331">
        <ele>94.340724</ele>
        <time>2021-12-04T04:06:26.356Z</time>
      </trkpt>
      <trkpt lat="47.22491" lon="0.84348">
        <ele>94.415337</ele>
        <time>2021-12-04T04:06:29.844Z</time>
      </trkpt>
      <trkpt lat="47.22523" lon="0.84552">
        <ele>95.261464</ele>
        <time>2021-12-04T04:07:10.801Z</time>
      </trkpt>
      <trkpt lat="47.22532" lon="0.8456">
        <ele>95.300033</ele>
        <time>2021-12-04T04:07:15.483Z</time>
      </trkpt>
      <trkpt lat="47.22575" lon="0.84642">
        <ele>95.546164</ele>
        <time>2021-12-04T04:07:43.825Z</time>
      </trkpt>
      <trkpt lat="47.22643" lon="0.84989">
        <ele>95.720812</ele>
        <time>2021-12-04T04:09:17.781Z</time>
      </trkpt>
      <trkpt lat="47.2265" lon="0.85008">
        <ele>95.68274</ele>
        <time>2021-12-04T04:09:23.151Z</time>
      </trkpt>
      <trkpt lat="47.22839" lon="0.85176">
        <ele>94.889901</ele>
        <time>2021-12-04T04:10:44.152Z</time>
      </trkpt>
      <trkpt lat="47.23296" lon="0.85584">
        <ele>93.341099</ele>
        <time>2021-12-04T04:14:03.110Z</time>
      </trkpt>
      <trkpt lat="47.23645" lon="0.85821">
        <ele>91.949989</ele>
        <time>2021-12-04T04:16:24.364Z</time>
      </trkpt>
      <trkpt lat="47.23885" lon="0.86036">
        <ele>91.507518</ele>
        <time>2021-12-04T04:18:10.565Z</time>
      </trkpt>
      <trkpt lat="47.24091" lon="0.8626">
        <ele>90.518623</ele>
        <time>2021-12-04T04:19:44.369Z</time>
      </trkpt>
      <trkpt lat="47.24116" lon="0.86299">
        <ele>90.369616</ele>
        <time>2021-12-04T04:19:58.007Z</time>
      </trkpt>
      <trkpt lat="47.24255" lon="0.86498">
        <ele>89.794726</ele>
        <time>2021-12-04T04:21:09.522Z</time>
      </trkpt>
      <trkpt lat="47.24763" lon="0.872">
        <ele>87.659032</ele>
        <time>2021-12-04T04:25:33.211Z</time>
      </trkpt>
      <trkpt lat="47.24764" lon="0.87206">
        <ele>87.58819</ele>
        <time>2021-12-04T04:25:34.709Z</time>
      </trkpt>
      <trkpt lat="47.2478" lon="0.87207">
        <ele>87.329718</ele>
        <time>2021-12-04T04:25:39.894Z</time>
      </trkpt>
      <trkpt lat="47.24793" lon="0.87221">
        <ele>87.068143</ele>
        <time>2021-12-04T04:25:45.495Z</time>
      </trkpt>
      <trkpt lat="47.24799" lon="0.87237">
        <ele>86.873668</ele>
        <time>2021-12-04T04:25:49.068Z</time>
      </trkpt>
      <trkpt lat="47.2481" lon="0.87293">
        <ele>86.097151</ele>
        <time>2021-12-04T04:26:00.826Z</time>
      </trkpt>
      <trkpt lat="47.24808" lon="0.87418">
        <ele>81.311929</ele>
        <time>2021-12-04T04:26:25.986Z</time>
      </trkpt>
      <trkpt lat="47.24815" lon="0.8744">
        <ele>80.380277</ele>
        <time>2021-12-04T04:26:30.844Z</time>
      </trkpt>
      <trkpt lat="47.24821" lon="0.87445">
        <ele>79.994707</ele>
        <time>2021-12-04T04:26:32.563Z</time>
      </trkpt>
      <trkpt lat="47.24807" lon="0.87574">
        <ele>75.076079</ele>
        <time>2021-12-04T04:26:45.882Z</time>
      </trkpt>
      <trkpt lat="47.24806" lon="0.87599">
        <ele>74.184704</ele>
        <time>2021-12-04T04:26:48.401Z</time>
      </trkpt>
      <trkpt lat="47.24876" lon="0.87597">
        <ele>70.493211</ele>
        <time>2021-12-04T04:26:59.272Z</time>
      </trkpt>
      <trkpt lat="47.24948" lon="0.87605">
        <ele>66.759008</ele>
        <time>2021-12-04T04:27:11.386Z</time>
      </trkpt>
      <trkpt lat="47.2495" lon="0.87606">
        <ele>66.821073</ele>
        <time>2021-12-04T04:27:11.742Z</time>
      </trkpt>
      <trkpt lat="47.24969" lon="0.87611">
        <ele>67.59143</ele>
        <time>2021-12-04T04:27:15.360Z</time>
      </trkpt>
      <trkpt lat="47.24989" lon="0.87616">
        <ele>68.369338</ele>
        <time>2021-12-04T04:27:20.746Z</time>
      </trkpt>
      <trkpt lat="47.24993" lon="0.87618">
        <ele>68.525877</ele>
        <time>2021-12-04T04:27:21.904Z</time>
      </trkpt>
      <trkpt lat="47.25002" lon="0.8762">
        <ele>68.863949</ele>
        <time>2021-12-04T04:27:25.201Z</time>
      </trkpt>
      <trkpt lat="47.25009" lon="0.87617">
        <ele>69.127183</ele>
        <time>2021-12-04T04:27:28.316Z</time>
      </trkpt>
      <trkpt lat="47.2501" lon="0.87648">
        <ele>69.927059</ele>
        <time>2021-12-04T04:27:37.020Z</time>
      </trkpt>
      <trkpt lat="47.25024" lon="0.87646">
        <ele>70.501566</ele>
        <time>2021-12-04T04:27:46.421Z</time>
      </trkpt>
      <trkpt lat="47.25037" lon="0.87635">
        <ele>71.070514</ele>
        <time>2021-12-04T04:27:55.323Z</time>
      </trkpt>
      <trkpt lat="47.25039" lon="0.8763">
        <ele>71.211303</ele>
        <time>2021-12-04T04:27:57.566Z</time>
      </trkpt>
      <trkpt lat="47.25041" lon="0.87623">
        <ele>71.413896</ele>
        <time>2021-12-04T04:28:00.724Z</time>
      </trkpt>
      <trkpt lat="47.25053" lon="0.8762">
        <ele>71.873086</ele>
        <time>2021-12-04T04:28:10.292Z</time>
      </trkpt>
      <trkpt lat="47.25074" lon="0.87595">
        <ele>72.901941</ele>
        <time>2021-12-04T04:28:29.540Z</time>
      </trkpt>
      <trkpt lat="47.2507" lon="0.87651">
        <ele>74.895631</ele>
        <time>2021-12-04T04:28:58.944Z</time>
      </trkpt>
      <trkpt lat="47.25079" lon="0.87666">
        <ele>75.830931</ele>
        <time>2021-12-04T04:29:10.116Z</time>
      </trkpt>
      <trkpt lat="47.25092" lon="0.87673">
        <ele>76.766688</ele>
        <time>2021-12-04T04:29:19.616Z</time>
      </trkpt>
      <trkpt lat="47.25154" lon="0.87704">
        <ele>81.236963</ele>
        <time>2021-12-04T04:30:05.624Z</time>
      </trkpt>
      <trkpt lat="47.25177" lon="0.87703">
        <ele>82.795528</ele>
        <time>2021-12-04T04:30:19.326Z</time>
      </trkpt>
      <trkpt lat="47.25239" lon="0.87707">
        <ele>86.204544</ele>
        <time>2021-12-04T04:30:55.223Z</time>
      </trkpt>
      <trkpt lat="47.25312" lon="0.87747">
        <ele>87.482959</ele>
        <time>2021-12-04T04:31:24.279Z</time>
      </trkpt>
      <trkpt lat="47.25388" lon="0.87825">
        <ele>88.861974</ele>
        <time>2021-12-04T04:31:46.159Z</time>
      </trkpt>
      <trkpt lat="47.25451" lon="0.87916">
        <ele>88.517605</ele>
        <time>2021-12-04T04:32:06.461Z</time>
      </trkpt>
      <trkpt lat="47.2548" lon="0.87949">
        <ele>88.373764</ele>
        <time>2021-12-04T04:32:14.988Z</time>
      </trkpt>
      <trkpt lat="47.25608" lon="0.88076">
        <ele>87.678252</ele>
        <time>2021-12-04T04:32:49.966Z</time>
      </trkpt>
      <trkpt lat="47.25753" lon="0.88272">
        <ele>87.029982</ele>
        <time>2021-12-04T04:33:34.532Z</time>
      </trkpt>
      <trkpt lat="47.25759" lon="0.88278">
        <ele>87.012954</ele>
        <time>2021-12-04T04:33:36.243Z</time>
      </trkpt>
      <trkpt lat="47.25786" lon="0.88294">
        <ele>86.941261</ele>
        <time>2021-12-04T04:33:43.738Z</time>
      </trkpt>
      <trkpt lat="47.25833" lon="0.88308">
        <ele>87.123904</ele>
        <time>2021-12-04T04:33:56.205Z</time>
      </trkpt>
      <trkpt lat="47.25845" lon="0.88404">
        <ele>87.680944</ele>
        <time>2021-12-04T04:34:15.253Z</time>
      </trkpt>
      <trkpt lat="47.25872" lon="0.88533">
        <ele>88.451664</ele>
        <time>2021-12-04T04:34:43.956Z</time>
      </trkpt>
      <trkpt lat="47.25867" lon="0.88558">
        <ele>88.602576</ele>
        <time>2021-12-04T04:34:49.402Z</time>
      </trkpt>
      <trkpt lat="47.25882" lon="0.88592">
        <ele>88.84078</ele>
        <time>2021-12-04T04:34:58.085Z</time>
      </trkpt>
      <trkpt lat="47.2591" lon="0.88621">
        <ele>89.126664</ele>
        <time>2021-12-04T04:35:08.029Z</time>
      </trkpt>
      <trkpt lat="47.26063" lon="0.88715">
        <ele>90.40936</ele>
        <time>2021-12-04T04:35:54.907Z</time>
      </trkpt>
      <trkpt lat="47.26108" lon="0.88752">
        <ele>90.754977</ele>
        <time>2021-12-04T04:36:10.628Z</time>
      </trkpt>
      <trkpt lat="47.26149" lon="0.88802">
        <ele>91.111052</ele>
        <time>2021-12-04T04:36:24.997Z</time>
      </trkpt>
      <trkpt lat="47.2617" lon="0.88842">
        <ele>91.198454</ele>
        <time>2021-12-04T04:36:34.113Z</time>
      </trkpt>
      <trkpt lat="47.262" lon="0.8888">
        <ele>91.270936</ele>
        <time>2021-12-04T04:36:44.138Z</time>
      </trkpt>
      <trkpt lat="47.26236" lon="0.88909">
        <ele>91.347903</ele>
        <time>2021-12-04T04:36:54.585Z</time>
      </trkpt>
      <trkpt lat="47.26261" lon="0.8894">
        <ele>91.409149</ele>
        <time>2021-12-04T04:37:02.850Z</time>
      </trkpt>
      <trkpt lat="47.26311" lon="0.89003">
        <ele>91.517945</ele>
        <time>2021-12-04T04:37:18.594Z</time>
      </trkpt>
      <trkpt lat="47.26407" lon="0.89079">
        <ele>91.669279</ele>
        <time>2021-12-04T04:37:44.552Z</time>
      </trkpt>
      <trkpt lat="47.26487" lon="0.89205">
        <ele>92.481173</ele>
        <time>2021-12-04T04:38:18.692Z</time>
      </trkpt>
      <trkpt lat="47.26523" lon="0.89261">
        <ele>93.012678</ele>
        <time>2021-12-04T04:38:35.223Z</time>
      </trkpt>
      <trkpt lat="47.26551" lon="0.89277">
        <ele>93.314942</ele>
        <time>2021-12-04T04:38:48.785Z</time>
      </trkpt>
      <trkpt lat="47.26611" lon="0.89368">
        <ele>93.974433</ele>
        <time>2021-12-04T04:39:27.723Z</time>
      </trkpt>
      <trkpt lat="47.26641" lon="0.89421">
        <ele>94.293454</ele>
        <time>2021-12-04T04:39:48.151Z</time>
      </trkpt>
      <trkpt lat="47.26697" lon="0.89558">
        <ele>94.637245</ele>
        <time>2021-12-04T04:40:30.965Z</time>
      </trkpt>
      <trkpt lat="47.26828" lon="0.8974">
        <ele>94.188978</ele>
        <time>2021-12-04T04:41:36.314Z</time>
      </trkpt>
      <trkpt lat="47.27135" lon="0.90066">
        <ele>94.821308</ele>
        <time>2021-12-04T04:44:05.418Z</time>
      </trkpt>
      <trkpt lat="47.27195" lon="0.90145">
        <ele>95.036763</ele>
        <time>2021-12-04T04:44:37.959Z</time>
      </trkpt>
      <trkpt lat="47.27203" lon="0.90167">
        <ele>95.082699</ele>
        <time>2021-12-04T04:44:44.820Z</time>
      </trkpt>
      <trkpt lat="47.27264" lon="0.9023">
        <ele>95.011792</ele>
        <time>2021-12-04T04:45:14.093Z</time>
      </trkpt>
      <trkpt lat="47.27339" lon="0.90323">
        <ele>94.746502</ele>
        <time>2021-12-04T04:45:50.504Z</time>
      </trkpt>
      <trkpt lat="47.2735" lon="0.90351">
        <ele>94.686095</ele>
        <time>2021-12-04T04:45:58.591Z</time>
      </trkpt>
      <trkpt lat="47.27401" lon="0.90395">
        <ele>94.2356</ele>
        <time>2021-12-04T04:46:19.520Z</time>
      </trkpt>
      <trkpt lat="47.27453" lon="0.90478">
        <ele>93.587296</ele>
        <time>2021-12-04T04:46:45.913Z</time>
      </trkpt>
      <trkpt lat="47.27476" lon="0.90501">
        <ele>93.348388</ele>
        <time>2021-12-04T04:46:55.944Z</time>
      </trkpt>
      <trkpt lat="47.27514" lon="0.90519">
        <ele>93.069527</ele>
        <time>2021-12-04T04:47:10.366Z</time>
      </trkpt>
      <trkpt lat="47.27529" lon="0.90541">
        <ele>92.970617</ele>
        <time>2021-12-04T04:47:18.312Z</time>
      </trkpt>
      <trkpt lat="47.27538" lon="0.9054">
        <ele>92.932486</ele>
        <time>2021-12-04T04:47:21.546Z</time>
      </trkpt>
      <trkpt lat="47.27578" lon="0.90574">
        <ele>92.722532</ele>
        <time>2021-12-04T04:47:38.744Z</time>
      </trkpt>
      <trkpt lat="47.27581" lon="0.90609">
        <ele>92.614927</ele>
        <time>2021-12-04T04:47:47.488Z</time>
      </trkpt>
      <trkpt lat="47.27625" lon="0.90657">
        <ele>92.366243</ele>
        <time>2021-12-04T04:48:07.883Z</time>
      </trkpt>
      <trkpt lat="47.2778" lon="0.90771">
        <ele>91.43153</ele>
        <time>2021-12-04T04:49:11.069Z</time>
      </trkpt>
      <trkpt lat="47.28034" lon="0.91026">
        <ele>89.450429</ele>
        <time>2021-12-04T04:51:00.628Z</time>
      </trkpt>
      <trkpt lat="47.28007" lon="0.91077">
        <ele>89.222841</ele>
        <time>2021-12-04T04:51:16.823Z</time>
      </trkpt>
      <trkpt lat="47.28056" lon="0.91147">
        <ele>89.070059</ele>
        <time>2021-12-04T04:51:42.315Z</time>
      </trkpt>
      <trkpt lat="47.28172" lon="0.9135">
        <ele>89.125015</ele>
        <time>2021-12-04T04:52:50.982Z</time>
      </trkpt>
      <trkpt lat="47.28242" lon="0.91495">
        <ele>89.440948</ele>
        <time>2021-12-04T04:53:38.747Z</time>
      </trkpt>
      <trkpt lat="47.28398" lon="0.91824">
        <ele>90.798353</ele>
        <time>2021-12-04T04:55:33.723Z</time>
      </trkpt>
      <trkpt lat="47.28424" lon="0.91863">
        <ele>90.861892</ele>
        <time>2021-12-04T04:55:48.501Z</time>
      </trkpt>
      <trkpt lat="47.28524" lon="0.9198">
        <ele>90.650776</ele>
        <time>2021-12-04T04:56:35.820Z</time>
      </trkpt>
      <trkpt lat="47.2873" lon="0.92241">
        <ele>89.270313</ele>
        <time>2021-12-04T04:58:13.359Z</time>
      </trkpt>
      <trkpt lat="47.28952" lon="0.92553">
        <ele>89.408367</ele>
        <time>2021-12-04T05:00:13.339Z</time>
      </trkpt>
      <trkpt lat="47.2912" lon="0.92797">
        <ele>89.435507</ele>
        <time>2021-12-04T05:01:43.004Z</time>
      </trkpt>
      <trkpt lat="47.29262" lon="0.92793">
        <ele>89.540818</ele>
        <time>2021-12-04T05:02:16.322Z</time>
      </trkpt>
      <trkpt lat="47.29454" lon="0.92788">
        <ele>89.834219</ele>
        <time>2021-12-04T05:03:02.367Z</time>
      </trkpt>
      <trkpt lat="47.29459" lon="0.92734">
        <ele>89.900695</ele>
        <time>2021-12-04T05:03:17.008Z</time>
      </trkpt>
      <trkpt lat="47.29551" lon="0.92717">
        <ele>89.991319</ele>
        <time>2021-12-04T05:03:53.530Z</time>
      </trkpt>
      <trkpt lat="47.29552" lon="0.92769">
        <ele>90.020719</ele>
        <time>2021-12-04T05:04:07.337Z</time>
      </trkpt>
      <trkpt lat="47.2963" lon="0.92726">
        <ele>90.056973</ele>
        <time>2021-12-04T05:04:26.024Z</time>
      </trkpt>
      <trkpt lat="47.29674" lon="0.92707">
        <ele>90.009373</ele>
        <time>2021-12-04T05:04:36.213Z</time>
      </trkpt>
      <trkpt lat="47.29772" lon="0.92681">
        <ele>89.906628</ele>
        <time>2021-12-04T05:04:58.589Z</time>
      </trkpt>
      <trkpt lat="47.29816" lon="0.92668">
        <ele>90.003458</ele>
        <time>2021-12-04T05:05:09.237Z</time>
      </trkpt>
      <trkpt lat="47.29892" lon="0.9264">
        <ele>90.325754</ele>
        <time>2021-12-04T05:05:28.881Z</time>
      </trkpt>
      <trkpt lat="47.29973" lon="0.92556">
        <ele>90.85156</ele>
        <time>2021-12-04T05:05:55.660Z</time>
      </trkpt>
      <trkpt lat="47.30024" lon="0.92535">
        <ele>91.309238</ele>
        <time>2021-12-04T05:06:10.322Z</time>
      </trkpt>
      <trkpt lat="47.30114" lon="0.92518">
        <ele>92.087834</ele>
        <time>2021-12-04T05:06:36.035Z</time>
      </trkpt>
      <trkpt lat="47.30209" lon="0.92863">
        <ele>94.884107</ele>
        <time>2021-12-04T05:08:30.006Z</time>
      </trkpt>
      <trkpt lat="47.30269" lon="0.93116">
        <ele>96.087568</ele>
        <time>2021-12-04T05:09:49.779Z</time>
      </trkpt>
      <trkpt lat="47.30341" lon="0.93384">
        <ele>95.111435</ele>
        <time>2021-12-04T05:11:00.994Z</time>
      </trkpt>
      <trkpt lat="47.30386" lon="0.93518">
        <ele>93.849733</ele>
        <time>2021-12-04T05:11:34.771Z</time>
      </trkpt>
      <trkpt lat="47.30402" lon="0.93562">
        <ele>93.20027</ele>
        <time>2021-12-04T05:11:46.024Z</time>
      </trkpt>
      <trkpt lat="47.30482" lon="0.93772">
        <ele>90.248086</ele>
        <time>2021-12-04T05:12:39.868Z</time>
      </trkpt>
      <trkpt lat="47.30495" lon="0.93821">
        <ele>89.847264</ele>
        <time>2021-12-04T05:12:51.977Z</time>
      </trkpt>
      <trkpt lat="47.30561" lon="0.9402">
        <ele>88.220886</ele>
        <time>2021-12-04T05:13:45.294Z</time>
      </trkpt>
      <trkpt lat="47.30648" lon="0.94234">
        <ele>86.745424</ele>
        <time>2021-12-04T05:14:45.672Z</time>
      </trkpt>
      <trkpt lat="47.30672" lon="0.94326">
        <ele>85.796991</ele>
        <time>2021-12-04T05:15:08.883Z</time>
      </trkpt>
      <trkpt lat="47.30696" lon="0.94377">
        <ele>85.214275</ele>
        <time>2021-12-04T05:15:22.892Z</time>
      </trkpt>
      <trkpt lat="47.30762" lon="0.9445">
        <ele>83.893859</ele>
        <time>2021-12-04T05:15:50.193Z</time>
      </trkpt>
      <trkpt lat="47.30832" lon="0.94698">
        <ele>80.138485</ele>
        <time>2021-12-04T05:16:50.007Z</time>
      </trkpt>
      <trkpt lat="47.3085" lon="0.9478">
        <ele>78.962775</ele>
        <time>2021-12-04T05:17:08.967Z</time>
      </trkpt>
      <trkpt lat="47.30861" lon="0.94794">
        <ele>78.669639</ele>
        <time>2021-12-04T05:17:13.689Z</time>
      </trkpt>
      <trkpt lat="47.30757" lon="0.94912">
        <ele>76.473742</ele>
        <time>2021-12-04T05:17:57.257Z</time>
      </trkpt>
      <trkpt lat="47.30738" lon="0.94976">
        <ele>75.942914</ele>
        <time>2021-12-04T05:18:13.106Z</time>
      </trkpt>
      <trkpt lat="47.30933" lon="0.95221">
        <ele>74.290966</ele>
        <time>2021-12-04T05:19:46.971Z</time>
      </trkpt>
      <trkpt lat="47.31091" lon="0.95417">
        <ele>73.811627</ele>
        <time>2021-12-04T05:21:04.825Z</time>
      </trkpt>
      <trkpt lat="47.31102" lon="0.9543">
        <ele>73.722149</ele>
        <time>2021-12-04T05:21:09.791Z</time>
      </trkpt>
      <trkpt lat="47.31118" lon="0.95456">
        <ele>73.55778</ele>
        <time>2021-12-04T05:21:18.646Z</time>
      </trkpt>
      <trkpt lat="47.31385" lon="0.95782">
        <ele>71.076804</ele>
        <time>2021-12-04T05:23:21.235Z</time>
      </trkpt>
      <trkpt lat="47.31305" lon="0.95871">
        <ele>70.739247</ele>
        <time>2021-12-04T05:23:44.789Z</time>
      </trkpt>
      <trkpt lat="47.31279" lon="0.95911">
        <ele>70.622485</ele>
        <time>2021-12-04T05:23:53.929Z</time>
      </trkpt>
      <trkpt lat="47.31578" lon="0.96326">
        <ele>71.346557</ele>
        <time>2021-12-04T05:26:30.963Z</time>
      </trkpt>
      <trkpt lat="47.31821" lon="0.96671">
        <ele>75.519418</ele>
        <time>2021-12-04T05:29:12.474Z</time>
      </trkpt>
      <trkpt lat="47.31835" lon="0.96686">
        <ele>75.503241</ele>
        <time>2021-12-04T05:29:17.341Z</time>
      </trkpt>
      <trkpt lat="47.31871" lon="0.96711">
        <ele>75.467892</ele>
        <time>2021-12-04T05:29:27.036Z</time>
      </trkpt>
      <trkpt lat="47.31985" lon="0.96811">
        <ele>74.967977</ele>
        <time>2021-12-04T05:29:55.690Z</time>
      </trkpt>
      <trkpt lat="47.32066" lon="0.96904">
        <ele>73.934667</ele>
        <time>2021-12-04T05:30:17.233Z</time>
      </trkpt>
      <trkpt lat="47.32109" lon="0.9696">
        <ele>73.590447</ele>
        <time>2021-12-04T05:30:29.984Z</time>
      </trkpt>
      <trkpt lat="47.32122" lon="0.96968">
        <ele>73.602452</ele>
        <time>2021-12-04T05:30:33.268Z</time>
      </trkpt>
      <trkpt lat="47.32179" lon="0.9698">
        <ele>73.650851</ele>
        <time>2021-12-04T05:30:46.787Z</time>
      </trkpt>
      <trkpt lat="47.3219" lon="0.97042">
        <ele>73.688087</ele>
        <time>2021-12-04T05:30:57.331Z</time>
      </trkpt>
      <trkpt lat="47.32201" lon="0.97087">
        <ele>73.715106</ele>
        <time>2021-12-04T05:31:05.724Z</time>
      </trkpt>
      <trkpt lat="47.32209" lon="0.97112">
        <ele>73.851762</ele>
        <time>2021-12-04T05:31:11.065Z</time>
      </trkpt>
      <trkpt lat="47.32261" lon="0.97208">
        <ele>75.219493</ele>
        <time>2021-12-04T05:31:38.378Z</time>
      </trkpt>
      <trkpt lat="47.32296" lon="0.97326">
        <ele>76.650398</ele>
        <time>2021-12-04T05:32:09.169Z</time>
      </trkpt>
      <trkpt lat="47.32319" lon="0.97425">
        <ele>77.589782</ele>
        <time>2021-12-04T05:32:33.588Z</time>
      </trkpt>
      <trkpt lat="47.32335" lon="0.97418">
        <ele>77.816639</ele>
        <time>2021-12-04T05:32:41.854Z</time>
      </trkpt>
      <trkpt lat="47.32397" lon="0.97465">
        <ele>78.727867</ele>
        <time>2021-12-04T05:33:14.240Z</time>
      </trkpt>
      <trkpt lat="47.32501" lon="0.97567">
        <ele>77.984808</ele>
        <time>2021-12-04T05:34:00.656Z</time>
      </trkpt>
      <trkpt lat="47.32689" lon="0.97695">
        <ele>73.305479</ele>
        <time>2021-12-04T05:35:07.536Z</time>
      </trkpt>
      <trkpt lat="47.32737" lon="0.97721">
        <ele>71.762824</ele>
        <time>2021-12-04T05:35:22.640Z</time>
      </trkpt>
      <trkpt lat="47.32768" lon="0.97634">
        <ele>68.549136</ele>
        <time>2021-12-04T05:35:42.094Z</time>
      </trkpt>
      <trkpt lat="47.32809" lon="0.97562">
        <ele>65.489874</ele>
        <time>2021-12-04T05:36:00.363Z</time>
      </trkpt>
      <trkpt lat="47.32888" lon="0.97693">
        <ele>60.550915</ele>
        <time>2021-12-04T05:36:20.639Z</time>
      </trkpt>
      <trkpt lat="47.32892" lon="0.97665">
        <ele>59.858356</ele>
        <time>2021-12-04T05:36:23.750Z</time>
      </trkpt>
      <trkpt lat="47.32951" lon="0.97688">
        <ele>57.624024</ele>
        <time>2021-12-04T05:36:42.512Z</time>
      </trkpt>
      <trkpt lat="47.33044" lon="0.97714">
        <ele>55.83126</ele>
        <time>2021-12-04T05:37:13.596Z</time>
      </trkpt>
      <trkpt lat="47.3303" lon="0.97857">
        <ele>54.863469</ele>
        <time>2021-12-04T05:37:34.330Z</time>
      </trkpt>
      <trkpt lat="47.33029" lon="0.97986">
        <ele>54.926523</ele>
        <time>2021-12-04T05:37:57.390Z</time>
      </trkpt>
      <trkpt lat="47.33039" lon="0.98321">
        <ele>55.659015</ele>
        <time>2021-12-04T05:38:55.013Z</time>
      </trkpt>
      <trkpt lat="47.3306" lon="0.98552">
        <ele>56.019871</ele>
        <time>2021-12-04T05:39:32.061Z</time>
      </trkpt>
      <trkpt lat="47.33066" lon="0.98651">
        <ele>56.153322</ele>
        <time>2021-12-04T05:39:48.577Z</time>
      </trkpt>
      <trkpt lat="47.33066" lon="0.98756">
        <ele>56.406952</ele>
        <time>2021-12-04T05:40:06.540Z</time>
      </trkpt>
      <trkpt lat="47.33065" lon="0.98812">
        <ele>56.56321</ele>
        <time>2021-12-04T05:40:19.081Z</time>
      </trkpt>
      <trkpt lat="47.33054" lon="0.98839">
        <ele>56.649929</ele>
        <time>2021-12-04T05:40:26.128Z</time>
      </trkpt>
      <trkpt lat="47.33038" lon="0.98974">
        <ele>56.86132</ele>
        <time>2021-12-04T05:40:57.103Z</time>
      </trkpt>
      <trkpt lat="47.33031" lon="0.99008">
        <ele>56.791361</ele>
        <time>2021-12-04T05:41:04.422Z</time>
      </trkpt>
      <trkpt lat="47.33024" lon="0.99017">
        <ele>56.762207</ele>
        <time>2021-12-04T05:41:07.446Z</time>
      </trkpt>
      <trkpt lat="47.33027" lon="0.99041">
        <ele>56.714702</ele>
        <time>2021-12-04T05:41:11.080Z</time>
      </trkpt>
      <trkpt lat="47.3302" lon="0.99108">
        <ele>56.582039</ele>
        <time>2021-12-04T05:41:20.770Z</time>
      </trkpt>
      <trkpt lat="47.33019" lon="0.99125">
        <ele>56.5474</ele>
        <time>2021-12-04T05:41:23.273Z</time>
      </trkpt>
      <trkpt lat="47.33027" lon="0.99127">
        <ele>56.526068</ele>
        <time>2021-12-04T05:41:24.784Z</time>
      </trkpt>
      <trkpt lat="47.3318" lon="0.99178">
        <ele>55.645919</ele>
        <time>2021-12-04T05:41:57.801Z</time>
      </trkpt>
      <trkpt lat="47.33177" lon="0.99197">
        <ele>55.559087</ele>
        <time>2021-12-04T05:42:00.771Z</time>
      </trkpt>
      <trkpt lat="47.33165" lon="0.99243">
        <ele>55.344313</ele>
        <time>2021-12-04T05:42:08.184Z</time>
      </trkpt>
      <trkpt lat="47.33127" lon="0.99341">
        <ele>54.951459</ele>
        <time>2021-12-04T05:42:25.511Z</time>
      </trkpt>
      <trkpt lat="47.33099" lon="0.9943">
        <ele>54.634196</ele>
        <time>2021-12-04T05:42:40.895Z</time>
      </trkpt>
      <trkpt lat="47.33097" lon="0.99439">
        <ele>54.601503</ele>
        <time>2021-12-04T05:42:42.441Z</time>
      </trkpt>
      <trkpt lat="47.33049" lon="0.99603">
        <ele>54.223036</ele>
        <time>2021-12-04T05:43:09.752Z</time>
      </trkpt>
      <trkpt lat="47.32973" lon="0.99892">
        <ele>54.021615</ele>
        <time>2021-12-04T05:44:29.728Z</time>
      </trkpt>
      <trkpt lat="47.32926" lon="1.00185">
        <ele>54.006634</ele>
        <time>2021-12-04T05:45:48.373Z</time>
      </trkpt>
      <trkpt lat="47.32915" lon="1.00325">
        <ele>53.972853</ele>
        <time>2021-12-04T05:46:24.255Z</time>
      </trkpt>
      <trkpt lat="47.32919" lon="1.00357">
        <ele>53.962118</ele>
        <time>2021-12-04T05:46:32.539Z</time>
      </trkpt>
      <trkpt lat="47.32939" lon="1.00376">
        <ele>53.950426</ele>
        <time>2021-12-04T05:46:41.627Z</time>
      </trkpt>
      <trkpt lat="47.33083" lon="1.00434">
        <ele>54.056762</ele>
        <time>2021-12-04T05:47:38.540Z</time>
      </trkpt>
      <trkpt lat="47.33073" lon="1.00479">
        <ele>54.13613</ele>
        <time>2021-12-04T05:47:51.638Z</time>
      </trkpt>
      <trkpt lat="47.3305" lon="1.00662">
        <ele>54.448922</ele>
        <time>2021-12-04T05:48:42.753Z</time>
      </trkpt>
      <trkpt lat="47.33042" lon="1.0072">
        <ele>54.550114</ele>
        <time>2021-12-04T05:48:58.848Z</time>
      </trkpt>
      <trkpt lat="47.33021" lon="1.00774">
        <ele>54.65519</ele>
        <time>2021-12-04T05:49:15.314Z</time>
      </trkpt>
      <trkpt lat="47.33014" lon="1.00822">
        <ele>54.738725</ele>
        <time>2021-12-04T05:49:28.282Z</time>
      </trkpt>
      <trkpt lat="47.33008" lon="1.01013">
        <ele>54.947189</ele>
        <time>2021-12-04T05:50:18.073Z</time>
      </trkpt>
      <trkpt lat="47.33006" lon="1.0138">
        <ele>55.349389</ele>
        <time>2021-12-04T05:51:55.967Z</time>
      </trkpt>
      <trkpt lat="47.3299" lon="1.01621">
        <ele>55.352906</ele>
        <time>2021-12-04T05:52:58.645Z</time>
      </trkpt>
      <trkpt lat="47.32997" lon="1.01702">
        <ele>55.336797</ele>
        <time>2021-12-04T05:53:19.497Z</time>
      </trkpt>
      <trkpt lat="47.3304" lon="1.01704">
        <ele>55.317491</ele>
        <time>2021-12-04T05:53:29.668Z</time>
      </trkpt>
      <trkpt lat="47.33094" lon="1.01726">
        <ele>55.292051</ele>
        <time>2021-12-04T05:53:42.938Z</time>
      </trkpt>
      <trkpt lat="47.33268" lon="1.01745">
        <ele>55.887359</ele>
        <time>2021-12-04T05:54:26.745Z</time>
      </trkpt>
      <trkpt lat="47.33354" lon="1.01732">
        <ele>56.996543</ele>
        <time>2021-12-04T05:54:53.320Z</time>
      </trkpt>
      <trkpt lat="47.33428" lon="1.01757">
        <ele>59.015868</ele>
        <time>2021-12-04T05:55:21.554Z</time>
      </trkpt>
      <trkpt lat="47.33436" lon="1.0176">
        <ele>59.235216</ele>
        <time>2021-12-04T05:55:25.117Z</time>
      </trkpt>
      <trkpt lat="47.33461" lon="1.01768">
        <ele>59.905387</ele>
        <time>2021-12-04T05:55:37.066Z</time>
      </trkpt>
      <trkpt lat="47.33474" lon="1.017">
        <ele>61.352466</ele>
        <time>2021-12-04T05:56:00.263Z</time>
      </trkpt>
      <trkpt lat="47.33476" lon="1.01688">
        <ele>61.731635</ele>
        <time>2021-12-04T05:56:04.318Z</time>
      </trkpt>
      <trkpt lat="47.33501" lon="1.0171">
        <ele>63.008206</ele>
        <time>2021-12-04T05:56:18.946Z</time>
      </trkpt>
      <trkpt lat="47.33516" lon="1.01723">
        <ele>63.811841</ele>
        <time>2021-12-04T05:56:28.411Z</time>
      </trkpt>
      <trkpt lat="47.33541" lon="1.01738">
        <ele>64.996124</ele>
        <time>2021-12-04T05:56:41.598Z</time>
      </trkpt>
      <trkpt lat="47.33562" lon="1.01753">
        <ele>66.061673</ele>
        <time>2021-12-04T05:56:53.834Z</time>
      </trkpt>
      <trkpt lat="47.3357" lon="1.01761">
        <ele>66.516816</ele>
        <time>2021-12-04T05:56:58.908Z</time>
      </trkpt>
      <trkpt lat="47.33581" lon="1.01769">
        <ele>67.033635</ele>
        <time>2021-12-04T05:57:05.122Z</time>
      </trkpt>
      <trkpt lat="47.33588" lon="1.01768">
        <ele>67.377637</ele>
        <time>2021-12-04T05:57:08.906Z</time>
      </trkpt>
      <trkpt lat="47.33611" lon="1.01735">
        <ele>68.805136</ele>
        <time>2021-12-04T05:57:26.115Z</time>
      </trkpt>
      <trkpt lat="47.33629" lon="1.0173">
        <ele>69.48803</ele>
        <time>2021-12-04T05:57:36.126Z</time>
      </trkpt>
      <trkpt lat="47.33677" lon="1.01777">
        <ele>71.494688</ele>
        <time>2021-12-04T05:58:05.081Z</time>
      </trkpt>
      <trkpt lat="47.33731" lon="1.01838">
        <ele>73.876711</ele>
        <time>2021-12-04T05:58:33.598Z</time>
      </trkpt>
      <trkpt lat="47.33791" lon="1.01918">
        <ele>76.431089</ele>
        <time>2021-12-04T05:59:16.721Z</time>
      </trkpt>
      <trkpt lat="47.33841" lon="1.02005">
        <ele>78.618153</ele>
        <time>2021-12-04T05:59:58.757Z</time>
      </trkpt>
      <trkpt lat="47.3387" lon="1.0204">
        <ele>79.686125</ele>
        <time>2021-12-04T06:00:19.564Z</time>
      </trkpt>
      <trkpt lat="47.33882" lon="1.02047">
        <ele>80.0478</ele>
        <time>2021-12-04T06:00:26.786Z</time>
      </trkpt>
      <trkpt lat="47.33892" lon="1.02045">
        <ele>80.348468</ele>
        <time>2021-12-04T06:00:32.922Z</time>
      </trkpt>
      <trkpt lat="47.339" lon="1.02047">
        <ele>80.64877</ele>
        <time>2021-12-04T06:00:37.578Z</time>
      </trkpt>
      <trkpt lat="47.33945" lon="1.02134">
        <ele>83.471306</ele>
        <time>2021-12-04T06:01:21.544Z</time>
      </trkpt>
      <trkpt lat="47.34036" lon="1.02277">
        <ele>88.585213</ele>
        <time>2021-12-04T06:02:45.553Z</time>
      </trkpt>
      <trkpt lat="47.34065" lon="1.02295">
        <ele>89.792856</ele>
        <time>2021-12-04T06:03:06.186Z</time>
      </trkpt>
      <trkpt lat="47.34098" lon="1.02335">
        <ele>91.411496</ele>
        <time>2021-12-04T06:03:32.392Z</time>
      </trkpt>
      <trkpt lat="47.34105" lon="1.02337">
        <ele>91.67912</ele>
        <time>2021-12-04T06:03:36.259Z</time>
      </trkpt>
      <trkpt lat="47.34138" lon="1.02311">
        <ele>93.094313</ele>
        <time>2021-12-04T06:03:58.210Z</time>
      </trkpt>
      <trkpt lat="47.34154" lon="1.02314">
        <ele>93.722728</ele>
        <time>2021-12-04T06:04:08.705Z</time>
      </trkpt>
      <trkpt lat="47.34165" lon="1.02351">
        <ele>94.56025</ele>
        <time>2021-12-04T06:04:19.959Z</time>
      </trkpt>
      <trkpt lat="47.34238" lon="1.02494">
        <ele>97.680757</ele>
        <time>2021-12-04T06:05:09.579Z</time>
      </trkpt>
      <trkpt lat="47.34267" lon="1.02561">
        <ele>98.980851</ele>
        <time>2021-12-04T06:05:27.730Z</time>
      </trkpt>
      <trkpt lat="47.3433" lon="1.02739">
        <ele>101.487233</ele>
        <time>2021-12-04T06:06:15.824Z</time>
      </trkpt>
      <trkpt lat="47.34376" lon="1.02686">
        <ele>102.558094</ele>
        <time>2021-12-04T06:06:36.158Z</time>
      </trkpt>
      <trkpt lat="47.34422" lon="1.02759">
        <ele>103.779243</ele>
        <time>2021-12-04T06:07:09.970Z</time>
      </trkpt>
      <trkpt lat="47.34482" lon="1.02826">
        <ele>105.144534</ele>
        <time>2021-12-04T06:07:47.648Z</time>
      </trkpt>
      <trkpt lat="47.34538" lon="1.0292">
        <ele>106.152835</ele>
        <time>2021-12-04T06:08:26.267Z</time>
      </trkpt>
      <trkpt lat="47.34569" lon="1.02983">
        <ele>106.735352</ele>
        <time>2021-12-04T06:08:49.380Z</time>
      </trkpt>
      <trkpt lat="47.34616" lon="1.03116">
        <ele>107.340964</ele>
        <time>2021-12-04T06:09:33.591Z</time>
      </trkpt>
      <trkpt lat="47.34696" lon="1.03285">
        <ele>107.312547</ele>
        <time>2021-12-04T06:10:25.910Z</time>
      </trkpt>
      <trkpt lat="47.3485" lon="1.0319">
        <ele>105.448081</ele>
        <time>2021-12-04T06:11:23.559Z</time>
      </trkpt>
      <trkpt lat="47.34884" lon="1.03188">
        <ele>105.131885</ele>
        <time>2021-12-04T06:11:34.958Z</time>
      </trkpt>
      <trkpt lat="47.34925" lon="1.03202">
        <ele>104.744953</ele>
        <time>2021-12-04T06:11:49.437Z</time>
      </trkpt>
      <trkpt lat="47.34973" lon="1.03243">
        <ele>104.230738</ele>
        <time>2021-12-04T06:12:09.204Z</time>
      </trkpt>
      <trkpt lat="47.35035" lon="1.03248">
        <ele>103.803355</ele>
        <time>2021-12-04T06:12:32.033Z</time>
      </trkpt>
      <trkpt lat="47.35117" lon="1.03269">
        <ele>104.25036</ele>
        <time>2021-12-04T06:13:03.397Z</time>
      </trkpt>
      <trkpt lat="47.3513" lon="1.03262">
        <ele>104.326143</ele>
        <time>2021-12-04T06:13:09.341Z</time>
      </trkpt>
      <trkpt lat="47.3516" lon="1.03203">
        <ele>104.595076</ele>
        <time>2021-12-04T06:13:31.563Z</time>
      </trkpt>
      <trkpt lat="47.35172" lon="1.03189">
        <ele>104.678175</ele>
        <time>2021-12-04T06:13:38.881Z</time>
      </trkpt>
      <trkpt lat="47.35232" lon="1.03175">
        <ele>105.77197</ele>
        <time>2021-12-04T06:14:08.044Z</time>
      </trkpt>
      <trkpt lat="47.35299" lon="1.03169">
        <ele>107.139697</ele>
        <time>2021-12-04T06:14:42.902Z</time>
      </trkpt>
      <trkpt lat="47.35436" lon="1.03326">
        <ele>110.398612</ele>
        <time>2021-12-04T06:15:48.003Z</time>
      </trkpt>
      <trkpt lat="47.35516" lon="1.03453">
        <ele>112.036111</ele>
        <time>2021-12-04T06:16:24.756Z</time>
      </trkpt>
      <trkpt lat="47.35645" lon="1.03815">
        <ele>114.063963</ele>
        <time>2021-12-04T06:17:43.686Z</time>
      </trkpt>
      <trkpt lat="47.35714" lon="1.04118">
        <ele>114.87406</ele>
        <time>2021-12-04T06:18:40.189Z</time>
      </trkpt>
      <trkpt lat="47.35746" lon="1.04255">
        <ele>115.152535</ele>
        <time>2021-12-04T06:19:18.893Z</time>
      </trkpt>
      <trkpt lat="47.35758" lon="1.04283">
        <ele>115.216846</ele>
        <time>2021-12-04T06:19:28.031Z</time>
      </trkpt>
      <trkpt lat="47.35786" lon="1.04343">
        <ele>115.356273</ele>
        <time>2021-12-04T06:19:47.698Z</time>
      </trkpt>
      <trkpt lat="47.35829" lon="1.04486">
        <ele>116.060462</ele>
        <time>2021-12-04T06:20:30.744Z</time>
      </trkpt>
      <trkpt lat="47.35886" lon="1.04613">
        <ele>116.907286</ele>
        <time>2021-12-04T06:21:16.344Z</time>
      </trkpt>
      <trkpt lat="47.35981" lon="1.04798">
        <ele>118.876801</ele>
        <time>2021-12-04T06:22:28.271Z</time>
      </trkpt>
      <trkpt lat="47.36003" lon="1.04828">
        <ele>119.347429</ele>
        <time>2021-12-04T06:22:42.492Z</time>
      </trkpt>
      <trkpt lat="47.36076" lon="1.04896">
        <ele>120.709092</ele>
        <time>2021-12-04T06:23:23.733Z</time>
      </trkpt>
      <trkpt lat="47.36243" lon="1.0514">
        <ele>124.719147</ele>
        <time>2021-12-04T06:25:17.742Z</time>
      </trkpt>
      <trkpt lat="47.3629" lon="1.05218">
        <ele>125.945057</ele>
        <time>2021-12-04T06:25:52.098Z</time>
      </trkpt>
      <trkpt lat="47.36411" lon="1.05468">
        <ele>129.496232</ele>
        <time>2021-12-04T06:27:32.656Z</time>
      </trkpt>
      <trkpt lat="47.36431" lon="1.05504">
        <ele>130.021446</ele>
        <time>2021-12-04T06:27:48.221Z</time>
      </trkpt>
      <trkpt lat="47.36646" lon="1.05603">
        <ele>133.03307</ele>
        <time>2021-12-04T06:29:35.107Z</time>
      </trkpt>
      <trkpt lat="47.36897" lon="1.05714">
        <ele>131.619109</ele>
        <time>2021-12-04T06:31:10.094Z</time>
      </trkpt>
      <trkpt lat="47.37284" lon="1.0589">
        <ele>126.844978</ele>
        <time>2021-12-04T06:33:28.290Z</time>
      </trkpt>
      <trkpt lat="47.37657" lon="1.06057">
        <ele>125.279632</ele>
        <time>2021-12-04T06:35:52.215Z</time>
      </trkpt>
      <trkpt lat="47.37999" lon="1.06205">
        <ele>126.420042</ele>
        <time>2021-12-04T06:38:17.539Z</time>
      </trkpt>
      <trkpt lat="47.38171" lon="1.06277">
        <ele>126.431201</ele>
        <time>2021-12-04T06:39:25.284Z</time>
      </trkpt>
      <trkpt lat="47.38384" lon="1.06373">
        <ele>125.940531</ele>
        <time>2021-12-04T06:40:48.602Z</time>
      </trkpt>
      <trkpt lat="47.38455" lon="1.06398">
        <ele>125.461951</ele>
        <time>2021-12-04T06:41:15.645Z</time>
      </trkpt>
      <trkpt lat="47.38704" lon="1.06508">
        <ele>123.160186</ele>
        <time>2021-12-04T06:42:47.479Z</time>
      </trkpt>
      <trkpt lat="47.39106" lon="1.06685">
        <ele>116.300029</ele>
        <time>2021-12-04T06:45:08.145Z</time>
      </trkpt>
      <trkpt lat="47.39678" lon="1.06941">
        <ele>105.41366</ele>
        <time>2021-12-04T06:48:25.668Z</time>
      </trkpt>
      <trkpt lat="47.39912" lon="1.07037">
        <ele>102.46783</ele>
        <time>2021-12-04T06:49:51.228Z</time>
      </trkpt>
      <trkpt lat="47.4028" lon="1.0721">
        <ele>97.599638</ele>
        <time>2021-12-04T06:52:02.882Z</time>
      </trkpt>
      <trkpt lat="47.40295" lon="1.07209">
        <ele>97.887767</ele>
        <time>2021-12-04T06:52:08.455Z</time>
      </trkpt>
      <trkpt lat="47.40327" lon="1.07189">
        <ele>98.555622</ele>
        <time>2021-12-04T06:52:22.327Z</time>
      </trkpt>
      <trkpt lat="47.40355" lon="1.07167">
        <ele>99.177932</ele>
        <time>2021-12-04T06:52:36.928Z</time>
      </trkpt>
      <trkpt lat="47.40392" lon="1.0716">
        <ele>99.890832</ele>
        <time>2021-12-04T06:52:56.371Z</time>
      </trkpt>
      <trkpt lat="47.40426" lon="1.07174">
        <ele>100.571602</ele>
        <time>2021-12-04T06:53:17.729Z</time>
      </trkpt>
      <trkpt lat="47.40453" lon="1.07197">
        <ele>101.346335</ele>
        <time>2021-12-04T06:53:38.630Z</time>
      </trkpt>
      <trkpt lat="47.40472" lon="1.0722">
        <ele>102.208407</ele>
        <time>2021-12-04T06:53:56.242Z</time>
      </trkpt>
      <trkpt lat="47.4048" lon="1.0724">
        <ele>102.775743</ele>
        <time>2021-12-04T06:54:07.868Z</time>
      </trkpt>
      <trkpt lat="47.40491" lon="1.0733">
        <ele>104.93628</ele>
        <time>2021-12-04T06:54:47.670Z</time>
      </trkpt>
      <trkpt lat="47.40498" lon="1.07357">
        <ele>105.633687</ele>
        <time>2021-12-04T06:54:59.666Z</time>
      </trkpt>
      <trkpt lat="47.40538" lon="1.07424">
        <ele>107.015729</ele>
        <time>2021-12-04T06:55:32.639Z</time>
      </trkpt>
      <trkpt lat="47.40663" lon="1.07779">
        <ele>100.703299</ele>
        <time>2021-12-04T06:56:57.812Z</time>
      </trkpt>
      <trkpt lat="47.40726" lon="1.07898">
        <ele>97.927668</ele>
        <time>2021-12-04T06:57:29.102Z</time>
      </trkpt>
      <trkpt lat="47.40802" lon="1.08004">
        <ele>96.056687</ele>
        <time>2021-12-04T06:58:03.643Z</time>
      </trkpt>
      <trkpt lat="47.40812" lon="1.08096">
        <ele>95.242616</ele>
        <time>2021-12-04T06:58:26.558Z</time>
      </trkpt>
      <trkpt lat="47.40796" lon="1.08478">
        <ele>95.205464</ele>
        <time>2021-12-04T07:00:13.196Z</time>
      </trkpt>
      <trkpt lat="47.40999" lon="1.08447">
        <ele>92.021088</ele>
        <time>2021-12-04T07:00:54.476Z</time>
      </trkpt>
      <trkpt lat="47.41012" lon="1.08464">
        <ele>91.608563</ele>
        <time>2021-12-04T07:00:57.782Z</time>
      </trkpt>
      <trkpt lat="47.41022" lon="1.08491">
        <ele>91.136468</ele>
        <time>2021-12-04T07:01:01.559Z</time>
      </trkpt>
      <trkpt lat="47.41041" lon="1.08582">
        <ele>89.783999</ele>
        <time>2021-12-04T07:01:12.466Z</time>
      </trkpt>
      <trkpt lat="47.41056" lon="1.0863">
        <ele>89.068937</ele>
        <time>2021-12-04T07:01:18.710Z</time>
      </trkpt>
      <trkpt lat="47.41107" lon="1.08742">
        <ele>87.242975</ele>
        <time>2021-12-04T07:01:36.416Z</time>
      </trkpt>
      <trkpt lat="47.41145" lon="1.08817">
        <ele>87.325169</ele>
        <time>2021-12-04T07:01:51.285Z</time>
      </trkpt>
      <trkpt lat="47.41163" lon="1.0886">
        <ele>87.520654</ele>
        <time>2021-12-04T07:02:00.473Z</time>
      </trkpt>
      <trkpt lat="47.41172" lon="1.08952">
        <ele>87.878603</ele>
        <time>2021-12-04T07:02:19.462Z</time>
      </trkpt>
      <trkpt lat="47.41201" lon="1.08986">
        <ele>88.029873</ele>
        <time>2021-12-04T07:02:31.265Z</time>
      </trkpt>
      <trkpt lat="47.41181" lon="1.09062">
        <ele>87.863288</ele>
        <time>2021-12-04T07:02:46.850Z</time>
      </trkpt>
      <trkpt lat="47.41181" lon="1.09107">
        <ele>87.773086</ele>
        <time>2021-12-04T07:02:53.635Z</time>
      </trkpt>
      <trkpt lat="47.41182" lon="1.09126">
        <ele>87.733416</ele>
        <time>2021-12-04T07:02:56.553Z</time>
      </trkpt>
      <trkpt lat="47.41192" lon="1.09386">
        <ele>85.257341</ele>
        <time>2021-12-04T07:03:30.358Z</time>
      </trkpt>
      <trkpt lat="47.41186" lon="1.09415">
        <ele>84.805956</ele>
        <time>2021-12-04T07:03:33.905Z</time>
      </trkpt>
      <trkpt lat="47.41212" lon="1.09409">
        <ele>84.226788</ele>
        <time>2021-12-04T07:03:38.688Z</time>
      </trkpt>
      <trkpt lat="47.41285" lon="1.09395">
        <ele>83.073763</ele>
        <time>2021-12-04T07:03:52.209Z</time>
      </trkpt>
      <trkpt lat="47.41302" lon="1.09381">
        <ele>82.851318</ele>
        <time>2021-12-04T07:03:56.152Z</time>
      </trkpt>
      <trkpt lat="47.41324" lon="1.09351">
        <ele>82.523195</ele>
        <time>2021-12-04T07:04:01.963Z</time>
      </trkpt>
      <trkpt lat="47.41333" lon="1.09338">
        <ele>82.382562</ele>
        <time>2021-12-04T07:04:04.522Z</time>
      </trkpt>
      <trkpt lat="47.41379" lon="1.09272">
        <ele>81.678883</ele>
        <time>2021-12-04T07:04:19.207Z</time>
      </trkpt>
      <trkpt lat="47.4139" lon="1.09261">
        <ele>81.590801</ele>
        <time>2021-12-04T07:04:23.175Z</time>
      </trkpt>
      <trkpt lat="47.41401" lon="1.09259">
        <ele>82.002636</ele>
        <time>2021-12-04T07:04:27.197Z</time>
      </trkpt>
      <trkpt lat="47.41413" lon="1.09267">
        <ele>82.485014</ele>
        <time>2021-12-04T07:04:33.013Z</time>
      </trkpt>
      <trkpt lat="47.41687" lon="1.09637">
        <ele>96.820779</ele>
        <time>2021-12-04T07:07:38.197Z</time>
      </trkpt>
      <trkpt lat="47.41696" lon="1.09659">
        <ele>97.40115</ele>
        <time>2021-12-04T07:07:45.642Z</time>
      </trkpt>
      <trkpt lat="47.41724" lon="1.0978">
        <ele>100.263452</ele>
        <time>2021-12-04T07:08:21.677Z</time>
      </trkpt>
      <trkpt lat="47.41818" lon="1.10184">
        <ele>109.307095</ele>
        <time>2021-12-04T07:10:25.938Z</time>
      </trkpt>
      <trkpt lat="47.4183" lon="1.10264">
        <ele>110.982382</ele>
        <time>2021-12-04T07:10:49.760Z</time>
      </trkpt>
      <trkpt lat="47.41838" lon="1.10288">
        <ele>111.540571</ele>
        <time>2021-12-04T07:10:58.664Z</time>
      </trkpt>
      <trkpt lat="47.4191" lon="1.10422">
        <ele>114.176032</ele>
        <time>2021-12-04T07:11:43.863Z</time>
      </trkpt>
      <trkpt lat="47.41902" lon="1.1046">
        <ele>114.708687</ele>
        <time>2021-12-04T07:11:58.042Z</time>
      </trkpt>
      <trkpt lat="47.41899" lon="1.10619">
        <ele>116.370221</ele>
        <time>2021-12-04T07:12:46.855Z</time>
      </trkpt>
      <trkpt lat="47.41902" lon="1.1065">
        <ele>116.512304</ele>
        <time>2021-12-04T07:12:56.078Z</time>
      </trkpt>
      <trkpt lat="47.41998" lon="1.10894">
        <ele>116.737017</ele>
        <time>2021-12-04T07:14:14.587Z</time>
      </trkpt>
      <trkpt lat="47.42038" lon="1.11035">
        <ele>115.800725</ele>
        <time>2021-12-04T07:14:49.488Z</time>
      </trkpt>
      <trkpt lat="47.42072" lon="1.11109">
        <ele>114.538766</ele>
        <time>2021-12-04T07:15:08.932Z</time>
      </trkpt>
      <trkpt lat="47.42186" lon="1.11346">
        <ele>111.311533</ele>
        <time>2021-12-04T07:16:12.289Z</time>
      </trkpt>
      <trkpt lat="47.42589" lon="1.1103">
        <ele>109.815465</ele>
        <time>2021-12-04T07:19:05.787Z</time>
      </trkpt>
      <trkpt lat="47.42768" lon="1.11347">
        <ele>109.053838</ele>
        <time>2021-12-04T07:20:10.512Z</time>
      </trkpt>
      <trkpt lat="47.42771" lon="1.11363">
        <ele>109.026101</ele>
        <time>2021-12-04T07:20:12.942Z</time>
      </trkpt>
      <trkpt lat="47.42793" lon="1.11385">
        <ele>108.957072</ele>
        <time>2021-12-04T07:20:23.147Z</time>
      </trkpt>
      <trkpt lat="47.42807" lon="1.11373">
        <ele>108.916187</ele>
        <time>2021-12-04T07:20:29.077Z</time>
      </trkpt>
      <trkpt lat="47.42814" lon="1.11375">
        <ele>108.898511</ele>
        <time>2021-12-04T07:20:31.698Z</time>
      </trkpt>
      <trkpt lat="47.42898" lon="1.11542">
        <ele>108.58582</ele>
        <time>2021-12-04T07:21:24.516Z</time>
      </trkpt>
      <trkpt lat="47.4292" lon="1.11591">
        <ele>108.502352</ele>
        <time>2021-12-04T07:21:39.329Z</time>
      </trkpt>
      <trkpt lat="47.43022" lon="1.11697">
        <ele>108.053068</ele>
        <time>2021-12-04T07:22:25.602Z</time>
      </trkpt>
      <trkpt lat="47.43077" lon="1.11776">
        <ele>107.736318</ele>
        <time>2021-12-04T07:22:53.532Z</time>
      </trkpt>
      <trkpt lat="47.4314" lon="1.11851">
        <ele>107.587107</ele>
        <time>2021-12-04T07:23:23.205Z</time>
      </trkpt>
      <trkpt lat="47.43478" lon="1.12072">
        <ele>108.076786</ele>
        <time>2021-12-04T07:25:45.190Z</time>
      </trkpt>
      <trkpt lat="47.43539" lon="1.12112">
        <ele>108.584614</ele>
        <time>2021-12-04T07:26:15.904Z</time>
      </trkpt>
      <trkpt lat="47.4356" lon="1.12116">
        <ele>108.74276</ele>
        <time>2021-12-04T07:26:25.937Z</time>
      </trkpt>
      <trkpt lat="47.43592" lon="1.12111">
        <ele>108.879246</ele>
        <time>2021-12-04T07:26:40.927Z</time>
      </trkpt>
      <trkpt lat="47.4369" lon="1.12155">
        <ele>109.038681</ele>
        <time>2021-12-04T07:27:24.311Z</time>
      </trkpt>
      <trkpt lat="47.43746" lon="1.12165">
        <ele>109.126866</ele>
        <time>2021-12-04T07:27:44.283Z</time>
      </trkpt>
      <trkpt lat="47.439" lon="1.12285">
        <ele>106.371445</ele>
        <time>2021-12-04T07:28:42.128Z</time>
      </trkpt>
      <trkpt lat="47.43984" lon="1.12381">
        <ele>105.463814</ele>
        <time>2021-12-04T07:29:18.844Z</time>
      </trkpt>
      <trkpt lat="47.44104" lon="1.12572">
        <ele>104.480939</ele>
        <time>2021-12-04T07:30:24.887Z</time>
      </trkpt>
      <trkpt lat="47.44115" lon="1.12542">
        <ele>104.400593</ele>
        <time>2021-12-04T07:30:33.228Z</time>
      </trkpt>
      <trkpt lat="47.44198" lon="1.1333">
        <ele>101.472154</ele>
        <time>2021-12-04T07:33:47.633Z</time>
      </trkpt>
      <trkpt lat="47.44088" lon="1.13613">
        <ele>101.590641</ele>
        <time>2021-12-04T07:35:14.812Z</time>
      </trkpt>
      <trkpt lat="47.44217" lon="1.13749">
        <ele>101.672447</ele>
        <time>2021-12-04T07:36:16.586Z</time>
      </trkpt>
      <trkpt lat="47.44429" lon="1.14152">
        <ele>100.57798</ele>
        <time>2021-12-04T07:38:23.701Z</time>
      </trkpt>
      <trkpt lat="47.44356" lon="1.14203">
        <ele>100.582333</ele>
        <time>2021-12-04T07:38:41.276Z</time>
      </trkpt>
      <trkpt lat="47.44284" lon="1.14269">
        <ele>101.430645</ele>
        <time>2021-12-04T07:39:02.598Z</time>
      </trkpt>
      <trkpt lat="47.44445" lon="1.1457">
        <ele>106.448595</ele>
        <time>2021-12-04T07:41:15.994Z</time>
      </trkpt>
      <trkpt lat="47.4448" lon="1.14713">
        <ele>109.024791</ele>
        <time>2021-12-04T07:42:13.490Z</time>
      </trkpt>
      <trkpt lat="47.4447" lon="1.14811">
        <ele>110.718523</ele>
        <time>2021-12-04T07:42:49.178Z</time>
      </trkpt>
      <trkpt lat="47.44458" lon="1.14867">
        <ele>111.088446</ele>
        <time>2021-12-04T07:43:08.761Z</time>
      </trkpt>
      <trkpt lat="47.4466" lon="1.15652">
        <ele>114.72092</ele>
        <time>2021-12-04T07:47:05.119Z</time>
      </trkpt>
      <trkpt lat="47.44749" lon="1.16018">
        <ele>114.70667</ele>
        <time>2021-12-04T07:48:44.628Z</time>
      </trkpt>
      <trkpt lat="47.45509" lon="1.15645">
        <ele>112.111285</ele>
        <time>2021-12-04T07:53:40.463Z</time>
      </trkpt>
      <trkpt lat="47.45517" lon="1.1573">
        <ele>112.021394</ele>
        <time>2021-12-04T07:54:02.643Z</time>
      </trkpt>
      <trkpt lat="47.4553" lon="1.15772">
        <ele>111.972986</ele>
        <time>2021-12-04T07:54:14.466Z</time>
      </trkpt>
      <trkpt lat="47.45606" lon="1.15817">
        <ele>111.645039</ele>
        <time>2021-12-04T07:54:44.960Z</time>
      </trkpt>
      <trkpt lat="47.45666" lon="1.15769">
        <ele>111.188076</ele>
        <time>2021-12-04T07:55:09.929Z</time>
      </trkpt>
      <trkpt lat="47.45715" lon="1.15713">
        <ele>110.773671</ele>
        <time>2021-12-04T07:55:31.897Z</time>
      </trkpt>
      <trkpt lat="47.45762" lon="1.15673">
        <ele>109.884981</ele>
        <time>2021-12-04T07:55:50.233Z</time>
      </trkpt>
      <trkpt lat="47.45844" lon="1.15672">
        <ele>108.337653</ele>
        <time>2021-12-04T07:56:17.424Z</time>
      </trkpt>
      <trkpt lat="47.45846" lon="1.15672">
        <ele>108.292425</ele>
        <time>2021-12-04T07:56:18.204Z</time>
      </trkpt>
      <trkpt lat="47.45988" lon="1.15617">
        <ele>104.89546</ele>
        <time>2021-12-04T07:57:05.302Z</time>
      </trkpt>
      <trkpt lat="47.46073" lon="1.15566">
        <ele>102.608136</ele>
        <time>2021-12-04T07:57:34.208Z</time>
      </trkpt>
      <trkpt lat="47.46124" lon="1.15543">
        <ele>101.589559</ele>
        <time>2021-12-04T07:57:51.459Z</time>
      </trkpt>
      <trkpt lat="47.46324" lon="1.15449">
        <ele>98.429167</ele>
        <time>2021-12-04T07:59:02.418Z</time>
      </trkpt>
      <trkpt lat="47.46384" lon="1.154">
        <ele>97.740803</ele>
        <time>2021-12-04T07:59:27.292Z</time>
      </trkpt>
      <trkpt lat="47.46553" lon="1.15299">
        <ele>96.723794</ele>
        <time>2021-12-04T08:00:34.051Z</time>
      </trkpt>
      <trkpt lat="47.46581" lon="1.15287">
        <ele>96.54458</ele>
        <time>2021-12-04T08:00:44.673Z</time>
      </trkpt>
      <trkpt lat="47.46612" lon="1.15284">
        <ele>96.290931</ele>
        <time>2021-12-04T08:00:55.768Z</time>
      </trkpt>
      <trkpt lat="47.46623" lon="1.1529">
        <ele>96.193625</ele>
        <time>2021-12-04T08:00:58.358Z</time>
      </trkpt>
      <trkpt lat="47.46632" lon="1.15279">
        <ele>96.095411</ele>
        <time>2021-12-04T08:01:01.018Z</time>
      </trkpt>
      <trkpt lat="47.467" lon="1.15257">
        <ele>95.523645</ele>
        <time>2021-12-04T08:01:16.090Z</time>
      </trkpt>
      <trkpt lat="47.46775" lon="1.15249">
        <ele>94.878854</ele>
        <time>2021-12-04T08:01:32.299Z</time>
      </trkpt>
      <trkpt lat="47.468" lon="1.15247">
        <ele>94.64828</ele>
        <time>2021-12-04T08:01:37.740Z</time>
      </trkpt>
      <trkpt lat="47.46815" lon="1.15235">
        <ele>94.496374</ele>
        <time>2021-12-04T08:01:41.328Z</time>
      </trkpt>
      <trkpt lat="47.46857" lon="1.15245">
        <ele>94.107278</ele>
        <time>2021-12-04T08:01:50.446Z</time>
      </trkpt>
      <trkpt lat="47.46896" lon="1.15244">
        <ele>93.749728</ele>
        <time>2021-12-04T08:01:58.884Z</time>
      </trkpt>
      <trkpt lat="47.46901" lon="1.15334">
        <ele>93.527684</ele>
        <time>2021-12-04T08:02:11.815Z</time>
      </trkpt>
      <trkpt lat="47.46922" lon="1.15441">
        <ele>93.5549</ele>
        <time>2021-12-04T08:02:28.588Z</time>
      </trkpt>
      <trkpt lat="47.4699" lon="1.15613">
        <ele>94.232118</ele>
        <time>2021-12-04T08:03:05.232Z</time>
      </trkpt>
      <trkpt lat="47.47065" lon="1.15831">
        <ele>95.717825</ele>
        <time>2021-12-04T08:03:55.502Z</time>
      </trkpt>
      <trkpt lat="47.47163" lon="1.16014">
        <ele>96.313978</ele>
        <time>2021-12-04T08:04:37.504Z</time>
      </trkpt>
      <trkpt lat="47.47243" lon="1.16164">
        <ele>94.907728</ele>
        <time>2021-12-04T08:05:03.341Z</time>
      </trkpt>
      <trkpt lat="47.47278" lon="1.16197">
        <ele>93.99331</ele>
        <time>2021-12-04T08:05:11.206Z</time>
      </trkpt>
      <trkpt lat="47.47311" lon="1.16247">
        <ele>92.372559</ele>
        <time>2021-12-04T08:05:19.753Z</time>
      </trkpt>
      <trkpt lat="47.47372" lon="1.16419">
        <ele>87.838928</ele>
        <time>2021-12-04T08:05:43.243Z</time>
      </trkpt>
      <trkpt lat="47.47388" lon="1.16419">
        <ele>87.297695</ele>
        <time>2021-12-04T08:05:45.940Z</time>
      </trkpt>
      <trkpt lat="47.47441" lon="1.1638">
        <ele>85.256864</ele>
        <time>2021-12-04T08:05:56.504Z</time>
      </trkpt>
      <trkpt lat="47.47456" lon="1.16379">
        <ele>84.749738</ele>
        <time>2021-12-04T08:05:59.061Z</time>
      </trkpt>
      <trkpt lat="47.47502" lon="1.165">
        <ele>82.432748</ele>
        <time>2021-12-04T08:06:16.391Z</time>
      </trkpt>
      <trkpt lat="47.47575" lon="1.1663">
        <ele>83.016428</ele>
        <time>2021-12-04T08:06:49.963Z</time>
      </trkpt>
      <trkpt lat="47.47584" lon="1.1664">
        <ele>83.074475</ele>
        <time>2021-12-04T08:06:53.752Z</time>
      </trkpt>
      <trkpt lat="47.47585" lon="1.16652">
        <ele>83.117825</ele>
        <time>2021-12-04T08:07:00.695Z</time>
      </trkpt>
      <trkpt lat="47.47597" lon="1.16663">
        <ele>83.186521</ele>
        <time>2021-12-04T08:07:05.779Z</time>
      </trkpt>
      <trkpt lat="47.47601" lon="1.1668">
        <ele>83.272078</ele>
        <time>2021-12-04T08:07:11.138Z</time>
      </trkpt>
      <trkpt lat="47.4761" lon="1.16684">
        <ele>83.422394</ele>
        <time>2021-12-04T08:07:19.198Z</time>
      </trkpt>
      <trkpt lat="47.47621" lon="1.16692">
        <ele>83.615374</ele>
        <time>2021-12-04T08:07:24.646Z</time>
      </trkpt>
      <trkpt lat="47.47629" lon="1.16713">
        <ele>83.862488</ele>
        <time>2021-12-04T08:07:32.468Z</time>
      </trkpt>
      <trkpt lat="47.47803" lon="1.1739">
        <ele>90.736887</ele>
        <time>2021-12-04T08:11:22.075Z</time>
      </trkpt>
      <trkpt lat="47.47838" lon="1.17548">
        <ele>89.497213</ele>
        <time>2021-12-04T08:12:02.283Z</time>
      </trkpt>
      <trkpt lat="47.47854" lon="1.17605">
        <ele>88.950999</ele>
        <time>2021-12-04T08:12:15.906Z</time>
      </trkpt>
      <trkpt lat="47.47866" lon="1.17624">
        <ele>88.724518</ele>
        <time>2021-12-04T08:12:21.518Z</time>
      </trkpt>
      <trkpt lat="47.47871" lon="1.17643">
        <ele>88.535138</ele>
        <time>2021-12-04T08:12:25.920Z</time>
      </trkpt>
      <trkpt lat="47.47872" lon="1.1768">
        <ele>87.95976</ele>
        <time>2021-12-04T08:12:33.615Z</time>
      </trkpt>
      <trkpt lat="47.47919" lon="1.17826">
        <ele>85.221029</ele>
        <time>2021-12-04T08:13:07.922Z</time>
      </trkpt>
      <trkpt lat="47.47937" lon="1.17877">
        <ele>84.250179</ele>
        <time>2021-12-04T08:13:20.310Z</time>
      </trkpt>
      <trkpt lat="47.48018" lon="1.18208">
        <ele>81.655769</ele>
        <time>2021-12-04T08:14:46.143Z</time>
      </trkpt>
      <trkpt lat="47.48026" lon="1.18284">
        <ele>80.769602</ele>
        <time>2021-12-04T08:15:00.074Z</time>
      </trkpt>
      <trkpt lat="47.48044" lon="1.18329">
        <ele>80.159606</ele>
        <time>2021-12-04T08:15:09.146Z</time>
      </trkpt>
      <trkpt lat="47.48071" lon="1.1839">
        <ele>79.224883</ele>
        <time>2021-12-04T08:15:18.509Z</time>
      </trkpt>
      <trkpt lat="47.48104" lon="1.18488">
        <ele>76.346066</ele>
        <time>2021-12-04T08:15:31.886Z</time>
      </trkpt>
      <trkpt lat="47.48143" lon="1.18603">
        <ele>72.987163</ele>
        <time>2021-12-04T08:15:46.763Z</time>
      </trkpt>
      <trkpt lat="47.48193" lon="1.18731">
        <ele>69.51526</ele>
        <time>2021-12-04T08:16:04.679Z</time>
      </trkpt>
      <trkpt lat="47.48207" lon="1.18765">
        <ele>68.586292</ele>
        <time>2021-12-04T08:16:09.576Z</time>
      </trkpt>
      <trkpt lat="47.48256" lon="1.18881">
        <ele>65.940161</ele>
        <time>2021-12-04T08:16:31.810Z</time>
      </trkpt>
      <trkpt lat="47.48284" lon="1.18938">
        <ele>65.293147</ele>
        <time>2021-12-04T08:16:43.826Z</time>
      </trkpt>
      <trkpt lat="47.48302" lon="1.18985">
        <ele>64.795275</ele>
        <time>2021-12-04T08:16:54.118Z</time>
      </trkpt>
      <trkpt lat="47.48328" lon="1.19073">
        <ele>63.906912</ele>
        <time>2021-12-04T08:17:12.572Z</time>
      </trkpt>
      <trkpt lat="47.4835" lon="1.19146">
        <ele>63.888919</ele>
        <time>2021-12-04T08:17:24.901Z</time>
      </trkpt>
      <trkpt lat="47.48397" lon="1.19307">
        <ele>64.043507</ele>
        <time>2021-12-04T08:17:56.719Z</time>
      </trkpt>
      <trkpt lat="47.48448" lon="1.1942">
        <ele>64.256616</ele>
        <time>2021-12-04T08:18:21.293Z</time>
      </trkpt>
      <trkpt lat="47.48459" lon="1.19435">
        <ele>64.293248</ele>
        <time>2021-12-04T08:18:27.325Z</time>
      </trkpt>
      <trkpt lat="47.48502" lon="1.19527">
        <ele>64.481574</ele>
        <time>2021-12-04T08:18:57.043Z</time>
      </trkpt>
      <trkpt lat="47.48578" lon="1.19671">
        <ele>64.496284</ele>
        <time>2021-12-04T08:19:43.026Z</time>
      </trkpt>
      <trkpt lat="47.48599" lon="1.19721">
        <ele>64.492086</ele>
        <time>2021-12-04T08:19:57.950Z</time>
      </trkpt>
      <trkpt lat="47.48645" lon="1.1986">
        <ele>65.058844</ele>
        <time>2021-12-04T08:20:40.949Z</time>
      </trkpt>
      <trkpt lat="47.48768" lon="1.20116">
        <ele>66.469864</ele>
        <time>2021-12-04T08:22:14.858Z</time>
      </trkpt>
      <trkpt lat="47.48901" lon="1.20295">
        <ele>66.684653</ele>
        <time>2021-12-04T08:23:23.096Z</time>
      </trkpt>
      <trkpt lat="47.48947" lon="1.20408">
        <ele>66.521231</ele>
        <time>2021-12-04T08:23:55.714Z</time>
      </trkpt>
      <trkpt lat="47.49003" lon="1.20636">
        <ele>66.265903</ele>
        <time>2021-12-04T08:24:57.141Z</time>
      </trkpt>
      <trkpt lat="47.49103" lon="1.21186">
        <ele>67.934867</ele>
        <time>2021-12-04T08:27:35.913Z</time>
      </trkpt>
      <trkpt lat="47.49108" lon="1.21396">
        <ele>68.078564</ele>
        <time>2021-12-04T08:28:30.168Z</time>
      </trkpt>
      <trkpt lat="47.49111" lon="1.21813">
        <ele>67.179213</ele>
        <time>2021-12-04T08:30:14.433Z</time>
      </trkpt>
      <trkpt lat="47.49087" lon="1.22106">
        <ele>66.438393</ele>
        <time>2021-12-04T08:31:27.860Z</time>
      </trkpt>
      <trkpt lat="47.49087" lon="1.22249">
        <ele>66.109087</ele>
        <time>2021-12-04T08:32:03.373Z</time>
      </trkpt>
      <trkpt lat="47.49074" lon="1.22482">
        <ele>65.684235</ele>
        <time>2021-12-04T08:33:02.205Z</time>
      </trkpt>
      <trkpt lat="47.49062" lon="1.2252">
        <ele>65.694552</ele>
        <time>2021-12-04T08:33:12.930Z</time>
      </trkpt>
      <trkpt lat="47.49061" lon="1.22535">
        <ele>65.698204</ele>
        <time>2021-12-04T08:33:16.623Z</time>
      </trkpt>
      <trkpt lat="47.49076" lon="1.22613">
        <ele>65.718225</ele>
        <time>2021-12-04T08:33:37.718Z</time>
      </trkpt>
      <trkpt lat="47.49086" lon="1.22781">
        <ele>65.82815</ele>
        <time>2021-12-04T08:34:22.674Z</time>
      </trkpt>
      <trkpt lat="47.49189" lon="1.23482">
        <ele>66.811639</ele>
        <time>2021-12-04T08:37:34.572Z</time>
      </trkpt>
      <trkpt lat="47.49214" lon="1.236">
        <ele>66.538863</ele>
        <time>2021-12-04T08:38:05.412Z</time>
      </trkpt>
      <trkpt lat="47.49272" lon="1.23846">
        <ele>65.760264</ele>
        <time>2021-12-04T08:39:08.927Z</time>
      </trkpt>
      <trkpt lat="47.49329" lon="1.24063">
        <ele>65.287873</ele>
        <time>2021-12-04T08:40:07.632Z</time>
      </trkpt>
      <trkpt lat="47.4933" lon="1.24087">
        <ele>65.277047</ele>
        <time>2021-12-04T08:40:13.755Z</time>
      </trkpt>
      <trkpt lat="47.49311" lon="1.24156">
        <ele>65.243019</ele>
        <time>2021-12-04T08:40:33.109Z</time>
      </trkpt>
      <trkpt lat="47.49293" lon="1.24266">
        <ele>65.191473</ele>
        <time>2021-12-04T08:41:02.398Z</time>
      </trkpt>
      <trkpt lat="47.49271" lon="1.24352">
        <ele>65.016521</ele>
        <time>2021-12-04T08:41:25.824Z</time>
      </trkpt>
      <trkpt lat="47.49267" lon="1.24427">
        <ele>64.873305</ele>
        <time>2021-12-04T08:41:44.616Z</time>
      </trkpt>
      <trkpt lat="47.49295" lon="1.24491">
        <ele>64.726402</ele>
        <time>2021-12-04T08:42:03.603Z</time>
      </trkpt>
      <trkpt lat="47.49346" lon="1.24544">
        <ele>64.412862</ele>
        <time>2021-12-04T08:42:25.963Z</time>
      </trkpt>
      <trkpt lat="47.49364" lon="1.24578">
        <ele>64.24115</ele>
        <time>2021-12-04T08:42:36.464Z</time>
      </trkpt>
      <trkpt lat="47.49444" lon="1.24754">
        <ele>63.542894</ele>
        <time>2021-12-04T08:43:28.352Z</time>
      </trkpt>
      <trkpt lat="47.49462" lon="1.24821">
        <ele>63.436389</ele>
        <time>2021-12-04T08:43:46.642Z</time>
      </trkpt>
      <trkpt lat="47.49456" lon="1.24912">
        <ele>63.302664</ele>
        <time>2021-12-04T08:44:09.882Z</time>
      </trkpt>
      <trkpt lat="47.49464" lon="1.24939">
        <ele>63.260529</ele>
        <time>2021-12-04T08:44:17.341Z</time>
      </trkpt>
      <trkpt lat="47.49469" lon="1.25057">
        <ele>63.362367</ele>
        <time>2021-12-04T08:44:48.376Z</time>
      </trkpt>
      <trkpt lat="47.49484" lon="1.2513">
        <ele>63.456687</ele>
        <time>2021-12-04T08:45:08.717Z</time>
      </trkpt>
      <trkpt lat="47.49489" lon="1.25219">
        <ele>63.567303</ele>
        <time>2021-12-04T08:45:32.505Z</time>
      </trkpt>
      <trkpt lat="47.49452" lon="1.25383">
        <ele>63.860734</ele>
        <time>2021-12-04T08:46:18.761Z</time>
      </trkpt>
      <trkpt lat="47.49403" lon="1.25536">
        <ele>64.198865</ele>
        <time>2021-12-04T08:47:04.674Z</time>
      </trkpt>
      <trkpt lat="47.49359" lon="1.25628">
        <ele>64.461409</ele>
        <time>2021-12-04T08:47:35.150Z</time>
      </trkpt>
      <trkpt lat="47.49345" lon="1.25668">
        <ele>64.566239</ele>
        <time>2021-12-04T08:47:47.385Z</time>
      </trkpt>
      <trkpt lat="47.4934" lon="1.25717">
        <ele>64.700152</ele>
        <time>2021-12-04T08:48:00.891Z</time>
      </trkpt>
      <trkpt lat="47.49381" lon="1.25941">
        <ele>65.476667</ele>
        <time>2021-12-04T08:49:04.862Z</time>
      </trkpt>
      <trkpt lat="47.49385" lon="1.26009">
        <ele>66.419348</ele>
        <time>2021-12-04T08:49:23.739Z</time>
      </trkpt>
      <trkpt lat="47.49394" lon="1.26013">
        <ele>66.659851</ele>
        <time>2021-12-04T08:49:27.985Z</time>
      </trkpt>
      <trkpt lat="47.49435" lon="1.2602">
        <ele>67.709344</ele>
        <time>2021-12-04T08:49:48.357Z</time>
      </trkpt>
      <trkpt lat="47.49454" lon="1.26026">
        <ele>68.194602</ele>
        <time>2021-12-04T08:49:58.779Z</time>
      </trkpt>
      <trkpt lat="47.49452" lon="1.26056">
        <ele>68.696496</ele>
        <time>2021-12-04T08:50:07.385Z</time>
      </trkpt>
      <trkpt lat="47.49437" lon="1.26086">
        <ele>69.328589</ele>
        <time>2021-12-04T08:50:18.693Z</time>
      </trkpt>
      <trkpt lat="47.49462" lon="1.2611">
        <ele>70.108342</ele>
        <time>2021-12-04T08:50:32.972Z</time>
      </trkpt>
      <trkpt lat="47.49504" lon="1.26161">
        <ele>73.076976</ele>
        <time>2021-12-04T08:51:02.142Z</time>
      </trkpt>
      <trkpt lat="47.49532" lon="1.26214">
        <ele>75.602894</ele>
        <time>2021-12-04T08:51:29.091Z</time>
      </trkpt>
      <trkpt lat="47.49572" lon="1.26243">
        <ele>78.064997</ele>
        <time>2021-12-04T08:51:56.141Z</time>
      </trkpt>
      <trkpt lat="47.49575" lon="1.26246">
        <ele>78.237941</ele>
        <time>2021-12-04T08:51:58.155Z</time>
      </trkpt>
      <trkpt lat="47.496" lon="1.26275">
        <ele>79.992252</ele>
        <time>2021-12-04T08:52:17.943Z</time>
      </trkpt>
      <trkpt lat="47.49635" lon="1.2631">
        <ele>81.665842</ele>
        <time>2021-12-04T08:52:42.629Z</time>
      </trkpt>
      <trkpt lat="47.49656" lon="1.2632">
        <ele>82.501349</ele>
        <time>2021-12-04T08:52:53.948Z</time>
      </trkpt>
      <trkpt lat="47.4967" lon="1.26319">
        <ele>83.085443</ele>
        <time>2021-12-04T08:53:01.082Z</time>
      </trkpt>
      <trkpt lat="47.49748" lon="1.26265">
        <ele>86.457407</ele>
        <time>2021-12-04T08:53:38.150Z</time>
      </trkpt>
      <trkpt lat="47.4975" lon="1.26278">
        <ele>86.792764</ele>
        <time>2021-12-04T08:53:43.177Z</time>
      </trkpt>
      <trkpt lat="47.49746" lon="1.26309">
        <ele>87.320676</ele>
        <time>2021-12-04T08:53:53.978Z</time>
      </trkpt>
      <trkpt lat="47.49768" lon="1.26405">
        <ele>88.593425</ele>
        <time>2021-12-04T08:54:27.283Z</time>
      </trkpt>
      <trkpt lat="47.49789" lon="1.26447">
        <ele>89.237479</ele>
        <time>2021-12-04T08:54:44.067Z</time>
      </trkpt>
      <trkpt lat="47.498" lon="1.2646">
        <ele>89.503497</ele>
        <time>2021-12-04T08:54:51.044Z</time>
      </trkpt>
      <trkpt lat="47.49866" lon="1.26587">
        <ele>91.3913</ele>
        <time>2021-12-04T08:55:42.192Z</time>
      </trkpt>
      <trkpt lat="47.49945" lon="1.26739">
        <ele>93.465623</ele>
        <time>2021-12-04T08:56:45.547Z</time>
      </trkpt>
      <trkpt lat="47.49961" lon="1.26779">
        <ele>93.785441</ele>
        <time>2021-12-04T08:57:00.616Z</time>
      </trkpt>
      <trkpt lat="47.49984" lon="1.2682">
        <ele>94.150182</ele>
        <time>2021-12-04T08:57:17.366Z</time>
      </trkpt>
      <trkpt lat="47.50124" lon="1.2702">
        <ele>95.50404</ele>
        <time>2021-12-04T08:58:37.592Z</time>
      </trkpt>
      <trkpt lat="47.50195" lon="1.27089">
        <ele>95.806309</ele>
        <time>2021-12-04T08:59:10.015Z</time>
      </trkpt>
      <trkpt lat="47.50242" lon="1.27119">
        <ele>96.124733</ele>
        <time>2021-12-04T08:59:31.144Z</time>
      </trkpt>
      <trkpt lat="47.50319" lon="1.27152">
        <ele>96.626587</ele>
        <time>2021-12-04T09:00:05.457Z</time>
      </trkpt>
      <trkpt lat="47.50399" lon="1.27205">
        <ele>96.849101</ele>
        <time>2021-12-04T09:00:43.733Z</time>
      </trkpt>
      <trkpt lat="47.505" lon="1.273">
        <ele>96.565775</ele>
        <time>2021-12-04T09:01:29.663Z</time>
      </trkpt>
      <trkpt lat="47.5062" lon="1.27466">
        <ele>92.06742</ele>
        <time>2021-12-04T09:02:22.275Z</time>
      </trkpt>
      <trkpt lat="47.50663" lon="1.27415">
        <ele>90.022272</ele>
        <time>2021-12-04T09:02:37.826Z</time>
      </trkpt>
      <trkpt lat="47.50777" lon="1.27275">
        <ele>82.555802</ele>
        <time>2021-12-04T09:03:02.391Z</time>
      </trkpt>
      <trkpt lat="47.51049" lon="1.27671">
        <ele>75.064372</ele>
        <time>2021-12-04T09:04:14.856Z</time>
      </trkpt>
      <trkpt lat="47.51142" lon="1.27758">
        <ele>73.377059</ele>
        <time>2021-12-04T09:04:37.218Z</time>
      </trkpt>
      <trkpt lat="47.51218" lon="1.27846">
        <ele>71.575305</ele>
        <time>2021-12-04T09:04:54.807Z</time>
      </trkpt>
      <trkpt lat="47.51235" lon="1.27795">
        <ele>70.611212</ele>
        <time>2021-12-04T09:05:02.132Z</time>
      </trkpt>
      <trkpt lat="47.51236" lon="1.27773">
        <ele>70.240608</ele>
        <time>2021-12-04T09:05:05.008Z</time>
      </trkpt>
      <trkpt lat="47.51221" lon="1.27694">
        <ele>68.854065</ele>
        <time>2021-12-04T09:05:15.390Z</time>
      </trkpt>
      <trkpt lat="47.51219" lon="1.27679">
        <ele>68.577154</ele>
        <time>2021-12-04T09:05:17.499Z</time>
      </trkpt>
      <trkpt lat="47.51216" lon="1.27666">
        <ele>68.361303</ele>
        <time>2021-12-04T09:05:20.215Z</time>
      </trkpt>
      <trkpt lat="47.5122" lon="1.27647">
        <ele>68.026328</ele>
        <time>2021-12-04T09:05:24.419Z</time>
      </trkpt>
      <trkpt lat="47.51259" lon="1.27579">
        <ele>67.104324</ele>
        <time>2021-12-04T09:05:43.958Z</time>
      </trkpt>
      <trkpt lat="47.51272" lon="1.27568">
        <ele>66.896926</ele>
        <time>2021-12-04T09:05:48.704Z</time>
      </trkpt>
      <trkpt lat="47.5137" lon="1.27528">
        <ele>65.430306</ele>
        <time>2021-12-04T09:06:24.597Z</time>
      </trkpt>
      <trkpt lat="47.51402" lon="1.27509">
        <ele>65.307914</ele>
        <time>2021-12-04T09:06:37.188Z</time>
      </trkpt>
      <trkpt lat="47.51441" lon="1.27458">
        <ele>65.283535</ele>
        <time>2021-12-04T09:06:56.838Z</time>
      </trkpt>
      <trkpt lat="47.51549" lon="1.2755">
        <ele>65.258304</ele>
        <time>2021-12-04T09:07:46.035Z</time>
      </trkpt>
      <trkpt lat="47.51594" lon="1.27573">
        <ele>65.302137</ele>
        <time>2021-12-04T09:08:05.439Z</time>
      </trkpt>
      <trkpt lat="47.51793" lon="1.27609">
        <ele>65.430299</ele>
        <time>2021-12-04T09:09:21.542Z</time>
      </trkpt>
      <trkpt lat="47.51902" lon="1.27619">
        <ele>65.441918</ele>
        <time>2021-12-04T09:10:04.036Z</time>
      </trkpt>
      <trkpt lat="47.52035" lon="1.27692">
        <ele>65.328444</ele>
        <time>2021-12-04T09:10:57.610Z</time>
      </trkpt>
      <trkpt lat="47.5206" lon="1.27693">
        <ele>65.285092</ele>
        <time>2021-12-04T09:11:06.694Z</time>
      </trkpt>
      <trkpt lat="47.52114" lon="1.27683">
        <ele>65.076468</ele>
        <time>2021-12-04T09:11:27.124Z</time>
      </trkpt>
      <trkpt lat="47.52208" lon="1.27703">
        <ele>64.718965</ele>
        <time>2021-12-04T09:12:01.342Z</time>
      </trkpt>
      <trkpt lat="47.52353" lon="1.27769">
        <ele>64.537578</ele>
        <time>2021-12-04T09:12:58.321Z</time>
      </trkpt>
      <trkpt lat="47.52369" lon="1.27778">
        <ele>64.524882</ele>
        <time>2021-12-04T09:13:04.944Z</time>
      </trkpt>
      <trkpt lat="47.52447" lon="1.27857">
        <ele>64.658306</ele>
        <time>2021-12-04T09:13:42.238Z</time>
      </trkpt>
      <trkpt lat="47.52469" lon="1.27871">
        <ele>64.720382</ele>
        <time>2021-12-04T09:13:51.881Z</time>
      </trkpt>
      <trkpt lat="47.52674" lon="1.27964">
        <ele>65.318855</ele>
        <time>2021-12-04T09:15:17.269Z</time>
      </trkpt>
      <trkpt lat="47.52721" lon="1.27998">
        <ele>65.473706</ele>
        <time>2021-12-04T09:15:38.289Z</time>
      </trkpt>
      <trkpt lat="47.52761" lon="1.2804">
        <ele>65.59573</ele>
        <time>2021-12-04T09:15:57.820Z</time>
      </trkpt>
      <trkpt lat="47.52815" lon="1.28128">
        <ele>65.791559</ele>
        <time>2021-12-04T09:16:30.282Z</time>
      </trkpt>
      <trkpt lat="47.52913" lon="1.28227">
        <ele>65.838021</ele>
        <time>2021-12-04T09:17:16.422Z</time>
      </trkpt>
      <trkpt lat="47.52991" lon="1.28295">
        <ele>65.695182</ele>
        <time>2021-12-04T09:17:49.944Z</time>
      </trkpt>
      <trkpt lat="47.53047" lon="1.28331">
        <ele>65.524604</ele>
        <time>2021-12-04T09:18:12.522Z</time>
      </trkpt>
      <trkpt lat="47.53051" lon="1.2834">
        <ele>65.497375</ele>
        <time>2021-12-04T09:18:15.073Z</time>
      </trkpt>
      <trkpt lat="47.53078" lon="1.28357">
        <ele>65.384902</ele>
        <time>2021-12-04T09:18:21.659Z</time>
      </trkpt>
      <trkpt lat="47.53127" lon="1.28416">
        <ele>65.141437</ele>
        <time>2021-12-04T09:18:36.037Z</time>
      </trkpt>
      <trkpt lat="47.53266" lon="1.28224">
        <ele>64.667448</ele>
        <time>2021-12-04T09:19:20.301Z</time>
      </trkpt>
      <trkpt lat="47.53617" lon="1.28729">
        <ele>65.193344</ele>
        <time>2021-12-04T09:22:31.162Z</time>
      </trkpt>
      <trkpt lat="47.53866" lon="1.29174">
        <ele>65.567538</ele>
        <time>2021-12-04T09:25:02.656Z</time>
      </trkpt>
      <trkpt lat="47.54128" lon="1.29546">
        <ele>65.077984</ele>
        <time>2021-12-04T09:27:18.772Z</time>
      </trkpt>
      <trkpt lat="47.54139" lon="1.29554">
        <ele>65.06302</ele>
        <time>2021-12-04T09:27:23.040Z</time>
      </trkpt>
      <trkpt lat="47.54784" lon="1.30303">
        <ele>65.10001</ele>
        <time>2021-12-04T09:32:35.929Z</time>
      </trkpt>
      <trkpt lat="47.54789" lon="1.30307">
        <ele>65.109893</ele>
        <time>2021-12-04T09:32:38.215Z</time>
      </trkpt>
      <trkpt lat="47.5488" lon="1.3018">
        <ele>65.331645</ele>
        <time>2021-12-04T09:33:27.559Z</time>
      </trkpt>
      <trkpt lat="47.54885" lon="1.30187">
        <ele>65.354479</ele>
        <time>2021-12-04T09:33:29.414Z</time>
      </trkpt>
      <trkpt lat="47.5489" lon="1.30194">
        <ele>65.377846</ele>
        <time>2021-12-04T09:33:31.280Z</time>
      </trkpt>
      <trkpt lat="47.54952" lon="1.30108">
        <ele>65.651642</ele>
        <time>2021-12-04T09:34:04.965Z</time>
      </trkpt>
      <trkpt lat="47.54967" lon="1.30112">
        <ele>65.700036</ele>
        <time>2021-12-04T09:34:10.906Z</time>
      </trkpt>
      <trkpt lat="47.55014" lon="1.30161">
        <ele>65.886296</ele>
        <time>2021-12-04T09:34:34.372Z</time>
      </trkpt>
      <trkpt lat="47.55053" lon="1.30192">
        <ele>66.037769</ele>
        <time>2021-12-04T09:34:52.131Z</time>
      </trkpt>
      <trkpt lat="47.55056" lon="1.30185">
        <ele>66.057641</ele>
        <time>2021-12-04T09:34:54.380Z</time>
      </trkpt>
      <trkpt lat="47.55188" lon="1.2992">
        <ele>66.567475</ele>
        <time>2021-12-04T09:36:23.462Z</time>
      </trkpt>
      <trkpt lat="47.55319" lon="1.30035">
        <ele>66.438359</ele>
        <time>2021-12-04T09:37:20.456Z</time>
      </trkpt>
      <trkpt lat="47.55363" lon="1.2995">
        <ele>66.227766</ele>
        <time>2021-12-04T09:37:47.276Z</time>
      </trkpt>
      <trkpt lat="47.5537" lon="1.29946">
        <ele>66.208246</ele>
        <time>2021-12-04T09:37:49.791Z</time>
      </trkpt>
      <trkpt lat="47.55432" lon="1.29985">
        <ele>66.122583</ele>
        <time>2021-12-04T09:38:14.815Z</time>
      </trkpt>
      <trkpt lat="47.55469" lon="1.30033">
        <ele>66.152032</ele>
        <time>2021-12-04T09:38:33.400Z</time>
      </trkpt>
      <trkpt lat="47.55523" lon="1.30072">
        <ele>66.187862</ele>
        <time>2021-12-04T09:38:56.573Z</time>
      </trkpt>
      <trkpt lat="47.55563" lon="1.30083">
        <ele>66.217939</ele>
        <time>2021-12-04T09:39:12.712Z</time>
      </trkpt>
      <trkpt lat="47.5578" lon="1.30246">
        <ele>67.678161</ele>
        <time>2021-12-04T09:40:56.393Z</time>
      </trkpt>
      <trkpt lat="47.55858" lon="1.30312">
        <ele>68.041112</ele>
        <time>2021-12-04T09:41:32.810Z</time>
      </trkpt>
      <trkpt lat="47.56047" lon="1.30454">
        <ele>67.663429</ele>
        <time>2021-12-04T09:42:51.510Z</time>
      </trkpt>
      <trkpt lat="47.56142" lon="1.30529">
        <ele>67.331411</ele>
        <time>2021-12-04T09:43:30.834Z</time>
      </trkpt>
      <trkpt lat="47.56567" lon="1.30956">
        <ele>66.72327</ele>
        <time>2021-12-04T09:46:44.585Z</time>
      </trkpt>
      <trkpt lat="47.56719" lon="1.31126">
        <ele>66.830975</ele>
        <time>2021-12-04T09:47:59.145Z</time>
      </trkpt>
      <trkpt lat="47.56762" lon="1.31205">
        <ele>66.8909</ele>
        <time>2021-12-04T09:48:25.211Z</time>
      </trkpt>
      <trkpt lat="47.56779" lon="1.3123">
        <ele>66.913542</ele>
        <time>2021-12-04T09:48:34.123Z</time>
      </trkpt>
      <trkpt lat="47.56825" lon="1.31261">
        <ele>66.966269</ele>
        <time>2021-12-04T09:48:53.514Z</time>
      </trkpt>
      <trkpt lat="47.56899" lon="1.31356">
        <ele>67.069224</ele>
        <time>2021-12-04T09:49:31.558Z</time>
      </trkpt>
      <trkpt lat="47.56922" lon="1.31395">
        <ele>67.135774</ele>
        <time>2021-12-04T09:49:45.388Z</time>
      </trkpt>
      <trkpt lat="47.57087" lon="1.31712">
        <ele>68.011729</ele>
        <time>2021-12-04T09:50:52.910Z</time>
      </trkpt>
      <trkpt lat="47.57121" lon="1.31782">
        <ele>68.211867</ele>
        <time>2021-12-04T09:51:07.676Z</time>
      </trkpt>
      <trkpt lat="47.5713" lon="1.318">
        <ele>68.265996</ele>
        <time>2021-12-04T09:51:11.631Z</time>
      </trkpt>
      <trkpt lat="47.57194" lon="1.31925">
        <ele>68.547838</ele>
        <time>2021-12-04T09:51:37.773Z</time>
      </trkpt>
      <trkpt lat="47.57243" lon="1.32017">
        <ele>68.756363</ele>
        <time>2021-12-04T09:51:56.972Z</time>
      </trkpt>
      <trkpt lat="47.57333" lon="1.32226">
        <ele>69.011331</ele>
        <time>2021-12-04T09:52:36.497Z</time>
      </trkpt>
      <trkpt lat="47.57395" lon="1.32343">
        <ele>69.246877</ele>
        <time>2021-12-04T09:53:02.068Z</time>
      </trkpt>
      <trkpt lat="47.57422" lon="1.32356">
        <ele>69.31544</ele>
        <time>2021-12-04T09:53:08.956Z</time>
      </trkpt>
      <trkpt lat="47.57427" lon="1.32356">
        <ele>69.328345</ele>
        <time>2021-12-04T09:53:11.068Z</time>
      </trkpt>
      <trkpt lat="47.57432" lon="1.32357">
        <ele>69.341858</ele>
        <time>2021-12-04T09:53:13.440Z</time>
      </trkpt>
      <trkpt lat="47.57446" lon="1.3239">
        <ele>69.404858</ele>
        <time>2021-12-04T09:53:23.390Z</time>
      </trkpt>
      <trkpt lat="47.57465" lon="1.32402">
        <ele>69.454601</ele>
        <time>2021-12-04T09:53:31.551Z</time>
      </trkpt>
      <trkpt lat="47.57476" lon="1.3241">
        <ele>69.413055</ele>
        <time>2021-12-04T09:53:35.337Z</time>
      </trkpt>
      <trkpt lat="47.57478" lon="1.32417">
        <ele>69.38582</ele>
        <time>2021-12-04T09:53:36.900Z</time>
      </trkpt>
      <trkpt lat="47.57482" lon="1.32426">
        <ele>69.346008</ele>
        <time>2021-12-04T09:53:42.188Z</time>
      </trkpt>
      <trkpt lat="47.57486" lon="1.32421">
        <ele>69.319232</ele>
        <time>2021-12-04T09:53:43.335Z</time>
      </trkpt>
      <trkpt lat="47.57502" lon="1.324">
        <ele>69.208961</ele>
        <time>2021-12-04T09:53:47.961Z</time>
      </trkpt>
      <trkpt lat="47.57794" lon="1.32121">
        <ele>67.153246</ele>
        <time>2021-12-04T09:55:00.286Z</time>
      </trkpt>
      <trkpt lat="47.57796" lon="1.3212">
        <ele>67.149902</ele>
        <time>2021-12-04T09:55:00.766Z</time>
      </trkpt>
      <trkpt lat="47.578" lon="1.32127">
        <ele>67.139008</ele>
        <time>2021-12-04T09:55:02.768Z</time>
      </trkpt>
      <trkpt lat="47.57812" lon="1.32149">
        <ele>67.107488</ele>
        <time>2021-12-04T09:55:09.911Z</time>
      </trkpt>
      <trkpt lat="47.57882" lon="1.32273">
        <ele>66.929966</ele>
        <time>2021-12-04T09:55:51.840Z</time>
      </trkpt>
      <trkpt lat="47.57886" lon="1.32278">
        <ele>66.921808</ele>
        <time>2021-12-04T09:55:53.878Z</time>
      </trkpt>
      <trkpt lat="47.58018" lon="1.32607">
        <ele>67.113876</ele>
        <time>2021-12-04T09:57:34.728Z</time>
      </trkpt>
      <trkpt lat="47.5801" lon="1.32613">
        <ele>67.107104</ele>
        <time>2021-12-04T09:57:37.680Z</time>
      </trkpt>
      <trkpt lat="47.58084" lon="1.32797">
        <ele>67.100373</ele>
        <time>2021-12-04T09:58:31.588Z</time>
      </trkpt>
      <trkpt lat="47.58064" lon="1.32788">
        <ele>67.130443</ele>
        <time>2021-12-04T09:58:39.980Z</time>
      </trkpt>
      <trkpt lat="47.58099" lon="1.32875">
        <ele>67.229103</ele>
        <time>2021-12-04T09:58:57.315Z</time>
      </trkpt>
      <trkpt lat="47.5816" lon="1.32974">
        <ele>67.395364</ele>
        <time>2021-12-04T09:59:21.315Z</time>
      </trkpt>
      <trkpt lat="47.58175" lon="1.32996">
        <ele>67.441437</ele>
        <time>2021-12-04T09:59:29.728Z</time>
      </trkpt>
      <trkpt lat="47.58193" lon="1.33039">
        <ele>67.515124</ele>
        <time>2021-12-04T09:59:43.346Z</time>
      </trkpt>
      <trkpt lat="47.58195" lon="1.33046">
        <ele>67.526731</ele>
        <time>2021-12-04T09:59:45.454Z</time>
      </trkpt>
      <trkpt lat="47.58218" lon="1.33096">
        <ele>67.615634</ele>
        <time>2021-12-04T10:00:01.609Z</time>
      </trkpt>
      <trkpt lat="47.58262" lon="1.3316">
        <ele>67.76372</ele>
        <time>2021-12-04T10:00:24.523Z</time>
      </trkpt>
      <trkpt lat="47.58275" lon="1.3318">
        <ele>67.811887</ele>
        <time>2021-12-04T10:00:31.365Z</time>
      </trkpt>
      <trkpt lat="47.58323" lon="1.33249">
        <ele>67.985547</ele>
        <time>2021-12-04T10:00:59.601Z</time>
      </trkpt>
      <trkpt lat="47.58375" lon="1.33324">
        <ele>68.147536</ele>
        <time>2021-12-04T10:01:28.464Z</time>
      </trkpt>
      <trkpt lat="47.58399" lon="1.3336">
        <ele>68.146359</ele>
        <time>2021-12-04T10:01:42.117Z</time>
      </trkpt>
      <trkpt lat="47.58424" lon="1.33396">
        <ele>68.145168</ele>
        <time>2021-12-04T10:01:55.592Z</time>
      </trkpt>
      <trkpt lat="47.58445" lon="1.33426">
        <ele>68.14418</ele>
        <time>2021-12-04T10:02:06.544Z</time>
      </trkpt>
      <trkpt lat="47.58465" lon="1.33449">
        <ele>68.143316</ele>
        <time>2021-12-04T10:02:16.131Z</time>
      </trkpt>
      <trkpt lat="47.5851" lon="1.33501">
        <ele>68.138858</ele>
        <time>2021-12-04T10:02:37.894Z</time>
      </trkpt>
      <trkpt lat="47.58512" lon="1.33496">
        <ele>68.137776</ele>
        <time>2021-12-04T10:02:39.361Z</time>
      </trkpt>
      <trkpt lat="47.58514" lon="1.33492">
        <ele>68.136894</ele>
        <time>2021-12-04T10:02:40.536Z</time>
      </trkpt>
      <trkpt lat="47.58543" lon="1.33537">
        <ele>68.125458</ele>
        <time>2021-12-04T10:02:49.890Z</time>
      </trkpt>
      <trkpt lat="47.58588" lon="1.33604">
        <ele>68.107941</ele>
        <time>2021-12-04T10:03:05.133Z</time>
      </trkpt>
      <trkpt lat="47.58589" lon="1.33605">
        <ele>68.107498</ele>
        <time>2021-12-04T10:03:05.566Z</time>
      </trkpt>
      <trkpt lat="47.58595" lon="1.33615">
        <ele>68.105079</ele>
        <time>2021-12-04T10:03:07.653Z</time>
      </trkpt>
      <trkpt lat="47.58599" lon="1.3362">
        <ele>68.103589</ele>
        <time>2021-12-04T10:03:09.015Z</time>
      </trkpt>
      <trkpt lat="47.58603" lon="1.33626">
        <ele>68.102125</ele>
        <time>2021-12-04T10:03:10.366Z</time>
      </trkpt>
      <trkpt lat="47.5861" lon="1.33636">
        <ele>68.099298</ele>
        <time>2021-12-04T10:03:13.018Z</time>
      </trkpt>
      <trkpt lat="47.58612" lon="1.33638">
        <ele>68.09882</ele>
        <time>2021-12-04T10:03:13.507Z</time>
      </trkpt>
      <trkpt lat="47.58617" lon="1.33648">
        <ele>68.096319</ele>
        <time>2021-12-04T10:03:15.843Z</time>
      </trkpt>
      <trkpt lat="47.58654" lon="1.33699">
        <ele>68.199901</ele>
        <time>2021-12-04T10:03:35.768Z</time>
      </trkpt>
      <trkpt lat="47.58779" lon="1.33903">
        <ele>68.701002</ele>
        <time>2021-12-04T10:04:50.642Z</time>
      </trkpt>
      <trkpt lat="47.5878" lon="1.33915">
        <ele>68.711553</ele>
        <time>2021-12-04T10:04:52.446Z</time>
      </trkpt>
      <trkpt lat="47.58805" lon="1.33961">
        <ele>68.764791</ele>
        <time>2021-12-04T10:05:02.045Z</time>
      </trkpt>
      <trkpt lat="47.58948" lon="1.34189">
        <ele>69.023675</ele>
        <time>2021-12-04T10:05:54.448Z</time>
      </trkpt>
      <trkpt lat="47.59015" lon="1.34331">
        <ele>68.982834</ele>
        <time>2021-12-04T10:06:40.257Z</time>
      </trkpt>
      <trkpt lat="47.59073" lon="1.34441">
        <ele>68.796864</ele>
        <time>2021-12-04T10:07:15.321Z</time>
      </trkpt>
      <trkpt lat="47.5908" lon="1.34439">
        <ele>68.782428</ele>
        <time>2021-12-04T10:07:17.937Z</time>
      </trkpt>
      <trkpt lat="47.59078" lon="1.34421">
        <ele>68.758071</ele>
        <time>2021-12-04T10:07:22.421Z</time>
      </trkpt>
      <trkpt lat="47.59131" lon="1.34526">
        <ele>68.242514</ele>
        <time>2021-12-04T10:07:54.312Z</time>
      </trkpt>
      <trkpt lat="47.59134" lon="1.3455">
        <ele>68.139735</ele>
        <time>2021-12-04T10:08:00.111Z</time>
      </trkpt>
      <trkpt lat="47.59199" lon="1.34722">
        <ele>67.587408</ele>
        <time>2021-12-04T10:08:48.356Z</time>
      </trkpt>
      <trkpt lat="47.5921" lon="1.34769">
        <ele>67.574996</ele>
        <time>2021-12-04T10:09:00.735Z</time>
      </trkpt>
      <trkpt lat="47.59255" lon="1.34907">
        <ele>67.587471</ele>
        <time>2021-12-04T10:09:41.536Z</time>
      </trkpt>
      <trkpt lat="47.59282" lon="1.34952">
        <ele>68.006039</ele>
        <time>2021-12-04T10:09:58.354Z</time>
      </trkpt>
      <trkpt lat="47.59294" lon="1.34972">
        <ele>68.193888</ele>
        <time>2021-12-04T10:10:05.860Z</time>
      </trkpt>
      <trkpt lat="47.59303" lon="1.34998">
        <ele>68.395992</ele>
        <time>2021-12-04T10:10:14.531Z</time>
      </trkpt>
      <trkpt lat="47.59304" lon="1.35011">
        <ele>68.485292</ele>
        <time>2021-12-04T10:10:18.301Z</time>
      </trkpt>
      <trkpt lat="47.59314" lon="1.35048">
        <ele>68.760149</ele>
        <time>2021-12-04T10:10:30.548Z</time>
      </trkpt>
      <trkpt lat="47.59343" lon="1.35099">
        <ele>69.222583</ele>
        <time>2021-12-04T10:10:52.100Z</time>
      </trkpt>
      <trkpt lat="47.59369" lon="1.35151">
        <ele>69.577509</ele>
        <time>2021-12-04T10:11:13.738Z</time>
      </trkpt>
      <trkpt lat="47.59449" lon="1.35297">
        <ele>70.451962</ele>
        <time>2021-12-04T10:12:09.211Z</time>
      </trkpt>
      <trkpt lat="47.59585" lon="1.35524">
        <ele>69.000325</ele>
        <time>2021-12-04T10:13:20.990Z</time>
      </trkpt>
      <trkpt lat="47.59594" lon="1.35532">
        <ele>68.930315</ele>
        <time>2021-12-04T10:13:24.407Z</time>
      </trkpt>
      <trkpt lat="47.59594" lon="1.35546">
        <ele>68.86326</ele>
        <time>2021-12-04T10:13:27.666Z</time>
      </trkpt>
      <trkpt lat="47.59621" lon="1.35639">
        <ele>68.381626</ele>
        <time>2021-12-04T10:13:51.662Z</time>
      </trkpt>
      <trkpt lat="47.59645" lon="1.35687">
        <ele>68.100251</ele>
        <time>2021-12-04T10:14:06.043Z</time>
      </trkpt>
      <trkpt lat="47.59678" lon="1.35726">
        <ele>67.800239</ele>
        <time>2021-12-04T10:14:21.772Z</time>
      </trkpt>
      <trkpt lat="47.59697" lon="1.35771">
        <ele>67.692799</ele>
        <time>2021-12-04T10:14:35.299Z</time>
      </trkpt>
      <trkpt lat="47.59715" lon="1.358">
        <ele>67.652785</ele>
        <time>2021-12-04T10:14:45.205Z</time>
      </trkpt>
      <trkpt lat="47.59742" lon="1.35867">
        <ele>67.572836</ele>
        <time>2021-12-04T10:15:04.897Z</time>
      </trkpt>
      <trkpt lat="47.5979" lon="1.35952">
        <ele>67.46005</ele>
        <time>2021-12-04T10:15:33.171Z</time>
      </trkpt>
      <trkpt lat="47.59846" lon="1.36024">
        <ele>67.476511</ele>
        <time>2021-12-04T10:16:01.496Z</time>
      </trkpt>
      <trkpt lat="47.5985" lon="1.36019">
        <ele>67.477735</ele>
        <time>2021-12-04T10:16:03.742Z</time>
      </trkpt>
      <trkpt lat="47.59932" lon="1.3617">
        <ele>67.516836</ele>
        <time>2021-12-04T10:16:35.356Z</time>
      </trkpt>
      <trkpt lat="47.59976" lon="1.36244">
        <ele>67.553672</ele>
        <time>2021-12-04T10:17:00.786Z</time>
      </trkpt>
      <trkpt lat="47.60031" lon="1.36317">
        <ele>67.59465</ele>
        <time>2021-12-04T10:17:29.734Z</time>
      </trkpt>
      <trkpt lat="47.60116" lon="1.36427">
        <ele>67.713017</ele>
        <time>2021-12-04T10:18:13.571Z</time>
      </trkpt>
      <trkpt lat="47.60298" lon="1.36654">
        <ele>68.220895</ele>
        <time>2021-12-04T10:19:10.092Z</time>
      </trkpt>
      <trkpt lat="47.60375" lon="1.36723">
        <ele>68.73325</ele>
        <time>2021-12-04T10:19:35.467Z</time>
      </trkpt>
      <trkpt lat="47.60465" lon="1.36841">
        <ele>69.432596</ele>
        <time>2021-12-04T10:20:07.904Z</time>
      </trkpt>
      <trkpt lat="47.60495" lon="1.36879">
        <ele>69.428708</ele>
        <time>2021-12-04T10:20:20.424Z</time>
      </trkpt>
      <trkpt lat="47.60563" lon="1.36942">
        <ele>69.420842</ele>
        <time>2021-12-04T10:20:44.362Z</time>
      </trkpt>
      <trkpt lat="47.60609" lon="1.36966">
        <ele>69.414938</ele>
        <time>2021-12-04T10:20:58.371Z</time>
      </trkpt>
      <trkpt lat="47.60782" lon="1.37012">
        <ele>68.988745</ele>
        <time>2021-12-04T10:21:49.931Z</time>
      </trkpt>
      <trkpt lat="47.60829" lon="1.37032">
        <ele>69.187185</ele>
        <time>2021-12-04T10:22:04.970Z</time>
      </trkpt>
      <trkpt lat="47.60901" lon="1.37076">
        <ele>69.540605</ele>
        <time>2021-12-04T10:22:30.346Z</time>
      </trkpt>
      <trkpt lat="47.60979" lon="1.37124">
        <ele>70.145162</ele>
        <time>2021-12-04T10:23:00.529Z</time>
      </trkpt>
      <trkpt lat="47.61099" lon="1.37178">
        <ele>71.703753</ele>
        <time>2021-12-04T10:23:49.135Z</time>
      </trkpt>
      <trkpt lat="47.61118" lon="1.37193">
        <ele>71.977582</ele>
        <time>2021-12-04T10:23:56.485Z</time>
      </trkpt>
      <trkpt lat="47.61205" lon="1.37262">
        <ele>72.883897</ele>
        <time>2021-12-04T10:24:26.662Z</time>
      </trkpt>
      <trkpt lat="47.61236" lon="1.37291">
        <ele>73.219633</ele>
        <time>2021-12-04T10:24:37.392Z</time>
      </trkpt>
      <trkpt lat="47.61354" lon="1.37453">
        <ele>74.502545</ele>
        <time>2021-12-04T10:25:21.590Z</time>
      </trkpt>
      <trkpt lat="47.61424" lon="1.37529">
        <ele>75.170179</ele>
        <time>2021-12-04T10:25:48.082Z</time>
      </trkpt>
      <trkpt lat="47.61523" lon="1.37662">
        <ele>76.276867</ele>
        <time>2021-12-04T10:26:29.145Z</time>
      </trkpt>
      <trkpt lat="47.61563" lon="1.37746">
        <ele>76.338565</ele>
        <time>2021-12-04T10:26:46.290Z</time>
      </trkpt>
      <trkpt lat="47.61586" lon="1.3778">
        <ele>76.200178</ele>
        <time>2021-12-04T10:26:53.821Z</time>
      </trkpt>
      <trkpt lat="47.61607" lon="1.37796">
        <ele>76.097976</ele>
        <time>2021-12-04T10:26:59.135Z</time>
      </trkpt>
      <trkpt lat="47.61622" lon="1.3782">
        <ele>76.006596</ele>
        <time>2021-12-04T10:27:04.060Z</time>
      </trkpt>
      <trkpt lat="47.61642" lon="1.37869">
        <ele>75.841336</ele>
        <time>2021-12-04T10:27:12.604Z</time>
      </trkpt>
      <trkpt lat="47.61651" lon="1.37904">
        <ele>75.725327</ele>
        <time>2021-12-04T10:27:18.022Z</time>
      </trkpt>
      <trkpt lat="47.61665" lon="1.38058">
        <ele>75.026296</ele>
        <time>2021-12-04T10:27:55.030Z</time>
      </trkpt>
      <trkpt lat="47.61757" lon="1.38263">
        <ele>73.941015</ele>
        <time>2021-12-04T10:28:56.216Z</time>
      </trkpt>
      <trkpt lat="47.61938" lon="1.38632">
        <ele>71.500801</ele>
        <time>2021-12-04T10:30:44.486Z</time>
      </trkpt>
      <trkpt lat="47.6201" lon="1.38748">
        <ele>70.927482</ele>
        <time>2021-12-04T10:31:23.573Z</time>
      </trkpt>
      <trkpt lat="47.62082" lon="1.38843">
        <ele>70.632863</ele>
        <time>2021-12-04T10:31:59.503Z</time>
      </trkpt>
      <trkpt lat="47.62117" lon="1.38903">
        <ele>70.526461</ele>
        <time>2021-12-04T10:32:12.185Z</time>
      </trkpt>
      <trkpt lat="47.62134" lon="1.38928">
        <ele>70.479245</ele>
        <time>2021-12-04T10:32:17.878Z</time>
      </trkpt>
      <trkpt lat="47.62175" lon="1.38986">
        <ele>70.435855</ele>
        <time>2021-12-04T10:32:39.097Z</time>
      </trkpt>
      <trkpt lat="47.62253" lon="1.39122">
        <ele>70.620909</ele>
        <time>2021-12-04T10:33:25.134Z</time>
      </trkpt>
      <trkpt lat="47.62343" lon="1.39263">
        <ele>71.409226</ele>
        <time>2021-12-04T10:34:20.072Z</time>
      </trkpt>
      <trkpt lat="47.62498" lon="1.39476">
        <ele>72.996571</ele>
        <time>2021-12-04T10:35:54.122Z</time>
      </trkpt>
      <trkpt lat="47.62578" lon="1.39601">
        <ele>73.240758</ele>
        <time>2021-12-04T10:36:38.490Z</time>
      </trkpt>
      <trkpt lat="47.62667" lon="1.39693">
        <ele>72.938202</ele>
        <time>2021-12-04T10:37:17.846Z</time>
      </trkpt>
      <trkpt lat="47.62744" lon="1.39785">
        <ele>72.647918</ele>
        <time>2021-12-04T10:37:54.488Z</time>
      </trkpt>
      <trkpt lat="47.62859" lon="1.39943">
        <ele>72.509898</ele>
        <time>2021-12-04T10:38:53.228Z</time>
      </trkpt>
      <trkpt lat="47.62912" lon="1.39997">
        <ele>72.650259</ele>
        <time>2021-12-04T10:39:18.498Z</time>
      </trkpt>
      <trkpt lat="47.62945" lon="1.40003">
        <ele>72.722814</ele>
        <time>2021-12-04T10:39:32.125Z</time>
      </trkpt>
      <trkpt lat="47.62953" lon="1.40011">
        <ele>72.74542</ele>
        <time>2021-12-04T10:39:36.233Z</time>
      </trkpt>
      <trkpt lat="47.63053" lon="1.4018">
        <ele>73.900087</ele>
        <time>2021-12-04T10:40:41.368Z</time>
      </trkpt>
      <trkpt lat="47.63141" lon="1.40308">
        <ele>74.695585</ele>
        <time>2021-12-04T10:41:34.449Z</time>
      </trkpt>
      <trkpt lat="47.63216" lon="1.40381">
        <ele>75.211505</ele>
        <time>2021-12-04T10:42:10.992Z</time>
      </trkpt>
      <trkpt lat="47.634" lon="1.40615">
        <ele>75.287747</ele>
        <time>2021-12-04T10:43:45.681Z</time>
      </trkpt>
      <trkpt lat="47.63492" lon="1.40748">
        <ele>74.807281</ele>
        <time>2021-12-04T10:44:31.824Z</time>
      </trkpt>
      <trkpt lat="47.63499" lon="1.40756">
        <ele>74.793804</ele>
        <time>2021-12-04T10:44:33.720Z</time>
      </trkpt>
      <trkpt lat="47.63547" lon="1.40819">
        <ele>74.692057</ele>
        <time>2021-12-04T10:44:48.162Z</time>
      </trkpt>
      <trkpt lat="47.63559" lon="1.40842">
        <ele>74.661232</ele>
        <time>2021-12-04T10:44:52.665Z</time>
      </trkpt>
      <trkpt lat="47.6384" lon="1.41243">
        <ele>75.166096</ele>
        <time>2021-12-04T10:47:27.821Z</time>
      </trkpt>
      <trkpt lat="47.63919" lon="1.41352">
        <ele>74.875689</ele>
        <time>2021-12-04T10:48:08.278Z</time>
      </trkpt>
      <trkpt lat="47.64192" lon="1.4169">
        <ele>72.629441</ele>
        <time>2021-12-04T10:50:14.911Z</time>
      </trkpt>
      <trkpt lat="47.643" lon="1.41801">
        <ele>72.381707</ele>
        <time>2021-12-04T10:51:04.424Z</time>
      </trkpt>
      <trkpt lat="47.64574" lon="1.42081">
        <ele>74.431716</ele>
        <time>2021-12-04T10:53:25.237Z</time>
      </trkpt>
      <trkpt lat="47.64706" lon="1.42239">
        <ele>75.06626</ele>
        <time>2021-12-04T10:54:34.725Z</time>
      </trkpt>
      <trkpt lat="47.64769" lon="1.42322">
        <ele>74.904945</ele>
        <time>2021-12-04T10:55:06.319Z</time>
      </trkpt>
      <trkpt lat="47.64936" lon="1.42613">
        <ele>73.428592</ele>
        <time>2021-12-04T10:56:02.914Z</time>
      </trkpt>
      <trkpt lat="47.64943" lon="1.42628">
        <ele>73.352359</ele>
        <time>2021-12-04T10:56:05.706Z</time>
      </trkpt>
      <trkpt lat="47.65107" lon="1.42887">
        <ele>73.071779</ele>
        <time>2021-12-04T10:57:03.092Z</time>
      </trkpt>
      <trkpt lat="47.65293" lon="1.43207">
        <ele>74.368733</ele>
        <time>2021-12-04T10:58:20.866Z</time>
      </trkpt>
      <trkpt lat="47.65327" lon="1.43264">
        <ele>74.648165</ele>
        <time>2021-12-04T10:58:35.409Z</time>
      </trkpt>
      <trkpt lat="47.65338" lon="1.43279">
        <ele>74.824717</ele>
        <time>2021-12-04T10:58:39.371Z</time>
      </trkpt>
      <trkpt lat="47.65395" lon="1.43345">
        <ele>75.81017</ele>
        <time>2021-12-04T10:58:59.783Z</time>
      </trkpt>
      <trkpt lat="47.65418" lon="1.43373">
        <ele>76.220342</ele>
        <time>2021-12-04T10:59:09.534Z</time>
      </trkpt>
      <trkpt lat="47.65469" lon="1.43453">
        <ele>77.297854</ele>
        <time>2021-12-04T10:59:34.932Z</time>
      </trkpt>
      <trkpt lat="47.65478" lon="1.43459">
        <ele>77.51745</ele>
        <time>2021-12-04T10:59:38.805Z</time>
      </trkpt>
      <trkpt lat="47.65489" lon="1.43458">
        <ele>77.753865</ele>
        <time>2021-12-04T10:59:43.210Z</time>
      </trkpt>
      <trkpt lat="47.65515" lon="1.43422">
        <ele>78.518646</ele>
        <time>2021-12-04T10:59:57.699Z</time>
      </trkpt>
      <trkpt lat="47.65523" lon="1.43413">
        <ele>78.738287</ele>
        <time>2021-12-04T11:00:01.886Z</time>
      </trkpt>
      <trkpt lat="47.65532" lon="1.43401">
        <ele>79.014145</ele>
        <time>2021-12-04T11:00:06.768Z</time>
      </trkpt>
      <trkpt lat="47.65557" lon="1.43435">
        <ele>79.749576</ele>
        <time>2021-12-04T11:00:19.372Z</time>
      </trkpt>
      <trkpt lat="47.65575" lon="1.43441">
        <ele>80.146656</ele>
        <time>2021-12-04T11:00:26.175Z</time>
      </trkpt>
      <trkpt lat="47.6559" lon="1.43437">
        <ele>80.482026</ele>
        <time>2021-12-04T11:00:31.386Z</time>
      </trkpt>
      <trkpt lat="47.65628" lon="1.43407">
        <ele>81.055998</ele>
        <time>2021-12-04T11:00:46.351Z</time>
      </trkpt>
      <trkpt lat="47.65633" lon="1.43413">
        <ele>81.063507</ele>
        <time>2021-12-04T11:00:48.870Z</time>
      </trkpt>
      <trkpt lat="47.65704" lon="1.43611">
        <ele>81.22922</ele>
        <time>2021-12-04T11:01:24.943Z</time>
      </trkpt>
      <trkpt lat="47.65747" lon="1.43696">
        <ele>80.359735</ele>
        <time>2021-12-04T11:01:39.534Z</time>
      </trkpt>
      <trkpt lat="47.65744" lon="1.43728">
        <ele>80.076271</ele>
        <time>2021-12-04T11:01:43.865Z</time>
      </trkpt>
      <trkpt lat="47.65722" lon="1.43784">
        <ele>79.497746</ele>
        <time>2021-12-04T11:01:52.867Z</time>
      </trkpt>
      <trkpt lat="47.65721" lon="1.43816">
        <ele>79.210287</ele>
        <time>2021-12-04T11:01:57.338Z</time>
      </trkpt>
      <trkpt lat="47.65727" lon="1.43887">
        <ele>78.653433</ele>
        <time>2021-12-04T11:02:07.374Z</time>
      </trkpt>
      <trkpt lat="47.65742" lon="1.43933">
        <ele>78.332954</ele>
        <time>2021-12-04T11:02:14.549Z</time>
      </trkpt>
      <trkpt lat="47.65814" lon="1.44024">
        <ele>77.436055</ele>
        <time>2021-12-04T11:02:35.664Z</time>
      </trkpt>
      <trkpt lat="47.65818" lon="1.44035">
        <ele>77.358137</ele>
        <time>2021-12-04T11:02:37.466Z</time>
      </trkpt>
      <trkpt lat="47.65819" lon="1.44068">
        <ele>77.139427</ele>
        <time>2021-12-04T11:02:42.182Z</time>
      </trkpt>
      <trkpt lat="47.65829" lon="1.44108">
        <ele>76.719039</ele>
        <time>2021-12-04T11:02:47.965Z</time>
      </trkpt>
      <trkpt lat="47.65876" lon="1.44192">
        <ele>75.627409</ele>
        <time>2021-12-04T11:03:02.140Z</time>
      </trkpt>
      <trkpt lat="47.6589" lon="1.44231">
        <ele>75.195907</ele>
        <time>2021-12-04T11:03:07.627Z</time>
      </trkpt>
      <trkpt lat="47.65894" lon="1.44249">
        <ele>75.006103</ele>
        <time>2021-12-04T11:03:10.075Z</time>
      </trkpt>
      <trkpt lat="47.65824" lon="1.44298">
        <ele>74.132572</ele>
        <time>2021-12-04T11:03:24.939Z</time>
      </trkpt>
      <trkpt lat="47.65807" lon="1.44312">
        <ele>73.960523</ele>
        <time>2021-12-04T11:03:29.029Z</time>
      </trkpt>
      <trkpt lat="47.65791" lon="1.4433">
        <ele>73.784415</ele>
        <time>2021-12-04T11:03:33.210Z</time>
      </trkpt>
      <trkpt lat="47.6578" lon="1.44361">
        <ele>73.580007</ele>
        <time>2021-12-04T11:03:38.119Z</time>
      </trkpt>
      <trkpt lat="47.65695" lon="1.44646">
        <ele>72.778878</ele>
        <time>2021-12-04T11:04:28.551Z</time>
      </trkpt>
      <trkpt lat="47.65608" lon="1.44784">
        <ele>72.615684</ele>
        <time>2021-12-04T11:04:58.538Z</time>
      </trkpt>
      <trkpt lat="47.65599" lon="1.44829">
        <ele>72.57313</ele>
        <time>2021-12-04T11:05:05.858Z</time>
      </trkpt>
      <trkpt lat="47.65601" lon="1.44855">
        <ele>72.549336</ele>
        <time>2021-12-04T11:05:09.980Z</time>
      </trkpt>
      <trkpt lat="47.65603" lon="1.45011">
        <ele>72.718314</ele>
        <time>2021-12-04T11:05:35.802Z</time>
      </trkpt>
      <trkpt lat="47.6563" lon="1.45257">
        <ele>73.199435</ele>
        <time>2021-12-04T11:06:22.675Z</time>
      </trkpt>
      <trkpt lat="47.65859" lon="1.47155">
        <ele>73.454141</ele>
        <time>2021-12-04T11:11:37.658Z</time>
      </trkpt>
      <trkpt lat="47.65948" lon="1.47665">
        <ele>73.68324</ele>
        <time>2021-12-04T11:13:05.608Z</time>
      </trkpt>
      <trkpt lat="47.66047" lon="1.48036">
        <ele>73.419977</ele>
        <time>2021-12-04T11:14:09.725Z</time>
      </trkpt>
      <trkpt lat="47.66106" lon="1.48226">
        <ele>73.296517</ele>
        <time>2021-12-04T11:14:43.410Z</time>
      </trkpt>
      <trkpt lat="47.66156" lon="1.48364">
        <ele>73.24665</ele>
        <time>2021-12-04T11:15:08.590Z</time>
      </trkpt>
      <trkpt lat="47.66189" lon="1.48462">
        <ele>73.234494</ele>
        <time>2021-12-04T11:15:26.509Z</time>
      </trkpt>
      <trkpt lat="47.66288" lon="1.48722">
        <ele>73.346584</ele>
        <time>2021-12-04T11:16:16.086Z</time>
      </trkpt>
      <trkpt lat="47.67039" lon="1.50397">
        <ele>75.539163</ele>
        <time>2021-12-04T11:22:00.433Z</time>
      </trkpt>
      <trkpt lat="47.672" lon="1.50793">
        <ele>74.242833</ele>
        <time>2021-12-04T11:23:09.738Z</time>
      </trkpt>
      <trkpt lat="47.67838" lon="1.5237">
        <ele>78.627267</ele>
        <time>2021-12-04T11:28:40.373Z</time>
      </trkpt>
      <trkpt lat="47.67843" lon="1.5238">
        <ele>78.616729</ele>
        <time>2021-12-04T11:28:42.230Z</time>
      </trkpt>
      <trkpt lat="47.67851" lon="1.524">
        <ele>78.596489</ele>
        <time>2021-12-04T11:28:45.788Z</time>
      </trkpt>
      <trkpt lat="47.6788" lon="1.52472">
        <ele>78.522124</ele>
        <time>2021-12-04T11:28:58.797Z</time>
      </trkpt>
      <trkpt lat="47.68248" lon="1.53389">
        <ele>77.320882</ele>
        <time>2021-12-04T11:31:40.971Z</time>
      </trkpt>
      <trkpt lat="47.68296" lon="1.53474">
        <ele>76.968303</ele>
        <time>2021-12-04T11:31:56.694Z</time>
      </trkpt>
      <trkpt lat="47.68375" lon="1.53635">
        <ele>76.17002</ele>
        <time>2021-12-04T11:32:24.337Z</time>
      </trkpt>
      <trkpt lat="47.68393" lon="1.53656">
        <ele>76.028475</ele>
        <time>2021-12-04T11:32:28.973Z</time>
      </trkpt>
      <trkpt lat="47.68801" lon="1.53971">
        <ele>75.542415</ele>
        <time>2021-12-04T11:34:14.124Z</time>
      </trkpt>
      <trkpt lat="47.68902" lon="1.54059">
        <ele>75.400907</ele>
        <time>2021-12-04T11:34:40.575Z</time>
      </trkpt>
      <trkpt lat="47.68999" lon="1.54198">
        <ele>75.34387</ele>
        <time>2021-12-04T11:35:10.949Z</time>
      </trkpt>
      <trkpt lat="47.69037" lon="1.5426">
        <ele>75.324316</ele>
        <time>2021-12-04T11:35:24.153Z</time>
      </trkpt>
      <trkpt lat="47.69166" lon="1.54502">
        <ele>75.838612</ele>
        <time>2021-12-04T11:36:15.486Z</time>
      </trkpt>
      <trkpt lat="47.69258" lon="1.5471">
        <ele>76.373168</ele>
        <time>2021-12-04T11:36:59.404Z</time>
      </trkpt>
      <trkpt lat="47.6928" lon="1.54793">
        <ele>76.501526</ele>
        <time>2021-12-04T11:37:15.130Z</time>
      </trkpt>
      <trkpt lat="47.6929" lon="1.54872">
        <ele>76.617963</ele>
        <time>2021-12-04T11:37:29.255Z</time>
      </trkpt>
      <trkpt lat="47.69247" lon="1.55278">
        <ele>76.530316</ele>
        <time>2021-12-04T11:38:35.485Z</time>
      </trkpt>
      <trkpt lat="47.69254" lon="1.55334">
        <ele>76.519413</ele>
        <time>2021-12-04T11:38:44.542Z</time>
      </trkpt>
      <trkpt lat="47.69273" lon="1.55382">
        <ele>76.508814</ele>
        <time>2021-12-04T11:38:53.455Z</time>
      </trkpt>
      <trkpt lat="47.69291" lon="1.55414">
        <ele>76.50075</ele>
        <time>2021-12-04T11:39:00.276Z</time>
      </trkpt>
      <trkpt lat="47.6939" lon="1.55615">
        <ele>76.917451</ele>
        <time>2021-12-04T11:39:43.472Z</time>
      </trkpt>
      <trkpt lat="47.69525" lon="1.55941">
        <ele>78.05508</ele>
        <time>2021-12-04T11:40:51.122Z</time>
      </trkpt>
      <trkpt lat="47.69587" lon="1.56064">
        <ele>78.289197</ele>
        <time>2021-12-04T11:41:16.164Z</time>
      </trkpt>
      <trkpt lat="47.69641" lon="1.5615">
        <ele>78.377655</ele>
        <time>2021-12-04T11:41:34.471Z</time>
      </trkpt>
      <trkpt lat="47.69719" lon="1.56219">
        <ele>78.375426</ele>
        <time>2021-12-04T11:41:54.825Z</time>
      </trkpt>
      <trkpt lat="47.69903" lon="1.56593">
        <ele>79.105545</ele>
        <time>2021-12-04T11:43:09.061Z</time>
      </trkpt>
      <trkpt lat="47.70054" lon="1.56815">
        <ele>80.659305</ele>
        <time>2021-12-04T11:44:11.360Z</time>
      </trkpt>
      <trkpt lat="47.70087" lon="1.5686">
        <ele>81.02671</ele>
        <time>2021-12-04T11:44:23.385Z</time>
      </trkpt>
      <trkpt lat="47.7012" lon="1.56894">
        <ele>81.201452</ele>
        <time>2021-12-04T11:44:33.688Z</time>
      </trkpt>
      <trkpt lat="47.70371" lon="1.57034">
        <ele>81.267774</ele>
        <time>2021-12-04T11:45:34.888Z</time>
      </trkpt>
      <trkpt lat="47.7049" lon="1.57098">
        <ele>81.317981</ele>
        <time>2021-12-04T11:46:04.268Z</time>
      </trkpt>
      <trkpt lat="47.70727" lon="1.57211">
        <ele>81.626063</ele>
        <time>2021-12-04T11:47:03.653Z</time>
      </trkpt>
      <trkpt lat="47.70833" lon="1.57214">
        <ele>81.778873</ele>
        <time>2021-12-04T11:47:28.754Z</time>
      </trkpt>
      <trkpt lat="47.7106" lon="1.57253">
        <ele>81.781683</ele>
        <time>2021-12-04T11:48:23.041Z</time>
      </trkpt>
      <trkpt lat="47.71118" lon="1.57212">
        <ele>81.658958</ele>
        <time>2021-12-04T11:48:37.306Z</time>
      </trkpt>
      <trkpt lat="47.71164" lon="1.572">
        <ele>81.249839</ele>
        <time>2021-12-04T11:48:47.091Z</time>
      </trkpt>
      <trkpt lat="47.71193" lon="1.57205">
        <ele>80.896458</ele>
        <time>2021-12-04T11:48:52.668Z</time>
      </trkpt>
      <trkpt lat="47.71229" lon="1.57231">
        <ele>80.396909</ele>
        <time>2021-12-04T11:49:00.493Z</time>
      </trkpt>
      <trkpt lat="47.71256" lon="1.57274">
        <ele>79.909099</ele>
        <time>2021-12-04T11:49:08.126Z</time>
      </trkpt>
      <trkpt lat="47.71283" lon="1.57361">
        <ele>79.205838</ele>
        <time>2021-12-04T11:49:20.593Z</time>
      </trkpt>
      <trkpt lat="47.71308" lon="1.57367">
        <ele>79.002761</ele>
        <time>2021-12-04T11:49:25.615Z</time>
      </trkpt>
      <trkpt lat="47.71319" lon="1.57369">
        <ele>78.906205</ele>
        <time>2021-12-04T11:49:27.995Z</time>
      </trkpt>
      <trkpt lat="47.71606" lon="1.57186">
        <ele>77.219315</ele>
        <time>2021-12-04T11:50:35.141Z</time>
      </trkpt>
      <trkpt lat="47.71826" lon="1.57055">
        <ele>77.565098</ele>
        <time>2021-12-04T11:51:34.562Z</time>
      </trkpt>
      <trkpt lat="47.71903" lon="1.57036">
        <ele>77.569667</ele>
        <time>2021-12-04T11:51:51.934Z</time>
      </trkpt>
      <trkpt lat="47.71966" lon="1.57034">
        <ele>77.483976</ele>
        <time>2021-12-04T11:52:05.699Z</time>
      </trkpt>
      <trkpt lat="47.72092" lon="1.57062">
        <ele>77.113366</ele>
        <time>2021-12-04T11:52:33.803Z</time>
      </trkpt>
      <trkpt lat="47.72229" lon="1.57115">
        <ele>77.028519</ele>
        <time>2021-12-04T11:53:06.072Z</time>
      </trkpt>
      <trkpt lat="47.72306" lon="1.57178">
        <ele>77.052543</ele>
        <time>2021-12-04T11:53:26.417Z</time>
      </trkpt>
      <trkpt lat="47.72565" lon="1.57431">
        <ele>77.310056</ele>
        <time>2021-12-04T11:54:40.683Z</time>
      </trkpt>
      <trkpt lat="47.72575" lon="1.57453">
        <ele>77.317367</ele>
        <time>2021-12-04T11:54:44.484Z</time>
      </trkpt>
      <trkpt lat="47.72618" lon="1.575">
        <ele>77.114705</ele>
        <time>2021-12-04T11:54:56.106Z</time>
      </trkpt>
      <trkpt lat="47.72623" lon="1.57514">
        <ele>77.069282</ele>
        <time>2021-12-04T11:54:59.145Z</time>
      </trkpt>
      <trkpt lat="47.7261" lon="1.57554">
        <ele>76.944454</ele>
        <time>2021-12-04T11:55:07.808Z</time>
      </trkpt>
      <trkpt lat="47.72613" lon="1.57565">
        <ele>76.910619</ele>
        <time>2021-12-04T11:55:10.041Z</time>
      </trkpt>
      <trkpt lat="47.72648" lon="1.57612">
        <ele>76.71511</ele>
        <time>2021-12-04T11:55:23.351Z</time>
      </trkpt>
      <trkpt lat="47.72779" lon="1.57844">
        <ele>76.359922</ele>
        <time>2021-12-04T11:56:23.552Z</time>
      </trkpt>
      <trkpt lat="47.72774" lon="1.57853">
        <ele>76.349556</ele>
        <time>2021-12-04T11:56:26.979Z</time>
      </trkpt>
      <trkpt lat="47.72764" lon="1.57868">
        <ele>76.395877</ele>
        <time>2021-12-04T11:56:30.641Z</time>
      </trkpt>
      <trkpt lat="47.72741" lon="1.57896">
        <ele>76.525221</ele>
        <time>2021-12-04T11:56:42.961Z</time>
      </trkpt>
      <trkpt lat="47.72742" lon="1.57917">
        <ele>76.58505</ele>
        <time>2021-12-04T11:56:48.496Z</time>
      </trkpt>
      <trkpt lat="47.72756" lon="1.58031">
        <ele>76.925639</ele>
        <time>2021-12-04T11:57:20.878Z</time>
      </trkpt>
      <trkpt lat="47.7277" lon="1.58068">
        <ele>77.052733</ele>
        <time>2021-12-04T11:57:32.991Z</time>
      </trkpt>
      <trkpt lat="47.72775" lon="1.58137">
        <ele>77.20627</ele>
        <time>2021-12-04T11:57:52.202Z</time>
      </trkpt>
      <trkpt lat="47.7277" lon="1.58174">
        <ele>77.272112</ele>
        <time>2021-12-04T11:58:02.121Z</time>
      </trkpt>
      <trkpt lat="47.72783" lon="1.58206">
        <ele>77.337436</ele>
        <time>2021-12-04T11:58:12.115Z</time>
      </trkpt>
      <trkpt lat="47.72798" lon="1.58268">
        <ele>77.451475</ele>
        <time>2021-12-04T11:58:29.524Z</time>
      </trkpt>
      <trkpt lat="47.72818" lon="1.58434">
        <ele>77.74361</ele>
        <time>2021-12-04T11:59:14.064Z</time>
      </trkpt>
      <trkpt lat="47.72824" lon="1.5853">
        <ele>77.911561</ele>
        <time>2021-12-04T11:59:39.482Z</time>
      </trkpt>
      <trkpt lat="47.7283" lon="1.58552">
        <ele>77.95197</ele>
        <time>2021-12-04T11:59:45.513Z</time>
      </trkpt>
      <trkpt lat="47.7283" lon="1.58581">
        <ele>78.002191</ele>
        <time>2021-12-04T11:59:53.241Z</time>
      </trkpt>
      <trkpt lat="47.7284" lon="1.58616">
        <ele>78.081177</ele>
        <time>2021-12-04T12:00:03.385Z</time>
      </trkpt>
      <trkpt lat="47.72898" lon="1.58746">
        <ele>78.905578</ele>
        <time>2021-12-04T12:00:47.910Z</time>
      </trkpt>
      <trkpt lat="47.72946" lon="1.58892">
        <ele>79.738186</ele>
        <time>2021-12-04T12:01:36.771Z</time>
      </trkpt>
      <trkpt lat="47.7299" lon="1.59064">
        <ele>80.61624</ele>
        <time>2021-12-04T12:02:29.750Z</time>
      </trkpt>
      <trkpt lat="47.72999" lon="1.59137">
        <ele>80.682734</ele>
        <time>2021-12-04T12:02:42.524Z</time>
      </trkpt>
      <trkpt lat="47.73135" lon="1.59622">
        <ele>79.671061</ele>
        <time>2021-12-04T12:04:08.992Z</time>
      </trkpt>
      <trkpt lat="47.73219" lon="1.59904">
        <ele>79.28726</ele>
        <time>2021-12-04T12:05:01.308Z</time>
      </trkpt>
      <trkpt lat="47.73238" lon="1.5999">
        <ele>79.177527</ele>
        <time>2021-12-04T12:05:16.875Z</time>
      </trkpt>
      <trkpt lat="47.73307" lon="1.60099">
        <ele>78.840544</ele>
        <time>2021-12-04T12:05:41.482Z</time>
      </trkpt>
      <trkpt lat="47.73327" lon="1.60152">
        <ele>78.570091</ele>
        <time>2021-12-04T12:05:51.375Z</time>
      </trkpt>
      <trkpt lat="47.73339" lon="1.60203">
        <ele>78.337344</ele>
        <time>2021-12-04T12:05:59.807Z</time>
      </trkpt>
      <trkpt lat="47.73395" lon="1.60337">
        <ele>77.786733</ele>
        <time>2021-12-04T12:06:24.642Z</time>
      </trkpt>
      <trkpt lat="47.73413" lon="1.60399">
        <ele>77.661623</ele>
        <time>2021-12-04T12:06:35.396Z</time>
      </trkpt>
      <trkpt lat="47.73427" lon="1.60536">
        <ele>77.404533</ele>
        <time>2021-12-04T12:06:58.713Z</time>
      </trkpt>
      <trkpt lat="47.73456" lon="1.60632">
        <ele>78.130403</ele>
        <time>2021-12-04T12:07:20.980Z</time>
      </trkpt>
      <trkpt lat="47.73489" lon="1.60684">
        <ele>78.666857</ele>
        <time>2021-12-04T12:07:37.505Z</time>
      </trkpt>
      <trkpt lat="47.73512" lon="1.6071">
        <ele>78.985934</ele>
        <time>2021-12-04T12:07:47.409Z</time>
      </trkpt>
      <trkpt lat="47.73577" lon="1.60756">
        <ele>79.596608</ele>
        <time>2021-12-04T12:08:11.724Z</time>
      </trkpt>
      <trkpt lat="47.73604" lon="1.60783">
        <ele>79.792486</ele>
        <time>2021-12-04T12:08:22.404Z</time>
      </trkpt>
      <trkpt lat="47.73623" lon="1.60818">
        <ele>79.970691</ele>
        <time>2021-12-04T12:08:31.616Z</time>
      </trkpt>
      <trkpt lat="47.73636" lon="1.6094">
        <ele>80.448851</ele>
        <time>2021-12-04T12:08:53.351Z</time>
      </trkpt>
      <trkpt lat="47.7366" lon="1.61023">
        <ele>80.200693</ele>
        <time>2021-12-04T12:09:07.469Z</time>
      </trkpt>
      <trkpt lat="47.73711" lon="1.61141">
        <ele>79.814307</ele>
        <time>2021-12-04T12:09:30.091Z</time>
      </trkpt>
      <trkpt lat="47.73774" lon="1.61248">
        <ele>79.857938</ele>
        <time>2021-12-04T12:09:54.967Z</time>
      </trkpt>
      <trkpt lat="47.7382" lon="1.61313">
        <ele>79.980685</ele>
        <time>2021-12-04T12:10:12.979Z</time>
      </trkpt>
      <trkpt lat="47.7388" lon="1.61373">
        <ele>80.035575</ele>
        <time>2021-12-04T12:10:33.037Z</time>
      </trkpt>
      <trkpt lat="47.73967" lon="1.61522">
        <ele>79.902135</ele>
        <time>2021-12-04T12:11:06.310Z</time>
      </trkpt>
      <trkpt lat="47.74233" lon="1.61819">
        <ele>78.718676</ele>
        <time>2021-12-04T12:12:27.180Z</time>
      </trkpt>
      <trkpt lat="47.74392" lon="1.61951">
        <ele>78.542648</ele>
        <time>2021-12-04T12:13:13.079Z</time>
      </trkpt>
      <trkpt lat="47.74524" lon="1.62068">
        <ele>78.856174</ele>
        <time>2021-12-04T12:13:55.270Z</time>
      </trkpt>
      <trkpt lat="47.74587" lon="1.62113">
        <ele>79.05913</ele>
        <time>2021-12-04T12:14:14.796Z</time>
      </trkpt>
      <trkpt lat="47.74671" lon="1.62119">
        <ele>79.30338</ele>
        <time>2021-12-04T12:14:37.662Z</time>
      </trkpt>
      <trkpt lat="47.74837" lon="1.62171">
        <ele>79.838649</ele>
        <time>2021-12-04T12:15:24.108Z</time>
      </trkpt>
      <trkpt lat="47.74969" lon="1.62173">
        <ele>80.312908</ele>
        <time>2021-12-04T12:16:01.432Z</time>
      </trkpt>
      <trkpt lat="47.75061" lon="1.62161">
        <ele>80.678462</ele>
        <time>2021-12-04T12:16:26.799Z</time>
      </trkpt>
      <trkpt lat="47.75124" lon="1.62164">
        <ele>80.934169</ele>
        <time>2021-12-04T12:16:44.369Z</time>
      </trkpt>
      <trkpt lat="47.75226" lon="1.62204">
        <ele>81.381299</ele>
        <time>2021-12-04T12:17:14.442Z</time>
      </trkpt>
      <trkpt lat="47.75203" lon="1.62329">
        <ele>81.754031</ele>
        <time>2021-12-04T12:17:49.798Z</time>
      </trkpt>
      <trkpt lat="47.75284" lon="1.62364">
        <ele>82.137807</ele>
        <time>2021-12-04T12:18:24.842Z</time>
      </trkpt>
      <trkpt lat="47.75317" lon="1.62406">
        <ele>82.333806</ele>
        <time>2021-12-04T12:18:42.595Z</time>
      </trkpt>
      <trkpt lat="47.75358" lon="1.62418">
        <ele>82.507294</ele>
        <time>2021-12-04T12:18:59.353Z</time>
      </trkpt>
      <trkpt lat="47.75384" lon="1.62445">
        <ele>82.503792</ele>
        <time>2021-12-04T12:19:11.573Z</time>
      </trkpt>
      <trkpt lat="47.75436" lon="1.62458">
        <ele>82.497924</ele>
        <time>2021-12-04T12:19:31.713Z</time>
      </trkpt>
      <trkpt lat="47.75591" lon="1.62521">
        <ele>82.481591</ele>
        <time>2021-12-04T12:20:32.339Z</time>
      </trkpt>
      <trkpt lat="47.75608" lon="1.62538">
        <ele>82.479716</ele>
        <time>2021-12-04T12:20:40.239Z</time>
      </trkpt>
      <trkpt lat="47.75665" lon="1.62556">
        <ele>82.474469</ele>
        <time>2021-12-04T12:21:02.415Z</time>
      </trkpt>
      <trkpt lat="47.75684" lon="1.62556">
        <ele>82.472811</ele>
        <time>2021-12-04T12:21:09.546Z</time>
      </trkpt>
      <trkpt lat="47.75727" lon="1.62579">
        <ele>82.435599</ele>
        <time>2021-12-04T12:21:27.571Z</time>
      </trkpt>
      <trkpt lat="47.7575" lon="1.62576">
        <ele>82.410784</ele>
        <time>2021-12-04T12:21:36.699Z</time>
      </trkpt>
      <trkpt lat="47.75757" lon="1.62547">
        <ele>82.387923</ele>
        <time>2021-12-04T12:21:45.192Z</time>
      </trkpt>
      <trkpt lat="47.75779" lon="1.62547">
        <ele>82.364515</ele>
        <time>2021-12-04T12:21:53.868Z</time>
      </trkpt>
      <trkpt lat="47.758" lon="1.62562">
        <ele>82.339371</ele>
        <time>2021-12-04T12:22:02.743Z</time>
      </trkpt>
      <trkpt lat="47.75825" lon="1.6257">
        <ele>82.311616</ele>
        <time>2021-12-04T12:22:12.205Z</time>
      </trkpt>
      <trkpt lat="47.7586" lon="1.62611">
        <ele>82.167119</ele>
        <time>2021-12-04T12:22:28.204Z</time>
      </trkpt>
      <trkpt lat="47.75903" lon="1.62632">
        <ele>81.778282</ele>
        <time>2021-12-04T12:22:43.873Z</time>
      </trkpt>
      <trkpt lat="47.75912" lon="1.62631">
        <ele>81.702259</ele>
        <time>2021-12-04T12:22:46.818Z</time>
      </trkpt>
      <trkpt lat="47.75934" lon="1.62648">
        <ele>81.486796</ele>
        <time>2021-12-04T12:22:55.634Z</time>
      </trkpt>
      <trkpt lat="47.7597" lon="1.62673">
        <ele>81.140187</ele>
        <time>2021-12-04T12:23:09.719Z</time>
      </trkpt>
      <trkpt lat="47.76004" lon="1.62726">
        <ele>80.713199</ele>
        <time>2021-12-04T12:23:27.194Z</time>
      </trkpt>
      <trkpt lat="47.76019" lon="1.62749">
        <ele>80.657488</ele>
        <time>2021-12-04T12:23:34.832Z</time>
      </trkpt>
      <trkpt lat="47.76033" lon="1.62759">
        <ele>80.615547</ele>
        <time>2021-12-04T12:23:40.206Z</time>
      </trkpt>
      <trkpt lat="47.76235" lon="1.62801">
        <ele>80.322876</ele>
        <time>2021-12-04T12:24:57.819Z</time>
      </trkpt>
      <trkpt lat="47.7637" lon="1.62844">
        <ele>80.567136</ele>
        <time>2021-12-04T12:25:51.943Z</time>
      </trkpt>
      <trkpt lat="47.76705" lon="1.62908">
        <ele>81.965512</ele>
        <time>2021-12-04T12:28:09.804Z</time>
      </trkpt>
      <trkpt lat="47.7671" lon="1.62908">
        <ele>81.980933</ele>
        <time>2021-12-04T12:28:11.856Z</time>
      </trkpt>
      <trkpt lat="47.76716" lon="1.62896">
        <ele>82.000447</ele>
        <time>2021-12-04T12:28:16.232Z</time>
      </trkpt>
      <trkpt lat="47.76841" lon="1.62978">
        <ele>82.275373</ele>
        <time>2021-12-04T12:29:09.693Z</time>
      </trkpt>
      <trkpt lat="47.76855" lon="1.62988">
        <ele>82.305661</ele>
        <time>2021-12-04T12:29:13.708Z</time>
      </trkpt>
      <trkpt lat="47.76859" lon="1.62991">
        <ele>82.316036</ele>
        <time>2021-12-04T12:29:15.271Z</time>
      </trkpt>
      <trkpt lat="47.76886" lon="1.63009">
        <ele>82.385496</ele>
        <time>2021-12-04T12:29:24.119Z</time>
      </trkpt>
      <trkpt lat="47.76911" lon="1.63022">
        <ele>82.452937</ele>
        <time>2021-12-04T12:29:31.972Z</time>
      </trkpt>
      <trkpt lat="47.77217" lon="1.63187">
        <ele>83.523754</ele>
        <time>2021-12-04T12:30:57.731Z</time>
      </trkpt>
      <trkpt lat="47.77289" lon="1.63219">
        <ele>83.772798</ele>
        <time>2021-12-04T12:31:18.855Z</time>
      </trkpt>
      <trkpt lat="47.77291" lon="1.63227">
        <ele>83.792542</ele>
        <time>2021-12-04T12:31:21.294Z</time>
      </trkpt>
      <trkpt lat="47.77308" lon="1.63234">
        <ele>83.850404</ele>
        <time>2021-12-04T12:31:28.666Z</time>
      </trkpt>
      <trkpt lat="47.77316" lon="1.63246">
        <ele>83.888789</ele>
        <time>2021-12-04T12:31:32.877Z</time>
      </trkpt>
      <trkpt lat="47.77339" lon="1.6324">
        <ele>83.966208</ele>
        <time>2021-12-04T12:31:42.440Z</time>
      </trkpt>
      <trkpt lat="47.77348" lon="1.6326">
        <ele>84.019718</ele>
        <time>2021-12-04T12:31:48.321Z</time>
      </trkpt>
      <trkpt lat="47.77357" lon="1.63264">
        <ele>84.049556</ele>
        <time>2021-12-04T12:31:52.050Z</time>
      </trkpt>
      <trkpt lat="47.77377" lon="1.63264">
        <ele>84.063043</ele>
        <time>2021-12-04T12:32:00.011Z</time>
      </trkpt>
      <trkpt lat="47.77387" lon="1.63283">
        <ele>84.03765</ele>
        <time>2021-12-04T12:32:06.075Z</time>
      </trkpt>
      <trkpt lat="47.77401" lon="1.63302">
        <ele>84.007844</ele>
        <time>2021-12-04T12:32:13.476Z</time>
      </trkpt>
      <trkpt lat="47.77431" lon="1.63316">
        <ele>83.95822</ele>
        <time>2021-12-04T12:32:25.757Z</time>
      </trkpt>
      <trkpt lat="47.77435" lon="1.63331">
        <ele>83.939962</ele>
        <time>2021-12-04T12:32:29.836Z</time>
      </trkpt>
      <trkpt lat="47.77437" lon="1.63334">
        <ele>83.93556</ele>
        <time>2021-12-04T12:32:30.900Z</time>
      </trkpt>
      <trkpt lat="47.77601" lon="1.63425">
        <ele>83.369547</ele>
        <time>2021-12-04T12:33:21.827Z</time>
      </trkpt>
      <trkpt lat="47.77662" lon="1.63466">
        <ele>83.03667</ele>
        <time>2021-12-04T12:33:40.762Z</time>
      </trkpt>
      <trkpt lat="47.77735" lon="1.63533">
        <ele>82.559568</ele>
        <time>2021-12-04T12:34:05.448Z</time>
      </trkpt>
      <trkpt lat="47.77747" lon="1.63543">
        <ele>82.480766</ele>
        <time>2021-12-04T12:34:09.246Z</time>
      </trkpt>
      <trkpt lat="47.77755" lon="1.63552">
        <ele>82.421046</ele>
        <time>2021-12-04T12:34:12.234Z</time>
      </trkpt>
      <trkpt lat="47.77817" lon="1.63592">
        <ele>82.02874</ele>
        <time>2021-12-04T12:34:31.311Z</time>
      </trkpt>
      <trkpt lat="47.77872" lon="1.63664">
        <ele>81.618938</ele>
        <time>2021-12-04T12:34:52.117Z</time>
      </trkpt>
      <trkpt lat="47.77904" lon="1.63722">
        <ele>81.347315</ele>
        <time>2021-12-04T12:35:06.714Z</time>
      </trkpt>
      <trkpt lat="47.77911" lon="1.63732">
        <ele>81.296673</ele>
        <time>2021-12-04T12:35:09.527Z</time>
      </trkpt>
      <trkpt lat="47.77915" lon="1.63772">
        <ele>81.150565</ele>
        <time>2021-12-04T12:35:19.227Z</time>
      </trkpt>
      <trkpt lat="47.77919" lon="1.63779">
        <ele>81.11588</ele>
        <time>2021-12-04T12:35:20.642Z</time>
      </trkpt>
      <trkpt lat="47.77934" lon="1.63805">
        <ele>80.992377</ele>
        <time>2021-12-04T12:35:28.786Z</time>
      </trkpt>
      <trkpt lat="47.77941" lon="1.63808">
        <ele>80.952154</ele>
        <time>2021-12-04T12:35:31.441Z</time>
      </trkpt>
      <trkpt lat="47.7805" lon="1.64121">
        <ele>80.144382</ele>
        <time>2021-12-04T12:36:26.160Z</time>
      </trkpt>
      <trkpt lat="47.78077" lon="1.6417">
        <ele>80.099296</ele>
        <time>2021-12-04T12:36:36.543Z</time>
      </trkpt>
      <trkpt lat="47.78154" lon="1.64268">
        <ele>80.010328</ele>
        <time>2021-12-04T12:37:00.921Z</time>
      </trkpt>
      <trkpt lat="47.78193" lon="1.64327">
        <ele>80.065951</ele>
        <time>2021-12-04T12:37:14.487Z</time>
      </trkpt>
      <trkpt lat="47.78268" lon="1.64405">
        <ele>80.158045</ele>
        <time>2021-12-04T12:37:37.204Z</time>
      </trkpt>
      <trkpt lat="47.78368" lon="1.64485">
        <ele>80.573079</ele>
        <time>2021-12-04T12:38:06.643Z</time>
      </trkpt>
      <trkpt lat="47.78463" lon="1.64639">
        <ele>81.156072</ele>
        <time>2021-12-04T12:38:46.205Z</time>
      </trkpt>
      <trkpt lat="47.78521" lon="1.64705">
        <ele>81.428207</ele>
        <time>2021-12-04T12:39:05.982Z</time>
      </trkpt>
      <trkpt lat="47.78558" lon="1.64797">
        <ele>81.61623</ele>
        <time>2021-12-04T12:39:33.956Z</time>
      </trkpt>
      <trkpt lat="47.78563" lon="1.64806">
        <ele>81.604375</ele>
        <time>2021-12-04T12:39:37.027Z</time>
      </trkpt>
      <trkpt lat="47.78578" lon="1.6485">
        <ele>81.554</ele>
        <time>2021-12-04T12:39:49.752Z</time>
      </trkpt>
      <trkpt lat="47.78611" lon="1.64991">
        <ele>81.403225</ele>
        <time>2021-12-04T12:40:26.861Z</time>
      </trkpt>
      <trkpt lat="47.78629" lon="1.65138">
        <ele>81.4864</ele>
        <time>2021-12-04T12:41:04.301Z</time>
      </trkpt>
      <trkpt lat="47.7868" lon="1.6523">
        <ele>81.607282</ele>
        <time>2021-12-04T12:41:35.991Z</time>
      </trkpt>
      <trkpt lat="47.78732" lon="1.65291">
        <ele>81.980131</ele>
        <time>2021-12-04T12:42:04.213Z</time>
      </trkpt>
      <trkpt lat="47.78817" lon="1.65398">
        <ele>82.839117</ele>
        <time>2021-12-04T12:42:53.152Z</time>
      </trkpt>
      <trkpt lat="47.78871" lon="1.65488">
        <ele>83.198801</ele>
        <time>2021-12-04T12:43:26.809Z</time>
      </trkpt>
      <trkpt lat="47.7888" lon="1.65513">
        <ele>83.255964</ele>
        <time>2021-12-04T12:43:34.799Z</time>
      </trkpt>
      <trkpt lat="47.78898" lon="1.65543">
        <ele>83.339255</ele>
        <time>2021-12-04T12:43:46.315Z</time>
      </trkpt>
      <trkpt lat="47.78914" lon="1.65558">
        <ele>83.395094</ele>
        <time>2021-12-04T12:43:53.990Z</time>
      </trkpt>
      <trkpt lat="47.7891" lon="1.65561">
        <ele>83.407756</ele>
        <time>2021-12-04T12:43:54.983Z</time>
      </trkpt>
      <trkpt lat="47.78881" lon="1.65588">
        <ele>83.510269</ele>
        <time>2021-12-04T12:44:03.115Z</time>
      </trkpt>
      <trkpt lat="47.7887" lon="1.656">
        <ele>83.551353</ele>
        <time>2021-12-04T12:44:08.029Z</time>
      </trkpt>
      <trkpt lat="47.78867" lon="1.65615">
        <ele>83.546025</ele>
        <time>2021-12-04T12:44:12.205Z</time>
      </trkpt>
      <trkpt lat="47.78872" lon="1.65629">
        <ele>83.469658</ele>
        <time>2021-12-04T12:44:16.087Z</time>
      </trkpt>
      <trkpt lat="47.78872" lon="1.65633">
        <ele>83.450031</ele>
        <time>2021-12-04T12:44:16.702Z</time>
      </trkpt>
      <trkpt lat="47.78883" lon="1.65693">
        <ele>83.151808</ele>
        <time>2021-12-04T12:44:25.834Z</time>
      </trkpt>
      <trkpt lat="47.78887" lon="1.65705">
        <ele>83.089335</ele>
        <time>2021-12-04T12:44:27.708Z</time>
      </trkpt>
      <trkpt lat="47.78919" lon="1.65817">
        <ele>82.508051</ele>
        <time>2021-12-04T12:44:45.262Z</time>
      </trkpt>
      <trkpt lat="47.78939" lon="1.65906">
        <ele>82.17199</ele>
        <time>2021-12-04T12:44:59.667Z</time>
      </trkpt>
      <trkpt lat="47.78945" lon="1.6593">
        <ele>82.107436</ele>
        <time>2021-12-04T12:45:03.491Z</time>
      </trkpt>
      <trkpt lat="47.78948" lon="1.65942">
        <ele>82.076466</ele>
        <time>2021-12-04T12:45:05.325Z</time>
      </trkpt>
      <trkpt lat="47.78983" lon="1.66058">
        <ele>81.761689</ele>
        <time>2021-12-04T12:45:24.941Z</time>
      </trkpt>
      <trkpt lat="47.78986" lon="1.66069">
        <ele>81.731778</ele>
        <time>2021-12-04T12:45:27.443Z</time>
      </trkpt>
      <trkpt lat="47.79002" lon="1.66131">
        <ele>81.680605</ele>
        <time>2021-12-04T12:45:38.471Z</time>
      </trkpt>
      <trkpt lat="47.79012" lon="1.66235">
        <ele>81.895978</ele>
        <time>2021-12-04T12:45:55.467Z</time>
      </trkpt>
      <trkpt lat="47.79023" lon="1.66388">
        <ele>82.292173</ele>
        <time>2021-12-04T12:46:24.217Z</time>
      </trkpt>
      <trkpt lat="47.79034" lon="1.66466">
        <ele>82.857755</ele>
        <time>2021-12-04T12:46:39.708Z</time>
      </trkpt>
      <trkpt lat="47.79035" lon="1.66473">
        <ele>82.907647</ele>
        <time>2021-12-04T12:46:41.304Z</time>
      </trkpt>
      <trkpt lat="47.79044" lon="1.66526">
        <ele>83.297596</ele>
        <time>2021-12-04T12:46:52.580Z</time>
      </trkpt>
      <trkpt lat="47.79086" lon="1.66526">
        <ele>83.733834</ele>
        <time>2021-12-04T12:47:11.387Z</time>
      </trkpt>
      <trkpt lat="47.79102" lon="1.66653">
        <ele>84.350657</ele>
        <time>2021-12-04T12:47:52.249Z</time>
      </trkpt>
      <trkpt lat="47.79091" lon="1.66748">
        <ele>84.674155</ele>
        <time>2021-12-04T12:48:09.860Z</time>
      </trkpt>
      <trkpt lat="47.79093" lon="1.6678">
        <ele>84.781988</ele>
        <time>2021-12-04T12:48:18.265Z</time>
      </trkpt>
      <trkpt lat="47.79088" lon="1.66802">
        <ele>84.861863</ele>
        <time>2021-12-04T12:48:24.230Z</time>
      </trkpt>
      <trkpt lat="47.79078" lon="1.66812">
        <ele>84.921558</ele>
        <time>2021-12-04T12:48:28.759Z</time>
      </trkpt>
      <trkpt lat="47.79071" lon="1.66862">
        <ele>84.769165</ele>
        <time>2021-12-04T12:48:41.393Z</time>
      </trkpt>
      <trkpt lat="47.79062" lon="1.66894">
        <ele>84.558745</ele>
        <time>2021-12-04T12:48:49.556Z</time>
      </trkpt>
      <trkpt lat="47.79073" lon="1.66995">
        <ele>83.928351</ele>
        <time>2021-12-04T12:49:13.628Z</time>
      </trkpt>
      <trkpt lat="47.79064" lon="1.67085">
        <ele>83.371844</ele>
        <time>2021-12-04T12:49:34.525Z</time>
      </trkpt>
      <trkpt lat="47.79062" lon="1.67144">
        <ele>83.05082</ele>
        <time>2021-12-04T12:49:48.502Z</time>
      </trkpt>
      <trkpt lat="47.79076" lon="1.67329">
        <ele>82.060475</ele>
        <time>2021-12-04T12:50:33.315Z</time>
      </trkpt>
      <trkpt lat="47.79087" lon="1.67412">
        <ele>81.829491</ele>
        <time>2021-12-04T12:50:54.124Z</time>
      </trkpt>
      <trkpt lat="47.79092" lon="1.67439">
        <ele>81.788461</ele>
        <time>2021-12-04T12:51:01.103Z</time>
      </trkpt>
      <trkpt lat="47.79107" lon="1.67471">
        <ele>81.731034</ele>
        <time>2021-12-04T12:51:10.936Z</time>
      </trkpt>
      <trkpt lat="47.79149" lon="1.67599">
        <ele>81.523688</ele>
        <time>2021-12-04T12:51:46.989Z</time>
      </trkpt>
      <trkpt lat="47.79176" lon="1.67661">
        <ele>81.497324</ele>
        <time>2021-12-04T12:52:05.725Z</time>
      </trkpt>
      <trkpt lat="47.79316" lon="1.67885">
        <ele>81.270296</ele>
        <time>2021-12-04T12:53:23.849Z</time>
      </trkpt>
      <trkpt lat="47.79429" lon="1.68025">
        <ele>80.930179</ele>
        <time>2021-12-04T12:54:18.303Z</time>
      </trkpt>
      <trkpt lat="47.79491" lon="1.68085">
        <ele>80.742668</ele>
        <time>2021-12-04T12:54:45.400Z</time>
      </trkpt>
      <trkpt lat="47.79502" lon="1.68105">
        <ele>80.698304</ele>
        <time>2021-12-04T12:54:51.907Z</time>
      </trkpt>
      <trkpt lat="47.79529" lon="1.68124">
        <ele>80.621656</ele>
        <time>2021-12-04T12:55:03.157Z</time>
      </trkpt>
      <trkpt lat="47.79665" lon="1.6828">
        <ele>80.812496</ele>
        <time>2021-12-04T12:56:09.643Z</time>
      </trkpt>
      <trkpt lat="47.79692" lon="1.68301">
        <ele>80.869605</ele>
        <time>2021-12-04T12:56:21.910Z</time>
      </trkpt>
      <trkpt lat="47.79706" lon="1.68304">
        <ele>80.928866</ele>
        <time>2021-12-04T12:56:27.915Z</time>
      </trkpt>
      <trkpt lat="47.79739" lon="1.68344">
        <ele>81.099795</ele>
        <time>2021-12-04T12:56:45.219Z</time>
      </trkpt>
      <trkpt lat="47.79823" lon="1.68366">
        <ele>81.440561</ele>
        <time>2021-12-04T12:57:19.830Z</time>
      </trkpt>
      <trkpt lat="47.79922" lon="1.68423">
        <ele>81.715008</ele>
        <time>2021-12-04T12:58:02.392Z</time>
      </trkpt>
      <trkpt lat="47.80007" lon="1.68504">
        <ele>81.907128</ele>
        <time>2021-12-04T12:58:41.414Z</time>
      </trkpt>
      <trkpt lat="47.80072" lon="1.68557">
        <ele>82.187986</ele>
        <time>2021-12-04T12:59:10.627Z</time>
      </trkpt>
      <trkpt lat="47.80091" lon="1.68581">
        <ele>82.285856</ele>
        <time>2021-12-04T12:59:20.683Z</time>
      </trkpt>
      <trkpt lat="47.80106" lon="1.68586">
        <ele>82.344018</ele>
        <time>2021-12-04T12:59:26.611Z</time>
      </trkpt>
      <trkpt lat="47.80133" lon="1.68579">
        <ele>82.451905</ele>
        <time>2021-12-04T12:59:37.913Z</time>
      </trkpt>
      <trkpt lat="47.80149" lon="1.68571">
        <ele>82.519606</ele>
        <time>2021-12-04T12:59:45.051Z</time>
      </trkpt>
      <trkpt lat="47.80259" lon="1.68509">
        <ele>83.228055</ele>
        <time>2021-12-04T13:00:35.051Z</time>
      </trkpt>
      <trkpt lat="47.80379" lon="1.68424">
        <ele>84.012713</ele>
        <time>2021-12-04T13:01:30.868Z</time>
      </trkpt>
      <trkpt lat="47.80699" lon="1.68331">
        <ele>85.23798</ele>
        <time>2021-12-04T13:03:41.921Z</time>
      </trkpt>
      <trkpt lat="47.80763" lon="1.68326">
        <ele>85.315604</ele>
        <time>2021-12-04T13:04:06.851Z</time>
      </trkpt>
      <trkpt lat="47.80997" lon="1.68338">
        <ele>85.554523</ele>
        <time>2021-12-04T13:05:37.154Z</time>
      </trkpt>
      <trkpt lat="47.81055" lon="1.68343">
        <ele>85.610315</ele>
        <time>2021-12-04T13:05:59.994Z</time>
      </trkpt>
      <trkpt lat="47.81156" lon="1.68374">
        <ele>85.807363</ele>
        <time>2021-12-04T13:06:40.771Z</time>
      </trkpt>
      <trkpt lat="47.81217" lon="1.68399">
        <ele>85.926614</ele>
        <time>2021-12-04T13:07:05.332Z</time>
      </trkpt>
      <trkpt lat="47.81302" lon="1.68455">
        <ele>85.994568</ele>
        <time>2021-12-04T13:07:41.377Z</time>
      </trkpt>
      <trkpt lat="47.81363" lon="1.68511">
        <ele>86.038876</ele>
        <time>2021-12-04T13:08:09.023Z</time>
      </trkpt>
      <trkpt lat="47.81406" lon="1.68563">
        <ele>85.966911</ele>
        <time>2021-12-04T13:08:30.030Z</time>
      </trkpt>
      <trkpt lat="47.81468" lon="1.68667">
        <ele>85.718931</ele>
        <time>2021-12-04T13:09:04.812Z</time>
      </trkpt>
      <trkpt lat="47.81543" lon="1.68773">
        <ele>85.384093</ele>
        <time>2021-12-04T13:09:42.680Z</time>
      </trkpt>
      <trkpt lat="47.81563" lon="1.68797">
        <ele>85.282685</ele>
        <time>2021-12-04T13:09:52.099Z</time>
      </trkpt>
      <trkpt lat="47.81557" lon="1.68805">
        <ele>85.252671</ele>
        <time>2021-12-04T13:09:55.124Z</time>
      </trkpt>
      <trkpt lat="47.8155" lon="1.68816">
        <ele>85.211222</ele>
        <time>2021-12-04T13:09:57.428Z</time>
      </trkpt>
      <trkpt lat="47.81536" lon="1.68834">
        <ele>85.141395</ele>
        <time>2021-12-04T13:10:01.611Z</time>
      </trkpt>
      <trkpt lat="47.8154" lon="1.68849">
        <ele>85.098661</ele>
        <time>2021-12-04T13:10:04.545Z</time>
      </trkpt>
      <trkpt lat="47.81554" lon="1.68859">
        <ele>85.040302</ele>
        <time>2021-12-04T13:10:08.104Z</time>
      </trkpt>
      <trkpt lat="47.81575" lon="1.6886">
        <ele>84.957807</ele>
        <time>2021-12-04T13:10:13.409Z</time>
      </trkpt>
      <trkpt lat="47.81593" lon="1.68879">
        <ele>84.876877</ele>
        <time>2021-12-04T13:10:18.574Z</time>
      </trkpt>
      <trkpt lat="47.81605" lon="1.68904">
        <ele>84.8834</ele>
        <time>2021-12-04T13:10:23.896Z</time>
      </trkpt>
      <trkpt lat="47.81618" lon="1.6898">
        <ele>84.899791</ele>
        <time>2021-12-04T13:10:37.078Z</time>
      </trkpt>
      <trkpt lat="47.81669" lon="1.69138">
        <ele>84.941792</ele>
        <time>2021-12-04T13:11:09.013Z</time>
      </trkpt>
      <trkpt lat="47.81677" lon="1.69151">
        <ele>84.95</ele>
        <time>2021-12-04T13:11:12.002Z</time>
      </trkpt>
      <trkpt lat="47.81827" lon="1.69311">
        <ele>85.089619</ele>
        <time>2021-12-04T13:11:59.724Z</time>
      </trkpt>
      <trkpt lat="47.81889" lon="1.69343">
        <ele>85.151111</ele>
        <time>2021-12-04T13:12:16.352Z</time>
      </trkpt>
      <trkpt lat="47.82016" lon="1.69468">
        <ele>85.611185</ele>
        <time>2021-12-04T13:12:57.511Z</time>
      </trkpt>
      <trkpt lat="47.82068" lon="1.6952">
        <ele>85.973896</ele>
        <time>2021-12-04T13:13:16.134Z</time>
      </trkpt>
      <trkpt lat="47.82107" lon="1.69562">
        <ele>86.247227</ele>
        <time>2021-12-04T13:13:30.079Z</time>
      </trkpt>
      <trkpt lat="47.82285" lon="1.69718">
        <ele>88.137195</ele>
        <time>2021-12-04T13:14:32.739Z</time>
      </trkpt>
      <trkpt lat="47.82323" lon="1.69724">
        <ele>88.399423</ele>
        <time>2021-12-04T13:14:43.959Z</time>
      </trkpt>
      <trkpt lat="47.82386" lon="1.69716">
        <ele>88.835134</ele>
        <time>2021-12-04T13:15:02.747Z</time>
      </trkpt>
      <trkpt lat="47.82393" lon="1.69729">
        <ele>88.909196</ele>
        <time>2021-12-04T13:15:05.869Z</time>
      </trkpt>
      <trkpt lat="47.82381" lon="1.69747">
        <ele>89.026737</ele>
        <time>2021-12-04T13:15:10.294Z</time>
      </trkpt>
      <trkpt lat="47.8244" lon="1.69852">
        <ele>88.902425</ele>
        <time>2021-12-04T13:15:34.071Z</time>
      </trkpt>
      <trkpt lat="47.8245" lon="1.69838">
        <ele>88.840054</ele>
        <time>2021-12-04T13:15:37.274Z</time>
      </trkpt>
      <trkpt lat="47.82454" lon="1.69842">
        <ele>88.820156</ele>
        <time>2021-12-04T13:15:38.291Z</time>
      </trkpt>
      <trkpt lat="47.82457" lon="1.69845">
        <ele>88.803638</ele>
        <time>2021-12-04T13:15:39.198Z</time>
      </trkpt>
      <trkpt lat="47.82459" lon="1.69854">
        <ele>88.772286</ele>
        <time>2021-12-04T13:15:41.123Z</time>
      </trkpt>
      <trkpt lat="47.82444" lon="1.69893">
        <ele>88.631424</ele>
        <time>2021-12-04T13:15:49.719Z</time>
      </trkpt>
      <trkpt lat="47.82444" lon="1.69904">
        <ele>88.596233</ele>
        <time>2021-12-04T13:15:51.805Z</time>
      </trkpt>
      <trkpt lat="47.82639" lon="1.70267">
        <ele>86.075064</ele>
        <time>2021-12-04T13:17:15.808Z</time>
      </trkpt>
      <trkpt lat="47.82661" lon="1.703">
        <ele>86.022181</ele>
        <time>2021-12-04T13:17:29.149Z</time>
      </trkpt>
      <trkpt lat="47.82671" lon="1.70315">
        <ele>85.998197</ele>
        <time>2021-12-04T13:17:34.613Z</time>
      </trkpt>
      <trkpt lat="47.82682" lon="1.70296">
        <ele>85.969557</ele>
        <time>2021-12-04T13:17:42.256Z</time>
      </trkpt>
      <trkpt lat="47.82689" lon="1.70292">
        <ele>85.956497</ele>
        <time>2021-12-04T13:17:45.520Z</time>
      </trkpt>
      <trkpt lat="47.8272" lon="1.70359">
        <ele>86.171388</ele>
        <time>2021-12-04T13:18:04.620Z</time>
      </trkpt>
      <trkpt lat="47.82746" lon="1.70391">
        <ele>86.473601</ele>
        <time>2021-12-04T13:18:16.719Z</time>
      </trkpt>
      <trkpt lat="47.82761" lon="1.704">
        <ele>86.623125</ele>
        <time>2021-12-04T13:18:23.619Z</time>
      </trkpt>
      <trkpt lat="47.82823" lon="1.70467">
        <ele>87.318506</ele>
        <time>2021-12-04T13:18:57.975Z</time>
      </trkpt>
      <trkpt lat="47.82836" lon="1.7049">
        <ele>87.502594</ele>
        <time>2021-12-04T13:19:06.293Z</time>
      </trkpt>
      <trkpt lat="47.8284" lon="1.70488">
        <ele>87.536971</ele>
        <time>2021-12-04T13:19:08.077Z</time>
      </trkpt>
      <trkpt lat="47.8291" lon="1.70564">
        <ele>87.503231</ele>
        <time>2021-12-04T13:19:40.832Z</time>
      </trkpt>
      <trkpt lat="47.83021" lon="1.70704">
        <ele>87.483616</ele>
        <time>2021-12-04T13:20:34.967Z</time>
      </trkpt>
      <trkpt lat="47.83098" lon="1.7078">
        <ele>87.532952</ele>
        <time>2021-12-04T13:21:10.788Z</time>
      </trkpt>
      <trkpt lat="47.83139" lon="1.70836">
        <ele>87.597524</ele>
        <time>2021-12-04T13:21:32.746Z</time>
      </trkpt>
      <trkpt lat="47.83228" lon="1.70931">
        <ele>87.861504</ele>
        <time>2021-12-04T13:22:16.877Z</time>
      </trkpt>
      <trkpt lat="47.83367" lon="1.71136">
        <ele>87.88112</ele>
        <time>2021-12-04T13:23:31.649Z</time>
      </trkpt>
      <trkpt lat="47.8342" lon="1.71196">
        <ele>87.790195</ele>
        <time>2021-12-04T13:23:56.399Z</time>
      </trkpt>
      <trkpt lat="47.83432" lon="1.71206">
        <ele>87.761944</ele>
        <time>2021-12-04T13:24:01.367Z</time>
      </trkpt>
      <trkpt lat="47.83456" lon="1.71258">
        <ele>87.673782</ele>
        <time>2021-12-04T13:24:16.943Z</time>
      </trkpt>
      <trkpt lat="47.83541" lon="1.71389">
        <ele>87.64495</ele>
        <time>2021-12-04T13:25:02.559Z</time>
      </trkpt>
      <trkpt lat="47.83666" lon="1.71564">
        <ele>88.534327</ele>
        <time>2021-12-04T13:26:16.317Z</time>
      </trkpt>
      <trkpt lat="47.83704" lon="1.71635">
        <ele>88.680355</ele>
        <time>2021-12-04T13:26:41.710Z</time>
      </trkpt>
      <trkpt lat="47.83816" lon="1.71801">
        <ele>88.62372</ele>
        <time>2021-12-04T13:27:41.380Z</time>
      </trkpt>
      <trkpt lat="47.8383" lon="1.71816">
        <ele>88.541822</ele>
        <time>2021-12-04T13:27:47.373Z</time>
      </trkpt>
      <trkpt lat="47.83958" lon="1.72023">
        <ele>87.876986</ele>
        <time>2021-12-04T13:28:55.696Z</time>
      </trkpt>
      <trkpt lat="47.84018" lon="1.7213">
        <ele>87.692145</ele>
        <time>2021-12-04T13:29:31.858Z</time>
      </trkpt>
      <trkpt lat="47.84102" lon="1.72249">
        <ele>88.083763</ele>
        <time>2021-12-04T13:30:19.536Z</time>
      </trkpt>
      <trkpt lat="47.84152" lon="1.72301">
        <ele>88.288939</ele>
        <time>2021-12-04T13:30:43.885Z</time>
      </trkpt>
      <trkpt lat="47.84184" lon="1.72351">
        <ele>88.280573</ele>
        <time>2021-12-04T13:31:01.712Z</time>
      </trkpt>
      <trkpt lat="47.8424" lon="1.72397">
        <ele>88.257169</ele>
        <time>2021-12-04T13:31:26.296Z</time>
      </trkpt>
      <trkpt lat="47.84292" lon="1.72491">
        <ele>88.211952</ele>
        <time>2021-12-04T13:31:56.771Z</time>
      </trkpt>
      <trkpt lat="47.84323" lon="1.72552">
        <ele>88.108302</ele>
        <time>2021-12-04T13:32:15.584Z</time>
      </trkpt>
      <trkpt lat="47.84357" lon="1.72599">
        <ele>88.014397</ele>
        <time>2021-12-04T13:32:32.741Z</time>
      </trkpt>
      <trkpt lat="47.84452" lon="1.72712">
        <ele>87.940219</ele>
        <time>2021-12-04T13:33:19.309Z</time>
      </trkpt>
      <trkpt lat="47.84487" lon="1.7278">
        <ele>88.023956</ele>
        <time>2021-12-04T13:33:41.821Z</time>
      </trkpt>
      <trkpt lat="47.84494" lon="1.72791">
        <ele>88.039416</ele>
        <time>2021-12-04T13:33:45.855Z</time>
      </trkpt>
      <trkpt lat="47.84505" lon="1.72795">
        <ele>88.05605</ele>
        <time>2021-12-04T13:33:50.382Z</time>
      </trkpt>
      <trkpt lat="47.84569" lon="1.72879">
        <ele>88.211121</ele>
        <time>2021-12-04T13:34:23.703Z</time>
      </trkpt>
      <trkpt lat="47.84649" lon="1.73008">
        <ele>88.492662</ele>
        <time>2021-12-04T13:35:10.568Z</time>
      </trkpt>
      <trkpt lat="47.84667" lon="1.73047">
        <ele>88.564649</ele>
        <time>2021-12-04T13:35:23.544Z</time>
      </trkpt>
      <trkpt lat="47.84756" lon="1.73201">
        <ele>88.717878</ele>
        <time>2021-12-04T13:36:16.829Z</time>
      </trkpt>
      <trkpt lat="47.84875" lon="1.73391">
        <ele>88.657427</ele>
        <time>2021-12-04T13:37:22.703Z</time>
      </trkpt>
      <trkpt lat="47.84911" lon="1.73464">
        <ele>88.614514</ele>
        <time>2021-12-04T13:37:45.440Z</time>
      </trkpt>
      <trkpt lat="47.84955" lon="1.73531">
        <ele>88.584795</ele>
        <time>2021-12-04T13:38:09.238Z</time>
      </trkpt>
      <trkpt lat="47.84966" lon="1.73581">
        <ele>88.567956</ele>
        <time>2021-12-04T13:38:23.032Z</time>
      </trkpt>
      <trkpt lat="47.84971" lon="1.73586">
        <ele>88.5651</ele>
        <time>2021-12-04T13:38:25.602Z</time>
      </trkpt>
      <trkpt lat="47.84972" lon="1.73594">
        <ele>88.562403</ele>
        <time>2021-12-04T13:38:27.794Z</time>
      </trkpt>
      <trkpt lat="47.84972" lon="1.73597">
        <ele>88.561386</ele>
        <time>2021-12-04T13:38:28.582Z</time>
      </trkpt>
      <trkpt lat="47.84973" lon="1.73616">
        <ele>88.555444</ele>
        <time>2021-12-04T13:38:33.433Z</time>
      </trkpt>
      <trkpt lat="47.85073" lon="1.73937">
        <ele>88.329045</ele>
        <time>2021-12-04T13:40:02.999Z</time>
      </trkpt>
      <trkpt lat="47.85233" lon="1.74446">
        <ele>88.13089</ele>
        <time>2021-12-04T13:42:26.667Z</time>
      </trkpt>
      <trkpt lat="47.85311" lon="1.74633">
        <ele>87.860249</ele>
        <time>2021-12-04T13:43:21.579Z</time>
      </trkpt>
      <trkpt lat="47.8543" lon="1.74993">
        <ele>87.027632</ele>
        <time>2021-12-04T13:45:00.919Z</time>
      </trkpt>
      <trkpt lat="47.85434" lon="1.75021">
        <ele>86.983724</ele>
        <time>2021-12-04T13:45:07.874Z</time>
      </trkpt>
      <trkpt lat="47.85451" lon="1.7505">
        <ele>86.922831</ele>
        <time>2021-12-04T13:45:17.806Z</time>
      </trkpt>
      <trkpt lat="47.85513" lon="1.75112">
        <ele>86.952908</ele>
        <time>2021-12-04T13:45:46.666Z</time>
      </trkpt>
      <trkpt lat="47.85469" lon="1.75155">
        <ele>87.160345</ele>
        <time>2021-12-04T13:45:59.966Z</time>
      </trkpt>
      <trkpt lat="47.85473" lon="1.75165">
        <ele>87.190745</ele>
        <time>2021-12-04T13:46:02.978Z</time>
      </trkpt>
      <trkpt lat="47.85472" lon="1.75199">
        <ele>87.279255</ele>
        <time>2021-12-04T13:46:10.295Z</time>
      </trkpt>
      <trkpt lat="47.85517" lon="1.75332">
        <ele>87.904239</ele>
        <time>2021-12-04T13:46:44.210Z</time>
      </trkpt>
      <trkpt lat="47.85614" lon="1.75481">
        <ele>89.347525</ele>
        <time>2021-12-04T13:47:47.202Z</time>
      </trkpt>
      <trkpt lat="47.85637" lon="1.75518">
        <ele>89.629066</ele>
        <time>2021-12-04T13:48:02.961Z</time>
      </trkpt>
      <trkpt lat="47.85707" lon="1.75497">
        <ele>90.204602</ele>
        <time>2021-12-04T13:48:35.082Z</time>
      </trkpt>
      <trkpt lat="47.85749" lon="1.75477">
        <ele>90.55502</ele>
        <time>2021-12-04T13:48:53.985Z</time>
      </trkpt>
      <trkpt lat="47.85942" lon="1.75961">
        <ele>90.550279</ele>
        <time>2021-12-04T13:51:17.773Z</time>
      </trkpt>
      <trkpt lat="47.86002" lon="1.76136">
        <ele>89.5451</ele>
        <time>2021-12-04T13:52:04.313Z</time>
      </trkpt>
      <trkpt lat="47.86026" lon="1.76203">
        <ele>89.118932</ele>
        <time>2021-12-04T13:52:22.125Z</time>
      </trkpt>
      <trkpt lat="47.8599" lon="1.7624">
        <ele>88.837409</ele>
        <time>2021-12-04T13:52:37.619Z</time>
      </trkpt>
      <trkpt lat="47.86005" lon="1.7627">
        <ele>88.698076</ele>
        <time>2021-12-04T13:52:46.543Z</time>
      </trkpt>
      <trkpt lat="47.86054" lon="1.76341">
        <ele>88.316554</ele>
        <time>2021-12-04T13:53:11.056Z</time>
      </trkpt>
      <trkpt lat="47.86103" lon="1.76432">
        <ele>88.009986</ele>
        <time>2021-12-04T13:53:40.397Z</time>
      </trkpt>
      <trkpt lat="47.8611" lon="1.7644">
        <ele>88.011895</ele>
        <time>2021-12-04T13:53:43.797Z</time>
      </trkpt>
      <trkpt lat="47.86113" lon="1.76427">
        <ele>88.01377</ele>
        <time>2021-12-04T13:53:47.372Z</time>
      </trkpt>
      <trkpt lat="47.86118" lon="1.76429">
        <ele>88.014932</ele>
        <time>2021-12-04T13:53:49.300Z</time>
      </trkpt>
      <trkpt lat="47.86128" lon="1.76448">
        <ele>88.018415</ele>
        <time>2021-12-04T13:53:55.353Z</time>
      </trkpt>
      <trkpt lat="47.86149" lon="1.76529">
        <ele>88.03133</ele>
        <time>2021-12-04T13:54:18.179Z</time>
      </trkpt>
      <trkpt lat="47.86171" lon="1.76578">
        <ele>88.040049</ele>
        <time>2021-12-04T13:54:33.408Z</time>
      </trkpt>
      <trkpt lat="47.86226" lon="1.76664">
        <ele>88.218235</ele>
        <time>2021-12-04T13:55:04.233Z</time>
      </trkpt>
      <trkpt lat="47.86284" lon="1.7679">
        <ele>88.516184</ele>
        <time>2021-12-04T13:55:45.891Z</time>
      </trkpt>
      <trkpt lat="47.86315" lon="1.76877">
        <ele>88.606126</ele>
        <time>2021-12-04T13:56:12.777Z</time>
      </trkpt>
      <trkpt lat="47.86367" lon="1.76997">
        <ele>88.681927</ele>
        <time>2021-12-04T13:56:49.523Z</time>
      </trkpt>
      <trkpt lat="47.86455" lon="1.77257">
        <ele>88.637833</ele>
        <time>2021-12-04T13:58:02.736Z</time>
      </trkpt>
      <trkpt lat="47.86456" lon="1.7726">
        <ele>88.636923</ele>
        <time>2021-12-04T13:58:03.516Z</time>
      </trkpt>
      <trkpt lat="47.86535" lon="1.77468">
        <ele>89.442606</ele>
        <time>2021-12-04T13:59:10.466Z</time>
      </trkpt>
      <trkpt lat="47.86638" lon="1.77711">
        <ele>90.526765</ele>
        <time>2021-12-04T14:00:32.012Z</time>
      </trkpt>
      <trkpt lat="47.86663" lon="1.77772">
        <ele>90.63411</ele>
        <time>2021-12-04T14:00:50.906Z</time>
      </trkpt>
      <trkpt lat="47.86674" lon="1.77842">
        <ele>90.575023</ele>
        <time>2021-12-04T14:01:09.145Z</time>
      </trkpt>
      <trkpt lat="47.86673" lon="1.77849">
        <ele>90.569202</ele>
        <time>2021-12-04T14:01:10.876Z</time>
      </trkpt>
      <trkpt lat="47.8667" lon="1.77856">
        <ele>90.562345</ele>
        <time>2021-12-04T14:01:12.846Z</time>
      </trkpt>
      <trkpt lat="47.86663" lon="1.78078">
        <ele>90.343542</ele>
        <time>2021-12-04T14:02:08.355Z</time>
      </trkpt>
      <trkpt lat="47.86665" lon="1.7835">
        <ele>90.102387</ele>
        <time>2021-12-04T14:03:16.903Z</time>
      </trkpt>
      <trkpt lat="47.86669" lon="1.78501">
        <ele>90.110689</ele>
        <time>2021-12-04T14:03:56.112Z</time>
      </trkpt>
      <trkpt lat="47.8666" lon="1.78724">
        <ele>90.242191</ele>
        <time>2021-12-04T14:04:53.684Z</time>
      </trkpt>
      <trkpt lat="47.86641" lon="1.7898">
        <ele>90.83595</ele>
        <time>2021-12-04T14:06:01.144Z</time>
      </trkpt>
      <trkpt lat="47.86644" lon="1.7905">
        <ele>91.051201</ele>
        <time>2021-12-04T14:06:22.201Z</time>
      </trkpt>
      <trkpt lat="47.86663" lon="1.79147">
        <ele>91.366484</ele>
        <time>2021-12-04T14:06:51.795Z</time>
      </trkpt>
      <trkpt lat="47.86663" lon="1.79174">
        <ele>91.454201</ele>
        <time>2021-12-04T14:06:59.469Z</time>
      </trkpt>
      <trkpt lat="47.86668" lon="1.79193">
        <ele>91.517604</ele>
        <time>2021-12-04T14:07:05.471Z</time>
      </trkpt>
      <trkpt lat="47.86706" lon="1.79202">
        <ele>91.700943</ele>
        <time>2021-12-04T14:07:16.510Z</time>
      </trkpt>
      <trkpt lat="47.8671" lon="1.79203">
        <ele>91.718887</ele>
        <time>2021-12-04T14:07:17.636Z</time>
      </trkpt>
      <trkpt lat="47.86647" lon="1.79617">
        <ele>91.249244</ele>
        <time>2021-12-04T14:09:02.998Z</time>
      </trkpt>
      <trkpt lat="47.86635" lon="1.79943">
        <ele>90.703931</ele>
        <time>2021-12-04T14:10:24.796Z</time>
      </trkpt>
      <trkpt lat="47.8665" lon="1.8015">
        <ele>90.360524</ele>
        <time>2021-12-04T14:11:17.090Z</time>
      </trkpt>
      <trkpt lat="47.86663" lon="1.80341">
        <ele>89.996515</ele>
        <time>2021-12-04T14:12:04.586Z</time>
      </trkpt>
      <trkpt lat="47.86668" lon="1.80391">
        <ele>89.901802</ele>
        <time>2021-12-04T14:12:17.251Z</time>
      </trkpt>
      <trkpt lat="47.8668" lon="1.80429">
        <ele>89.825776</ele>
        <time>2021-12-04T14:12:27.434Z</time>
      </trkpt>
      <trkpt lat="47.86696" lon="1.80449">
        <ele>89.766567</ele>
        <time>2021-12-04T14:12:35.406Z</time>
      </trkpt>
      <trkpt lat="47.86854" lon="1.80722">
        <ele>89.229696</ele>
        <time>2021-12-04T14:14:05.610Z</time>
      </trkpt>
      <trkpt lat="47.86902" lon="1.80744">
        <ele>89.212549</ele>
        <time>2021-12-04T14:14:24.387Z</time>
      </trkpt>
      <trkpt lat="47.86929" lon="1.80771">
        <ele>89.311818</ele>
        <time>2021-12-04T14:14:36.825Z</time>
      </trkpt>
      <trkpt lat="47.8694" lon="1.80795">
        <ele>89.371645</ele>
        <time>2021-12-04T14:14:44.450Z</time>
      </trkpt>
      <trkpt lat="47.86946" lon="1.80866">
        <ele>89.516786</ele>
        <time>2021-12-04T14:15:03.383Z</time>
      </trkpt>
      <trkpt lat="47.86954" lon="1.80898">
        <ele>89.586555</ele>
        <time>2021-12-04T14:15:12.686Z</time>
      </trkpt>
      <trkpt lat="47.87216" lon="1.81378">
        <ele>92.779052</ele>
        <time>2021-12-04T14:18:13.706Z</time>
      </trkpt>
      <trkpt lat="47.87247" lon="1.81454">
        <ele>92.719216</ele>
        <time>2021-12-04T14:18:36.280Z</time>
      </trkpt>
      <trkpt lat="47.87333" lon="1.81753">
        <ele>92.277706</ele>
        <time>2021-12-04T14:19:56.884Z</time>
      </trkpt>
      <trkpt lat="47.87353" lon="1.81785">
        <ele>92.189941</ele>
        <time>2021-12-04T14:20:07.833Z</time>
      </trkpt>
      <trkpt lat="47.87363" lon="1.81814">
        <ele>92.124743</ele>
        <time>2021-12-04T14:20:15.960Z</time>
      </trkpt>
      <trkpt lat="47.87402" lon="1.81998">
        <ele>92.014465</ele>
        <time>2021-12-04T14:21:04.506Z</time>
      </trkpt>
      <trkpt lat="47.87423" lon="1.82056">
        <ele>91.989642</ele>
        <time>2021-12-04T14:21:21.751Z</time>
      </trkpt>
      <trkpt lat="47.87447" lon="1.82104">
        <ele>91.978704</ele>
        <time>2021-12-04T14:21:37.241Z</time>
      </trkpt>
      <trkpt lat="47.87511" lon="1.82198">
        <ele>91.98699</ele>
        <time>2021-12-04T14:22:11.641Z</time>
      </trkpt>
      <trkpt lat="47.87522" lon="1.82281">
        <ele>91.992181</ele>
        <time>2021-12-04T14:22:33.751Z</time>
      </trkpt>
      <trkpt lat="47.87564" lon="1.82384">
        <ele>91.80197</ele>
        <time>2021-12-04T14:23:04.448Z</time>
      </trkpt>
      <trkpt lat="47.87566" lon="1.82421">
        <ele>91.727846</ele>
        <time>2021-12-04T14:23:13.765Z</time>
      </trkpt>
      <trkpt lat="47.87576" lon="1.8245">
        <ele>91.664818</ele>
        <time>2021-12-04T14:23:21.476Z</time>
      </trkpt>
      <trkpt lat="47.87598" lon="1.82486">
        <ele>91.569072</ele>
        <time>2021-12-04T14:23:33.393Z</time>
      </trkpt>
      <trkpt lat="47.87601" lon="1.8251">
        <ele>91.521294</ele>
        <time>2021-12-04T14:23:39.554Z</time>
      </trkpt>
      <trkpt lat="47.8761" lon="1.82538">
        <ele>91.454836</ele>
        <time>2021-12-04T14:23:47.107Z</time>
      </trkpt>
      <trkpt lat="47.87627" lon="1.8256">
        <ele>91.3404</ele>
        <time>2021-12-04T14:23:55.269Z</time>
      </trkpt>
      <trkpt lat="47.87648" lon="1.82619">
        <ele>91.10693</ele>
        <time>2021-12-04T14:24:11.920Z</time>
      </trkpt>
      <trkpt lat="47.87698" lon="1.82706">
        <ele>90.712031</ele>
        <time>2021-12-04T14:24:39.594Z</time>
      </trkpt>
      <trkpt lat="47.87709" lon="1.82714">
        <ele>90.651285</ele>
        <time>2021-12-04T14:24:43.739Z</time>
      </trkpt>
      <trkpt lat="47.87744" lon="1.82743">
        <ele>90.534666</ele>
        <time>2021-12-04T14:24:58.439Z</time>
      </trkpt>
      <trkpt lat="47.8776" lon="1.82763">
        <ele>90.526566</ele>
        <time>2021-12-04T14:25:06.220Z</time>
      </trkpt>
      <trkpt lat="47.87799" lon="1.82871">
        <ele>90.494562</ele>
        <time>2021-12-04T14:25:37.387Z</time>
      </trkpt>
      <trkpt lat="47.8789" lon="1.8303">
        <ele>90.640171</ele>
        <time>2021-12-04T14:26:33.232Z</time>
      </trkpt>
      <trkpt lat="47.87906" lon="1.83048">
        <ele>90.680623</ele>
        <time>2021-12-04T14:26:41.086Z</time>
      </trkpt>
      <trkpt lat="47.87925" lon="1.83049">
        <ele>90.719154</ele>
        <time>2021-12-04T14:26:46.402Z</time>
      </trkpt>
      <trkpt lat="47.87931" lon="1.83055">
        <ele>90.734363</ele>
        <time>2021-12-04T14:26:49.273Z</time>
      </trkpt>
      <trkpt lat="47.87937" lon="1.83087">
        <ele>90.779308</ele>
        <time>2021-12-04T14:26:58.126Z</time>
      </trkpt>
      <trkpt lat="47.88042" lon="1.8326">
        <ele>90.892234</ele>
        <time>2021-12-04T14:27:58.698Z</time>
      </trkpt>
      <trkpt lat="47.88144" lon="1.83404">
        <ele>90.795096</ele>
        <time>2021-12-04T14:28:51.588Z</time>
      </trkpt>
      <trkpt lat="47.88288" lon="1.83637">
        <ele>91.029035</ele>
        <time>2021-12-04T14:30:11.652Z</time>
      </trkpt>
      <trkpt lat="47.88291" lon="1.83666">
        <ele>91.086427</ele>
        <time>2021-12-04T14:30:20.247Z</time>
      </trkpt>
      <trkpt lat="47.88315" lon="1.837">
        <ele>91.184989</ele>
        <time>2021-12-04T14:30:35.209Z</time>
      </trkpt>
      <trkpt lat="47.88324" lon="1.83702">
        <ele>91.23297</ele>
        <time>2021-12-04T14:30:39.116Z</time>
      </trkpt>
      <trkpt lat="47.88348" lon="1.83743">
        <ele>91.626685</ele>
        <time>2021-12-04T14:30:55.713Z</time>
      </trkpt>
      <trkpt lat="47.88365" lon="1.83727">
        <ele>91.840473</ele>
        <time>2021-12-04T14:31:05.031Z</time>
      </trkpt>
      <trkpt lat="47.88379" lon="1.83723">
        <ele>91.991609</ele>
        <time>2021-12-04T14:31:11.150Z</time>
      </trkpt>
      <trkpt lat="47.88409" lon="1.83679">
        <ele>92.445179</ele>
        <time>2021-12-04T14:31:30.708Z</time>
      </trkpt>
      <trkpt lat="47.88446" lon="1.8373">
        <ele>92.987111</ele>
        <time>2021-12-04T14:31:46.686Z</time>
      </trkpt>
      <trkpt lat="47.88555" lon="1.84004">
        <ele>94.024852</ele>
        <time>2021-12-04T14:32:41.190Z</time>
      </trkpt>
      <trkpt lat="47.88606" lon="1.84119">
        <ele>94.328266</ele>
        <time>2021-12-04T14:33:02.614Z</time>
      </trkpt>
      <trkpt lat="47.88605" lon="1.84128">
        <ele>94.348937</ele>
        <time>2021-12-04T14:33:04.251Z</time>
      </trkpt>
      <trkpt lat="47.88627" lon="1.84198">
        <ele>94.520486</ele>
        <time>2021-12-04T14:33:18.272Z</time>
      </trkpt>
      <trkpt lat="47.88642" lon="1.84231">
        <ele>94.750338</ele>
        <time>2021-12-04T14:33:26.546Z</time>
      </trkpt>
      <trkpt lat="47.88695" lon="1.84343">
        <ele>95.809307</ele>
        <time>2021-12-04T14:33:59.103Z</time>
      </trkpt>
      <trkpt lat="47.88753" lon="1.84412">
        <ele>96.604304</ele>
        <time>2021-12-04T14:34:22.776Z</time>
      </trkpt>
      <trkpt lat="47.88774" lon="1.84436">
        <ele>96.526363</ele>
        <time>2021-12-04T14:34:31.133Z</time>
      </trkpt>
      <trkpt lat="47.88797" lon="1.84482">
        <ele>96.411058</ele>
        <time>2021-12-04T14:34:42.073Z</time>
      </trkpt>
      <trkpt lat="47.88957" lon="1.84703">
        <ele>95.450365</ele>
        <time>2021-12-04T14:35:32.076Z</time>
      </trkpt>
      <trkpt lat="47.89037" lon="1.84834">
        <ele>95.063524</ele>
        <time>2021-12-04T14:36:02.128Z</time>
      </trkpt>
      <trkpt lat="47.89089" lon="1.84911">
        <ele>95.128435</ele>
        <time>2021-12-04T14:36:22.273Z</time>
      </trkpt>
      <trkpt lat="47.89114" lon="1.84977">
        <ele>95.173812</ele>
        <time>2021-12-04T14:36:35.988Z</time>
      </trkpt>
      <trkpt lat="47.8913" lon="1.85023">
        <ele>95.059332</ele>
        <time>2021-12-04T14:36:44.847Z</time>
      </trkpt>
      <trkpt lat="47.89233" lon="1.85258">
        <ele>94.26262</ele>
        <time>2021-12-04T14:37:29.463Z</time>
      </trkpt>
      <trkpt lat="47.89232" lon="1.85266">
        <ele>94.257074</ele>
        <time>2021-12-04T14:37:30.792Z</time>
      </trkpt>
      <trkpt lat="47.89296" lon="1.85484">
        <ele>94.113604</ele>
        <time>2021-12-04T14:38:12.288Z</time>
      </trkpt>
      <trkpt lat="47.89315" lon="1.85534">
        <ele>94.114534</ele>
        <time>2021-12-04T14:38:22.864Z</time>
      </trkpt>
      <trkpt lat="47.89355" lon="1.85613">
        <ele>94.116125</ele>
        <time>2021-12-04T14:38:40.288Z</time>
      </trkpt>
      <trkpt lat="47.89403" lon="1.85801">
        <ele>93.77111</ele>
        <time>2021-12-04T14:39:13.762Z</time>
      </trkpt>
      <trkpt lat="47.89424" lon="1.85865">
        <ele>93.561106</ele>
        <time>2021-12-04T14:39:24.832Z</time>
      </trkpt>
      <trkpt lat="47.89466" lon="1.86107">
        <ele>92.907954</ele>
        <time>2021-12-04T14:40:05.698Z</time>
      </trkpt>
      <trkpt lat="47.89488" lon="1.86165">
        <ele>92.745822</ele>
        <time>2021-12-04T14:40:16.715Z</time>
      </trkpt>
      <trkpt lat="47.89504" lon="1.86196">
        <ele>92.640476</ele>
        <time>2021-12-04T14:40:23.323Z</time>
      </trkpt>
      <trkpt lat="47.89557" lon="1.86369">
        <ele>91.964965</ele>
        <time>2021-12-04T14:41:09.671Z</time>
      </trkpt>
      <trkpt lat="47.89597" lon="1.86559">
        <ele>91.609528</ele>
        <time>2021-12-04T14:41:58.139Z</time>
      </trkpt>
      <trkpt lat="47.89613" lon="1.86694">
        <ele>91.496228</ele>
        <time>2021-12-04T14:42:33.705Z</time>
      </trkpt>
      <trkpt lat="47.89623" lon="1.86819">
        <ele>92.177233</ele>
        <time>2021-12-04T14:43:04.076Z</time>
      </trkpt>
      <trkpt lat="47.89648" lon="1.86969">
        <ele>92.988073</ele>
        <time>2021-12-04T14:43:42.166Z</time>
      </trkpt>
      <trkpt lat="47.89668" lon="1.87091">
        <ele>93.21889</ele>
        <time>2021-12-04T14:44:08.795Z</time>
      </trkpt>
      <trkpt lat="47.89689" lon="1.87195">
        <ele>93.419167</ele>
        <time>2021-12-04T14:44:30.727Z</time>
      </trkpt>
      <trkpt lat="47.89703" lon="1.87276">
        <ele>93.719239</ele>
        <time>2021-12-04T14:44:47.895Z</time>
      </trkpt>
      <trkpt lat="47.89726" lon="1.87403">
        <ele>94.283708</ele>
        <time>2021-12-04T14:45:19.302Z</time>
      </trkpt>
      <trkpt lat="47.89759" lon="1.87578">
        <ele>94.850364</ele>
        <time>2021-12-04T14:46:11.980Z</time>
      </trkpt>
      <trkpt lat="47.8976" lon="1.87583">
        <ele>94.861269</ele>
        <time>2021-12-04T14:46:13.063Z</time>
      </trkpt>
      <trkpt lat="47.89778" lon="1.87633">
        <ele>94.988139</ele>
        <time>2021-12-04T14:46:22.834Z</time>
      </trkpt>
      <trkpt lat="47.89778" lon="1.87638">
        <ele>94.999322</ele>
        <time>2021-12-04T14:46:23.573Z</time>
      </trkpt>
      <trkpt lat="47.89781" lon="1.8764">
        <ele>95.010455</ele>
        <time>2021-12-04T14:46:24.703Z</time>
      </trkpt>
      <trkpt lat="47.89782" lon="1.8765">
        <ele>95.034143</ele>
        <time>2021-12-04T14:46:26.340Z</time>
      </trkpt>
      <trkpt lat="47.89782" lon="1.87664">
        <ele>95.064971</ele>
        <time>2021-12-04T14:46:28.484Z</time>
      </trkpt>
      <trkpt lat="47.89773" lon="1.87664">
        <ele>95.093947</ele>
        <time>2021-12-04T14:46:31.102Z</time>
      </trkpt>
      <trkpt lat="47.89741" lon="1.87662">
        <ele>95.200265</ele>
        <time>2021-12-04T14:46:40.450Z</time>
      </trkpt>
      <trkpt lat="47.89408" lon="1.87642">
        <ele>93.755347</ele>
        <time>2021-12-04T14:48:16.668Z</time>
      </trkpt>
      <trkpt lat="47.8935" lon="1.87638">
        <ele>93.507244</ele>
        <time>2021-12-04T14:48:33.532Z</time>
      </trkpt>
      <trkpt lat="47.89338" lon="1.87639">
        <ele>93.458111</ele>
        <time>2021-12-04T14:48:36.993Z</time>
      </trkpt>
      <trkpt lat="47.89334" lon="1.87637">
        <ele>93.440153</ele>
        <time>2021-12-04T14:48:38.292Z</time>
      </trkpt>
      <trkpt lat="47.89291" lon="1.8767">
        <ele>93.242688</ele>
        <time>2021-12-04T14:48:52.328Z</time>
      </trkpt>
      <trkpt lat="47.89287" lon="1.87673">
        <ele>93.223592</ele>
        <time>2021-12-04T14:48:53.665Z</time>
      </trkpt>
      <trkpt lat="47.89286" lon="1.87674">
        <ele>93.217063</ele>
        <time>2021-12-04T14:48:54.134Z</time>
      </trkpt>
      <trkpt lat="47.89282" lon="1.87677">
        <ele>93.200185</ele>
        <time>2021-12-04T14:48:55.286Z</time>
      </trkpt>
      <trkpt lat="47.8928" lon="1.87678">
        <ele>93.190576</ele>
        <time>2021-12-04T14:48:55.943Z</time>
      </trkpt>
      <trkpt lat="47.89279" lon="1.8771">
        <ele>93.102851</ele>
        <time>2021-12-04T14:49:00.581Z</time>
      </trkpt>
      <trkpt lat="47.89282" lon="1.87733">
        <ele>93.038244</ele>
        <time>2021-12-04T14:49:03.903Z</time>
      </trkpt>
      <trkpt lat="47.89288" lon="1.87884">
        <ele>92.783317</ele>
        <time>2021-12-04T14:49:25.498Z</time>
      </trkpt>
      <trkpt lat="47.8927" lon="1.87997">
        <ele>92.665657</ele>
        <time>2021-12-04T14:49:43.368Z</time>
      </trkpt>
      <trkpt lat="47.89268" lon="1.88008">
        <ele>92.654022</ele>
        <time>2021-12-04T14:49:45.235Z</time>
      </trkpt>
      <trkpt lat="47.8926" lon="1.88049">
        <ele>92.610947</ele>
        <time>2021-12-04T14:49:52.052Z</time>
      </trkpt>
      <trkpt lat="47.89246" lon="1.88133">
        <ele>92.779918</ele>
        <time>2021-12-04T14:50:06.121Z</time>
      </trkpt>
      <trkpt lat="47.89246" lon="1.88218">
        <ele>92.958868</ele>
        <time>2021-12-04T14:50:20.295Z</time>
      </trkpt>
      <trkpt lat="47.89248" lon="1.88355">
        <ele>93.238223</ele>
        <time>2021-12-04T14:50:44.011Z</time>
      </trkpt>
      <trkpt lat="47.89236" lon="1.88485">
        <ele>93.485163</ele>
        <time>2021-12-04T14:51:05.637Z</time>
      </trkpt>
      <trkpt lat="47.89204" lon="1.88647">
        <ele>93.795737</ele>
        <time>2021-12-04T14:51:33.113Z</time>
      </trkpt>
      <trkpt lat="47.89202" lon="1.88654">
        <ele>93.81011</ele>
        <time>2021-12-04T14:51:34.518Z</time>
      </trkpt>
      <trkpt lat="47.89193" lon="1.88659">
        <ele>93.834748</ele>
        <time>2021-12-04T14:51:36.699Z</time>
      </trkpt>
      <trkpt lat="47.89195" lon="1.887">
        <ele>93.908982</ele>
        <time>2021-12-04T14:51:43.613Z</time>
      </trkpt>
      <trkpt lat="47.89195" lon="1.88712">
        <ele>93.930338</ele>
        <time>2021-12-04T14:51:45.568Z</time>
      </trkpt>
      <trkpt lat="47.89194" lon="1.88744">
        <ele>93.988017</ele>
        <time>2021-12-04T14:51:50.974Z</time>
      </trkpt>
      <trkpt lat="47.89193" lon="1.88831">
        <ele>94.144287</ele>
        <time>2021-12-04T14:52:05.378Z</time>
      </trkpt>
      <trkpt lat="47.89194" lon="1.88852">
        <ele>94.18388</ele>
        <time>2021-12-04T14:52:08.801Z</time>
      </trkpt>
      <trkpt lat="47.89199" lon="1.88851">
        <ele>94.198872</ele>
        <time>2021-12-04T14:52:10.186Z</time>
      </trkpt>
      <trkpt lat="47.8923" lon="1.88835">
        <ele>94.28923</ele>
        <time>2021-12-04T14:52:18.212Z</time>
      </trkpt>
      <trkpt lat="47.8926" lon="1.88839">
        <ele>94.37371</ele>
        <time>2021-12-04T14:52:25.564Z</time>
      </trkpt>
      <trkpt lat="47.89279" lon="1.88842">
        <ele>94.428339</ele>
        <time>2021-12-04T14:52:30.321Z</time>
      </trkpt>
      <trkpt lat="47.89301" lon="1.8886">
        <ele>94.500335</ele>
        <time>2021-12-04T14:52:36.337Z</time>
      </trkpt>
      <trkpt lat="47.89321" lon="1.88874">
        <ele>94.561712</ele>
        <time>2021-12-04T14:52:41.872Z</time>
      </trkpt>
      <trkpt lat="47.89387" lon="1.88867">
        <ele>94.856296</ele>
        <time>2021-12-04T14:52:58.218Z</time>
      </trkpt>
      <trkpt lat="47.89388" lon="1.88867">
        <ele>94.865585</ele>
        <time>2021-12-04T14:52:58.527Z</time>
      </trkpt>
      <trkpt lat="47.89401" lon="1.89225">
        <ele>96.549574</ele>
        <time>2021-12-04T14:54:04.367Z</time>
      </trkpt>
      <trkpt lat="47.89402" lon="1.89237">
        <ele>96.613757</ele>
        <time>2021-12-04T14:54:06.763Z</time>
      </trkpt>
      <trkpt lat="47.89405" lon="1.89353">
        <ele>97.239249</ele>
        <time>2021-12-04T14:54:28.678Z</time>
      </trkpt>
      <trkpt lat="47.89405" lon="1.89359">
        <ele>97.251225</ele>
        <time>2021-12-04T14:54:29.833Z</time>
      </trkpt>
      <trkpt lat="47.89406" lon="1.89389">
        <ele>97.223752</ele>
        <time>2021-12-04T14:54:35.626Z</time>
      </trkpt>
      <trkpt lat="47.89414" lon="1.89446">
        <ele>97.17278</ele>
        <time>2021-12-04T14:54:45.779Z</time>
      </trkpt>
      <trkpt lat="47.89414" lon="1.89449">
        <ele>97.169925</ele>
        <time>2021-12-04T14:54:46.308Z</time>
      </trkpt>
      <trkpt lat="47.89414" lon="1.89452">
        <ele>97.167005</ele>
        <time>2021-12-04T14:54:46.875Z</time>
      </trkpt>
      <trkpt lat="47.89427" lon="1.89465">
        <ele>97.146754</ele>
        <time>2021-12-04T14:54:50.858Z</time>
      </trkpt>
      <trkpt lat="47.89431" lon="1.89463">
        <ele>97.140625</ele>
        <time>2021-12-04T14:54:52.007Z</time>
      </trkpt>
      <trkpt lat="47.89445" lon="1.89463">
        <ele>97.123001</ele>
        <time>2021-12-04T14:54:54.962Z</time>
      </trkpt>
      <trkpt lat="47.89446" lon="1.89461">
        <ele>97.120322</ele>
        <time>2021-12-04T14:54:56.390Z</time>
      </trkpt>
      <trkpt lat="47.89448" lon="1.89455">
        <ele>97.114169</ele>
        <time>2021-12-04T14:54:59.572Z</time>
      </trkpt>
      <trkpt lat="47.89449" lon="1.89452">
        <ele>97.112005</ele>
        <time>2021-12-04T14:55:00.732Z</time>
      </trkpt>
      <trkpt lat="47.8945" lon="1.8945">
        <ele>97.109274</ele>
        <time>2021-12-04T14:55:02.127Z</time>
      </trkpt>
      <trkpt lat="47.89454" lon="1.89444">
        <ele>97.101307</ele>
        <time>2021-12-04T14:55:06.350Z</time>
      </trkpt>
      <trkpt lat="47.89453" lon="1.89382">
        <ele>97.045733</ele>
        <time>2021-12-04T14:55:35.467Z</time>
      </trkpt>
      <trkpt lat="47.89448" lon="1.89256">
        <ele>96.56729</ele>
        <time>2021-12-04T14:56:34.373Z</time>
      </trkpt>
      <trkpt lat="47.89451" lon="1.89255">
        <ele>96.544766</ele>
        <time>2021-12-04T14:56:36.527Z</time>
      </trkpt>
      <trkpt lat="47.89452" lon="1.89237">
        <ele>96.452691</ele>
        <time>2021-12-04T14:56:45.344Z</time>
      </trkpt>
      <trkpt lat="47.89468" lon="1.8918">
        <ele>96.156392</ele>
        <time>2021-12-04T14:57:13.832Z</time>
      </trkpt>
      <trkpt lat="47.89474" lon="1.89082">
        <ele>95.731487</ele>
        <time>2021-12-04T14:57:59.826Z</time>
      </trkpt>
      <trkpt lat="47.89468" lon="1.8918">
        <ele>95.967826</ele>
        <time>2021-12-04T14:58:45.819Z</time>
      </trkpt>
      <trkpt lat="47.89452" lon="1.89237">
        <ele>96.113931</ele>
        <time>2021-12-04T14:59:14.307Z</time>
      </trkpt>
      <trkpt lat="47.89451" lon="1.89255">
        <ele>96.159334</ele>
        <time>2021-12-04T14:59:23.124Z</time>
      </trkpt>
      <trkpt lat="47.89448" lon="1.89256">
        <ele>96.17044</ele>
        <time>2021-12-04T14:59:25.278Z</time>
      </trkpt>
      <trkpt lat="47.89453" lon="1.89382">
        <ele>96.528875</ele>
        <time>2021-12-04T15:00:24.180Z</time>
      </trkpt>
      <trkpt lat="47.89454" lon="1.89444">
        <ele>96.7502</ele>
        <time>2021-12-04T15:00:53.296Z</time>
      </trkpt>
      <trkpt lat="47.8945" lon="1.8945">
        <ele>96.781929</ele>
        <time>2021-12-04T15:00:57.519Z</time>
      </trkpt>
      <trkpt lat="47.89449" lon="1.89452">
        <ele>96.792807</ele>
        <time>2021-12-04T15:00:58.914Z</time>
      </trkpt>
      <trkpt lat="47.89448" lon="1.89455">
        <ele>96.801423</ele>
        <time>2021-12-04T15:01:00.073Z</time>
      </trkpt>
      <trkpt lat="47.89446" lon="1.89461">
        <ele>96.825931</ele>
        <time>2021-12-04T15:01:03.256Z</time>
      </trkpt>
      <trkpt lat="47.89445" lon="1.89463">
        <ele>96.8366</ele>
        <time>2021-12-04T15:01:04.684Z</time>
      </trkpt>
      <trkpt lat="47.89461" lon="1.89472">
        <ele>96.926346</ele>
        <time>2021-12-04T15:01:08.971Z</time>
      </trkpt>
      <trkpt lat="47.89466" lon="1.89496">
        <ele>97.016612</ele>
        <time>2021-12-04T15:01:13.940Z</time>
      </trkpt>
      <trkpt lat="47.89472" lon="1.8964">
        <ele>97.57197</ele>
        <time>2021-12-04T15:01:41.148Z</time>
      </trkpt>
      <trkpt lat="47.89468" lon="1.89686">
        <ele>97.771959</ele>
        <time>2021-12-04T15:01:49.414Z</time>
      </trkpt>
      <trkpt lat="47.89453" lon="1.89721">
        <ele>97.953267</ele>
        <time>2021-12-04T15:01:57.225Z</time>
      </trkpt>
      <trkpt lat="47.89445" lon="1.89755">
        <ele>98.108633</ele>
        <time>2021-12-04T15:02:03.904Z</time>
      </trkpt>
      <trkpt lat="47.89446" lon="1.8983">
        <ele>98.429931</ele>
        <time>2021-12-04T15:02:17.131Z</time>
      </trkpt>
      <trkpt lat="47.8945" lon="1.8983">
        <ele>98.451836</ele>
        <time>2021-12-04T15:02:19.526Z</time>
      </trkpt>
      <trkpt lat="47.89452" lon="1.89834">
        <ele>98.450707</ele>
        <time>2021-12-04T15:02:21.942Z</time>
      </trkpt>
      <trkpt lat="47.89454" lon="1.89837">
        <ele>98.432948</ele>
        <time>2021-12-04T15:02:24.233Z</time>
      </trkpt>
      <trkpt lat="47.89457" lon="1.89841">
        <ele>98.41399</ele>
        <time>2021-12-04T15:02:26.681Z</time>
      </trkpt>
      <trkpt lat="47.89457" lon="1.89841">
        <ele>98.409672</ele>
        <time>2021-12-04T15:02:27.270Z</time>
      </trkpt>
      <trkpt lat="47.89467" lon="1.89856">
        <ele>98.334342</ele>
        <time>2021-12-04T15:02:30.945Z</time>
      </trkpt>
      <trkpt lat="47.8947" lon="1.89934">
        <ele>98.055235</ele>
        <time>2021-12-04T15:02:43.821Z</time>
      </trkpt>
      <trkpt lat="47.89475" lon="1.90089">
        <ele>97.495246</ele>
        <time>2021-12-04T15:03:07.346Z</time>
      </trkpt>
      <trkpt lat="47.89476" lon="1.9012">
        <ele>97.389386</ele>
        <time>2021-12-04T15:03:12.238Z</time>
      </trkpt>
      <trkpt lat="47.89477" lon="1.90136">
        <ele>97.334915</ele>
        <time>2021-12-04T15:03:15.227Z</time>
      </trkpt>
      <trkpt lat="47.89479" lon="1.9021">
        <ele>97.084078</ele>
        <time>2021-12-04T15:03:27.603Z</time>
      </trkpt>
      <trkpt lat="47.89482" lon="1.90287">
        <ele>96.820704</ele>
        <time>2021-12-04T15:03:40.363Z</time>
      </trkpt>
      <trkpt lat="47.89475" lon="1.90293">
        <ele>96.782818</ele>
        <time>2021-12-04T15:03:42.482Z</time>
      </trkpt>
      <trkpt lat="47.89476" lon="1.90301">
        <ele>96.753642</ele>
        <time>2021-12-04T15:03:43.594Z</time>
      </trkpt>
      <trkpt lat="47.89476" lon="1.90308">
        <ele>96.729842</ele>
        <time>2021-12-04T15:03:44.449Z</time>
      </trkpt>
      <trkpt lat="47.89476" lon="1.9035">
        <ele>96.587071</ele>
        <time>2021-12-04T15:03:50.531Z</time>
      </trkpt>
      <trkpt lat="47.89475" lon="1.90362">
        <ele>96.502377</ele>
        <time>2021-12-04T15:03:52.077Z</time>
      </trkpt>
      <trkpt lat="47.89468" lon="1.90429">
        <ele>96.007032</ele>
        <time>2021-12-04T15:04:01.727Z</time>
      </trkpt>
      <trkpt lat="47.89467" lon="1.9044">
        <ele>95.92664</ele>
        <time>2021-12-04T15:04:03.354Z</time>
      </trkpt>
      <trkpt lat="47.89466" lon="1.90443">
        <ele>95.89966</ele>
        <time>2021-12-04T15:04:04.107Z</time>
      </trkpt>
      <trkpt lat="47.89467" lon="1.90461">
        <ele>95.77007</ele>
        <time>2021-12-04T15:04:06.608Z</time>
      </trkpt>
      <trkpt lat="47.89468" lon="1.90462">
        <ele>95.751343</ele>
        <time>2021-12-04T15:04:06.929Z</time>
      </trkpt>
      <trkpt lat="47.89479" lon="1.90461">
        <ele>95.640185</ele>
        <time>2021-12-04T15:04:08.901Z</time>
      </trkpt>
      <trkpt lat="47.8948" lon="1.90459">
        <ele>95.619124</ele>
        <time>2021-12-04T15:04:09.284Z</time>
      </trkpt>
      <trkpt lat="47.89488" lon="1.90443">
        <ele>95.472242</ele>
        <time>2021-12-04T15:04:12.416Z</time>
      </trkpt>
      <trkpt lat="47.89502" lon="1.90443">
        <ele>95.325561</ele>
        <time>2021-12-04T15:04:14.910Z</time>
      </trkpt>
      <trkpt lat="47.89796" lon="1.90417">
        <ele>91.729335</ele>
        <time>2021-12-04T15:05:11.783Z</time>
      </trkpt>
      <trkpt lat="47.89796" lon="1.90428">
        <ele>91.700488</ele>
        <time>2021-12-04T15:05:13.304Z</time>
      </trkpt>
      <trkpt lat="47.89797" lon="1.90435">
        <ele>91.682651</ele>
        <time>2021-12-04T15:05:14.262Z</time>
      </trkpt>
      <trkpt lat="47.89801" lon="1.9044">
        <ele>91.661351</ele>
        <time>2021-12-04T15:05:16.101Z</time>
      </trkpt>
      <trkpt lat="47.89801" lon="1.90442">
        <ele>91.657412</ele>
        <time>2021-12-04T15:05:16.293Z</time>
      </trkpt>
      <trkpt lat="47.89793" lon="1.90533">
        <ele>91.42103</ele>
        <time>2021-12-04T15:05:30.090Z</time>
      </trkpt>
      <trkpt lat="47.89791" lon="1.90553">
        <ele>91.369658</ele>
        <time>2021-12-04T15:05:33.961Z</time>
      </trkpt>
      <trkpt lat="47.8979" lon="1.90567">
        <ele>91.332542</ele>
        <time>2021-12-04T15:05:36.475Z</time>
      </trkpt>
      <trkpt lat="47.89782" lon="1.90668">
        <ele>91.317914</ele>
        <time>2021-12-04T15:05:54.668Z</time>
      </trkpt>
      <trkpt lat="47.89784" lon="1.90671">
        <ele>91.323704</ele>
        <time>2021-12-04T15:05:55.317Z</time>
      </trkpt>
      <trkpt lat="47.8979" lon="1.90814">
        <ele>91.512276</ele>
        <time>2021-12-04T15:06:17.694Z</time>
      </trkpt>
      <trkpt lat="47.8979" lon="1.90825">
        <ele>91.526342</ele>
        <time>2021-12-04T15:06:19.118Z</time>
      </trkpt>
      <trkpt lat="47.89793" lon="1.90936">
        <ele>91.516796</ele>
        <time>2021-12-04T15:06:37.663Z</time>
      </trkpt>
      <trkpt lat="47.89793" lon="1.90941">
        <ele>91.511633</ele>
        <time>2021-12-04T15:06:38.472Z</time>
      </trkpt>
      <trkpt lat="47.89798" lon="1.91073">
        <ele>91.369642</ele>
        <time>2021-12-04T15:06:57.473Z</time>
      </trkpt>
      <trkpt lat="47.89798" lon="1.91095">
        <ele>91.346218</ele>
        <time>2021-12-04T15:07:00.534Z</time>
      </trkpt>
      <trkpt lat="47.89803" lon="1.91207">
        <ele>91.534001</ele>
        <time>2021-12-04T15:07:19.124Z</time>
      </trkpt>
      <trkpt lat="47.89804" lon="1.91237">
        <ele>91.637763</ele>
        <time>2021-12-04T15:07:24.504Z</time>
      </trkpt>
      <trkpt lat="47.89804" lon="1.91248">
        <ele>91.675577</ele>
        <time>2021-12-04T15:07:26.474Z</time>
      </trkpt>
      <trkpt lat="47.89805" lon="1.91259">
        <ele>91.712993</ele>
        <time>2021-12-04T15:07:28.401Z</time>
      </trkpt>
      <trkpt lat="47.89808" lon="1.91365">
        <ele>92.074798</ele>
        <time>2021-12-04T15:07:47.065Z</time>
      </trkpt>
      <trkpt lat="47.89802" lon="1.91377">
        <ele>92.124937</ele>
        <time>2021-12-04T15:07:49.611Z</time>
      </trkpt>
      <trkpt lat="47.89813" lon="1.91603">
        <ele>93.433137</ele>
        <time>2021-12-04T15:08:32.638Z</time>
      </trkpt>
      <trkpt lat="47.89818" lon="1.91607">
        <ele>93.486687</ele>
        <time>2021-12-04T15:08:34.591Z</time>
      </trkpt>
      <trkpt lat="47.89818" lon="1.91619">
        <ele>93.563035</ele>
        <time>2021-12-04T15:08:37.095Z</time>
      </trkpt>
      <trkpt lat="47.89819" lon="1.91653">
        <ele>93.770666</ele>
        <time>2021-12-04T15:08:44.142Z</time>
      </trkpt>
      <trkpt lat="47.8983" lon="1.91722">
        <ele>93.852883</ele>
        <time>2021-12-04T15:08:58.027Z</time>
      </trkpt>
      <trkpt lat="47.89836" lon="1.91762">
        <ele>93.849991</ele>
        <time>2021-12-04T15:09:05.169Z</time>
      </trkpt>
      <trkpt lat="47.89849" lon="1.91838">
        <ele>93.844543</ele>
        <time>2021-12-04T15:09:16.897Z</time>
      </trkpt>
      <trkpt lat="47.89851" lon="1.91846">
        <ele>93.843939</ele>
        <time>2021-12-04T15:09:18.161Z</time>
      </trkpt>
      <trkpt lat="47.89852" lon="1.91854">
        <ele>93.843387</ele>
        <time>2021-12-04T15:09:19.281Z</time>
      </trkpt>
      <trkpt lat="47.89859" lon="1.91894">
        <ele>93.840465</ele>
        <time>2021-12-04T15:09:25.025Z</time>
      </trkpt>
      <trkpt lat="47.89873" lon="1.91977">
        <ele>93.637442</ele>
        <time>2021-12-04T15:09:36.681Z</time>
      </trkpt>
      <trkpt lat="47.89872" lon="1.9198">
        <ele>93.625729</ele>
        <time>2021-12-04T15:09:37.063Z</time>
      </trkpt>
      <trkpt lat="47.89871" lon="1.91988">
        <ele>93.591492</ele>
        <time>2021-12-04T15:09:38.246Z</time>
      </trkpt>
      <trkpt lat="47.89884" lon="1.92065">
        <ele>93.284741</ele>
        <time>2021-12-04T15:09:49.432Z</time>
      </trkpt>
      <trkpt lat="47.89883" lon="1.92077">
        <ele>93.237745</ele>
        <time>2021-12-04T15:09:51.092Z</time>
      </trkpt>
      <trkpt lat="47.89875" lon="1.92079">
        <ele>93.191596</ele>
        <time>2021-12-04T15:09:52.653Z</time>
      </trkpt>
      <trkpt lat="47.89892" lon="1.92186">
        <ele>92.79126</ele>
        <time>2021-12-04T15:10:08.318Z</time>
      </trkpt>
      <trkpt lat="47.89911" lon="1.92302">
        <ele>92.836257</ele>
        <time>2021-12-04T15:10:28.378Z</time>
      </trkpt>
      <trkpt lat="47.89941" lon="1.92478">
        <ele>92.856085</ele>
        <time>2021-12-04T15:10:57.343Z</time>
      </trkpt>
      <trkpt lat="47.89958" lon="1.92579">
        <ele>92.764173</ele>
        <time>2021-12-04T15:11:12.568Z</time>
      </trkpt>
      <trkpt lat="47.89965" lon="1.92618">
        <ele>92.729523</ele>
        <time>2021-12-04T15:11:18.262Z</time>
      </trkpt>
      <trkpt lat="47.89976" lon="1.92684">
        <ele>92.6693</ele>
        <time>2021-12-04T15:11:28.854Z</time>
      </trkpt>
      <trkpt lat="47.89995" lon="1.92793">
        <ele>92.818912</ele>
        <time>2021-12-04T15:11:47.110Z</time>
      </trkpt>
      <trkpt lat="47.90016" lon="1.92917">
        <ele>93.037968</ele>
        <time>2021-12-04T15:12:08.994Z</time>
      </trkpt>
      <trkpt lat="47.90018" lon="1.92922">
        <ele>93.047246</ele>
        <time>2021-12-04T15:12:09.924Z</time>
      </trkpt>
      <trkpt lat="47.90018" lon="1.92929">
        <ele>93.059253</ele>
        <time>2021-12-04T15:12:11.154Z</time>
      </trkpt>
      <trkpt lat="47.90043" lon="1.93094">
        <ele>93.269858</ele>
        <time>2021-12-04T15:12:41.700Z</time>
      </trkpt>
      <trkpt lat="47.90049" lon="1.9311">
        <ele>93.290944</ele>
        <time>2021-12-04T15:12:44.871Z</time>
      </trkpt>
      <trkpt lat="47.90057" lon="1.93183">
        <ele>93.374724</ele>
        <time>2021-12-04T15:12:57.513Z</time>
      </trkpt>
      <trkpt lat="47.90077" lon="1.93415">
        <ele>93.76974</ele>
        <time>2021-12-04T15:13:40.941Z</time>
      </trkpt>
      <trkpt lat="47.90089" lon="1.93516">
        <ele>93.906041</ele>
        <time>2021-12-04T15:13:59.236Z</time>
      </trkpt>
      <trkpt lat="47.90098" lon="1.93558">
        <ele>93.916101</ele>
        <time>2021-12-04T15:14:06.894Z</time>
      </trkpt>
      <trkpt lat="47.90239" lon="1.93999">
        <ele>93.793361</ele>
        <time>2021-12-04T15:15:30.683Z</time>
      </trkpt>
      <trkpt lat="47.90249" lon="1.94022">
        <ele>93.738386</ele>
        <time>2021-12-04T15:15:34.804Z</time>
      </trkpt>
      <trkpt lat="47.90256" lon="1.94024">
        <ele>93.714012</ele>
        <time>2021-12-04T15:15:37.313Z</time>
      </trkpt>
      <trkpt lat="47.90263" lon="1.9406">
        <ele>93.637284</ele>
        <time>2021-12-04T15:15:42.910Z</time>
      </trkpt>
      <trkpt lat="47.90264" lon="1.94067">
        <ele>93.621323</ele>
        <time>2021-12-04T15:15:44.106Z</time>
      </trkpt>
      <trkpt lat="47.90267" lon="1.94093">
        <ele>93.56594</ele>
        <time>2021-12-04T15:15:48.812Z</time>
      </trkpt>
      <trkpt lat="47.90272" lon="1.94136">
        <ele>93.474898</ele>
        <time>2021-12-04T15:15:55.973Z</time>
      </trkpt>
      <trkpt lat="47.90268" lon="1.94172">
        <ele>93.399187</ele>
        <time>2021-12-04T15:16:01.615Z</time>
      </trkpt>
      <trkpt lat="47.90271" lon="1.94326">
        <ele>93.300536</ele>
        <time>2021-12-04T15:16:26.838Z</time>
      </trkpt>
      <trkpt lat="47.90282" lon="1.94399">
        <ele>93.309648</ele>
        <time>2021-12-04T15:16:39.345Z</time>
      </trkpt>
      <trkpt lat="47.90294" lon="1.94432">
        <ele>93.314188</ele>
        <time>2021-12-04T15:16:46.083Z</time>
      </trkpt>
      <trkpt lat="47.90334" lon="1.94599">
        <ele>93.832319</ele>
        <time>2021-12-04T15:17:21.939Z</time>
      </trkpt>
      <trkpt lat="47.90379" lon="1.94887">
        <ele>94.621656</ele>
        <time>2021-12-04T15:18:19.437Z</time>
      </trkpt>
      <trkpt lat="47.90404" lon="1.95189">
        <ele>94.398168</ele>
        <time>2021-12-04T15:19:09.752Z</time>
      </trkpt>
      <trkpt lat="47.90408" lon="1.95344">
        <ele>94.049655</ele>
        <time>2021-12-04T15:19:35.448Z</time>
      </trkpt>
      <trkpt lat="47.90407" lon="1.95457">
        <ele>93.761658</ele>
        <time>2021-12-04T15:19:54.073Z</time>
      </trkpt>
      <trkpt lat="47.90395" lon="1.95756">
        <ele>92.93079</ele>
        <time>2021-12-04T15:20:42.616Z</time>
      </trkpt>
      <trkpt lat="47.90372" lon="1.96046">
        <ele>92.525064</ele>
        <time>2021-12-04T15:21:30.734Z</time>
      </trkpt>
      <trkpt lat="47.90372" lon="1.96083">
        <ele>92.550078</ele>
        <time>2021-12-04T15:21:37.802Z</time>
      </trkpt>
      <trkpt lat="47.90365" lon="1.96265">
        <ele>93.613879</ele>
        <time>2021-12-04T15:22:16.197Z</time>
      </trkpt>
      <trkpt lat="47.9035" lon="1.96345">
        <ele>94.092425</ele>
        <time>2021-12-04T15:22:34.553Z</time>
      </trkpt>
      <trkpt lat="47.90343" lon="1.96533">
        <ele>94.961444</ele>
        <time>2021-12-04T15:23:13.186Z</time>
      </trkpt>
      <trkpt lat="47.90341" lon="1.97182">
        <ele>95.745737</ele>
        <time>2021-12-04T15:25:11.265Z</time>
      </trkpt>
      <trkpt lat="47.90333" lon="1.97304">
        <ele>94.813732</ele>
        <time>2021-12-04T15:25:29.231Z</time>
      </trkpt>
      <trkpt lat="47.90295" lon="1.97541">
        <ele>93.523147</ele>
        <time>2021-12-04T15:26:04.954Z</time>
      </trkpt>
      <trkpt lat="47.90295" lon="1.97547">
        <ele>93.50306</ele>
        <time>2021-12-04T15:26:06.363Z</time>
      </trkpt>
      <trkpt lat="47.90293" lon="1.97555">
        <ele>93.472243</ele>
        <time>2021-12-04T15:26:07.708Z</time>
      </trkpt>
      <trkpt lat="47.90293" lon="1.97563">
        <ele>93.446548</ele>
        <time>2021-12-04T15:26:08.897Z</time>
      </trkpt>
      <trkpt lat="47.90231" lon="1.9796">
        <ele>94.198136</ele>
        <time>2021-12-04T15:27:29.622Z</time>
      </trkpt>
      <trkpt lat="47.90189" lon="1.98113">
        <ele>94.652321</ele>
        <time>2021-12-04T15:27:59.220Z</time>
      </trkpt>
      <trkpt lat="47.9014" lon="1.98233">
        <ele>95.274924</ele>
        <time>2021-12-04T15:28:26.946Z</time>
      </trkpt>
      <trkpt lat="47.90114" lon="1.98296">
        <ele>95.739369</ele>
        <time>2021-12-04T15:28:42.902Z</time>
      </trkpt>
      <trkpt lat="47.90069" lon="1.98397">
        <ele>96.497799</ele>
        <time>2021-12-04T15:29:09.402Z</time>
      </trkpt>
      <trkpt lat="47.90062" lon="1.98419">
        <ele>96.579194</ele>
        <time>2021-12-04T15:29:14.628Z</time>
      </trkpt>
      <trkpt lat="47.90054" lon="1.98424">
        <ele>96.609141</ele>
        <time>2021-12-04T15:29:18.388Z</time>
      </trkpt>
      <trkpt lat="47.89984" lon="1.98591">
        <ele>97.108943</ele>
        <time>2021-12-04T15:30:12.134Z</time>
      </trkpt>
      <trkpt lat="47.8998" lon="1.98602">
        <ele>97.140875</ele>
        <time>2021-12-04T15:30:15.220Z</time>
      </trkpt>
      <trkpt lat="47.89968" lon="1.98628">
        <ele>97.203224</ele>
        <time>2021-12-04T15:30:22.899Z</time>
      </trkpt>
      <trkpt lat="47.89965" lon="1.98625">
        <ele>97.194809</ele>
        <time>2021-12-04T15:30:23.792Z</time>
      </trkpt>
      <trkpt lat="47.89952" lon="1.98613">
        <ele>97.163137</ele>
        <time>2021-12-04T15:30:26.926Z</time>
      </trkpt>
      <trkpt lat="47.89948" lon="1.9861">
        <ele>97.153161</ele>
        <time>2021-12-04T15:30:27.951Z</time>
      </trkpt>
      <trkpt lat="47.8991" lon="1.98589">
        <ele>97.067431</ele>
        <time>2021-12-04T15:30:36.771Z</time>
      </trkpt>
      <trkpt lat="47.89906" lon="1.98541">
        <ele>96.999191</ele>
        <time>2021-12-04T15:30:44.225Z</time>
      </trkpt>
      <trkpt lat="47.89902" lon="1.98541">
        <ele>96.990322</ele>
        <time>2021-12-04T15:30:45.229Z</time>
      </trkpt>
      <trkpt lat="47.89888" lon="1.98541">
        <ele>96.961597</ele>
        <time>2021-12-04T15:30:48.485Z</time>
      </trkpt>
      <trkpt lat="47.8989" lon="1.98603">
        <ele>96.87308</ele>
        <time>2021-12-04T15:30:58.826Z</time>
      </trkpt>
      <trkpt lat="47.89884" lon="1.98606">
        <ele>96.860021</ele>
        <time>2021-12-04T15:31:00.256Z</time>
      </trkpt>
      <trkpt lat="47.89839" lon="1.98901">
        <ele>97.317976</ele>
        <time>2021-12-04T15:32:20.618Z</time>
      </trkpt>
      <trkpt lat="47.89814" lon="1.99065">
        <ele>98.026178</ele>
        <time>2021-12-04T15:33:08.449Z</time>
      </trkpt>
      <trkpt lat="47.89814" lon="1.99069">
        <ele>98.046628</ele>
        <time>2021-12-04T15:33:09.434Z</time>
      </trkpt>
      <trkpt lat="47.89811" lon="1.99091">
        <ele>98.138237</ele>
        <time>2021-12-04T15:33:15.685Z</time>
      </trkpt>
      <trkpt lat="47.8981" lon="1.99097">
        <ele>98.167321</ele>
        <time>2021-12-04T15:33:17.666Z</time>
      </trkpt>
      <trkpt lat="47.89763" lon="1.99371">
        <ele>99.141741</ele>
        <time>2021-12-04T15:34:36.098Z</time>
      </trkpt>
      <trkpt lat="47.89686" lon="1.99653">
        <ele>99.437456</ele>
        <time>2021-12-04T15:35:55.434Z</time>
      </trkpt>
      <trkpt lat="47.89594" lon="1.99891">
        <ele>99.076538</ele>
        <time>2021-12-04T15:37:04.531Z</time>
      </trkpt>
      <trkpt lat="47.8955" lon="2.00026">
        <ele>98.313177</ele>
        <time>2021-12-04T15:37:40.780Z</time>
      </trkpt>
      <trkpt lat="47.89532" lon="2.00062">
        <ele>98.084813</ele>
        <time>2021-12-04T15:37:51.174Z</time>
      </trkpt>
      <trkpt lat="47.89512" lon="2.00084">
        <ele>97.899902</ele>
        <time>2021-12-04T15:37:59.720Z</time>
      </trkpt>
      <trkpt lat="47.8951" lon="2.00087">
        <ele>97.877385</ele>
        <time>2021-12-04T15:38:00.795Z</time>
      </trkpt>
      <trkpt lat="47.89498" lon="2.00112">
        <ele>97.719641</ele>
        <time>2021-12-04T15:38:07.987Z</time>
      </trkpt>
      <trkpt lat="47.89455" lon="2.00169">
        <ele>97.499755</ele>
        <time>2021-12-04T15:38:28.518Z</time>
      </trkpt>
      <trkpt lat="47.89431" lon="2.0022">
        <ele>97.338543</ele>
        <time>2021-12-04T15:38:43.509Z</time>
      </trkpt>
      <trkpt lat="47.89413" lon="2.00267">
        <ele>97.198776</ele>
        <time>2021-12-04T15:38:56.819Z</time>
      </trkpt>
      <trkpt lat="47.89396" lon="2.00347">
        <ele>97.104838</ele>
        <time>2021-12-04T15:39:18.681Z</time>
      </trkpt>
      <trkpt lat="47.89363" lon="2.00755">
        <ele>98.623632</ele>
        <time>2021-12-04T15:41:16.910Z</time>
      </trkpt>
      <trkpt lat="47.89341" lon="2.0096">
        <ele>98.615893</ele>
        <time>2021-12-04T15:42:08.632Z</time>
      </trkpt>
      <trkpt lat="47.89267" lon="2.01325">
        <ele>97.679313</ele>
        <time>2021-12-04T15:43:42.065Z</time>
      </trkpt>
      <trkpt lat="47.8919" lon="2.01767">
        <ele>97.613376</ele>
        <time>2021-12-04T15:45:39.823Z</time>
      </trkpt>
      <trkpt lat="47.89158" lon="2.01998">
        <ele>97.657301</ele>
        <time>2021-12-04T15:46:40.598Z</time>
      </trkpt>
      <trkpt lat="47.89147" lon="2.02056">
        <ele>97.657755</ele>
        <time>2021-12-04T15:46:56.054Z</time>
      </trkpt>
      <trkpt lat="47.89114" lon="2.0218">
        <ele>97.681797</ele>
        <time>2021-12-04T15:47:29.735Z</time>
      </trkpt>
      <trkpt lat="47.89038" lon="2.02431">
        <ele>97.962666</ele>
        <time>2021-12-04T15:48:42.134Z</time>
      </trkpt>
      <trkpt lat="47.89037" lon="2.02451">
        <ele>98.001316</ele>
        <time>2021-12-04T15:48:47.415Z</time>
      </trkpt>
      <trkpt lat="47.89045" lon="2.02514">
        <ele>98.129353</ele>
        <time>2021-12-04T15:49:04.859Z</time>
      </trkpt>
      <trkpt lat="47.89062" lon="2.02643">
        <ele>98.390442</ele>
        <time>2021-12-04T15:49:40.221Z</time>
      </trkpt>
      <trkpt lat="47.89059" lon="2.02683">
        <ele>98.444419</ele>
        <time>2021-12-04T15:49:51.202Z</time>
      </trkpt>
      <trkpt lat="47.89065" lon="2.0272">
        <ele>98.472014</ele>
        <time>2021-12-04T15:50:01.166Z</time>
      </trkpt>
      <trkpt lat="47.8907" lon="2.0277">
        <ele>98.509182</ele>
        <time>2021-12-04T15:50:13.981Z</time>
      </trkpt>
      <trkpt lat="47.89074" lon="2.02935">
        <ele>98.628878</ele>
        <time>2021-12-04T15:50:56.844Z</time>
      </trkpt>
      <trkpt lat="47.89094" lon="2.03046">
        <ele>98.672814</ele>
        <time>2021-12-04T15:51:26.490Z</time>
      </trkpt>
      <trkpt lat="47.89161" lon="2.03532">
        <ele>98.947957</ele>
        <time>2021-12-04T15:53:33.923Z</time>
      </trkpt>
      <trkpt lat="47.89164" lon="2.03579">
        <ele>99.038292</ele>
        <time>2021-12-04T15:53:46.558Z</time>
      </trkpt>
      <trkpt lat="47.89159" lon="2.03791">
        <ele>99.566443</ele>
        <time>2021-12-04T15:54:44.607Z</time>
      </trkpt>
      <trkpt lat="47.89181" lon="2.03934">
        <ele>100.095022</ele>
        <time>2021-12-04T15:55:25.497Z</time>
      </trkpt>
      <trkpt lat="47.89202" lon="2.04123">
        <ele>100.536679</ele>
        <time>2021-12-04T15:56:18.546Z</time>
      </trkpt>
      <trkpt lat="47.89204" lon="2.04139">
        <ele>100.565857</ele>
        <time>2021-12-04T15:56:21.367Z</time>
      </trkpt>
      <trkpt lat="47.89206" lon="2.04186">
        <ele>100.6531</ele>
        <time>2021-12-04T15:56:33.820Z</time>
      </trkpt>
      <trkpt lat="47.89232" lon="2.04313">
        <ele>100.592778</ele>
        <time>2021-12-04T15:57:07.303Z</time>
      </trkpt>
      <trkpt lat="47.89249" lon="2.04354">
        <ele>100.471209</ele>
        <time>2021-12-04T15:57:19.211Z</time>
      </trkpt>
      <trkpt lat="47.89259" lon="2.04396">
        <ele>100.359224</ele>
        <time>2021-12-04T15:57:30.046Z</time>
      </trkpt>
      <trkpt lat="47.89207" lon="2.04833">
        <ele>99.192502</ele>
        <time>2021-12-04T15:59:18.186Z</time>
      </trkpt>
      <trkpt lat="47.89208" lon="2.05164">
        <ele>99.86479</ele>
        <time>2021-12-04T16:00:48.823Z</time>
      </trkpt>
      <trkpt lat="47.8921" lon="2.05211">
        <ele>100.030304</ele>
        <time>2021-12-04T16:01:01.990Z</time>
      </trkpt>
      <trkpt lat="47.89238" lon="2.0526">
        <ele>100.258851</ele>
        <time>2021-12-04T16:01:20.308Z</time>
      </trkpt>
      <trkpt lat="47.8927" lon="2.05341">
        <ele>100.507162</ele>
        <time>2021-12-04T16:01:46.053Z</time>
      </trkpt>
      <trkpt lat="47.89298" lon="2.05399">
        <ele>100.676301</ele>
        <time>2021-12-04T16:02:05.583Z</time>
      </trkpt>
      <trkpt lat="47.89332" lon="2.05443">
        <ele>100.835842</ele>
        <time>2021-12-04T16:02:23.672Z</time>
      </trkpt>
      <trkpt lat="47.89414" lon="2.05639">
        <ele>101.153455</ele>
        <time>2021-12-04T16:03:24.294Z</time>
      </trkpt>
      <trkpt lat="47.89449" lon="2.05814">
        <ele>101.293382</ele>
        <time>2021-12-04T16:04:11.589Z</time>
      </trkpt>
      <trkpt lat="47.89459" lon="2.0589">
        <ele>101.328685</ele>
        <time>2021-12-04T16:04:31.782Z</time>
      </trkpt>
      <trkpt lat="47.8948" lon="2.05988">
        <ele>101.375387</ele>
        <time>2021-12-04T16:04:58.319Z</time>
      </trkpt>
      <trkpt lat="47.89523" lon="2.06136">
        <ele>101.347046</ele>
        <time>2021-12-04T16:05:39.193Z</time>
      </trkpt>
      <trkpt lat="47.89574" lon="2.06299">
        <ele>101.500228</ele>
        <time>2021-12-04T16:06:25.193Z</time>
      </trkpt>
      <trkpt lat="47.89721" lon="2.06565">
        <ele>102.412455</ele>
        <time>2021-12-04T16:08:00.337Z</time>
      </trkpt>
      <trkpt lat="47.89858" lon="2.06876">
        <ele>103.10071</ele>
        <time>2021-12-04T16:09:40.213Z</time>
      </trkpt>
      <trkpt lat="47.89968" lon="2.07149">
        <ele>102.512956</ele>
        <time>2021-12-04T16:10:58.771Z</time>
      </trkpt>
      <trkpt lat="47.90015" lon="2.07246">
        <ele>102.558605</ele>
        <time>2021-12-04T16:11:28.459Z</time>
      </trkpt>
      <trkpt lat="47.90022" lon="2.07259">
        <ele>102.564724</ele>
        <time>2021-12-04T16:11:30.970Z</time>
      </trkpt>
      <trkpt lat="47.90117" lon="2.07638">
        <ele>104.015124</ele>
        <time>2021-12-04T16:13:26.199Z</time>
      </trkpt>
      <trkpt lat="47.90223" lon="2.08088">
        <ele>105.419355</ele>
        <time>2021-12-04T16:15:37.492Z</time>
      </trkpt>
      <trkpt lat="47.90273" lon="2.0824">
        <ele>105.133935</ele>
        <time>2021-12-04T16:16:20.017Z</time>
      </trkpt>
      <trkpt lat="47.90355" lon="2.0855">
        <ele>104.003264</ele>
        <time>2021-12-04T16:17:40.569Z</time>
      </trkpt>
      <trkpt lat="47.90507" lon="2.08822">
        <ele>103.039125</ele>
        <time>2021-12-04T16:19:08.126Z</time>
      </trkpt>
      <trkpt lat="47.90559" lon="2.08931">
        <ele>102.781106</ele>
        <time>2021-12-04T16:19:41.333Z</time>
      </trkpt>
      <trkpt lat="47.90571" lon="2.08986">
        <ele>102.668464</ele>
        <time>2021-12-04T16:19:55.799Z</time>
      </trkpt>
      <trkpt lat="47.907" lon="2.09308">
        <ele>101.851131</ele>
        <time>2021-12-04T16:21:28.777Z</time>
      </trkpt>
      <trkpt lat="47.90703" lon="2.09315">
        <ele>101.836922</ele>
        <time>2021-12-04T16:21:30.008Z</time>
      </trkpt>
      <trkpt lat="47.90901" lon="2.0981">
        <ele>101.185821</ele>
        <time>2021-12-04T16:23:54.229Z</time>
      </trkpt>
      <trkpt lat="47.90928" lon="2.09865">
        <ele>101.256079</ele>
        <time>2021-12-04T16:24:12.320Z</time>
      </trkpt>
      <trkpt lat="47.90967" lon="2.09925">
        <ele>101.344747</ele>
        <time>2021-12-04T16:24:35.727Z</time>
      </trkpt>
      <trkpt lat="47.91071" lon="2.10007">
        <ele>101.872468</ele>
        <time>2021-12-04T16:25:24.786Z</time>
      </trkpt>
      <trkpt lat="47.91313" lon="2.1008">
        <ele>102.702242</ele>
        <time>2021-12-04T16:27:02.848Z</time>
      </trkpt>
      <trkpt lat="47.91338" lon="2.10127">
        <ele>102.843428</ele>
        <time>2021-12-04T16:27:19.217Z</time>
      </trkpt>
      <trkpt lat="47.91459" lon="2.10315">
        <ele>103.379738</ele>
        <time>2021-12-04T16:28:29.602Z</time>
      </trkpt>
      <trkpt lat="47.91578" lon="2.10546">
        <ele>103.654064</ele>
        <time>2021-12-04T16:29:44.715Z</time>
      </trkpt>
      <trkpt lat="47.91797" lon="2.10992">
        <ele>104.267315</ele>
        <time>2021-12-04T16:32:10.072Z</time>
      </trkpt>
      <trkpt lat="47.91869" lon="2.11145">
        <ele>104.420425</ele>
        <time>2021-12-04T16:32:59.192Z</time>
      </trkpt>
      <trkpt lat="47.91955" lon="2.11298">
        <ele>104.195439</ele>
        <time>2021-12-04T16:33:49.516Z</time>
      </trkpt>
      <trkpt lat="47.92026" lon="2.11406">
        <ele>103.993445</ele>
        <time>2021-12-04T16:34:27.021Z</time>
      </trkpt>
      <trkpt lat="47.92088" lon="2.11535">
        <ele>103.76353</ele>
        <time>2021-12-04T16:35:06.300Z</time>
      </trkpt>
      <trkpt lat="47.92207" lon="2.11882">
        <ele>104.316473</ele>
        <time>2021-12-04T16:36:50.732Z</time>
      </trkpt>
      <trkpt lat="47.92224" lon="2.11952">
        <ele>104.410418</ele>
        <time>2021-12-04T16:37:09.774Z</time>
      </trkpt>
      <trkpt lat="47.92246" lon="2.12173">
        <ele>104.568497</ele>
        <time>2021-12-04T16:38:08.390Z</time>
      </trkpt>
      <trkpt lat="47.92247" lon="2.12186">
        <ele>104.572741</ele>
        <time>2021-12-04T16:38:11.998Z</time>
      </trkpt>
      <trkpt lat="47.9225" lon="2.12214">
        <ele>104.581337</ele>
        <time>2021-12-04T16:38:19.138Z</time>
      </trkpt>
      <trkpt lat="47.92289" lon="2.1265">
        <ele>104.204224</ele>
        <time>2021-12-04T16:40:10.221Z</time>
      </trkpt>
      <trkpt lat="47.92305" lon="2.12794">
        <ele>103.909127</ele>
        <time>2021-12-04T16:40:46.180Z</time>
      </trkpt>
      <trkpt lat="47.92324" lon="2.12865">
        <ele>103.803563</ele>
        <time>2021-12-04T16:41:05.073Z</time>
      </trkpt>
      <trkpt lat="47.92368" lon="2.12963">
        <ele>103.748334</ele>
        <time>2021-12-04T16:41:34.683Z</time>
      </trkpt>
      <trkpt lat="47.92641" lon="2.13475">
        <ele>104.112597</ele>
        <time>2021-12-04T16:44:25.246Z</time>
      </trkpt>
      <trkpt lat="47.92787" lon="2.13753">
        <ele>104.434569</ele>
        <time>2021-12-04T16:45:58.035Z</time>
      </trkpt>
      <trkpt lat="47.92837" lon="2.1383">
        <ele>104.472761</ele>
        <time>2021-12-04T16:46:25.463Z</time>
      </trkpt>
      <trkpt lat="47.92933" lon="2.13928">
        <ele>104.481781</ele>
        <time>2021-12-04T16:47:09.229Z</time>
      </trkpt>
      <trkpt lat="47.92935" lon="2.1393">
        <ele>104.481049</ele>
        <time>2021-12-04T16:47:09.928Z</time>
      </trkpt>
      <trkpt lat="47.92937" lon="2.13932">
        <ele>104.480236</ele>
        <time>2021-12-04T16:47:10.760Z</time>
      </trkpt>
      <trkpt lat="47.9302" lon="2.14008">
        <ele>104.451341</ele>
        <time>2021-12-04T16:47:47.569Z</time>
      </trkpt>
      <trkpt lat="47.93121" lon="2.14125">
        <ele>104.718687</ele>
        <time>2021-12-04T16:48:37.449Z</time>
      </trkpt>
      <trkpt lat="47.9317" lon="2.14209">
        <ele>104.911432</ele>
        <time>2021-12-04T16:49:07.940Z</time>
      </trkpt>
      <trkpt lat="47.93233" lon="2.14307">
        <ele>105.28696</ele>
        <time>2021-12-04T16:49:45.027Z</time>
      </trkpt>
      <trkpt lat="47.93348" lon="2.14556">
        <ele>106.028032</ele>
        <time>2021-12-04T16:51:06.752Z</time>
      </trkpt>
      <trkpt lat="47.93393" lon="2.14659">
        <ele>106.257367</ele>
        <time>2021-12-04T16:51:39.748Z</time>
      </trkpt>
      <trkpt lat="47.93441" lon="2.1474">
        <ele>106.355565</ele>
        <time>2021-12-04T16:52:07.882Z</time>
      </trkpt>
      <trkpt lat="47.93529" lon="2.14808">
        <ele>106.491322</ele>
        <time>2021-12-04T16:52:46.188Z</time>
      </trkpt>
      <trkpt lat="47.93535" lon="2.14814">
        <ele>106.500457</ele>
        <time>2021-12-04T16:52:47.773Z</time>
      </trkpt>
      <trkpt lat="47.93583" lon="2.1489">
        <ele>106.597142</ele>
        <time>2021-12-04T16:53:14.861Z</time>
      </trkpt>
      <trkpt lat="47.93689" lon="2.15143">
        <ele>107.060643</ele>
        <time>2021-12-04T16:54:34.184Z</time>
      </trkpt>
      <trkpt lat="47.93691" lon="2.15141">
        <ele>107.070108</ele>
        <time>2021-12-04T16:54:34.973Z</time>
      </trkpt>
      <trkpt lat="47.93705" lon="2.1513">
        <ele>107.11628</ele>
        <time>2021-12-04T16:54:38.799Z</time>
      </trkpt>
      <trkpt lat="47.93711" lon="2.15124">
        <ele>107.139763</ele>
        <time>2021-12-04T16:54:40.699Z</time>
      </trkpt>
      <trkpt lat="47.93712" lon="2.15151">
        <ele>107.193501</ele>
        <time>2021-12-04T16:54:45.797Z</time>
      </trkpt>
      <trkpt lat="47.93744" lon="2.15225">
        <ele>107.277888</ele>
        <time>2021-12-04T16:55:02.322Z</time>
      </trkpt>
      <trkpt lat="47.93751" lon="2.15264">
        <ele>107.289095</ele>
        <time>2021-12-04T16:55:09.612Z</time>
      </trkpt>
      <trkpt lat="47.93751" lon="2.15442">
        <ele>107.324699</ele>
        <time>2021-12-04T16:55:40.004Z</time>
      </trkpt>
      <trkpt lat="47.93739" lon="2.15628">
        <ele>106.877435</ele>
        <time>2021-12-04T16:56:10.485Z</time>
      </trkpt>
      <trkpt lat="47.93745" lon="2.15851">
        <ele>106.498365</ele>
        <time>2021-12-04T16:56:46.945Z</time>
      </trkpt>
      <trkpt lat="47.9374" lon="2.15959">
        <ele>106.354382</ele>
        <time>2021-12-04T16:57:05.405Z</time>
      </trkpt>
      <trkpt lat="47.93718" lon="2.16078">
        <ele>106.50189</ele>
        <time>2021-12-04T16:57:27.353Z</time>
      </trkpt>
      <trkpt lat="47.93624" lon="2.16421">
        <ele>107.083242</ele>
        <time>2021-12-04T16:58:35.522Z</time>
      </trkpt>
      <trkpt lat="47.93615" lon="2.16498">
        <ele>107.170611</ele>
        <time>2021-12-04T16:58:49.229Z</time>
      </trkpt>
      <trkpt lat="47.93612" lon="2.16589">
        <ele>107.150591</ele>
        <time>2021-12-04T16:59:04.861Z</time>
      </trkpt>
      <trkpt lat="47.93614" lon="2.16693">
        <ele>107.127857</ele>
        <time>2021-12-04T16:59:22.462Z</time>
      </trkpt>
      <trkpt lat="47.93628" lon="2.16837">
        <ele>107.197161</ele>
        <time>2021-12-04T16:59:47.265Z</time>
      </trkpt>
      <trkpt lat="47.93717" lon="2.17165">
        <ele>107.833477</ele>
        <time>2021-12-04T17:00:51.490Z</time>
      </trkpt>
      <trkpt lat="47.93743" lon="2.17374">
        <ele>108.63969</ele>
        <time>2021-12-04T17:01:34.215Z</time>
      </trkpt>
      <trkpt lat="47.93737" lon="2.17402">
        <ele>108.770885</ele>
        <time>2021-12-04T17:01:40.359Z</time>
      </trkpt>
      <trkpt lat="47.93734" lon="2.17438">
        <ele>108.935403</ele>
        <time>2021-12-04T17:01:47.266Z</time>
      </trkpt>
      <trkpt lat="47.93742" lon="2.17515">
        <ele>109.293829</ele>
        <time>2021-12-04T17:02:02.822Z</time>
      </trkpt>
      <trkpt lat="47.9374" lon="2.17622">
        <ele>109.506433</ele>
        <time>2021-12-04T17:02:23.142Z</time>
      </trkpt>
      <trkpt lat="47.93733" lon="2.17696">
        <ele>109.652353</ele>
        <time>2021-12-04T17:02:36.209Z</time>
      </trkpt>
      <trkpt lat="47.93649" lon="2.18117">
        <ele>110.353077</ele>
        <time>2021-12-04T17:03:55.255Z</time>
      </trkpt>
      <trkpt lat="47.93574" lon="2.18729">
        <ele>111.40199</ele>
        <time>2021-12-04T17:05:49.914Z</time>
      </trkpt>
      <trkpt lat="47.93561" lon="2.18794">
        <ele>111.463432</ele>
        <time>2021-12-04T17:06:01.498Z</time>
      </trkpt>
      <trkpt lat="47.93547" lon="2.18835">
        <ele>111.496843</ele>
        <time>2021-12-04T17:06:09.156Z</time>
      </trkpt>
      <trkpt lat="47.9351" lon="2.18901">
        <ele>111.521157</ele>
        <time>2021-12-04T17:06:23.765Z</time>
      </trkpt>
      <trkpt lat="47.9334" lon="2.19064">
        <ele>111.603272</ele>
        <time>2021-12-04T17:07:17.484Z</time>
      </trkpt>
      <trkpt lat="47.9329" lon="2.19141">
        <ele>111.631003</ele>
        <time>2021-12-04T17:07:36.472Z</time>
      </trkpt>
      <trkpt lat="47.93087" lon="2.19618">
        <ele>110.359108</ele>
        <time>2021-12-04T17:09:08.427Z</time>
      </trkpt>
      <trkpt lat="47.93069" lon="2.19719">
        <ele>110.663527</ele>
        <time>2021-12-04T17:09:27.231Z</time>
      </trkpt>
      <trkpt lat="47.93064" lon="2.19719">
        <ele>110.686952</ele>
        <time>2021-12-04T17:09:28.617Z</time>
      </trkpt>
      <trkpt lat="47.93046" lon="2.1972">
        <ele>110.766272</ele>
        <time>2021-12-04T17:09:32.942Z</time>
      </trkpt>
      <trkpt lat="47.93042" lon="2.1972">
        <ele>110.782039</ele>
        <time>2021-12-04T17:09:33.704Z</time>
      </trkpt>
      <trkpt lat="47.93048" lon="2.19759">
        <ele>110.902149</ele>
        <time>2021-12-04T17:09:45.337Z</time>
      </trkpt>
      <trkpt lat="47.93043" lon="2.1979">
        <ele>110.997426</ele>
        <time>2021-12-04T17:09:54.237Z</time>
      </trkpt>
      <trkpt lat="47.9305" lon="2.19858">
        <ele>111.226762</ele>
        <time>2021-12-04T17:10:14.122Z</time>
      </trkpt>
      <trkpt lat="47.93087" lon="2.20026">
        <ele>112.08894</ele>
        <time>2021-12-04T17:11:06.201Z</time>
      </trkpt>
      <trkpt lat="47.93099" lon="2.20104">
        <ele>112.473879</ele>
        <time>2021-12-04T17:11:28.031Z</time>
      </trkpt>
      <trkpt lat="47.93095" lon="2.20157">
        <ele>112.442726</ele>
        <time>2021-12-04T17:11:41.931Z</time>
      </trkpt>
      <trkpt lat="47.93033" lon="2.20524">
        <ele>112.290775</ele>
        <time>2021-12-04T17:13:16.733Z</time>
      </trkpt>
      <trkpt lat="47.93045" lon="2.20635">
        <ele>112.301126</ele>
        <time>2021-12-04T17:13:46.291Z</time>
      </trkpt>
      <trkpt lat="47.93126" lon="2.21012">
        <ele>113.184859</ele>
        <time>2021-12-04T17:15:35.590Z</time>
      </trkpt>
      <trkpt lat="47.93201" lon="2.21176">
        <ele>113.018224</ele>
        <time>2021-12-04T17:16:24.729Z</time>
      </trkpt>
      <trkpt lat="47.93232" lon="2.21275">
        <ele>112.636963</ele>
        <time>2021-12-04T17:16:50.993Z</time>
      </trkpt>
      <trkpt lat="47.93257" lon="2.21389">
        <ele>112.315829</ele>
        <time>2021-12-04T17:17:20.086Z</time>
      </trkpt>
      <trkpt lat="47.9336" lon="2.22189">
        <ele>112.688353</ele>
        <time>2021-12-04T17:20:50.238Z</time>
      </trkpt>
      <trkpt lat="47.93399" lon="2.22582">
        <ele>114.152234</ele>
        <time>2021-12-04T17:22:42.737Z</time>
      </trkpt>
      <trkpt lat="47.93414" lon="2.22698">
        <ele>114.541516</ele>
        <time>2021-12-04T17:23:14.794Z</time>
      </trkpt>
      <trkpt lat="47.93439" lon="2.22843">
        <ele>114.692594</ele>
        <time>2021-12-04T17:23:53.920Z</time>
      </trkpt>
      <trkpt lat="47.93481" lon="2.23155">
        <ele>114.869392</ele>
        <time>2021-12-04T17:25:15.595Z</time>
      </trkpt>
      <trkpt lat="47.93492" lon="2.23304">
        <ele>114.989261</ele>
        <time>2021-12-04T17:25:54.819Z</time>
      </trkpt>
      <trkpt lat="47.93474" lon="2.237">
        <ele>115.350143</ele>
        <time>2021-12-04T17:27:38.480Z</time>
      </trkpt>
      <trkpt lat="47.93481" lon="2.2386">
        <ele>115.391385</ele>
        <time>2021-12-04T17:28:19.869Z</time>
      </trkpt>
      <trkpt lat="47.93506" lon="2.24211">
        <ele>115.340732</ele>
        <time>2021-12-04T17:29:49.986Z</time>
      </trkpt>
      <trkpt lat="47.9354" lon="2.24494">
        <ele>115.098662</ele>
        <time>2021-12-04T17:31:02.132Z</time>
      </trkpt>
      <trkpt lat="47.93582" lon="2.24776">
        <ele>114.845826</ele>
        <time>2021-12-04T17:32:14.905Z</time>
      </trkpt>
      <trkpt lat="47.93594" lon="2.24969">
        <ele>114.861773</ele>
        <time>2021-12-04T17:33:04.562Z</time>
      </trkpt>
      <trkpt lat="47.9361" lon="2.2533">
        <ele>115.066737</ele>
        <time>2021-12-04T17:34:38.975Z</time>
      </trkpt>
      <trkpt lat="47.93609" lon="2.2542">
        <ele>115.056967</ele>
        <time>2021-12-04T17:35:02.010Z</time>
      </trkpt>
      <trkpt lat="47.93595" lon="2.25615">
        <ele>115.018809</ele>
        <time>2021-12-04T17:35:51.818Z</time>
      </trkpt>
      <trkpt lat="47.93587" lon="2.25931">
        <ele>115.016194</ele>
        <time>2021-12-04T17:37:12.339Z</time>
      </trkpt>
      <trkpt lat="47.9358" lon="2.26243">
        <ele>115.063866</ele>
        <time>2021-12-04T17:38:32.581Z</time>
      </trkpt>
      <trkpt lat="47.93588" lon="2.26314">
        <ele>115.063534</ele>
        <time>2021-12-04T17:38:50.766Z</time>
      </trkpt>
      <trkpt lat="47.93606" lon="2.26388">
        <ele>115.063171</ele>
        <time>2021-12-04T17:39:10.602Z</time>
      </trkpt>
      <trkpt lat="47.93652" lon="2.26595">
        <ele>115.699302</ele>
        <time>2021-12-04T17:40:08.316Z</time>
      </trkpt>
      <trkpt lat="47.93676" lon="2.26684">
        <ele>116.231905</ele>
        <time>2021-12-04T17:40:36.831Z</time>
      </trkpt>
      <trkpt lat="47.93696" lon="2.26736">
        <ele>116.947234</ele>
        <time>2021-12-04T17:40:55.917Z</time>
      </trkpt>
      <trkpt lat="47.93709" lon="2.26797">
        <ele>117.702635</ele>
        <time>2021-12-04T17:41:17.295Z</time>
      </trkpt>
      <trkpt lat="47.93766" lon="2.26899">
        <ele>119.212062</ele>
        <time>2021-12-04T17:42:03.259Z</time>
      </trkpt>
      <trkpt lat="47.93767" lon="2.269">
        <ele>119.225765</ele>
        <time>2021-12-04T17:42:03.849Z</time>
      </trkpt>
      <trkpt lat="47.93837" lon="2.27023">
        <ele>120.548243</ele>
        <time>2021-12-04T17:42:55.136Z</time>
      </trkpt>
      <trkpt lat="47.93918" lon="2.27208">
        <ele>120.815428</ele>
        <time>2021-12-04T17:43:53.538Z</time>
      </trkpt>
      <trkpt lat="47.94123" lon="2.27729">
        <ele>118.409605</ele>
        <time>2021-12-04T17:46:17.885Z</time>
      </trkpt>
      <trkpt lat="47.94131" lon="2.2778">
        <ele>118.160458</ele>
        <time>2021-12-04T17:46:30.683Z</time>
      </trkpt>
      <trkpt lat="47.94115" lon="2.27858">
        <ele>117.988652</ele>
        <time>2021-12-04T17:46:50.617Z</time>
      </trkpt>
      <trkpt lat="47.94117" lon="2.27883">
        <ele>117.953092</ele>
        <time>2021-12-04T17:46:56.903Z</time>
      </trkpt>
      <trkpt lat="47.94142" lon="2.27934">
        <ele>117.864558</ele>
        <time>2021-12-04T17:47:12.600Z</time>
      </trkpt>
      <trkpt lat="47.94262" lon="2.28124">
        <ele>118.027946</ele>
        <time>2021-12-04T17:48:19.334Z</time>
      </trkpt>
      <trkpt lat="47.94362" lon="2.28279">
        <ele>119.265298</ele>
        <time>2021-12-04T17:49:20.572Z</time>
      </trkpt>
      <trkpt lat="47.94439" lon="2.28334">
        <ele>120.605816</ele>
        <time>2021-12-04T17:50:03.066Z</time>
      </trkpt>
      <trkpt lat="47.94545" lon="2.28405">
        <ele>122.676711</ele>
        <time>2021-12-04T17:51:02.540Z</time>
      </trkpt>
      <trkpt lat="47.94567" lon="2.28414">
        <ele>123.106105</ele>
        <time>2021-12-04T17:51:13.955Z</time>
      </trkpt>
      <trkpt lat="47.94647" lon="2.28418">
        <ele>124.534804</ele>
        <time>2021-12-04T17:51:52.595Z</time>
      </trkpt>
      <trkpt lat="47.94674" lon="2.28428">
        <ele>124.806329</ele>
        <time>2021-12-04T17:52:05.388Z</time>
      </trkpt>
      <trkpt lat="47.94809" lon="2.28522">
        <ele>126.236308</ele>
        <time>2021-12-04T17:53:09.773Z</time>
      </trkpt>
      <trkpt lat="47.94839" lon="2.28555">
        <ele>126.336259</ele>
        <time>2021-12-04T17:53:25.388Z</time>
      </trkpt>
      <trkpt lat="47.95012" lon="2.28704">
        <ele>126.425944</ele>
        <time>2021-12-04T17:54:42.981Z</time>
      </trkpt>
      <trkpt lat="47.9529" lon="2.28993">
        <ele>124.078309</ele>
        <time>2021-12-04T17:56:43.444Z</time>
      </trkpt>
      <trkpt lat="47.95337" lon="2.29032">
        <ele>123.647308</ele>
        <time>2021-12-04T17:57:02.305Z</time>
      </trkpt>
      <trkpt lat="47.95379" lon="2.29083">
        <ele>123.215424</ele>
        <time>2021-12-04T17:57:21.558Z</time>
      </trkpt>
      <trkpt lat="47.9542" lon="2.29118">
        <ele>122.998507</ele>
        <time>2021-12-04T17:57:38.665Z</time>
      </trkpt>
      <trkpt lat="47.95463" lon="2.29168">
        <ele>123.166015</ele>
        <time>2021-12-04T17:57:59.280Z</time>
      </trkpt>
      <trkpt lat="47.95506" lon="2.29262">
        <ele>123.400517</ele>
        <time>2021-12-04T17:58:31.157Z</time>
      </trkpt>
      <trkpt lat="47.95533" lon="2.29393">
        <ele>123.72998</ele>
        <time>2021-12-04T17:59:10.798Z</time>
      </trkpt>
      <trkpt lat="47.9576" lon="2.30482">
        <ele>126.542843</ele>
        <time>2021-12-04T18:04:18.186Z</time>
      </trkpt>
      <trkpt lat="47.95762" lon="2.30481">
        <ele>126.547853</ele>
        <time>2021-12-04T18:04:18.750Z</time>
      </trkpt>
      <trkpt lat="47.95779" lon="2.30478">
        <ele>126.580221</ele>
        <time>2021-12-04T18:04:22.459Z</time>
      </trkpt>
      <trkpt lat="47.95819" lon="2.30469">
        <ele>126.661197</ele>
        <time>2021-12-04T18:04:31.858Z</time>
      </trkpt>
      <trkpt lat="47.95966" lon="2.30437">
        <ele>126.961711</ele>
        <time>2021-12-04T18:05:06.225Z</time>
      </trkpt>
      <trkpt lat="47.96031" lon="2.30424">
        <ele>127.212254</ele>
        <time>2021-12-04T18:05:23.503Z</time>
      </trkpt>
      <trkpt lat="47.96061" lon="2.30419">
        <ele>127.495673</ele>
        <time>2021-12-04T18:05:31.722Z</time>
      </trkpt>
      <trkpt lat="47.96288" lon="2.30373">
        <ele>129.939774</ele>
        <time>2021-12-04T18:06:39.297Z</time>
      </trkpt>
      <trkpt lat="47.96317" lon="2.3037">
        <ele>130.30238</ele>
        <time>2021-12-04T18:06:48.525Z</time>
      </trkpt>
      <trkpt lat="47.96424" lon="2.30398">
        <ele>131.820818</ele>
        <time>2021-12-04T18:07:22.699Z</time>
      </trkpt>
      <trkpt lat="47.96459" lon="2.30418">
        <ele>132.424829</ele>
        <time>2021-12-04T18:07:35.301Z</time>
      </trkpt>
      <trkpt lat="47.96506" lon="2.30457">
        <ele>133.267602</ele>
        <time>2021-12-04T18:07:52.908Z</time>
      </trkpt>
      <trkpt lat="47.96561" lon="2.30545">
        <ele>134.203185</ele>
        <time>2021-12-04T18:08:19.445Z</time>
      </trkpt>
      <trkpt lat="47.96594" lon="2.30598">
        <ele>134.591142</ele>
        <time>2021-12-04T18:08:33.658Z</time>
      </trkpt>
      <trkpt lat="47.96869" lon="2.30564">
        <ele>135.689516</ele>
        <time>2021-12-04T18:10:22.564Z</time>
      </trkpt>
      <trkpt lat="47.97318" lon="2.30524">
        <ele>135.785004</ele>
        <time>2021-12-04T18:13:18.924Z</time>
      </trkpt>
      <trkpt lat="47.97703" lon="2.30483">
        <ele>131.657297</ele>
        <time>2021-12-04T18:15:30.519Z</time>
      </trkpt>
      <trkpt lat="47.9785" lon="2.3047">
        <ele>132.736098</ele>
        <time>2021-12-04T18:16:28.298Z</time>
      </trkpt>
      <trkpt lat="47.98126" lon="2.30415">
        <ele>140.41004</ele>
        <time>2021-12-04T18:19:10.416Z</time>
      </trkpt>
      <trkpt lat="47.98612" lon="2.3032">
        <ele>154.613732</ele>
        <time>2021-12-04T18:23:34.987Z</time>
      </trkpt>
      <trkpt lat="47.98668" lon="2.30308">
        <ele>156.801398</ele>
        <time>2021-12-04T18:24:11.098Z</time>
      </trkpt>
      <trkpt lat="47.98688" lon="2.30304">
        <ele>157.742348</ele>
        <time>2021-12-04T18:24:24.449Z</time>
      </trkpt>
      <trkpt lat="47.98822" lon="2.30278">
        <ele>164.083183</ele>
        <time>2021-12-04T18:25:58.188Z</time>
      </trkpt>
      <trkpt lat="47.98835" lon="2.30276">
        <ele>164.460917</ele>
        <time>2021-12-04T18:26:06.963Z</time>
      </trkpt>
      <trkpt lat="47.99051" lon="2.30235">
        <ele>166.140925</ele>
        <time>2021-12-04T18:27:37.525Z</time>
      </trkpt>
      <trkpt lat="47.99287" lon="2.3019">
        <ele>164.947027</ele>
        <time>2021-12-04T18:28:59.711Z</time>
      </trkpt>
      <trkpt lat="47.99323" lon="2.30183">
        <ele>164.853341</ele>
        <time>2021-12-04T18:29:14.332Z</time>
      </trkpt>
      <trkpt lat="47.99494" lon="2.30147">
        <ele>165.588403</ele>
        <time>2021-12-04T18:30:33.165Z</time>
      </trkpt>
      <trkpt lat="47.99582" lon="2.30129">
        <ele>164.961685</ele>
        <time>2021-12-04T18:31:06.002Z</time>
      </trkpt>
      <trkpt lat="47.99801" lon="2.30084">
        <ele>159.740433</ele>
        <time>2021-12-04T18:32:15.150Z</time>
      </trkpt>
      <trkpt lat="48.00006" lon="2.30042">
        <ele>155.302552</ele>
        <time>2021-12-04T18:33:22.324Z</time>
      </trkpt>
      <trkpt lat="48.00256" lon="2.29991">
        <ele>151.890213</ele>
        <time>2021-12-04T18:34:50.249Z</time>
      </trkpt>
      <trkpt lat="48.00607" lon="2.29919">
        <ele>145.399476</ele>
        <time>2021-12-04T18:36:47.255Z</time>
      </trkpt>
      <trkpt lat="48.01222" lon="2.29792">
        <ele>140.572054</ele>
        <time>2021-12-04T18:40:29.686Z</time>
      </trkpt>
      <trkpt lat="48.01366" lon="2.3017">
        <ele>137.7328</ele>
        <time>2021-12-04T18:42:11.911Z</time>
      </trkpt>
      <trkpt lat="48.0144" lon="2.30299">
        <ele>136.474652</ele>
        <time>2021-12-04T18:42:51.202Z</time>
      </trkpt>
      <trkpt lat="48.01518" lon="2.30429">
        <ele>135.683086</ele>
        <time>2021-12-04T18:43:16.480Z</time>
      </trkpt>
      <trkpt lat="48.0171" lon="2.30183">
        <ele>135.384768</ele>
        <time>2021-12-04T18:44:53.199Z</time>
      </trkpt>
      <trkpt lat="48.01816" lon="2.30123">
        <ele>135.39872</ele>
        <time>2021-12-04T18:45:36.944Z</time>
      </trkpt>
      <trkpt lat="48.01977" lon="2.30328">
        <ele>135.260189</ele>
        <time>2021-12-04T18:46:25.387Z</time>
      </trkpt>
      <trkpt lat="48.021" lon="2.30353">
        <ele>135.001009</ele>
        <time>2021-12-04T18:46:52.855Z</time>
      </trkpt>
      <trkpt lat="48.02097" lon="2.30422">
        <ele>134.84624</ele>
        <time>2021-12-04T18:47:03.555Z</time>
      </trkpt>
      <trkpt lat="48.02101" lon="2.30492">
        <ele>134.689851</ele>
        <time>2021-12-04T18:47:14.341Z</time>
      </trkpt>
      <trkpt lat="48.02119" lon="2.30498">
        <ele>134.628432</ele>
        <time>2021-12-04T18:47:18.642Z</time>
      </trkpt>
      <trkpt lat="48.02141" lon="2.30524">
        <ele>134.544377</ele>
        <time>2021-12-04T18:47:25.109Z</time>
      </trkpt>
      <trkpt lat="48.02189" lon="2.30608">
        <ele>134.586379</ele>
        <time>2021-12-04T18:47:42.328Z</time>
      </trkpt>
      <trkpt lat="48.02215" lon="2.30639">
        <ele>134.605387</ele>
        <time>2021-12-04T18:47:50.763Z</time>
      </trkpt>
      <trkpt lat="48.02288" lon="2.30701">
        <ele>134.703468</ele>
        <time>2021-12-04T18:48:13.548Z</time>
      </trkpt>
      <trkpt lat="48.0236" lon="2.3074">
        <ele>135.019032</ele>
        <time>2021-12-04T18:48:34.275Z</time>
      </trkpt>
      <trkpt lat="48.02416" lon="2.30779">
        <ele>135.27239</ele>
        <time>2021-12-04T18:48:50.732Z</time>
      </trkpt>
      <trkpt lat="48.02451" lon="2.30806">
        <ele>135.411557</ele>
        <time>2021-12-04T18:49:00.980Z</time>
      </trkpt>
      <trkpt lat="48.02473" lon="2.30833">
        <ele>135.47607</ele>
        <time>2021-12-04T18:49:08.319Z</time>
      </trkpt>
      <trkpt lat="48.02552" lon="2.30961">
        <ele>135.739032</ele>
        <time>2021-12-04T18:49:37.745Z</time>
      </trkpt>
      <trkpt lat="48.02568" lon="2.30971">
        <ele>135.776599</ele>
        <time>2021-12-04T18:49:42.179Z</time>
      </trkpt>
      <trkpt lat="48.02618" lon="2.30976">
        <ele>135.864514</ele>
        <time>2021-12-04T18:49:55.434Z</time>
      </trkpt>
      <trkpt lat="48.02696" lon="2.31004">
        <ele>135.999263</ele>
        <time>2021-12-04T18:50:15.806Z</time>
      </trkpt>
      <trkpt lat="48.02764" lon="2.31041">
        <ele>136.104379</ele>
        <time>2021-12-04T18:50:33.331Z</time>
      </trkpt>
      <trkpt lat="48.02855" lon="2.31077">
        <ele>136.175896</ele>
        <time>2021-12-04T18:50:56.248Z</time>
      </trkpt>
      <trkpt lat="48.02967" lon="2.31133">
        <ele>136.370972</ele>
        <time>2021-12-04T18:51:24.497Z</time>
      </trkpt>
      <trkpt lat="48.02991" lon="2.31155">
        <ele>136.452565</ele>
        <time>2021-12-04T18:51:31.855Z</time>
      </trkpt>
      <trkpt lat="48.03059" lon="2.31272">
        <ele>136.741463</ele>
        <time>2021-12-04T18:51:58.457Z</time>
      </trkpt>
      <trkpt lat="48.03109" lon="2.31348">
        <ele>136.252427</ele>
        <time>2021-12-04T18:52:14.487Z</time>
      </trkpt>
      <trkpt lat="48.03176" lon="2.31455">
        <ele>135.582964</ele>
        <time>2021-12-04T18:52:34.348Z</time>
      </trkpt>
      <trkpt lat="48.03255" lon="2.31546">
        <ele>134.142566</ele>
        <time>2021-12-04T18:52:53.337Z</time>
      </trkpt>
      <trkpt lat="48.03345" lon="2.31646">
        <ele>132.533503</ele>
        <time>2021-12-04T18:53:14.984Z</time>
      </trkpt>
      <trkpt lat="48.0337" lon="2.31706">
        <ele>132.019905</ele>
        <time>2021-12-04T18:53:24.403Z</time>
      </trkpt>
      <trkpt lat="48.03411" lon="2.31895">
        <ele>130.664296</ele>
        <time>2021-12-04T18:53:51.460Z</time>
      </trkpt>
      <trkpt lat="48.03566" lon="2.31877">
        <ele>129.517045</ele>
        <time>2021-12-04T18:54:47.531Z</time>
      </trkpt>
      <trkpt lat="48.03661" lon="2.31895">
        <ele>128.895158</ele>
        <time>2021-12-04T18:55:21.680Z</time>
      </trkpt>
      <trkpt lat="48.04328" lon="2.32111">
        <ele>124.467823</ele>
        <time>2021-12-04T18:59:27.312Z</time>
      </trkpt>
      <trkpt lat="48.04525" lon="2.32322">
        <ele>123.105772</ele>
        <time>2021-12-04T19:00:56.126Z</time>
      </trkpt>
      <trkpt lat="48.04611" lon="2.32414">
        <ele>122.231847</ele>
        <time>2021-12-04T19:01:34.094Z</time>
      </trkpt>
      <trkpt lat="48.04833" lon="2.32499">
        <ele>119.410848</ele>
        <time>2021-12-04T19:02:52.611Z</time>
      </trkpt>
      <trkpt lat="48.04922" lon="2.3252">
        <ele>118.212991</ele>
        <time>2021-12-04T19:03:23.446Z</time>
      </trkpt>
      <trkpt lat="48.05005" lon="2.32517">
        <ele>117.307178</ele>
        <time>2021-12-04T19:03:51.940Z</time>
      </trkpt>
      <trkpt lat="48.05024" lon="2.32524">
        <ele>117.092412</ele>
        <time>2021-12-04T19:03:58.689Z</time>
      </trkpt>
      <trkpt lat="48.04979" lon="2.32709">
        <ele>115.903973</ele>
        <time>2021-12-04T19:04:45.626Z</time>
      </trkpt>
      <trkpt lat="48.04977" lon="2.32728">
        <ele>115.818266</ele>
        <time>2021-12-04T19:04:50.200Z</time>
      </trkpt>
      <trkpt lat="48.05022" lon="2.32775">
        <ele>115.456336</ele>
        <time>2021-12-04T19:05:09.805Z</time>
      </trkpt>
      <trkpt lat="48.05053" lon="2.32794">
        <ele>115.230291</ele>
        <time>2021-12-04T19:05:22.044Z</time>
      </trkpt>
      <trkpt lat="48.05071" lon="2.32958">
        <ele>114.480188</ele>
        <time>2021-12-04T19:06:02.290Z</time>
      </trkpt>
      <trkpt lat="48.05135" lon="2.33101">
        <ele>113.629476</ele>
        <time>2021-12-04T19:06:43.392Z</time>
      </trkpt>
      <trkpt lat="48.05164" lon="2.33159">
        <ele>113.174876</ele>
        <time>2021-12-04T19:07:00.365Z</time>
      </trkpt>
      <trkpt lat="48.05277" lon="2.33436">
        <ele>111.176979</ele>
        <time>2021-12-04T19:08:16.747Z</time>
      </trkpt>
      <trkpt lat="48.05337" lon="2.33687">
        <ele>109.819527</ele>
        <time>2021-12-04T19:09:20.035Z</time>
      </trkpt>
      <trkpt lat="48.05353" lon="2.3373">
        <ele>109.594555</ele>
        <time>2021-12-04T19:09:31.983Z</time>
      </trkpt>
      <trkpt lat="48.05386" lon="2.3383">
        <ele>109.279706</ele>
        <time>2021-12-04T19:09:59.385Z</time>
      </trkpt>
      <trkpt lat="48.05468" lon="2.33938">
        <ele>109.093851</ele>
        <time>2021-12-04T19:10:40.570Z</time>
      </trkpt>
      <trkpt lat="48.05483" lon="2.33934">
        <ele>109.068194</ele>
        <time>2021-12-04T19:10:43.987Z</time>
      </trkpt>
      <trkpt lat="48.05535" lon="2.34073">
        <ele>109.362579</ele>
        <time>2021-12-04T19:11:25.579Z</time>
      </trkpt>
      <trkpt lat="48.05566" lon="2.34104">
        <ele>109.496403</ele>
        <time>2021-12-04T19:11:40.463Z</time>
      </trkpt>
      <trkpt lat="48.05575" lon="2.34112">
        <ele>109.536034</ele>
        <time>2021-12-04T19:11:44.815Z</time>
      </trkpt>
      <trkpt lat="48.05576" lon="2.34109">
        <ele>109.546312</ele>
        <time>2021-12-04T19:11:45.999Z</time>
      </trkpt>
      <trkpt lat="48.05745" lon="2.34514">
        <ele>112.212865</ele>
        <time>2021-12-04T19:14:04.546Z</time>
      </trkpt>
      <trkpt lat="48.05918" lon="2.3438">
        <ele>113.63102</ele>
        <time>2021-12-04T19:15:31.675Z</time>
      </trkpt>
      <trkpt lat="48.06088" lon="2.34789">
        <ele>113.215633</ele>
        <time>2021-12-04T19:17:29.967Z</time>
      </trkpt>
      <trkpt lat="48.06083" lon="2.34794">
        <ele>113.214124</ele>
        <time>2021-12-04T19:17:31.248Z</time>
      </trkpt>
      <trkpt lat="48.06233" lon="2.35129">
        <ele>113.872315</ele>
        <time>2021-12-04T19:19:18.734Z</time>
      </trkpt>
      <trkpt lat="48.06276" lon="2.3525">
        <ele>114.703101</ele>
        <time>2021-12-04T19:19:59.366Z</time>
      </trkpt>
      <trkpt lat="48.0631" lon="2.3537">
        <ele>115.523733</ele>
        <time>2021-12-04T19:20:38.934Z</time>
      </trkpt>
      <trkpt lat="48.06317" lon="2.35573">
        <ele>115.851825</ele>
        <time>2021-12-04T19:21:35.399Z</time>
      </trkpt>
      <trkpt lat="48.0657" lon="2.35462">
        <ele>114.370778</ele>
        <time>2021-12-04T19:23:09.253Z</time>
      </trkpt>
      <trkpt lat="48.06821" lon="2.35361">
        <ele>112.693878</ele>
        <time>2021-12-04T19:24:41.469Z</time>
      </trkpt>
      <trkpt lat="48.06818" lon="2.35462">
        <ele>112.423236</ele>
        <time>2021-12-04T19:25:07.779Z</time>
      </trkpt>
      <trkpt lat="48.06799" lon="2.35714">
        <ele>113.168248</ele>
        <time>2021-12-04T19:26:18.723Z</time>
      </trkpt>
      <trkpt lat="48.06788" lon="2.35779">
        <ele>113.114472</ele>
        <time>2021-12-04T19:26:36.191Z</time>
      </trkpt>
      <trkpt lat="48.06827" lon="2.35753">
        <ele>112.975001</ele>
        <time>2021-12-04T19:26:52.365Z</time>
      </trkpt>
      <trkpt lat="48.07114" lon="2.35628">
        <ele>111.794477</ele>
        <time>2021-12-04T19:28:40.053Z</time>
      </trkpt>
      <trkpt lat="48.07146" lon="2.35904">
        <ele>112.687731</ele>
        <time>2021-12-04T19:29:32.363Z</time>
      </trkpt>
      <trkpt lat="48.0759" lon="2.35715">
        <ele>113.367566</ele>
        <time>2021-12-04T19:32:32.269Z</time>
      </trkpt>
      <trkpt lat="48.07584" lon="2.35665">
        <ele>113.35497</ele>
        <time>2021-12-04T19:32:44.979Z</time>
      </trkpt>
      <trkpt lat="48.08014" lon="2.35556">
        <ele>111.545101</ele>
        <time>2021-12-04T19:35:24.121Z</time>
      </trkpt>
      <trkpt lat="48.08302" lon="2.35624">
        <ele>111.652879</ele>
        <time>2021-12-04T19:37:16.885Z</time>
      </trkpt>
      <trkpt lat="48.08358" lon="2.35665">
        <ele>111.660063</ele>
        <time>2021-12-04T19:37:41.886Z</time>
      </trkpt>
      <trkpt lat="48.08414" lon="2.35707">
        <ele>111.645666</ele>
        <time>2021-12-04T19:38:06.283Z</time>
      </trkpt>
      <trkpt lat="48.08977" lon="2.36118">
        <ele>109.463195</ele>
        <time>2021-12-04T19:41:57.236Z</time>
      </trkpt>
      <trkpt lat="48.09212" lon="2.36387">
        <ele>108.035295</ele>
        <time>2021-12-04T19:43:44.813Z</time>
      </trkpt>
      <trkpt lat="48.09475" lon="2.36638">
        <ele>106.847324</ele>
        <time>2021-12-04T19:45:39.515Z</time>
      </trkpt>
      <trkpt lat="48.09514" lon="2.36668">
        <ele>106.739816</ele>
        <time>2021-12-04T19:45:56.064Z</time>
      </trkpt>
      <trkpt lat="48.09548" lon="2.36686">
        <ele>106.651158</ele>
        <time>2021-12-04T19:46:09.693Z</time>
      </trkpt>
      <trkpt lat="48.09552" lon="2.36766">
        <ele>106.586768</ele>
        <time>2021-12-04T19:46:29.804Z</time>
      </trkpt>
      <trkpt lat="48.09599" lon="2.36763">
        <ele>106.550491</ele>
        <time>2021-12-04T19:46:40.383Z</time>
      </trkpt>
      <trkpt lat="48.09687" lon="2.36785">
        <ele>106.481713</ele>
        <time>2021-12-04T19:47:00.706Z</time>
      </trkpt>
      <trkpt lat="48.09721" lon="2.36793">
        <ele>106.489817</ele>
        <time>2021-12-04T19:47:08.755Z</time>
      </trkpt>
      <trkpt lat="48.09763" lon="2.36807">
        <ele>106.505917</ele>
        <time>2021-12-04T19:47:18.764Z</time>
      </trkpt>
      <trkpt lat="48.09799" lon="2.36832">
        <ele>106.52064</ele>
        <time>2021-12-04T19:47:27.822Z</time>
      </trkpt>
      <trkpt lat="48.09872" lon="2.36936">
        <ele>106.486245</ele>
        <time>2021-12-04T19:47:51.561Z</time>
      </trkpt>
      <trkpt lat="48.09924" lon="2.36993">
        <ele>106.373456</ele>
        <time>2021-12-04T19:48:06.429Z</time>
      </trkpt>
      <trkpt lat="48.09933" lon="2.37002">
        <ele>106.354336</ele>
        <time>2021-12-04T19:48:08.922Z</time>
      </trkpt>
      <trkpt lat="48.0997" lon="2.37029">
        <ele>106.282717</ele>
        <time>2021-12-04T19:48:17.908Z</time>
      </trkpt>
      <trkpt lat="48.1005" lon="2.37065">
        <ele>106.002011</ele>
        <time>2021-12-04T19:48:35.549Z</time>
      </trkpt>
      <trkpt lat="48.1012" lon="2.37125">
        <ele>105.655047</ele>
        <time>2021-12-04T19:48:53.012Z</time>
      </trkpt>
      <trkpt lat="48.10223" lon="2.37223">
        <ele>105.331399</ele>
        <time>2021-12-04T19:49:19.732Z</time>
      </trkpt>
      <trkpt lat="48.10251" lon="2.37237">
        <ele>105.281204</ele>
        <time>2021-12-04T19:49:26.403Z</time>
      </trkpt>
      <trkpt lat="48.10248" lon="2.37243">
        <ele>105.273435</ele>
        <time>2021-12-04T19:49:27.840Z</time>
      </trkpt>
      <trkpt lat="48.10579" lon="2.37527">
        <ele>105.513605</ele>
        <time>2021-12-04T19:51:54.760Z</time>
      </trkpt>
      <trkpt lat="48.10627" lon="2.3759">
        <ele>105.627995</ele>
        <time>2021-12-04T19:52:20.902Z</time>
      </trkpt>
      <trkpt lat="48.10641" lon="2.37608">
        <ele>105.667734</ele>
        <time>2021-12-04T19:52:28.216Z</time>
      </trkpt>
      <trkpt lat="48.1078" lon="2.37747">
        <ele>105.947313</ele>
        <time>2021-12-04T19:53:34.082Z</time>
      </trkpt>
      <trkpt lat="48.10806" lon="2.37792">
        <ele>105.885439</ele>
        <time>2021-12-04T19:53:48.769Z</time>
      </trkpt>
      <trkpt lat="48.10884" lon="2.37898">
        <ele>105.720416</ele>
        <time>2021-12-04T19:54:27.832Z</time>
      </trkpt>
      <trkpt lat="48.11011" lon="2.38103">
        <ele>105.516803</ele>
        <time>2021-12-04T19:55:38.410Z</time>
      </trkpt>
      <trkpt lat="48.11085" lon="2.38193">
        <ele>105.725905</ele>
        <time>2021-12-04T19:56:15.982Z</time>
      </trkpt>
      <trkpt lat="48.11394" lon="2.38682">
        <ele>106.910933</ele>
        <time>2021-12-04T19:59:14.262Z</time>
      </trkpt>
      <trkpt lat="48.1141" lon="2.38702">
        <ele>107.010827</ele>
        <time>2021-12-04T19:59:22.798Z</time>
      </trkpt>
      <trkpt lat="48.114" lon="2.38756">
        <ele>107.190338</ele>
        <time>2021-12-04T19:59:32.288Z</time>
      </trkpt>
      <trkpt lat="48.1173" lon="2.39209">
        <ele>109.220906</ele>
        <time>2021-12-04T20:02:36.610Z</time>
      </trkpt>
      <trkpt lat="48.11938" lon="2.39495">
        <ele>109.752901</ele>
        <time>2021-12-04T20:04:24.530Z</time>
      </trkpt>
      <trkpt lat="48.12254" lon="2.39933">
        <ele>111.602789</ele>
        <time>2021-12-04T20:07:24.394Z</time>
      </trkpt>
      <trkpt lat="48.12417" lon="2.40158">
        <ele>110.49156</ele>
        <time>2021-12-04T20:08:44.218Z</time>
      </trkpt>
      <trkpt lat="48.12539" lon="2.40338">
        <ele>109.361278</ele>
        <time>2021-12-04T20:09:45.243Z</time>
      </trkpt>
      <trkpt lat="48.12646" lon="2.4051">
        <ele>109.264186</ele>
        <time>2021-12-04T20:10:44.459Z</time>
      </trkpt>
      <trkpt lat="48.12664" lon="2.40531">
        <ele>109.257481</ele>
        <time>2021-12-04T20:10:53.880Z</time>
      </trkpt>
      <trkpt lat="48.12701" lon="2.40566">
        <ele>109.455872</ele>
        <time>2021-12-04T20:11:11.685Z</time>
      </trkpt>
      <trkpt lat="48.1277" lon="2.40613">
        <ele>109.892514</ele>
        <time>2021-12-04T20:11:44.032Z</time>
      </trkpt>
      <trkpt lat="48.13078" lon="2.4082">
        <ele>111.746631</ele>
        <time>2021-12-04T20:14:03.808Z</time>
      </trkpt>
      <trkpt lat="48.13275" lon="2.40983">
        <ele>112.709372</ele>
        <time>2021-12-04T20:15:35.892Z</time>
      </trkpt>
      <trkpt lat="48.13403" lon="2.41088">
        <ele>113.120459</ele>
        <time>2021-12-04T20:16:32.959Z</time>
      </trkpt>
      <trkpt lat="48.1347" lon="2.41142">
        <ele>113.302453</ele>
        <time>2021-12-04T20:17:03.030Z</time>
      </trkpt>
      <trkpt lat="48.13659" lon="2.41279">
        <ele>114.364887</ele>
        <time>2021-12-04T20:18:30.443Z</time>
      </trkpt>
      <trkpt lat="48.13827" lon="2.41483">
        <ele>115.270962</ele>
        <time>2021-12-04T20:19:58.254Z</time>
      </trkpt>
      <trkpt lat="48.13987" lon="2.41607">
        <ele>115.488979</ele>
        <time>2021-12-04T20:21:09.068Z</time>
      </trkpt>
      <trkpt lat="48.14264" lon="2.41875">
        <ele>114.412132</ele>
        <time>2021-12-04T20:23:11.037Z</time>
      </trkpt>
      <trkpt lat="48.1435" lon="2.41954">
        <ele>113.654076</ele>
        <time>2021-12-04T20:23:46.844Z</time>
      </trkpt>
      <trkpt lat="48.1447" lon="2.42064">
        <ele>112.687068</ele>
        <time>2021-12-04T20:24:36.502Z</time>
      </trkpt>
      <trkpt lat="48.14647" lon="2.42218">
        <ele>111.956082</ele>
        <time>2021-12-04T20:25:51.816Z</time>
      </trkpt>
      <trkpt lat="48.14952" lon="2.42511">
        <ele>113.670691</ele>
        <time>2021-12-04T20:28:18.466Z</time>
      </trkpt>
      <trkpt lat="48.15261" lon="2.42805">
        <ele>119.036454</ele>
        <time>2021-12-04T20:31:18.017Z</time>
      </trkpt>
      <trkpt lat="48.15349" lon="2.42891">
        <ele>119.425218</ele>
        <time>2021-12-04T20:31:59.439Z</time>
      </trkpt>
      <trkpt lat="48.15495" lon="2.42991">
        <ele>118.569425</ele>
        <time>2021-12-04T20:32:55.853Z</time>
      </trkpt>
      <trkpt lat="48.15616" lon="2.43098">
        <ele>117.592861</ele>
        <time>2021-12-04T20:33:46.002Z</time>
      </trkpt>
      <trkpt lat="48.15725" lon="2.43208">
        <ele>117.517356</ele>
        <time>2021-12-04T20:34:36.317Z</time>
      </trkpt>
      <trkpt lat="48.15866" lon="2.43349">
        <ele>117.627183</ele>
        <time>2021-12-04T20:35:42.815Z</time>
      </trkpt>
      <trkpt lat="48.15985" lon="2.4349">
        <ele>117.895961</ele>
        <time>2021-12-04T20:36:40.747Z</time>
      </trkpt>
      <trkpt lat="48.16026" lon="2.43549">
        <ele>118.02761</ele>
        <time>2021-12-04T20:37:03.488Z</time>
      </trkpt>
      <trkpt lat="48.16057" lon="2.43607">
        <ele>118.229305</ele>
        <time>2021-12-04T20:37:23.999Z</time>
      </trkpt>
      <trkpt lat="48.16079" lon="2.43639">
        <ele>118.479158</ele>
        <time>2021-12-04T20:37:36.961Z</time>
      </trkpt>
      <trkpt lat="48.16134" lon="2.43716">
        <ele>119.097553</ele>
        <time>2021-12-04T20:38:10.026Z</time>
      </trkpt>
      <trkpt lat="48.16186" lon="2.43794">
        <ele>119.639715</ele>
        <time>2021-12-04T20:38:42.339Z</time>
      </trkpt>
      <trkpt lat="48.16247" lon="2.43929">
        <ele>120.070949</ele>
        <time>2021-12-04T20:39:26.707Z</time>
      </trkpt>
      <trkpt lat="48.16292" lon="2.44008">
        <ele>120.318084</ele>
        <time>2021-12-04T20:39:43.622Z</time>
      </trkpt>
      <trkpt lat="48.16315" lon="2.44035">
        <ele>120.361722</ele>
        <time>2021-12-04T20:39:50.689Z</time>
      </trkpt>
      <trkpt lat="48.16404" lon="2.44107">
        <ele>120.515252</ele>
        <time>2021-12-04T20:40:16.414Z</time>
      </trkpt>
      <trkpt lat="48.16425" lon="2.44055">
        <ele>120.568752</ele>
        <time>2021-12-04T20:40:26.769Z</time>
      </trkpt>
      <trkpt lat="48.16437" lon="2.44042">
        <ele>120.556435</ele>
        <time>2021-12-04T20:40:30.703Z</time>
      </trkpt>
      <trkpt lat="48.16482" lon="2.44033">
        <ele>120.519612</ele>
        <time>2021-12-04T20:40:41.953Z</time>
      </trkpt>
      <trkpt lat="48.16547" lon="2.44043">
        <ele>120.467561</ele>
        <time>2021-12-04T20:40:57.050Z</time>
      </trkpt>
      <trkpt lat="48.16562" lon="2.44001">
        <ele>120.4417</ele>
        <time>2021-12-04T20:41:04.210Z</time>
      </trkpt>
      <trkpt lat="48.16587" lon="2.44001">
        <ele>120.377236</ele>
        <time>2021-12-04T20:41:09.507Z</time>
      </trkpt>
      <trkpt lat="48.16616" lon="2.44013">
        <ele>120.119382</ele>
        <time>2021-12-04T20:41:15.841Z</time>
      </trkpt>
      <trkpt lat="48.16639" lon="2.44008">
        <ele>119.920956</ele>
        <time>2021-12-04T20:41:20.645Z</time>
      </trkpt>
      <trkpt lat="48.16779" lon="2.43965">
        <ele>118.470322</ele>
        <time>2021-12-04T20:42:10.779Z</time>
      </trkpt>
      <trkpt lat="48.16837" lon="2.43962">
        <ele>117.354162</ele>
        <time>2021-12-04T20:42:31.021Z</time>
      </trkpt>
      <trkpt lat="48.16886" lon="2.43939">
        <ele>116.379591</ele>
        <time>2021-12-04T20:42:40.623Z</time>
      </trkpt>
      <trkpt lat="48.16983" lon="2.43927">
        <ele>113.621226</ele>
        <time>2021-12-04T20:42:57.504Z</time>
      </trkpt>
      <trkpt lat="48.17026" lon="2.43905">
        <ele>111.893133</ele>
        <time>2021-12-04T20:43:05.118Z</time>
      </trkpt>
      <trkpt lat="48.17051" lon="2.43883">
        <ele>110.812767</ele>
        <time>2021-12-04T20:43:09.808Z</time>
      </trkpt>
      <trkpt lat="48.17103" lon="2.43939">
        <ele>108.425172</ele>
        <time>2021-12-04T20:43:28.816Z</time>
      </trkpt>
      <trkpt lat="48.17149" lon="2.44001">
        <ele>106.422854</ele>
        <time>2021-12-04T20:43:47.147Z</time>
      </trkpt>
      <trkpt lat="48.1732" lon="2.43854">
        <ele>101.455601</ele>
        <time>2021-12-04T20:44:49.922Z</time>
      </trkpt>
      <trkpt lat="48.1751" lon="2.43869">
        <ele>99.336437</ele>
        <time>2021-12-04T20:45:58.314Z</time>
      </trkpt>
      <trkpt lat="48.175" lon="2.43733">
        <ele>98.736084</ele>
        <time>2021-12-04T20:46:31.592Z</time>
      </trkpt>
      <trkpt lat="48.17813" lon="2.4369">
        <ele>96.66239</ele>
        <time>2021-12-04T20:48:23.125Z</time>
      </trkpt>
      <trkpt lat="48.17822" lon="2.4384">
        <ele>96.717543</ele>
        <time>2021-12-04T20:49:02.593Z</time>
      </trkpt>
      <trkpt lat="48.18423" lon="2.43809">
        <ele>99.110797</ele>
        <time>2021-12-04T20:53:09.169Z</time>
      </trkpt>
      <trkpt lat="48.1873" lon="2.4379">
        <ele>99.792515</ele>
        <time>2021-12-04T20:55:05.806Z</time>
      </trkpt>
      <trkpt lat="48.18911" lon="2.43844">
        <ele>100.746463</ele>
        <time>2021-12-04T20:56:28.800Z</time>
      </trkpt>
      <trkpt lat="48.19173" lon="2.43798">
        <ele>100.451515</ele>
        <time>2021-12-04T20:58:06.242Z</time>
      </trkpt>
      <trkpt lat="48.1935" lon="2.43764">
        <ele>99.549302</ele>
        <time>2021-12-04T20:59:11.601Z</time>
      </trkpt>
      <trkpt lat="48.19388" lon="2.4384">
        <ele>99.170488</ele>
        <time>2021-12-04T20:59:24.862Z</time>
      </trkpt>
      <trkpt lat="48.19414" lon="2.4388">
        <ele>98.930381</ele>
        <time>2021-12-04T20:59:32.538Z</time>
      </trkpt>
      <trkpt lat="48.19551" lon="2.43991">
        <ele>98.453458</ele>
        <time>2021-12-04T21:00:05.489Z</time>
      </trkpt>
      <trkpt lat="48.19558" lon="2.44004">
        <ele>98.486294</ele>
        <time>2021-12-04T21:00:07.934Z</time>
      </trkpt>
      <trkpt lat="48.19775" lon="2.43734">
        <ele>100.084877</ele>
        <time>2021-12-04T21:02:09.690Z</time>
      </trkpt>
      <trkpt lat="48.19877" lon="2.43608">
        <ele>100.370107</ele>
        <time>2021-12-04T21:03:02.912Z</time>
      </trkpt>
      <trkpt lat="48.20049" lon="2.43394">
        <ele>99.860162</ele>
        <time>2021-12-04T21:04:25.396Z</time>
      </trkpt>
      <trkpt lat="48.2033" lon="2.43045">
        <ele>98.155478</ele>
        <time>2021-12-04T21:06:38.583Z</time>
      </trkpt>
      <trkpt lat="48.20336" lon="2.42887">
        <ele>97.899153</ele>
        <time>2021-12-04T21:07:01.922Z</time>
      </trkpt>
      <trkpt lat="48.20545" lon="2.43204">
        <ele>97.412604</ele>
        <time>2021-12-04T21:08:54.400Z</time>
      </trkpt>
      <trkpt lat="48.20704" lon="2.43445">
        <ele>96.580312</ele>
        <time>2021-12-04T21:10:17.658Z</time>
      </trkpt>
      <trkpt lat="48.20764" lon="2.4348">
        <ele>96.257193</ele>
        <time>2021-12-04T21:10:31.531Z</time>
      </trkpt>
      <trkpt lat="48.20779" lon="2.43483">
        <ele>96.178888</ele>
        <time>2021-12-04T21:10:34.885Z</time>
      </trkpt>
      <trkpt lat="48.20793" lon="2.43501">
        <ele>96.084771</ele>
        <time>2021-12-04T21:10:41.687Z</time>
      </trkpt>
      <trkpt lat="48.21043" lon="2.43649">
        <ele>92.006234</ele>
        <time>2021-12-04T21:12:13.947Z</time>
      </trkpt>
      <trkpt lat="48.211" lon="2.43678">
        <ele>90.663471</ele>
        <time>2021-12-04T21:12:32.578Z</time>
      </trkpt>
      <trkpt lat="48.212" lon="2.43738">
        <ele>88.498206</ele>
        <time>2021-12-04T21:13:06.577Z</time>
      </trkpt>
      <trkpt lat="48.21226" lon="2.43753">
        <ele>87.972701</ele>
        <time>2021-12-04T21:13:15.486Z</time>
      </trkpt>
      <trkpt lat="48.21301" lon="2.43775">
        <ele>86.505021</ele>
        <time>2021-12-04T21:13:41.249Z</time>
      </trkpt>
      <trkpt lat="48.21351" lon="2.43765">
        <ele>86.977881</ele>
        <time>2021-12-04T21:14:01.490Z</time>
      </trkpt>
      <trkpt lat="48.21404" lon="2.43739">
        <ele>87.557623</ele>
        <time>2021-12-04T21:14:27.474Z</time>
      </trkpt>
      <trkpt lat="48.21571" lon="2.43701">
        <ele>90.26866</ele>
        <time>2021-12-04T21:15:50.523Z</time>
      </trkpt>
      <trkpt lat="48.21935" lon="2.43671">
        <ele>97.658595</ele>
        <time>2021-12-04T21:18:59.704Z</time>
      </trkpt>
      <trkpt lat="48.21939" lon="2.4367">
        <ele>97.726412</ele>
        <time>2021-12-04T21:19:01.788Z</time>
      </trkpt>
      <trkpt lat="48.2197" lon="2.43654">
        <ele>98.22123</ele>
        <time>2021-12-04T21:19:16.698Z</time>
      </trkpt>
      <trkpt lat="48.21981" lon="2.43655">
        <ele>98.386426</ele>
        <time>2021-12-04T21:19:21.516Z</time>
      </trkpt>
      <trkpt lat="48.22242" lon="2.43829">
        <ele>98.221105</ele>
        <time>2021-12-04T21:21:10.473Z</time>
      </trkpt>
      <trkpt lat="48.22333" lon="2.43547">
        <ele>95.582574</ele>
        <time>2021-12-04T21:21:49.819Z</time>
      </trkpt>
      <trkpt lat="48.22458" lon="2.43574">
        <ele>94.131361</ele>
        <time>2021-12-04T21:22:33.661Z</time>
      </trkpt>
      <trkpt lat="48.22477" lon="2.43571">
        <ele>94.020645</ele>
        <time>2021-12-04T21:22:40.615Z</time>
      </trkpt>
      <trkpt lat="48.22549" lon="2.43535">
        <ele>93.587552</ele>
        <time>2021-12-04T21:23:08.751Z</time>
      </trkpt>
      <trkpt lat="48.22557" lon="2.43554">
        <ele>93.504738</ele>
        <time>2021-12-04T21:23:12.151Z</time>
      </trkpt>
      <trkpt lat="48.22564" lon="2.43563">
        <ele>93.452636</ele>
        <time>2021-12-04T21:23:14.350Z</time>
      </trkpt>
      <trkpt lat="48.22579" lon="2.43576">
        <ele>93.384291</ele>
        <time>2021-12-04T21:23:18.481Z</time>
      </trkpt>
      <trkpt lat="48.22574" lon="2.43592">
        <ele>93.397964</ele>
        <time>2021-12-04T21:23:23.044Z</time>
      </trkpt>
      <trkpt lat="48.22579" lon="2.43704">
        <ele>93.48435</ele>
        <time>2021-12-04T21:23:51.468Z</time>
      </trkpt>
      <trkpt lat="48.22604" lon="2.43866">
        <ele>93.720093</ele>
        <time>2021-12-04T21:24:35.606Z</time>
      </trkpt>
      <trkpt lat="48.22619" lon="2.43981">
        <ele>94.188393</ele>
        <time>2021-12-04T21:25:08.315Z</time>
      </trkpt>
      <trkpt lat="48.22956" lon="2.43944">
        <ele>95.945546</ele>
        <time>2021-12-04T21:27:31.232Z</time>
      </trkpt>
      <trkpt lat="48.2312" lon="2.43931">
        <ele>95.824477</ele>
        <time>2021-12-04T21:28:08.415Z</time>
      </trkpt>
      <trkpt lat="48.23118" lon="2.44062">
        <ele>95.640928</ele>
        <time>2021-12-04T21:28:29.558Z</time>
      </trkpt>
      <trkpt lat="48.2313" lon="2.44178">
        <ele>95.321338</ele>
        <time>2021-12-04T21:28:48.656Z</time>
      </trkpt>
      <trkpt lat="48.23132" lon="2.44281">
        <ele>94.960937</ele>
        <time>2021-12-04T21:29:04.494Z</time>
      </trkpt>
      <trkpt lat="48.23184" lon="2.4429">
        <ele>94.687352</ele>
        <time>2021-12-04T21:29:22.773Z</time>
      </trkpt>
      <trkpt lat="48.23447" lon="2.44331">
        <ele>92.855681</ele>
        <time>2021-12-04T21:30:54.547Z</time>
      </trkpt>
      <trkpt lat="48.23559" lon="2.44328">
        <ele>93.386121</ele>
        <time>2021-12-04T21:31:45.891Z</time>
      </trkpt>
      <trkpt lat="48.23887" lon="2.44413">
        <ele>100.78373</ele>
        <time>2021-12-04T21:34:40.192Z</time>
      </trkpt>
      <trkpt lat="48.24038" lon="2.44475">
        <ele>103.135433</ele>
        <time>2021-12-04T21:35:55.589Z</time>
      </trkpt>
      <trkpt lat="48.24182" lon="2.44525">
        <ele>103.432063</ele>
        <time>2021-12-04T21:36:55.681Z</time>
      </trkpt>
      <trkpt lat="48.24377" lon="2.44565">
        <ele>101.519918</ele>
        <time>2021-12-04T21:38:02.890Z</time>
      </trkpt>
      <trkpt lat="48.24414" lon="2.44611">
        <ele>100.847952</ele>
        <time>2021-12-04T21:38:19.041Z</time>
      </trkpt>
      <trkpt lat="48.24397" lon="2.44568">
        <ele>100.659762</ele>
        <time>2021-12-04T21:38:25.639Z</time>
      </trkpt>
      <trkpt lat="48.24461" lon="2.44578">
        <ele>100.535502</ele>
        <time>2021-12-04T21:38:48.726Z</time>
      </trkpt>
      <trkpt lat="48.24647" lon="2.44681">
        <ele>101.322304</ele>
        <time>2021-12-04T21:40:11.783Z</time>
      </trkpt>
      <trkpt lat="48.2476" lon="2.44729">
        <ele>102.444776</ele>
        <time>2021-12-04T21:41:05.411Z</time>
      </trkpt>
      <trkpt lat="48.2488" lon="2.44801">
        <ele>103.803082</ele>
        <time>2021-12-04T21:42:02.860Z</time>
      </trkpt>
      <trkpt lat="48.24884" lon="2.44771">
        <ele>103.963153</ele>
        <time>2021-12-04T21:42:11.565Z</time>
      </trkpt>
      <trkpt lat="48.24895" lon="2.44764">
        <ele>104.039616</ele>
        <time>2021-12-04T21:42:16.473Z</time>
      </trkpt>
      <trkpt lat="48.24909" lon="2.44777">
        <ele>104.14929</ele>
        <time>2021-12-04T21:42:23.555Z</time>
      </trkpt>
      <trkpt lat="48.25115" lon="2.45012">
        <ele>105.552347</ele>
        <time>2021-12-04T21:44:11.523Z</time>
      </trkpt>
      <trkpt lat="48.25123" lon="2.45013">
        <ele>105.58674</ele>
        <time>2021-12-04T21:44:14.775Z</time>
      </trkpt>
      <trkpt lat="48.25136" lon="2.45">
        <ele>105.653623</ele>
        <time>2021-12-04T21:44:21.046Z</time>
      </trkpt>
      <trkpt lat="48.25151" lon="2.45">
        <ele>105.711829</ele>
        <time>2021-12-04T21:44:26.551Z</time>
      </trkpt>
      <trkpt lat="48.25183" lon="2.44979">
        <ele>105.83494</ele>
        <time>2021-12-04T21:44:40.038Z</time>
      </trkpt>
      <trkpt lat="48.25233" lon="2.44925">
        <ele>105.98981</ele>
        <time>2021-12-04T21:45:03.345Z</time>
      </trkpt>
      <trkpt lat="48.25235" lon="2.44958">
        <ele>106.046227</ele>
        <time>2021-12-04T21:45:11.982Z</time>
      </trkpt>
      <trkpt lat="48.25225" lon="2.45">
        <ele>106.120216</ele>
        <time>2021-12-04T21:45:23.537Z</time>
      </trkpt>
      <trkpt lat="48.25216" lon="2.45005">
        <ele>106.145089</ele>
        <time>2021-12-04T21:45:25.868Z</time>
      </trkpt>
      <trkpt lat="48.25219" lon="2.45038">
        <ele>106.201069</ele>
        <time>2021-12-04T21:45:34.987Z</time>
      </trkpt>
      <trkpt lat="48.25249" lon="2.45066">
        <ele>106.425273</ele>
        <time>2021-12-04T21:45:49.669Z</time>
      </trkpt>
      <trkpt lat="48.2556" lon="2.45209">
        <ele>110.164336</ele>
        <time>2021-12-04T21:48:18.019Z</time>
      </trkpt>
      <trkpt lat="48.25656" lon="2.45241">
        <ele>110.650242</ele>
        <time>2021-12-04T21:49:00.465Z</time>
      </trkpt>
      <trkpt lat="48.2571" lon="2.45249">
        <ele>110.825922</ele>
        <time>2021-12-04T21:49:22.027Z</time>
      </trkpt>
      <trkpt lat="48.26033" lon="2.45397">
        <ele>109.924625</ele>
        <time>2021-12-04T21:51:26.201Z</time>
      </trkpt>
      <trkpt lat="48.2606" lon="2.45409">
        <ele>109.840131</ele>
        <time>2021-12-04T21:51:36.533Z</time>
      </trkpt>
      <trkpt lat="48.26276" lon="2.45392">
        <ele>109.473483</ele>
        <time>2021-12-04T21:52:57.668Z</time>
      </trkpt>
      <trkpt lat="48.2676" lon="2.45322">
        <ele>109.981825</ele>
        <time>2021-12-04T21:56:06.781Z</time>
      </trkpt>
      <trkpt lat="48.27265" lon="2.45249">
        <ele>109.678594</ele>
        <time>2021-12-04T21:59:22.962Z</time>
      </trkpt>
      <trkpt lat="48.27625" lon="2.4522">
        <ele>104.909466</ele>
        <time>2021-12-04T22:01:24.903Z</time>
      </trkpt>
      <trkpt lat="48.27636" lon="2.45242">
        <ele>104.640661</ele>
        <time>2021-12-04T22:01:30.984Z</time>
      </trkpt>
      <trkpt lat="48.27658" lon="2.45383">
        <ele>103.131889</ele>
        <time>2021-12-04T22:02:03.746Z</time>
      </trkpt>
      <trkpt lat="48.27675" lon="2.45413">
        <ele>102.677862</ele>
        <time>2021-12-04T22:02:12.854Z</time>
      </trkpt>
      <trkpt lat="48.27732" lon="2.45434">
        <ele>101.677317</ele>
        <time>2021-12-04T22:02:32.692Z</time>
      </trkpt>
      <trkpt lat="48.27792" lon="2.45435">
        <ele>100.652679</ele>
        <time>2021-12-04T22:02:52.564Z</time>
      </trkpt>
      <trkpt lat="48.27831" lon="2.45453">
        <ele>100.321351</ele>
        <time>2021-12-04T22:03:05.598Z</time>
      </trkpt>
      <trkpt lat="48.2785" lon="2.45442">
        <ele>100.192094</ele>
        <time>2021-12-04T22:03:12.466Z</time>
      </trkpt>
      <trkpt lat="48.27858" lon="2.45422">
        <ele>100.096017</ele>
        <time>2021-12-04T22:03:17.776Z</time>
      </trkpt>
      <trkpt lat="48.27859" lon="2.45394">
        <ele>99.982396</ele>
        <time>2021-12-04T22:03:24.146Z</time>
      </trkpt>
      <trkpt lat="48.27863" lon="2.45385">
        <ele>99.936303</ele>
        <time>2021-12-04T22:03:26.727Z</time>
      </trkpt>
      <trkpt lat="48.27879" lon="2.45373">
        <ele>99.827913</ele>
        <time>2021-12-04T22:03:33.176Z</time>
      </trkpt>
      <trkpt lat="48.27966" lon="2.45393">
        <ele>99.90065</ele>
        <time>2021-12-04T22:04:08.123Z</time>
      </trkpt>
      <trkpt lat="48.28285" lon="2.45401">
        <ele>107.748796</ele>
        <time>2021-12-04T22:07:08.130Z</time>
      </trkpt>
      <trkpt lat="48.28632" lon="2.45418">
        <ele>108.663904</ele>
        <time>2021-12-04T22:09:17.912Z</time>
      </trkpt>
      <trkpt lat="48.29229" lon="2.45677">
        <ele>116.580919</ele>
        <time>2021-12-04T22:14:09.463Z</time>
      </trkpt>
      <trkpt lat="48.29234" lon="2.45679">
        <ele>116.597455</ele>
        <time>2021-12-04T22:14:11.354Z</time>
      </trkpt>
      <trkpt lat="48.29449" lon="2.45763">
        <ele>116.634722</ele>
        <time>2021-12-04T22:15:35.099Z</time>
      </trkpt>
      <trkpt lat="48.29473" lon="2.45772">
        <ele>116.530878</ele>
        <time>2021-12-04T22:15:44.243Z</time>
      </trkpt>
      <trkpt lat="48.29503" lon="2.45773">
        <ele>116.407163</ele>
        <time>2021-12-04T22:15:55.051Z</time>
      </trkpt>
      <trkpt lat="48.2986" lon="2.45702">
        <ele>114.281743</ele>
        <time>2021-12-04T22:18:04.029Z</time>
      </trkpt>
      <trkpt lat="48.29924" lon="2.45692">
        <ele>114.401464</ele>
        <time>2021-12-04T22:18:29.687Z</time>
      </trkpt>
      <trkpt lat="48.30323" lon="2.45629">
        <ele>117.34162</ele>
        <time>2021-12-04T22:21:24.721Z</time>
      </trkpt>
      <trkpt lat="48.30674" lon="2.45725">
        <ele>117.554022</ele>
        <time>2021-12-04T22:23:39.193Z</time>
      </trkpt>
      <trkpt lat="48.3066" lon="2.45979">
        <ele>117.885867</ele>
        <time>2021-12-04T22:24:21.015Z</time>
      </trkpt>
      <trkpt lat="48.31119" lon="2.45757">
        <ele>119.846822</ele>
        <time>2021-12-04T22:27:35.741Z</time>
      </trkpt>
      <trkpt lat="48.3121" lon="2.45785">
        <ele>120.74116</ele>
        <time>2021-12-04T22:28:16.612Z</time>
      </trkpt>
      <trkpt lat="48.31299" lon="2.45814">
        <ele>121.598005</ele>
        <time>2021-12-04T22:28:58.098Z</time>
      </trkpt>
      <trkpt lat="48.31393" lon="2.4587">
        <ele>122.363331</ele>
        <time>2021-12-04T22:29:42.105Z</time>
      </trkpt>
      <trkpt lat="48.3146" lon="2.45905">
        <ele>122.873108</ele>
        <time>2021-12-04T22:30:11.853Z</time>
      </trkpt>
      <trkpt lat="48.31622" lon="2.45965">
        <ele>122.521157</ele>
        <time>2021-12-04T22:31:14.405Z</time>
      </trkpt>
      <trkpt lat="48.31758" lon="2.45999">
        <ele>121.615322</ele>
        <time>2021-12-04T22:32:03.039Z</time>
      </trkpt>
      <trkpt lat="48.32435" lon="2.45989">
        <ele>118.615545</ele>
        <time>2021-12-04T22:36:09.905Z</time>
      </trkpt>
      <trkpt lat="48.32759" lon="2.45988">
        <ele>120.212652</ele>
        <time>2021-12-04T22:38:26.485Z</time>
      </trkpt>
      <trkpt lat="48.33458" lon="2.45985">
        <ele>125.159831</ele>
        <time>2021-12-04T22:43:21.114Z</time>
      </trkpt>
      <trkpt lat="48.33628" lon="2.45885">
        <ele>127.491491</ele>
        <time>2021-12-04T22:44:47.159Z</time>
      </trkpt>
      <trkpt lat="48.33823" lon="2.45746">
        <ele>129.877365</ele>
        <time>2021-12-04T22:46:23.772Z</time>
      </trkpt>
      <trkpt lat="48.34018" lon="2.45663">
        <ele>130.957486</ele>
        <time>2021-12-04T22:47:48.955Z</time>
      </trkpt>
      <trkpt lat="48.3403" lon="2.45658">
        <ele>130.977436</ele>
        <time>2021-12-04T22:47:54.195Z</time>
      </trkpt>
      <trkpt lat="48.34108" lon="2.45623">
        <ele>131.035287</ele>
        <time>2021-12-04T22:48:24.583Z</time>
      </trkpt>
      <trkpt lat="48.3419" lon="2.45553">
        <ele>129.794494</ele>
        <time>2021-12-04T22:48:57.466Z</time>
      </trkpt>
      <trkpt lat="48.34366" lon="2.45454">
        <ele>126.799066</ele>
        <time>2021-12-04T22:49:59.914Z</time>
      </trkpt>
      <trkpt lat="48.34485" lon="2.45393">
        <ele>124.638017</ele>
        <time>2021-12-04T22:50:41.639Z</time>
      </trkpt>
      <trkpt lat="48.34504" lon="2.45385">
        <ele>124.327147</ele>
        <time>2021-12-04T22:50:45.608Z</time>
      </trkpt>
      <trkpt lat="48.34547" lon="2.4538">
        <ele>123.638101</ele>
        <time>2021-12-04T22:50:54.526Z</time>
      </trkpt>
      <trkpt lat="48.34563" lon="2.45394">
        <ele>123.347672</ele>
        <time>2021-12-04T22:50:58.283Z</time>
      </trkpt>
      <trkpt lat="48.34577" lon="2.45418">
        <ele>123.010974</ele>
        <time>2021-12-04T22:51:02.643Z</time>
      </trkpt>
      <trkpt lat="48.34628" lon="2.45476">
        <ele>122.181445</ele>
        <time>2021-12-04T22:51:15.691Z</time>
      </trkpt>
      <trkpt lat="48.34654" lon="2.45528">
        <ele>121.703016</ele>
        <time>2021-12-04T22:51:24.716Z</time>
      </trkpt>
      <trkpt lat="48.34662" lon="2.45544">
        <ele>121.557168</ele>
        <time>2021-12-04T22:51:27.489Z</time>
      </trkpt>
      <trkpt lat="48.34667" lon="2.45552">
        <ele>121.472635</ele>
        <time>2021-12-04T22:51:29.152Z</time>
      </trkpt>
      <trkpt lat="48.34685" lon="2.45565">
        <ele>121.253298</ele>
        <time>2021-12-04T22:51:33.443Z</time>
      </trkpt>
      <trkpt lat="48.34698" lon="2.45559">
        <ele>121.110834</ele>
        <time>2021-12-04T22:51:36.011Z</time>
      </trkpt>
      <trkpt lat="48.34881" lon="2.45541">
        <ele>120.23977</ele>
        <time>2021-12-04T22:52:15.338Z</time>
      </trkpt>
      <trkpt lat="48.3489" lon="2.4554">
        <ele>120.215006</ele>
        <time>2021-12-04T22:52:17.591Z</time>
      </trkpt>
      <trkpt lat="48.34909" lon="2.45289">
        <ele>120.473193</ele>
        <time>2021-12-04T22:53:26.503Z</time>
      </trkpt>
      <trkpt lat="48.35025" lon="2.453">
        <ele>120.117579</ele>
        <time>2021-12-04T22:54:10.502Z</time>
      </trkpt>
      <trkpt lat="48.35214" lon="2.45243">
        <ele>118.651447</ele>
        <time>2021-12-04T22:55:17.816Z</time>
      </trkpt>
      <trkpt lat="48.35473" lon="2.45167">
        <ele>116.293592</ele>
        <time>2021-12-04T22:56:51.356Z</time>
      </trkpt>
      <trkpt lat="48.35643" lon="2.4509">
        <ele>115.269033</ele>
        <time>2021-12-04T22:57:54.294Z</time>
      </trkpt>
      <trkpt lat="48.3605" lon="2.44913">
        <ele>119.852446</ele>
        <time>2021-12-04T23:01:07.010Z</time>
      </trkpt>
      <trkpt lat="48.36289" lon="2.44563">
        <ele>123.390174</ele>
        <time>2021-12-04T23:03:36.446Z</time>
      </trkpt>
      <trkpt lat="48.36631" lon="2.44705">
        <ele>125.165444</ele>
        <time>2021-12-04T23:06:01.203Z</time>
      </trkpt>
      <trkpt lat="48.36796" lon="2.44692">
        <ele>125.709871</ele>
        <time>2021-12-04T23:07:07.488Z</time>
      </trkpt>
      <trkpt lat="48.3701" lon="2.44692">
        <ele>125.647823</ele>
        <time>2021-12-04T23:08:29.444Z</time>
      </trkpt>
      <trkpt lat="48.37062" lon="2.44696">
        <ele>125.46768</ele>
        <time>2021-12-04T23:08:48.718Z</time>
      </trkpt>
      <trkpt lat="48.37273" lon="2.44739">
        <ele>124.463518</ele>
        <time>2021-12-04T23:10:05.658Z</time>
      </trkpt>
      <trkpt lat="48.37573" lon="2.44842">
        <ele>123.284976</ele>
        <time>2021-12-04T23:11:58.582Z</time>
      </trkpt>
      <trkpt lat="48.37747" lon="2.45009">
        <ele>123.24996</ele>
        <time>2021-12-04T23:13:19.567Z</time>
      </trkpt>
      <trkpt lat="48.37827" lon="2.45073">
        <ele>123.2253</ele>
        <time>2021-12-04T23:13:54.096Z</time>
      </trkpt>
      <trkpt lat="48.37957" lon="2.45139">
        <ele>122.460044</ele>
        <time>2021-12-04T23:14:43.757Z</time>
      </trkpt>
      <trkpt lat="48.38001" lon="2.45154">
        <ele>122.248262</ele>
        <time>2021-12-04T23:14:59.647Z</time>
      </trkpt>
      <trkpt lat="48.38102" lon="2.45142">
        <ele>121.979491</ele>
        <time>2021-12-04T23:15:36.584Z</time>
      </trkpt>
      <trkpt lat="48.38142" lon="2.45154">
        <ele>121.872291</ele>
        <time>2021-12-04T23:15:52.225Z</time>
      </trkpt>
      <trkpt lat="48.38166" lon="2.45174">
        <ele>121.834101</ele>
        <time>2021-12-04T23:16:03.105Z</time>
      </trkpt>
      <trkpt lat="48.38188" lon="2.45234">
        <ele>122.269165</ele>
        <time>2021-12-04T23:16:22.503Z</time>
      </trkpt>
      <trkpt lat="48.383" lon="2.45406">
        <ele>123.785625</ele>
        <time>2021-12-04T23:17:35.008Z</time>
      </trkpt>
      <trkpt lat="48.38358" lon="2.45528">
        <ele>124.667693</ele>
        <time>2021-12-04T23:18:17.940Z</time>
      </trkpt>
      <trkpt lat="48.38384" lon="2.45551">
        <ele>124.942231</ele>
        <time>2021-12-04T23:18:30.925Z</time>
      </trkpt>
      <trkpt lat="48.38433" lon="2.45569">
        <ele>125.403332</ele>
        <time>2021-12-04T23:18:51.968Z</time>
      </trkpt>
      <trkpt lat="48.3847" lon="2.45593">
        <ele>125.778128</ele>
        <time>2021-12-04T23:19:09.040Z</time>
      </trkpt>
      <trkpt lat="48.38602" lon="2.45602">
        <ele>126.89966</ele>
        <time>2021-12-04T23:20:08.234Z</time>
      </trkpt>
      <trkpt lat="48.38697" lon="2.45631">
        <ele>127.267753</ele>
        <time>2021-12-04T23:20:50.043Z</time>
      </trkpt>
      <trkpt lat="48.38708" lon="2.45634">
        <ele>127.311122</ele>
        <time>2021-12-04T23:20:54.613Z</time>
      </trkpt>
      <trkpt lat="48.38849" lon="2.45679">
        <ele>125.612274</ele>
        <time>2021-12-04T23:21:46.264Z</time>
      </trkpt>
      <trkpt lat="48.3912" lon="2.45738">
        <ele>116.011337</ele>
        <time>2021-12-04T23:23:09.899Z</time>
      </trkpt>
      <trkpt lat="48.39274" lon="2.45795">
        <ele>103.512521</ele>
        <time>2021-12-04T23:23:51.936Z</time>
      </trkpt>
      <trkpt lat="48.39307" lon="2.45831">
        <ele>100.521145</ele>
        <time>2021-12-04T23:24:02.598Z</time>
      </trkpt>
      <trkpt lat="48.39329" lon="2.4581">
        <ele>98.657075</ele>
        <time>2021-12-04T23:24:09.633Z</time>
      </trkpt>
      <trkpt lat="48.39345" lon="2.45775">
        <ele>96.665566</ele>
        <time>2021-12-04T23:24:17.282Z</time>
      </trkpt>
      <trkpt lat="48.39385" lon="2.45707">
        <ele>92.409178</ele>
        <time>2021-12-04T23:24:33.719Z</time>
      </trkpt>
      <trkpt lat="48.3943" lon="2.45682">
        <ele>89.183604</ele>
        <time>2021-12-04T23:24:47.634Z</time>
      </trkpt>
      <trkpt lat="48.39444" lon="2.45687">
        <ele>88.44552</ele>
        <time>2021-12-04T23:24:51.530Z</time>
      </trkpt>
      <trkpt lat="48.39455" lon="2.45691">
        <ele>87.866134</ele>
        <time>2021-12-04T23:24:54.916Z</time>
      </trkpt>
      <trkpt lat="48.39484" lon="2.45733">
        <ele>85.794782</ele>
        <time>2021-12-04T23:25:06.588Z</time>
      </trkpt>
      <trkpt lat="48.39491" lon="2.45735">
        <ele>85.434208</ele>
        <time>2021-12-04T23:25:08.699Z</time>
      </trkpt>
      <trkpt lat="48.395" lon="2.45738">
        <ele>84.938462</ele>
        <time>2021-12-04T23:25:11.288Z</time>
      </trkpt>
      <trkpt lat="48.39579" lon="2.45694">
        <ele>80.632684</ele>
        <time>2021-12-04T23:25:35.775Z</time>
      </trkpt>
      <trkpt lat="48.39622" lon="2.45823">
        <ele>76.840449</ele>
        <time>2021-12-04T23:26:03.547Z</time>
      </trkpt>
      <trkpt lat="48.39648" lon="2.45973">
        <ele>73.156588</ele>
        <time>2021-12-04T23:26:35.550Z</time>
      </trkpt>
      <trkpt lat="48.3966" lon="2.45965">
        <ele>72.927224</ele>
        <time>2021-12-04T23:26:38.128Z</time>
      </trkpt>
      <trkpt lat="48.39707" lon="2.4594">
        <ele>72.035271</ele>
        <time>2021-12-04T23:26:48.053Z</time>
      </trkpt>
      <trkpt lat="48.39727" lon="2.45935">
        <ele>71.675632</ele>
        <time>2021-12-04T23:26:52.283Z</time>
      </trkpt>
      <trkpt lat="48.39859" lon="2.45933">
        <ele>69.38467</ele>
        <time>2021-12-04T23:27:19.881Z</time>
      </trkpt>
      <trkpt lat="48.39863" lon="2.45933">
        <ele>69.329007</ele>
        <time>2021-12-04T23:27:20.575Z</time>
      </trkpt>
      <trkpt lat="48.39872" lon="2.45938">
        <ele>69.162474</ele>
        <time>2021-12-04T23:27:22.658Z</time>
      </trkpt>
      <trkpt lat="48.39882" lon="2.45939">
        <ele>68.99812</ele>
        <time>2021-12-04T23:27:24.647Z</time>
      </trkpt>
      <trkpt lat="48.39905" lon="2.45942">
        <ele>68.630942</ele>
        <time>2021-12-04T23:27:29.095Z</time>
      </trkpt>
      <trkpt lat="48.39924" lon="2.45945">
        <ele>68.316735</ele>
        <time>2021-12-04T23:27:32.918Z</time>
      </trkpt>
      <trkpt lat="48.39942" lon="2.45947">
        <ele>68.023462</ele>
        <time>2021-12-04T23:27:36.494Z</time>
      </trkpt>
      <trkpt lat="48.39953" lon="2.45949">
        <ele>67.834385</ele>
        <time>2021-12-04T23:27:38.804Z</time>
      </trkpt>
      <trkpt lat="48.39963" lon="2.45951">
        <ele>67.681276</ele>
        <time>2021-12-04T23:27:40.699Z</time>
      </trkpt>
      <trkpt lat="48.39978" lon="2.45954">
        <ele>67.42997</ele>
        <time>2021-12-04T23:27:43.799Z</time>
      </trkpt>
      <trkpt lat="48.40008" lon="2.45964">
        <ele>67.084471</ele>
        <time>2021-12-04T23:27:50.035Z</time>
      </trkpt>
      <trkpt lat="48.40016" lon="2.45967">
        <ele>67.003189</ele>
        <time>2021-12-04T23:27:51.792Z</time>
      </trkpt>
      <trkpt lat="48.40051" lon="2.45977">
        <ele>66.673467</ele>
        <time>2021-12-04T23:27:59.028Z</time>
      </trkpt>
      <trkpt lat="48.40055" lon="2.45972">
        <ele>66.625539</ele>
        <time>2021-12-04T23:28:00.108Z</time>
      </trkpt>
      <trkpt lat="48.40089" lon="2.46">
        <ele>66.256969</ele>
        <time>2021-12-04T23:28:07.918Z</time>
      </trkpt>
      <trkpt lat="48.40113" lon="2.46013">
        <ele>66.026308</ele>
        <time>2021-12-04T23:28:13.102Z</time>
      </trkpt>
      <trkpt lat="48.4013" lon="2.4602">
        <ele>65.853656</ele>
        <time>2021-12-04T23:28:17.134Z</time>
      </trkpt>
      <trkpt lat="48.40182" lon="2.46022">
        <ele>65.659737</ele>
        <time>2021-12-04T23:28:29.260Z</time>
      </trkpt>
      <trkpt lat="48.40191" lon="2.46051">
        <ele>65.706416</ele>
        <time>2021-12-04T23:28:34.780Z</time>
      </trkpt>
      <trkpt lat="48.402" lon="2.46077">
        <ele>65.749251</ele>
        <time>2021-12-04T23:28:39.757Z</time>
      </trkpt>
      <trkpt lat="48.40204" lon="2.46087">
        <ele>65.766246</ele>
        <time>2021-12-04T23:28:41.654Z</time>
      </trkpt>
      <trkpt lat="48.40229" lon="2.46158">
        <ele>65.884861</ele>
        <time>2021-12-04T23:28:55.440Z</time>
      </trkpt>
      <trkpt lat="48.40249" lon="2.46207">
        <ele>65.968371</ele>
        <time>2021-12-04T23:29:04.314Z</time>
      </trkpt>
      <trkpt lat="48.40266" lon="2.46251">
        <ele>65.993207</ele>
        <time>2021-12-04T23:29:12.147Z</time>
      </trkpt>
      <trkpt lat="48.40271" lon="2.46265">
        <ele>65.988252</ele>
        <time>2021-12-04T23:29:14.468Z</time>
      </trkpt>
      <trkpt lat="48.40275" lon="2.46279">
        <ele>65.983211</ele>
        <time>2021-12-04T23:29:16.802Z</time>
      </trkpt>
      <trkpt lat="48.40275" lon="2.4628">
        <ele>65.982901</ele>
        <time>2021-12-04T23:29:16.960Z</time>
      </trkpt>
      <trkpt lat="48.40276" lon="2.46282">
        <ele>65.982126</ele>
        <time>2021-12-04T23:29:17.363Z</time>
      </trkpt>
      <trkpt lat="48.40279" lon="2.46302">
        <ele>65.975385</ele>
        <time>2021-12-04T23:29:20.880Z</time>
      </trkpt>
      <trkpt lat="48.40283" lon="2.46332">
        <ele>65.965554</ele>
        <time>2021-12-04T23:29:25.794Z</time>
      </trkpt>
      <trkpt lat="48.40283" lon="2.46338">
        <ele>65.963425</ele>
        <time>2021-12-04T23:29:26.867Z</time>
      </trkpt>
      <trkpt lat="48.40283" lon="2.46344">
        <ele>65.961435</ele>
        <time>2021-12-04T23:29:27.884Z</time>
      </trkpt>
      <trkpt lat="48.40283" lon="2.4635">
        <ele>65.959641</ele>
        <time>2021-12-04T23:29:28.789Z</time>
      </trkpt>
      <trkpt lat="48.40283" lon="2.46358">
        <ele>65.957064</ele>
        <time>2021-12-04T23:29:30.122Z</time>
      </trkpt>
      <trkpt lat="48.40283" lon="2.46363">
        <ele>65.955368</ele>
        <time>2021-12-04T23:29:30.948Z</time>
      </trkpt>
      <trkpt lat="48.40288" lon="2.46393">
        <ele>65.945211</ele>
        <time>2021-12-04T23:29:35.777Z</time>
      </trkpt>
      <trkpt lat="48.40289" lon="2.46401">
        <ele>65.942663</ele>
        <time>2021-12-04T23:29:37.004Z</time>
      </trkpt>
      <trkpt lat="48.40289" lon="2.46403">
        <ele>65.941994</ele>
        <time>2021-12-04T23:29:37.330Z</time>
      </trkpt>
      <trkpt lat="48.40295" lon="2.46436">
        <ele>65.930824</ele>
        <time>2021-12-04T23:29:42.341Z</time>
      </trkpt>
      <trkpt lat="48.40296" lon="2.46439">
        <ele>65.929676</ele>
        <time>2021-12-04T23:29:42.865Z</time>
      </trkpt>
      <trkpt lat="48.403" lon="2.46453">
        <ele>65.924905</ele>
        <time>2021-12-04T23:29:45.083Z</time>
      </trkpt>
      <trkpt lat="48.40305" lon="2.46452">
        <ele>65.922229</ele>
        <time>2021-12-04T23:29:46.254Z</time>
      </trkpt>
      <trkpt lat="48.40328" lon="2.46455">
        <ele>65.870659</ele>
        <time>2021-12-04T23:29:51.119Z</time>
      </trkpt>
      <trkpt lat="48.40331" lon="2.46456">
        <ele>65.847165</ele>
        <time>2021-12-04T23:29:51.872Z</time>
      </trkpt>
      <trkpt lat="48.40334" lon="2.46456">
        <ele>65.825088</ele>
        <time>2021-12-04T23:29:52.583Z</time>
      </trkpt>
      <trkpt lat="48.4035" lon="2.4646">
        <ele>65.715943</ele>
        <time>2021-12-04T23:29:55.903Z</time>
      </trkpt>
      <trkpt lat="48.40365" lon="2.46463">
        <ele>65.613026</ele>
        <time>2021-12-04T23:29:59.029Z</time>
      </trkpt>
      <trkpt lat="48.4037" lon="2.46464">
        <ele>65.578494</ele>
        <time>2021-12-04T23:30:00.094Z</time>
      </trkpt>
      <trkpt lat="48.40431" lon="2.46471">
        <ele>65.161024</ele>
        <time>2021-12-04T23:30:12.539Z</time>
      </trkpt>
      <trkpt lat="48.40431" lon="2.46484">
        <ele>65.100105</ele>
        <time>2021-12-04T23:30:14.442Z</time>
      </trkpt>
      <trkpt lat="48.40431" lon="2.46489">
        <ele>65.077834</ele>
        <time>2021-12-04T23:30:15.136Z</time>
      </trkpt>
      <trkpt lat="48.40451" lon="2.46482">
        <ele>64.938131</ele>
        <time>2021-12-04T23:30:19.436Z</time>
      </trkpt>
      <trkpt lat="48.40489" lon="2.4647">
        <ele>64.673992</ele>
        <time>2021-12-04T23:30:27.785Z</time>
      </trkpt>
      <trkpt lat="48.40504" lon="2.46468">
        <ele>64.616947</ele>
        <time>2021-12-04T23:30:30.845Z</time>
      </trkpt>
      <trkpt lat="48.40546" lon="2.46469">
        <ele>64.451149</ele>
        <time>2021-12-04T23:30:39.618Z</time>
      </trkpt>
      <trkpt lat="48.40552" lon="2.4647">
        <ele>64.428216</ele>
        <time>2021-12-04T23:30:40.826Z</time>
      </trkpt>
      <trkpt lat="48.40573" lon="2.46473">
        <ele>64.3444</ele>
        <time>2021-12-04T23:30:45.320Z</time>
      </trkpt>
      <trkpt lat="48.40596" lon="2.46474">
        <ele>64.250952</ele>
        <time>2021-12-04T23:30:50.308Z</time>
      </trkpt>
      <trkpt lat="48.40601" lon="2.46474">
        <ele>64.23284</ele>
        <time>2021-12-04T23:30:51.267Z</time>
      </trkpt>
      <trkpt lat="48.40616" lon="2.46474">
        <ele>64.175354</ele>
        <time>2021-12-04T23:30:54.379Z</time>
      </trkpt>
      <trkpt lat="48.40681" lon="2.46474">
        <ele>64.099196</ele>
        <time>2021-12-04T23:31:09.477Z</time>
      </trkpt>
      <trkpt lat="48.40699" lon="2.46474">
        <ele>64.265728</ele>
        <time>2021-12-04T23:31:14.670Z</time>
      </trkpt>
      <trkpt lat="48.4071" lon="2.4647">
        <ele>64.3652</ele>
        <time>2021-12-04T23:31:17.755Z</time>
      </trkpt>
      <trkpt lat="48.40715" lon="2.46468">
        <ele>64.408241</ele>
        <time>2021-12-04T23:31:19.187Z</time>
      </trkpt>
      <trkpt lat="48.40725" lon="2.46464">
        <ele>64.501541</ele>
        <time>2021-12-04T23:31:22.307Z</time>
      </trkpt>
      <trkpt lat="48.40746" lon="2.46455">
        <ele>64.693378</ele>
        <time>2021-12-04T23:31:28.343Z</time>
      </trkpt>
      <trkpt lat="48.40761" lon="2.46447">
        <ele>64.839687</ele>
        <time>2021-12-04T23:31:33.235Z</time>
      </trkpt>
      <trkpt lat="48.40764" lon="2.46446">
        <ele>64.862025</ele>
        <time>2021-12-04T23:31:33.949Z</time>
      </trkpt>
      <trkpt lat="48.40778" lon="2.46441">
        <ele>64.991009</ele>
        <time>2021-12-04T23:31:37.995Z</time>
      </trkpt>
      <trkpt lat="48.40788" lon="2.46542">
        <ele>65.601663</ele>
        <time>2021-12-04T23:31:59.320Z</time>
      </trkpt>
      <trkpt lat="48.40792" lon="2.46579">
        <ele>65.87935</ele>
        <time>2021-12-04T23:32:07.266Z</time>
      </trkpt>
      <trkpt lat="48.40839" lon="2.46554">
        <ele>66.434132</ele>
        <time>2021-12-04T23:32:23.620Z</time>
      </trkpt>
      <trkpt lat="48.40863" lon="2.46541">
        <ele>66.722575</ele>
        <time>2021-12-04T23:32:32.386Z</time>
      </trkpt>
      <trkpt lat="48.40864" lon="2.46545">
        <ele>66.749221</ele>
        <time>2021-12-04T23:32:33.211Z</time>
      </trkpt>
      <trkpt lat="48.40883" lon="2.46643">
        <ele>67.500554</ele>
        <time>2021-12-04T23:32:53.563Z</time>
      </trkpt>
      <trkpt lat="48.40884" lon="2.46651">
        <ele>67.567258</ele>
        <time>2021-12-04T23:32:55.228Z</time>
      </trkpt>
      <trkpt lat="48.40907" lon="2.46641">
        <ele>67.562504</ele>
        <time>2021-12-04T23:33:01.274Z</time>
      </trkpt>
      <trkpt lat="48.4093" lon="2.46631">
        <ele>67.551012</ele>
        <time>2021-12-04T23:33:07.229Z</time>
      </trkpt>
      <trkpt lat="48.40929" lon="2.46626">
        <ele>67.549316</ele>
        <time>2021-12-04T23:33:08.373Z</time>
      </trkpt>
      <trkpt lat="48.40931" lon="2.46625">
        <ele>67.548239</ele>
        <time>2021-12-04T23:33:09.993Z</time>
      </trkpt>
      <trkpt lat="48.40964" lon="2.46613">
        <ele>67.532524</ele>
        <time>2021-12-04T23:33:22.618Z</time>
      </trkpt>
      <trkpt lat="48.40976" lon="2.4661">
        <ele>67.526382</ele>
        <time>2021-12-04T23:33:27.388Z</time>
      </trkpt>
      <trkpt lat="48.40978" lon="2.46609">
        <ele>67.525703</ele>
        <time>2021-12-04T23:33:27.900Z</time>
      </trkpt>
      <trkpt lat="48.41003" lon="2.46606">
        <ele>67.513567</ele>
        <time>2021-12-04T23:33:37.575Z</time>
      </trkpt>
      <trkpt lat="48.41018" lon="2.46604">
        <ele>67.506561</ele>
        <time>2021-12-04T23:33:43.057Z</time>
      </trkpt>
      <trkpt lat="48.41031" lon="2.46603">
        <ele>67.500702</ele>
        <time>2021-12-04T23:33:47.727Z</time>
      </trkpt>
      <trkpt lat="48.41031" lon="2.46609">
        <ele>67.498788</ele>
        <time>2021-12-04T23:33:48.956Z</time>
      </trkpt>
      <trkpt lat="48.41043" lon="2.46609">
        <ele>67.493169</ele>
        <time>2021-12-04T23:33:51.501Z</time>
      </trkpt>
      <trkpt lat="48.41046" lon="2.46609">
        <ele>67.491706</ele>
        <time>2021-12-04T23:33:52.183Z</time>
      </trkpt>
      <trkpt lat="48.41056" lon="2.46609">
        <ele>67.45626</ele>
        <time>2021-12-04T23:33:54.466Z</time>
      </trkpt>
      <trkpt lat="48.41076" lon="2.46609">
        <ele>67.297496</ele>
        <time>2021-12-04T23:33:58.519Z</time>
      </trkpt>
      <trkpt lat="48.41081" lon="2.46609">
        <ele>67.255104</ele>
        <time>2021-12-04T23:33:59.568Z</time>
      </trkpt>
      <trkpt lat="48.41092" lon="2.46612">
        <ele>67.16228</ele>
        <time>2021-12-04T23:34:01.892Z</time>
      </trkpt>
      <trkpt lat="48.41114" lon="2.46618">
        <ele>66.973984</ele>
        <time>2021-12-04T23:34:06.528Z</time>
      </trkpt>
      <trkpt lat="48.41133" lon="2.46638">
        <ele>66.782887</ele>
        <time>2021-12-04T23:34:11.166Z</time>
      </trkpt>
      <trkpt lat="48.41149" lon="2.46665">
        <ele>66.584838</ele>
        <time>2021-12-04T23:34:15.974Z</time>
      </trkpt>
      <trkpt lat="48.41161" lon="2.46672">
        <ele>66.477402</ele>
        <time>2021-12-04T23:34:18.605Z</time>
      </trkpt>
      <trkpt lat="48.41186" lon="2.46669">
        <ele>66.2613</ele>
        <time>2021-12-04T23:34:23.910Z</time>
      </trkpt>
      <trkpt lat="48.412" lon="2.46654">
        <ele>66.119498</ele>
        <time>2021-12-04T23:34:27.391Z</time>
      </trkpt>
      <trkpt lat="48.41208" lon="2.46637">
        <ele>66.009627</ele>
        <time>2021-12-04T23:34:30.130Z</time>
      </trkpt>
      <trkpt lat="48.41232" lon="2.46608">
        <ele>65.901098</ele>
        <time>2021-12-04T23:34:36.622Z</time>
      </trkpt>
      <trkpt lat="48.41264" lon="2.46598">
        <ele>65.798712</ele>
        <time>2021-12-04T23:34:43.465Z</time>
      </trkpt>
      <trkpt lat="48.41279" lon="2.46594">
        <ele>65.750595</ele>
        <time>2021-12-04T23:34:46.713Z</time>
      </trkpt>
      <trkpt lat="48.41304" lon="2.46589">
        <ele>65.671075</ele>
        <time>2021-12-04T23:34:52.143Z</time>
      </trkpt>
      <trkpt lat="48.41392" lon="2.46571">
        <ele>65.466076</ele>
        <time>2021-12-04T23:35:12.768Z</time>
      </trkpt>
      <trkpt lat="48.41458" lon="2.46562">
        <ele>65.6804</ele>
        <time>2021-12-04T23:35:30.731Z</time>
      </trkpt>
      <trkpt lat="48.41588" lon="2.46546">
        <ele>65.975464</ele>
        <time>2021-12-04T23:36:02.768Z</time>
      </trkpt>
      <trkpt lat="48.41612" lon="2.46537">
        <ele>65.945595</ele>
        <time>2021-12-04T23:36:08.467Z</time>
      </trkpt>
      <trkpt lat="48.41633" lon="2.46523">
        <ele>65.917768</ele>
        <time>2021-12-04T23:36:13.587Z</time>
      </trkpt>
      <trkpt lat="48.417" lon="2.4645">
        <ele>65.816928</ele>
        <time>2021-12-04T23:36:32.292Z</time>
      </trkpt>
      <trkpt lat="48.41743" lon="2.46443">
        <ele>65.765801</ele>
        <time>2021-12-04T23:36:41.313Z</time>
      </trkpt>
      <trkpt lat="48.41755" lon="2.46458">
        <ele>65.747127</ele>
        <time>2021-12-04T23:36:44.567Z</time>
      </trkpt>
      <trkpt lat="48.41759" lon="2.46478">
        <ele>65.730709</ele>
        <time>2021-12-04T23:36:47.608Z</time>
      </trkpt>
      <trkpt lat="48.41762" lon="2.46493">
        <ele>65.718517</ele>
        <time>2021-12-04T23:36:49.923Z</time>
      </trkpt>
      <trkpt lat="48.41781" lon="2.46517">
        <ele>65.689721</ele>
        <time>2021-12-04T23:36:55.404Z</time>
      </trkpt>
      <trkpt lat="48.41793" lon="2.46519">
        <ele>65.675752</ele>
        <time>2021-12-04T23:36:58.149Z</time>
      </trkpt>
      <trkpt lat="48.4181" lon="2.46509">
        <ele>65.654713</ele>
        <time>2021-12-04T23:37:02.303Z</time>
      </trkpt>
      <trkpt lat="48.41816" lon="2.46497">
        <ele>65.642728</ele>
        <time>2021-12-04T23:37:04.718Z</time>
      </trkpt>
      <trkpt lat="48.41836" lon="2.46491">
        <ele>65.619385</ele>
        <time>2021-12-04T23:37:09.599Z</time>
      </trkpt>
      <trkpt lat="48.41867" lon="2.4651">
        <ele>65.581061</ele>
        <time>2021-12-04T23:37:18.064Z</time>
      </trkpt>
      <trkpt lat="48.41904" lon="2.46527">
        <ele>65.575412</ele>
        <time>2021-12-04T23:37:27.778Z</time>
      </trkpt>
      <trkpt lat="48.41973" lon="2.46527">
        <ele>65.565415</ele>
        <time>2021-12-04T23:37:43.900Z</time>
      </trkpt>
      <trkpt lat="48.41991" lon="2.46527">
        <ele>65.562824</ele>
        <time>2021-12-04T23:37:48.252Z</time>
      </trkpt>
      <trkpt lat="48.42019" lon="2.46526">
        <ele>65.55869</ele>
        <time>2021-12-04T23:37:55.090Z</time>
      </trkpt>
      <trkpt lat="48.42261" lon="2.46518">
        <ele>64.051434</ele>
        <time>2021-12-04T23:38:45.773Z</time>
      </trkpt>
      <trkpt lat="48.42266" lon="2.46413">
        <ele>63.371852</ele>
        <time>2021-12-04T23:39:04.779Z</time>
      </trkpt>
      <trkpt lat="48.42155" lon="2.46413">
        <ele>62.669786</ele>
        <time>2021-12-04T23:39:43.625Z</time>
      </trkpt>
      <trkpt lat="48.42099" lon="2.46392">
        <ele>62.674664</ele>
        <time>2021-12-04T23:40:04.811Z</time>
      </trkpt>
      <trkpt lat="48.42155" lon="2.46413">
        <ele>62.679543</ele>
        <time>2021-12-04T23:40:27.566Z</time>
      </trkpt>
      <trkpt lat="48.42266" lon="2.46413">
        <ele>64.312726</ele>
        <time>2021-12-04T23:41:19.139Z</time>
      </trkpt>
      <trkpt lat="48.42261" lon="2.46518">
        <ele>65.685816</ele>
        <time>2021-12-04T23:41:50.081Z</time>
      </trkpt>
      <trkpt lat="48.42319" lon="2.46516">
        <ele>67.205593</ele>
        <time>2021-12-04T23:42:14.205Z</time>
      </trkpt>
      <trkpt lat="48.42678" lon="2.4651">
        <ele>77.690042</ele>
        <time>2021-12-04T23:44:44.545Z</time>
      </trkpt>
      <trkpt lat="48.42683" lon="2.4651">
        <ele>77.775673</ele>
        <time>2021-12-04T23:44:46.578Z</time>
      </trkpt>
      <trkpt lat="48.42686" lon="2.46904">
        <ele>78.886044</ele>
        <time>2021-12-04T23:46:41.759Z</time>
      </trkpt>
      <trkpt lat="48.42716" lon="2.46928">
        <ele>78.586191</ele>
        <time>2021-12-04T23:46:47.561Z</time>
      </trkpt>
      <trkpt lat="48.42829" lon="2.47022">
        <ele>74.018361</ele>
        <time>2021-12-04T23:47:08.340Z</time>
      </trkpt>
      <trkpt lat="48.42931" lon="2.47103">
        <ele>70.036712</ele>
        <time>2021-12-04T23:47:27.351Z</time>
      </trkpt>
      <trkpt lat="48.42984" lon="2.47129">
        <ele>69.043536</ele>
        <time>2021-12-04T23:47:37.932Z</time>
      </trkpt>
      <trkpt lat="48.43072" lon="2.46727">
        <ele>66.839992</ele>
        <time>2021-12-04T23:48:41.280Z</time>
      </trkpt>
      <trkpt lat="48.43235" lon="2.46819">
        <ele>68.05196</ele>
        <time>2021-12-04T23:49:58.226Z</time>
      </trkpt>
      <trkpt lat="48.43276" lon="2.46849">
        <ele>68.068314</ele>
        <time>2021-12-04T23:50:18.098Z</time>
      </trkpt>
      <trkpt lat="48.43724" lon="2.47204">
        <ele>67.877433</ele>
        <time>2021-12-04T23:53:28.635Z</time>
      </trkpt>
      <trkpt lat="48.43753" lon="2.47084">
        <ele>67.655549</ele>
        <time>2021-12-04T23:53:48.867Z</time>
      </trkpt>
      <trkpt lat="48.43766" lon="2.47067">
        <ele>67.610234</ele>
        <time>2021-12-04T23:53:52.899Z</time>
      </trkpt>
      <trkpt lat="48.43775" lon="2.4707">
        <ele>67.585718</ele>
        <time>2021-12-04T23:53:55.061Z</time>
      </trkpt>
      <trkpt lat="48.43784" lon="2.47079">
        <ele>67.557633</ele>
        <time>2021-12-04T23:53:57.545Z</time>
      </trkpt>
      <trkpt lat="48.43836" lon="2.47173">
        <ele>67.382202</ele>
        <time>2021-12-04T23:54:15.749Z</time>
      </trkpt>
      <trkpt lat="48.43909" lon="2.47348">
        <ele>67.15124</ele>
        <time>2021-12-04T23:54:48.252Z</time>
      </trkpt>
      <trkpt lat="48.43924" lon="2.47369">
        <ele>67.297666</ele>
        <time>2021-12-04T23:54:53.933Z</time>
      </trkpt>
      <trkpt lat="48.43933" lon="2.47347">
        <ele>67.424664</ele>
        <time>2021-12-04T23:54:59.704Z</time>
      </trkpt>
      <trkpt lat="48.44003" lon="2.47241">
        <ele>68.142988</ele>
        <time>2021-12-04T23:55:37.677Z</time>
      </trkpt>
      <trkpt lat="48.44089" lon="2.4711">
        <ele>68.231666</ele>
        <time>2021-12-04T23:56:15.272Z</time>
      </trkpt>
      <trkpt lat="48.44159" lon="2.46996">
        <ele>67.949265</ele>
        <time>2021-12-04T23:56:44.450Z</time>
      </trkpt>
      <trkpt lat="48.44309" lon="2.47211">
        <ele>67.535735</ele>
        <time>2021-12-04T23:57:44.271Z</time>
      </trkpt>
      <trkpt lat="48.4433" lon="2.4724">
        <ele>67.854716</ele>
        <time>2021-12-04T23:57:53.887Z</time>
      </trkpt>
      <trkpt lat="48.4462" lon="2.47651">
        <ele>72.344243</ele>
        <time>2021-12-05T00:00:58.505Z</time>
      </trkpt>
      <trkpt lat="48.44638" lon="2.47667">
        <ele>72.582371</ele>
        <time>2021-12-05T00:01:08.052Z</time>
      </trkpt>
      <trkpt lat="48.44673" lon="2.47675">
        <ele>72.980409</ele>
        <time>2021-12-05T00:01:23.667Z</time>
      </trkpt>
      <trkpt lat="48.44661" lon="2.47693">
        <ele>73.173774</ele>
        <time>2021-12-05T00:01:31.049Z</time>
      </trkpt>
      <trkpt lat="48.44778" lon="2.47738">
        <ele>73.594659</ele>
        <time>2021-12-05T00:02:03.580Z</time>
      </trkpt>
      <trkpt lat="48.44862" lon="2.47784">
        <ele>73.677682</ele>
        <time>2021-12-05T00:02:25.102Z</time>
      </trkpt>
      <trkpt lat="48.44898" lon="2.47814">
        <ele>73.473017</ele>
        <time>2021-12-05T00:02:34.641Z</time>
      </trkpt>
      <trkpt lat="48.45022" lon="2.47945">
        <ele>72.497625</ele>
        <time>2021-12-05T00:03:08.236Z</time>
      </trkpt>
      <trkpt lat="48.45106" lon="2.4805">
        <ele>71.275988</ele>
        <time>2021-12-05T00:03:31.294Z</time>
      </trkpt>
      <trkpt lat="48.4517" lon="2.48148">
        <ele>70.47826</ele>
        <time>2021-12-05T00:03:50.195Z</time>
      </trkpt>
      <trkpt lat="48.45176" lon="2.4816">
        <ele>70.407126</ele>
        <time>2021-12-05T00:03:52.263Z</time>
      </trkpt>
      <trkpt lat="48.4523" lon="2.48199">
        <ele>69.975583</ele>
        <time>2021-12-05T00:04:05.799Z</time>
      </trkpt>
      <trkpt lat="48.45295" lon="2.48237">
        <ele>69.556106</ele>
        <time>2021-12-05T00:04:22.322Z</time>
      </trkpt>
      <trkpt lat="48.45275" lon="2.48316">
        <ele>69.448098</ele>
        <time>2021-12-05T00:04:36.692Z</time>
      </trkpt>
      <trkpt lat="48.4528" lon="2.48364">
        <ele>69.386773</ele>
        <time>2021-12-05T00:04:44.772Z</time>
      </trkpt>
      <trkpt lat="48.45298" lon="2.48408">
        <ele>69.319972</ele>
        <time>2021-12-05T00:04:53.390Z</time>
      </trkpt>
      <trkpt lat="48.45352" lon="2.48526">
        <ele>68.24347</ele>
        <time>2021-12-05T00:05:13.854Z</time>
      </trkpt>
      <trkpt lat="48.45391" lon="2.48576">
        <ele>67.270222</ele>
        <time>2021-12-05T00:05:24.013Z</time>
      </trkpt>
      <trkpt lat="48.4543" lon="2.4862">
        <ele>66.334075</ele>
        <time>2021-12-05T00:05:39.729Z</time>
      </trkpt>
      <trkpt lat="48.45551" lon="2.48781">
        <ele>63.203078</ele>
        <time>2021-12-05T00:06:31.117Z</time>
      </trkpt>
      <trkpt lat="48.45568" lon="2.4881">
        <ele>62.692388</ele>
        <time>2021-12-05T00:06:40.115Z</time>
      </trkpt>
      <trkpt lat="48.45605" lon="2.48899">
        <ele>62.875147</ele>
        <time>2021-12-05T00:07:06.365Z</time>
      </trkpt>
      <trkpt lat="48.45624" lon="2.48925">
        <ele>63.160222</ele>
        <time>2021-12-05T00:07:16.530Z</time>
      </trkpt>
      <trkpt lat="48.45675" lon="2.48969">
        <ele>63.80958</ele>
        <time>2021-12-05T00:07:43.387Z</time>
      </trkpt>
      <trkpt lat="48.45694" lon="2.48999">
        <ele>64.114226</ele>
        <time>2021-12-05T00:07:58.622Z</time>
      </trkpt>
      <trkpt lat="48.457" lon="2.49032">
        <ele>64.480502</ele>
        <time>2021-12-05T00:08:11.067Z</time>
      </trkpt>
      <trkpt lat="48.45692" lon="2.49108">
        <ele>66.210433</ele>
        <time>2021-12-05T00:08:40.943Z</time>
      </trkpt>
      <trkpt lat="48.45696" lon="2.49124">
        <ele>66.610389</ele>
        <time>2021-12-05T00:08:47.652Z</time>
      </trkpt>
      <trkpt lat="48.45759" lon="2.49161">
        <ele>68.917877</ele>
        <time>2021-12-05T00:09:29.593Z</time>
      </trkpt>
      <trkpt lat="48.45969" lon="2.49308">
        <ele>75.810904</ele>
        <time>2021-12-05T00:11:40.926Z</time>
      </trkpt>
      <trkpt lat="48.46018" lon="2.49378">
        <ele>76.457002</ele>
        <time>2021-12-05T00:12:12.068Z</time>
      </trkpt>
      <trkpt lat="48.46066" lon="2.49459">
        <ele>77.148026</ele>
        <time>2021-12-05T00:12:41.995Z</time>
      </trkpt>
      <trkpt lat="48.46103" lon="2.49489">
        <ele>77.403173</ele>
        <time>2021-12-05T00:12:58.442Z</time>
      </trkpt>
      <trkpt lat="48.46135" lon="2.49557">
        <ele>76.940529</ele>
        <time>2021-12-05T00:13:18.534Z</time>
      </trkpt>
      <trkpt lat="48.4616" lon="2.49646">
        <ele>76.398299</ele>
        <time>2021-12-05T00:13:41.468Z</time>
      </trkpt>
      <trkpt lat="48.46185" lon="2.4968">
        <ele>76.109108</ele>
        <time>2021-12-05T00:13:53.151Z</time>
      </trkpt>
      <trkpt lat="48.4621" lon="2.49664">
        <ele>75.725278</ele>
        <time>2021-12-05T00:14:02.171Z</time>
      </trkpt>
      <trkpt lat="48.46219" lon="2.49647">
        <ele>75.326648</ele>
        <time>2021-12-05T00:14:06.895Z</time>
      </trkpt>
      <trkpt lat="48.46197" lon="2.49593">
        <ele>74.191497</ele>
        <time>2021-12-05T00:14:20.525Z</time>
      </trkpt>
      <trkpt lat="48.46201" lon="2.49563">
        <ele>73.631755</ele>
        <time>2021-12-05T00:14:27.212Z</time>
      </trkpt>
      <trkpt lat="48.46289" lon="2.49481">
        <ele>70.731041</ele>
        <time>2021-12-05T00:14:59.286Z</time>
      </trkpt>
      <trkpt lat="48.46423" lon="2.4973">
        <ele>62.030502</ele>
        <time>2021-12-05T00:16:02.696Z</time>
      </trkpt>
      <trkpt lat="48.4647" lon="2.49797">
        <ele>59.156753</ele>
        <time>2021-12-05T00:16:21.505Z</time>
      </trkpt>
      <trkpt lat="48.46587" lon="2.49942">
        <ele>54.035482</ele>
        <time>2021-12-05T00:17:06.558Z</time>
      </trkpt>
      <trkpt lat="48.4668" lon="2.50147">
        <ele>51.575989</ele>
        <time>2021-12-05T00:18:03.864Z</time>
      </trkpt>
      <trkpt lat="48.46766" lon="2.50322">
        <ele>51.711367</ele>
        <time>2021-12-05T00:19:04.074Z</time>
      </trkpt>
      <trkpt lat="48.46863" lon="2.50497">
        <ele>52.550746</ele>
        <time>2021-12-05T00:20:07.789Z</time>
      </trkpt>
      <trkpt lat="48.46966" lon="2.50711">
        <ele>52.529195</ele>
        <time>2021-12-05T00:21:14.490Z</time>
      </trkpt>
      <trkpt lat="48.46984" lon="2.50694">
        <ele>52.376935</ele>
        <time>2021-12-05T00:21:22.107Z</time>
      </trkpt>
      <trkpt lat="48.47013" lon="2.50667">
        <ele>52.049252</ele>
        <time>2021-12-05T00:21:34.489Z</time>
      </trkpt>
      <trkpt lat="48.47022" lon="2.5066">
        <ele>51.953797</ele>
        <time>2021-12-05T00:21:36.690Z</time>
      </trkpt>
      <trkpt lat="48.47084" lon="2.50625">
        <ele>51.322744</ele>
        <time>2021-12-05T00:21:50.668Z</time>
      </trkpt>
      <trkpt lat="48.47129" lon="2.50709">
        <ele>50.653218</ele>
        <time>2021-12-05T00:22:05.631Z</time>
      </trkpt>
      <trkpt lat="48.47153" lon="2.5075">
        <ele>50.32609</ele>
        <time>2021-12-05T00:22:13.222Z</time>
      </trkpt>
      <trkpt lat="48.47174" lon="2.5077">
        <ele>50.098276</ele>
        <time>2021-12-05T00:22:18.530Z</time>
      </trkpt>
      <trkpt lat="48.47203" lon="2.50778">
        <ele>49.837316</ele>
        <time>2021-12-05T00:22:24.671Z</time>
      </trkpt>
      <trkpt lat="48.47236" lon="2.50804">
        <ele>49.502307</ele>
        <time>2021-12-05T00:22:32.619Z</time>
      </trkpt>
      <trkpt lat="48.47417" lon="2.50978">
        <ele>49.275334</ele>
        <time>2021-12-05T00:23:24.856Z</time>
      </trkpt>
      <trkpt lat="48.47451" lon="2.51013">
        <ele>49.376003</ele>
        <time>2021-12-05T00:23:36.989Z</time>
      </trkpt>
      <trkpt lat="48.47509" lon="2.50977">
        <ele>49.530641</ele>
        <time>2021-12-05T00:23:52.651Z</time>
      </trkpt>
      <trkpt lat="48.47531" lon="2.50948">
        <ele>49.602177</ele>
        <time>2021-12-05T00:23:59.814Z</time>
      </trkpt>
      <trkpt lat="48.47562" lon="2.50986">
        <ele>49.699464</ele>
        <time>2021-12-05T00:24:09.585Z</time>
      </trkpt>
      <trkpt lat="48.47554" lon="2.51006">
        <ele>49.675445</ele>
        <time>2021-12-05T00:24:13.264Z</time>
      </trkpt>
      <trkpt lat="48.47556" lon="2.51019">
        <ele>49.630498</ele>
        <time>2021-12-05T00:24:15.307Z</time>
      </trkpt>
      <trkpt lat="48.47587" lon="2.51077">
        <ele>49.37653</ele>
        <time>2021-12-05T00:24:33.646Z</time>
      </trkpt>
      <trkpt lat="48.47658" lon="2.51164">
        <ele>48.90961</ele>
        <time>2021-12-05T00:25:05.968Z</time>
      </trkpt>
      <trkpt lat="48.47705" lon="2.51259">
        <ele>48.707221</ele>
        <time>2021-12-05T00:25:34.519Z</time>
      </trkpt>
      <trkpt lat="48.47755" lon="2.51334">
        <ele>48.599788</ele>
        <time>2021-12-05T00:26:01.457Z</time>
      </trkpt>
      <trkpt lat="48.47774" lon="2.51397">
        <ele>48.528299</ele>
        <time>2021-12-05T00:26:19.802Z</time>
      </trkpt>
      <trkpt lat="48.47793" lon="2.5149">
        <ele>48.587673</ele>
        <time>2021-12-05T00:26:44.723Z</time>
      </trkpt>
      <trkpt lat="48.47802" lon="2.5151">
        <ele>48.608099</ele>
        <time>2021-12-05T00:26:48.974Z</time>
      </trkpt>
      <trkpt lat="48.4781" lon="2.51528">
        <ele>48.625912</ele>
        <time>2021-12-05T00:26:54.517Z</time>
      </trkpt>
      <trkpt lat="48.47829" lon="2.51572">
        <ele>48.669726</ele>
        <time>2021-12-05T00:27:03.133Z</time>
      </trkpt>
      <trkpt lat="48.47924" lon="2.51741">
        <ele>48.769628</ele>
        <time>2021-12-05T00:27:59.574Z</time>
      </trkpt>
      <trkpt lat="48.47982" lon="2.51864">
        <ele>48.79002</ele>
        <time>2021-12-05T00:28:37.691Z</time>
      </trkpt>
      <trkpt lat="48.47997" lon="2.51957">
        <ele>48.733553</ele>
        <time>2021-12-05T00:29:01.999Z</time>
      </trkpt>
      <trkpt lat="48.48045" lon="2.52106">
        <ele>48.634538</ele>
        <time>2021-12-05T00:29:43.179Z</time>
      </trkpt>
      <trkpt lat="48.48037" lon="2.52186">
        <ele>48.574453</ele>
        <time>2021-12-05T00:29:56.077Z</time>
      </trkpt>
      <trkpt lat="48.48049" lon="2.52265">
        <ele>48.515263</ele>
        <time>2021-12-05T00:30:08.741Z</time>
      </trkpt>
      <trkpt lat="48.4808" lon="2.52386">
        <ele>48.43469</ele>
        <time>2021-12-05T00:30:41.234Z</time>
      </trkpt>
      <trkpt lat="48.48104" lon="2.52598">
        <ele>48.413979</ele>
        <time>2021-12-05T00:31:35.526Z</time>
      </trkpt>
      <trkpt lat="48.48118" lon="2.52673">
        <ele>48.448155</ele>
        <time>2021-12-05T00:31:55.195Z</time>
      </trkpt>
      <trkpt lat="48.48195" lon="2.5292">
        <ele>49.05173</ele>
        <time>2021-12-05T00:33:05.581Z</time>
      </trkpt>
      <trkpt lat="48.48204" lon="2.5298">
        <ele>49.602084</ele>
        <time>2021-12-05T00:33:23.253Z</time>
      </trkpt>
      <trkpt lat="48.48212" lon="2.53009">
        <ele>49.881174</ele>
        <time>2021-12-05T00:33:32.617Z</time>
      </trkpt>
      <trkpt lat="48.48226" lon="2.53036">
        <ele>50.183285</ele>
        <time>2021-12-05T00:33:43.094Z</time>
      </trkpt>
      <trkpt lat="48.48286" lon="2.53113">
        <ele>51.521191</ele>
        <time>2021-12-05T00:34:22.525Z</time>
      </trkpt>
      <trkpt lat="48.48454" lon="2.52905">
        <ele>58.5169</ele>
        <time>2021-12-05T00:36:31.724Z</time>
      </trkpt>
      <trkpt lat="48.48499" lon="2.52863">
        <ele>60.153316</ele>
        <time>2021-12-05T00:37:02.672Z</time>
      </trkpt>
      <trkpt lat="48.48582" lon="2.52757">
        <ele>62.899556</ele>
        <time>2021-12-05T00:38:01.809Z</time>
      </trkpt>
      <trkpt lat="48.48641" lon="2.52836">
        <ele>63.823918</ele>
        <time>2021-12-05T00:38:39.455Z</time>
      </trkpt>
      <trkpt lat="48.48647" lon="2.52855">
        <ele>63.991902</ele>
        <time>2021-12-05T00:38:45.277Z</time>
      </trkpt>
      <trkpt lat="48.48656" lon="2.52911">
        <ele>64.436527</ele>
        <time>2021-12-05T00:39:00.023Z</time>
      </trkpt>
      <trkpt lat="48.48694" lon="2.5298">
        <ele>64.031324</ele>
        <time>2021-12-05T00:39:21.418Z</time>
      </trkpt>
      <trkpt lat="48.48732" lon="2.53025">
        <ele>63.402665</ele>
        <time>2021-12-05T00:39:38.128Z</time>
      </trkpt>
      <trkpt lat="48.4884" lon="2.5312">
        <ele>61.898918</ele>
        <time>2021-12-05T00:40:19.609Z</time>
      </trkpt>
      <trkpt lat="48.489" lon="2.53171">
        <ele>61.215931</ele>
        <time>2021-12-05T00:40:33.802Z</time>
      </trkpt>
      <trkpt lat="48.48977" lon="2.5327">
        <ele>60.571491</ele>
        <time>2021-12-05T00:41:11.535Z</time>
      </trkpt>
      <trkpt lat="48.49041" lon="2.53374">
        <ele>60.842319</ele>
        <time>2021-12-05T00:41:50.743Z</time>
      </trkpt>
      <trkpt lat="48.49084" lon="2.53462">
        <ele>61.023535</ele>
        <time>2021-12-05T00:42:19.406Z</time>
      </trkpt>
      <trkpt lat="48.49077" lon="2.53538">
        <ele>61.082548</ele>
        <time>2021-12-05T00:42:39.278Z</time>
      </trkpt>
      <trkpt lat="48.49124" lon="2.53661">
        <ele>61.191161</ele>
        <time>2021-12-05T00:43:15.538Z</time>
      </trkpt>
      <trkpt lat="48.49175" lon="2.53777">
        <ele>60.448969</ele>
        <time>2021-12-05T00:43:51.099Z</time>
      </trkpt>
      <trkpt lat="48.49193" lon="2.53802">
        <ele>60.189474</ele>
        <time>2021-12-05T00:43:59.969Z</time>
      </trkpt>
      <trkpt lat="48.49214" lon="2.5385">
        <ele>59.791008</ele>
        <time>2021-12-05T00:44:12.972Z</time>
      </trkpt>
      <trkpt lat="48.49247" lon="2.53906">
        <ele>59.13742</ele>
        <time>2021-12-05T00:44:29.202Z</time>
      </trkpt>
      <trkpt lat="48.49269" lon="2.53933">
        <ele>58.185307</ele>
        <time>2021-12-05T00:44:37.914Z</time>
      </trkpt>
      <trkpt lat="48.49316" lon="2.53972">
        <ele>56.350942</ele>
        <time>2021-12-05T00:44:54.189Z</time>
      </trkpt>
      <trkpt lat="48.49328" lon="2.54101">
        <ele>53.413952</ele>
        <time>2021-12-05T00:45:20.137Z</time>
      </trkpt>
      <trkpt lat="48.49333" lon="2.54202">
        <ele>52.324</ele>
        <time>2021-12-05T00:45:41.110Z</time>
      </trkpt>
      <trkpt lat="48.4934" lon="2.54249">
        <ele>51.869776</ele>
        <time>2021-12-05T00:45:51.783Z</time>
      </trkpt>
      <trkpt lat="48.49351" lon="2.54278">
        <ele>51.550772</ele>
        <time>2021-12-05T00:45:59.720Z</time>
      </trkpt>
      <trkpt lat="48.49374" lon="2.54305">
        <ele>51.127418</ele>
        <time>2021-12-05T00:46:10.739Z</time>
      </trkpt>
      <trkpt lat="48.49381" lon="2.54317">
        <ele>50.982594</ele>
        <time>2021-12-05T00:46:14.591Z</time>
      </trkpt>
      <trkpt lat="48.49399" lon="2.54371">
        <ele>50.682365</ele>
        <time>2021-12-05T00:46:25.846Z</time>
      </trkpt>
      <trkpt lat="48.49407" lon="2.5438">
        <ele>50.723696</ele>
        <time>2021-12-05T00:46:29.104Z</time>
      </trkpt>
      <trkpt lat="48.49556" lon="2.54366">
        <ele>51.314246</ele>
        <time>2021-12-05T00:47:08.005Z</time>
      </trkpt>
      <trkpt lat="48.49607" lon="2.54374">
        <ele>51.480598</ele>
        <time>2021-12-05T00:47:19.210Z</time>
      </trkpt>
      <trkpt lat="48.49733" lon="2.54418">
        <ele>51.880507</ele>
        <time>2021-12-05T00:47:52.434Z</time>
      </trkpt>
      <trkpt lat="48.49747" lon="2.54412">
        <ele>51.96029</ele>
        <time>2021-12-05T00:47:55.665Z</time>
      </trkpt>
      <trkpt lat="48.49811" lon="2.54461">
        <ele>52.427902</ele>
        <time>2021-12-05T00:48:27.045Z</time>
      </trkpt>
      <trkpt lat="48.49813" lon="2.54486">
        <ele>52.537227</ele>
        <time>2021-12-05T00:48:34.894Z</time>
      </trkpt>
      <trkpt lat="48.4987" lon="2.54469">
        <ele>52.916937</ele>
        <time>2021-12-05T00:48:58.250Z</time>
      </trkpt>
      <trkpt lat="48.49868" lon="2.54446">
        <ele>53.018121</ele>
        <time>2021-12-05T00:49:05.504Z</time>
      </trkpt>
      <trkpt lat="48.49918" lon="2.54422">
        <ele>53.044958</ele>
        <time>2021-12-05T00:49:25.946Z</time>
      </trkpt>
      <trkpt lat="48.49948" lon="2.544">
        <ele>53.029385</ele>
        <time>2021-12-05T00:49:38.618Z</time>
      </trkpt>
      <trkpt lat="48.49973" lon="2.5436">
        <ele>53.01243</ele>
        <time>2021-12-05T00:49:51.633Z</time>
      </trkpt>
      <trkpt lat="48.49998" lon="2.54333">
        <ele>52.998426</ele>
        <time>2021-12-05T00:50:02.688Z</time>
      </trkpt>
      <trkpt lat="48.50069" lon="2.5422">
        <ele>53.821382</ele>
        <time>2021-12-05T00:50:43.946Z</time>
      </trkpt>
      <trkpt lat="48.50107" lon="2.54177">
        <ele>54.404962</ele>
        <time>2021-12-05T00:51:06.265Z</time>
      </trkpt>
      <trkpt lat="48.50209" lon="2.54132">
        <ele>56.003341</ele>
        <time>2021-12-05T00:52:00.694Z</time>
      </trkpt>
      <trkpt lat="48.50237" lon="2.54126">
        <ele>56.529477</ele>
        <time>2021-12-05T00:52:14.898Z</time>
      </trkpt>
      <trkpt lat="48.50301" lon="2.54135">
        <ele>57.749841</ele>
        <time>2021-12-05T00:52:46.892Z</time>
      </trkpt>
      <trkpt lat="48.5037" lon="2.5415">
        <ele>58.848892</ele>
        <time>2021-12-05T00:53:20.391Z</time>
      </trkpt>
      <trkpt lat="48.50964" lon="2.54629">
        <ele>64.652747</ele>
        <time>2021-12-05T00:58:14.552Z</time>
      </trkpt>
      <trkpt lat="48.51036" lon="2.54653">
        <ele>64.018576</ele>
        <time>2021-12-05T00:58:40.147Z</time>
      </trkpt>
      <trkpt lat="48.51069" lon="2.54654">
        <ele>63.55239</ele>
        <time>2021-12-05T00:58:51.386Z</time>
      </trkpt>
      <trkpt lat="48.51078" lon="2.54656">
        <ele>63.425127</ele>
        <time>2021-12-05T00:58:54.389Z</time>
      </trkpt>
      <trkpt lat="48.51094" lon="2.54658">
        <ele>63.21019</ele>
        <time>2021-12-05T00:58:59.409Z</time>
      </trkpt>
      <trkpt lat="48.51121" lon="2.54685">
        <ele>62.744025</ele>
        <time>2021-12-05T00:59:10.393Z</time>
      </trkpt>
      <trkpt lat="48.51128" lon="2.54705">
        <ele>62.538358</ele>
        <time>2021-12-05T00:59:15.297Z</time>
      </trkpt>
      <trkpt lat="48.5115" lon="2.54726">
        <ele>62.188621</ele>
        <time>2021-12-05T00:59:23.777Z</time>
      </trkpt>
      <trkpt lat="48.51212" lon="2.54829">
        <ele>61.297028</ele>
        <time>2021-12-05T00:59:55.326Z</time>
      </trkpt>
      <trkpt lat="48.51245" lon="2.54897">
        <ele>60.758697</ele>
        <time>2021-12-05T01:00:15.818Z</time>
      </trkpt>
      <trkpt lat="48.51276" lon="2.54979">
        <ele>60.615572</ele>
        <time>2021-12-05T01:00:39.048Z</time>
      </trkpt>
      <trkpt lat="48.51316" lon="2.55037">
        <ele>60.812425</ele>
        <time>2021-12-05T01:01:00.260Z</time>
      </trkpt>
      <trkpt lat="48.51328" lon="2.55074">
        <ele>60.910665</ele>
        <time>2021-12-05T01:01:11.838Z</time>
      </trkpt>
      <trkpt lat="48.51349" lon="2.55108">
        <ele>61.020277</ele>
        <time>2021-12-05T01:01:25.253Z</time>
      </trkpt>
      <trkpt lat="48.51377" lon="2.55174">
        <ele>61.126075</ele>
        <time>2021-12-05T01:01:48.227Z</time>
      </trkpt>
      <trkpt lat="48.51403" lon="2.55205">
        <ele>61.116157</ele>
        <time>2021-12-05T01:02:02.487Z</time>
      </trkpt>
      <trkpt lat="48.51413" lon="2.55232">
        <ele>61.109855</ele>
        <time>2021-12-05T01:02:11.784Z</time>
      </trkpt>
      <trkpt lat="48.51457" lon="2.55307">
        <ele>61.089565</ele>
        <time>2021-12-05T01:02:37.132Z</time>
      </trkpt>
      <trkpt lat="48.5148" lon="2.55331">
        <ele>61.0812</ele>
        <time>2021-12-05T01:02:46.838Z</time>
      </trkpt>
      <trkpt lat="48.5153" lon="2.55352">
        <ele>59.750086</ele>
        <time>2021-12-05T01:03:04.151Z</time>
      </trkpt>
      <trkpt lat="48.51573" lon="2.55346">
        <ele>58.34385</ele>
        <time>2021-12-05T01:03:17.195Z</time>
      </trkpt>
      <trkpt lat="48.51612" lon="2.55352">
        <ele>57.039512</ele>
        <time>2021-12-05T01:03:29.169Z</time>
      </trkpt>
      <trkpt lat="48.51679" lon="2.55341">
        <ele>54.833317</ele>
        <time>2021-12-05T01:03:49.185Z</time>
      </trkpt>
      <trkpt lat="48.51693" lon="2.5533">
        <ele>54.285105</ele>
        <time>2021-12-05T01:03:53.855Z</time>
      </trkpt>
      <trkpt lat="48.51734" lon="2.55326">
        <ele>52.92586</ele>
        <time>2021-12-05T01:04:05.917Z</time>
      </trkpt>
      <trkpt lat="48.51803" lon="2.5534">
        <ele>50.594756</ele>
        <time>2021-12-05T01:04:27.196Z</time>
      </trkpt>
      <trkpt lat="48.51825" lon="2.55328">
        <ele>49.813559</ele>
        <time>2021-12-05T01:04:34.369Z</time>
      </trkpt>
      <trkpt lat="48.51923" lon="2.55437">
        <ele>48.097301</ele>
        <time>2021-12-05T01:04:58.160Z</time>
      </trkpt>
      <trkpt lat="48.51948" lon="2.55404">
        <ele>47.756913</ele>
        <time>2021-12-05T01:05:04.973Z</time>
      </trkpt>
      <trkpt lat="48.51958" lon="2.55392">
        <ele>47.626748</ele>
        <time>2021-12-05T01:05:07.836Z</time>
      </trkpt>
      <trkpt lat="48.51963" lon="2.55387">
        <ele>47.56623</ele>
        <time>2021-12-05T01:05:09.163Z</time>
      </trkpt>
      <trkpt lat="48.51988" lon="2.55426">
        <ele>47.393073</ele>
        <time>2021-12-05T01:05:18.438Z</time>
      </trkpt>
      <trkpt lat="48.51997" lon="2.55399">
        <ele>47.566723</ele>
        <time>2021-12-05T01:05:27.160Z</time>
      </trkpt>
      <trkpt lat="48.51997" lon="2.55372">
        <ele>47.718341</ele>
        <time>2021-12-05T01:05:34.121Z</time>
      </trkpt>
      <trkpt lat="48.52022" lon="2.55348">
        <ele>47.97188</ele>
        <time>2021-12-05T01:05:46.496Z</time>
      </trkpt>
      <trkpt lat="48.52028" lon="2.55373">
        <ele>48.122797</ele>
        <time>2021-12-05T01:05:51.014Z</time>
      </trkpt>
      <trkpt lat="48.52115" lon="2.55367">
        <ele>48.843429</ele>
        <time>2021-12-05T01:06:19.585Z</time>
      </trkpt>
      <trkpt lat="48.52139" lon="2.55364">
        <ele>48.802673</ele>
        <time>2021-12-05T01:06:30.888Z</time>
      </trkpt>
      <trkpt lat="48.52141" lon="2.55374">
        <ele>48.791585</ele>
        <time>2021-12-05T01:06:32.747Z</time>
      </trkpt>
      <trkpt lat="48.52148" lon="2.55361">
        <ele>48.771959</ele>
        <time>2021-12-05T01:06:37.681Z</time>
      </trkpt>
      <trkpt lat="48.5217" lon="2.55321">
        <ele>48.714591</ele>
        <time>2021-12-05T01:06:45.515Z</time>
      </trkpt>
      <trkpt lat="48.52224" lon="2.5523">
        <ele>48.578294</ele>
        <time>2021-12-05T01:07:02.731Z</time>
      </trkpt>
      <trkpt lat="48.52233" lon="2.55226">
        <ele>48.56207</ele>
        <time>2021-12-05T01:07:04.652Z</time>
      </trkpt>
      <trkpt lat="48.52284" lon="2.55256">
        <ele>47.736703</ele>
        <time>2021-12-05T01:07:14.716Z</time>
      </trkpt>
      <trkpt lat="48.52314" lon="2.55207">
        <ele>46.92818</ele>
        <time>2021-12-05T01:07:22.951Z</time>
      </trkpt>
      <trkpt lat="48.52338" lon="2.55204">
        <ele>46.481749</ele>
        <time>2021-12-05T01:07:27.348Z</time>
      </trkpt>
      <trkpt lat="48.52351" lon="2.55202">
        <ele>46.24623</ele>
        <time>2021-12-05T01:07:29.767Z</time>
      </trkpt>
      <trkpt lat="48.52374" lon="2.55191">
        <ele>45.804707</ele>
        <time>2021-12-05T01:07:34.105Z</time>
      </trkpt>
      <trkpt lat="48.52401" lon="2.55159">
        <ele>45.237591</ele>
        <time>2021-12-05T01:07:40.563Z</time>
      </trkpt>
      <trkpt lat="48.52454" lon="2.55096">
        <ele>45.002392</ele>
        <time>2021-12-05T01:07:54.278Z</time>
      </trkpt>
      <trkpt lat="48.52514" lon="2.55059">
        <ele>44.776497</ele>
        <time>2021-12-05T01:08:08.970Z</time>
      </trkpt>
      <trkpt lat="48.52568" lon="2.55037">
        <ele>44.691415</ele>
        <time>2021-12-05T01:08:24.397Z</time>
      </trkpt>
      <trkpt lat="48.52628" lon="2.55021">
        <ele>45.003438</ele>
        <time>2021-12-05T01:08:42.666Z</time>
      </trkpt>
      <trkpt lat="48.52791" lon="2.54982">
        <ele>45.318799</ele>
        <time>2021-12-05T01:09:22.922Z</time>
      </trkpt>
      <trkpt lat="48.528" lon="2.54988">
        <ele>45.281424</ele>
        <time>2021-12-05T01:09:25.153Z</time>
      </trkpt>
      <trkpt lat="48.52823" lon="2.54926">
        <ele>45.10204</ele>
        <time>2021-12-05T01:09:35.212Z</time>
      </trkpt>
      <trkpt lat="48.52834" lon="2.54895">
        <ele>45.012572</ele>
        <time>2021-12-05T01:09:40.020Z</time>
      </trkpt>
      <trkpt lat="48.52876" lon="2.54782">
        <ele>44.723089</ele>
        <time>2021-12-05T01:09:57.748Z</time>
      </trkpt>
      <trkpt lat="48.52889" lon="2.54792">
        <ele>44.682002</ele>
        <time>2021-12-05T01:10:00.425Z</time>
      </trkpt>
      <trkpt lat="48.52911" lon="2.54792">
        <ele>44.61481</ele>
        <time>2021-12-05T01:10:05.048Z</time>
      </trkpt>
      <trkpt lat="48.5292" lon="2.54829">
        <ele>44.537763</ele>
        <time>2021-12-05T01:10:10.485Z</time>
      </trkpt>
      <trkpt lat="48.53007" lon="2.54825">
        <ele>44.432925</ele>
        <time>2021-12-05T01:10:31.850Z</time>
      </trkpt>
      <trkpt lat="48.53017" lon="2.54867">
        <ele>44.659071</ele>
        <time>2021-12-05T01:10:40.386Z</time>
      </trkpt>
      <trkpt lat="48.53021" lon="2.54891">
        <ele>44.78375</ele>
        <time>2021-12-05T01:10:45.770Z</time>
      </trkpt>
      <trkpt lat="48.5303" lon="2.54909">
        <ele>44.897867</ele>
        <time>2021-12-05T01:10:49.743Z</time>
      </trkpt>
      <trkpt lat="48.53077" lon="2.54958">
        <ele>45.330427</ele>
        <time>2021-12-05T01:11:06.623Z</time>
      </trkpt>
      <trkpt lat="48.53091" lon="2.54972">
        <ele>45.457305</ele>
        <time>2021-12-05T01:11:10.776Z</time>
      </trkpt>
      <trkpt lat="48.53086" lon="2.54985">
        <ele>45.533591</ele>
        <time>2021-12-05T01:11:13.512Z</time>
      </trkpt>
      <trkpt lat="48.53083" lon="2.54998">
        <ele>45.605682</ele>
        <time>2021-12-05T01:11:16.581Z</time>
      </trkpt>
      <trkpt lat="48.53086" lon="2.55009">
        <ele>45.667427</ele>
        <time>2021-12-05T01:11:18.730Z</time>
      </trkpt>
      <trkpt lat="48.53111" lon="2.55041">
        <ele>45.643308</ele>
        <time>2021-12-05T01:11:28.473Z</time>
      </trkpt>
      <trkpt lat="48.53134" lon="2.55056">
        <ele>45.600722</ele>
        <time>2021-12-05T01:11:35.232Z</time>
      </trkpt>
      <trkpt lat="48.53161" lon="2.55048">
        <ele>45.553486</ele>
        <time>2021-12-05T01:11:42.676Z</time>
      </trkpt>
      <trkpt lat="48.532" lon="2.55051">
        <ele>45.486022</ele>
        <time>2021-12-05T01:11:52.428Z</time>
      </trkpt>
      <trkpt lat="48.53279" lon="2.55035">
        <ele>45.129291</ele>
        <time>2021-12-05T01:12:10.605Z</time>
      </trkpt>
      <trkpt lat="48.53298" lon="2.55025">
        <ele>44.875548</ele>
        <time>2021-12-05T01:12:15.360Z</time>
      </trkpt>
      <trkpt lat="48.53329" lon="2.54988">
        <ele>44.395019</ele>
        <time>2021-12-05T01:12:24.222Z</time>
      </trkpt>
      <trkpt lat="48.53333" lon="2.5499">
        <ele>44.34537</ele>
        <time>2021-12-05T01:12:25.001Z</time>
      </trkpt>
      <trkpt lat="48.53327" lon="2.5501">
        <ele>44.168454</ele>
        <time>2021-12-05T01:12:28.165Z</time>
      </trkpt>
      <trkpt lat="48.5335" lon="2.54992">
        <ele>43.850626</ele>
        <time>2021-12-05T01:12:33.130Z</time>
      </trkpt>
      <trkpt lat="48.53356" lon="2.54993">
        <ele>43.771593</ele>
        <time>2021-12-05T01:12:34.500Z</time>
      </trkpt>
      <trkpt lat="48.5338" lon="2.55001">
        <ele>43.475173</ele>
        <time>2021-12-05T01:12:39.095Z</time>
      </trkpt>
      <trkpt lat="48.53471" lon="2.55014">
        <ele>42.323424</ele>
        <time>2021-12-05T01:12:56.979Z</time>
      </trkpt>
      <trkpt lat="48.53523" lon="2.55002">
        <ele>41.65933</ele>
        <time>2021-12-05T01:13:07.181Z</time>
      </trkpt>
      <trkpt lat="48.53631" lon="2.54932">
        <ele>40.831485</ele>
        <time>2021-12-05T01:13:30.787Z</time>
      </trkpt>
      <trkpt lat="48.53659" lon="2.54885">
        <ele>40.779001</ele>
        <time>2021-12-05T01:13:39.773Z</time>
      </trkpt>
      <trkpt lat="48.53665" lon="2.54838">
        <ele>40.739258</ele>
        <time>2021-12-05T01:13:47.380Z</time>
      </trkpt>
      <trkpt lat="48.53663" lon="2.54769">
        <ele>40.682111</ele>
        <time>2021-12-05T01:13:59.286Z</time>
      </trkpt>
      <trkpt lat="48.53677" lon="2.54753">
        <ele>41.064443</ele>
        <time>2021-12-05T01:14:04.368Z</time>
      </trkpt>
      <trkpt lat="48.53677" lon="2.54744">
        <ele>41.240884</ele>
        <time>2021-12-05T01:14:06.351Z</time>
      </trkpt>
      <trkpt lat="48.53691" lon="2.54755">
        <ele>41.691807</ele>
        <time>2021-12-05T01:14:13.263Z</time>
      </trkpt>
      <trkpt lat="48.53804" lon="2.54811">
        <ele>45.083373</ele>
        <time>2021-12-05T01:15:20.923Z</time>
      </trkpt>
      <trkpt lat="48.53833" lon="2.54826">
        <ele>46.088748</ele>
        <time>2021-12-05T01:15:35.600Z</time>
      </trkpt>
      <trkpt lat="48.53901" lon="2.54858">
        <ele>49.951991</ele>
        <time>2021-12-05T01:16:12.833Z</time>
      </trkpt>
      <trkpt lat="48.53914" lon="2.54864">
        <ele>50.69111</ele>
        <time>2021-12-05T01:16:22.137Z</time>
      </trkpt>
      <trkpt lat="48.53923" lon="2.5483">
        <ele>51.986596</ele>
        <time>2021-12-05T01:16:34.218Z</time>
      </trkpt>
      <trkpt lat="48.5393" lon="2.54821">
        <ele>52.498972</ele>
        <time>2021-12-05T01:16:41.018Z</time>
      </trkpt>
      <trkpt lat="48.53935" lon="2.54827">
        <ele>52.859263</ele>
        <time>2021-12-05T01:16:44.980Z</time>
      </trkpt>
      <trkpt lat="48.53937" lon="2.54854">
        <ele>53.845463</ele>
        <time>2021-12-05T01:16:54.678Z</time>
      </trkpt>
      <trkpt lat="48.53944" lon="2.54857">
        <ele>54.241063</ele>
        <time>2021-12-05T01:17:00.089Z</time>
      </trkpt>
      <trkpt lat="48.53956" lon="2.54833">
        <ele>55.327504</ele>
        <time>2021-12-05T01:17:12.446Z</time>
      </trkpt>
      <trkpt lat="48.53964" lon="2.54835">
        <ele>55.75874</ele>
        <time>2021-12-05T01:17:17.061Z</time>
      </trkpt>
      <trkpt lat="48.53972" lon="2.54866">
        <ele>56.911633</ele>
        <time>2021-12-05T01:17:31.852Z</time>
      </trkpt>
      <trkpt lat="48.54104" lon="2.54953">
        <ele>64.430527</ele>
        <time>2021-12-05T01:18:48.848Z</time>
      </trkpt>
      <trkpt lat="48.54102" lon="2.54965">
        <ele>64.868148</ele>
        <time>2021-12-05T01:18:53.041Z</time>
      </trkpt>
      <trkpt lat="48.54102" lon="2.54978">
        <ele>65.17856</ele>
        <time>2021-12-05T01:18:57.456Z</time>
      </trkpt>
      <trkpt lat="48.54111" lon="2.54985">
        <ele>65.485494</ele>
        <time>2021-12-05T01:19:02.597Z</time>
      </trkpt>
      <trkpt lat="48.54126" lon="2.54991">
        <ele>65.947525</ele>
        <time>2021-12-05T01:19:09.988Z</time>
      </trkpt>
      <trkpt lat="48.54257" lon="2.55107">
        <ele>70.495439</ele>
        <time>2021-12-05T01:20:10.096Z</time>
      </trkpt>
      <trkpt lat="48.54274" lon="2.5513">
        <ele>70.751127</ele>
        <time>2021-12-05T01:20:17.409Z</time>
      </trkpt>
      <trkpt lat="48.54319" lon="2.55123">
        <ele>71.256547</ele>
        <time>2021-12-05T01:20:31.628Z</time>
      </trkpt>
      <trkpt lat="48.5444" lon="2.55083">
        <ele>72.442861</ele>
        <time>2021-12-05T01:21:05.896Z</time>
      </trkpt>
      <trkpt lat="48.54697" lon="2.54984">
        <ele>70.74944</ele>
        <time>2021-12-05T01:22:03.299Z</time>
      </trkpt>
      <trkpt lat="48.55206" lon="2.54792">
        <ele>59.180999</ele>
        <time>2021-12-05T01:23:38.229Z</time>
      </trkpt>
      <trkpt lat="48.55222" lon="2.54791">
        <ele>58.781491</ele>
        <time>2021-12-05T01:23:41.284Z</time>
      </trkpt>
      <trkpt lat="48.55232" lon="2.54799">
        <ele>58.526778</ele>
        <time>2021-12-05T01:23:43.100Z</time>
      </trkpt>
      <trkpt lat="48.55248" lon="2.54826">
        <ele>57.945785</ele>
        <time>2021-12-05T01:23:47.569Z</time>
      </trkpt>
      <trkpt lat="48.55258" lon="2.54824">
        <ele>57.702814</ele>
        <time>2021-12-05T01:23:49.316Z</time>
      </trkpt>
      <trkpt lat="48.55268" lon="2.54823">
        <ele>57.467915</ele>
        <time>2021-12-05T01:23:56.177Z</time>
      </trkpt>
      <trkpt lat="48.55271" lon="2.54806">
        <ele>57.186235</ele>
        <time>2021-12-05T01:23:58.347Z</time>
      </trkpt>
      <trkpt lat="48.55277" lon="2.54777">
        <ele>56.74491</ele>
        <time>2021-12-05T01:24:01.939Z</time>
      </trkpt>
      <trkpt lat="48.55295" lon="2.54763">
        <ele>56.35408</ele>
        <time>2021-12-05T01:24:05.656Z</time>
      </trkpt>
      <trkpt lat="48.5531" lon="2.54761">
        <ele>56.052517</ele>
        <time>2021-12-05T01:24:08.382Z</time>
      </trkpt>
      <trkpt lat="48.55448" lon="2.54768">
        <ele>53.357858</ele>
        <time>2021-12-05T01:24:34.328Z</time>
      </trkpt>
      <trkpt lat="48.55535" lon="2.54809">
        <ele>52.186548</ele>
        <time>2021-12-05T01:24:52.318Z</time>
      </trkpt>
      <trkpt lat="48.55548" lon="2.54735">
        <ele>51.533338</ele>
        <time>2021-12-05T01:25:02.859Z</time>
      </trkpt>
      <trkpt lat="48.55609" lon="2.54747">
        <ele>50.743355</ele>
        <time>2021-12-05T01:25:15.002Z</time>
      </trkpt>
      <trkpt lat="48.55802" lon="2.54788">
        <ele>48.252217</ele>
        <time>2021-12-05T01:25:53.233Z</time>
      </trkpt>
      <trkpt lat="48.55874" lon="2.54802">
        <ele>47.377099</ele>
        <time>2021-12-05T01:26:07.542Z</time>
      </trkpt>
      <trkpt lat="48.55939" lon="2.54815">
        <ele>46.593957</ele>
        <time>2021-12-05T01:26:20.556Z</time>
      </trkpt>
      <trkpt lat="48.55942" lon="2.54816">
        <ele>46.571056</ele>
        <time>2021-12-05T01:26:21.196Z</time>
      </trkpt>
      <trkpt lat="48.55951" lon="2.54818">
        <ele>46.529106</ele>
        <time>2021-12-05T01:26:23.126Z</time>
      </trkpt>
      <trkpt lat="48.56045" lon="2.54836">
        <ele>46.087803</ele>
        <time>2021-12-05T01:26:43.666Z</time>
      </trkpt>
      <trkpt lat="48.56072" lon="2.54842">
        <ele>45.962753</ele>
        <time>2021-12-05T01:26:49.521Z</time>
      </trkpt>
      <trkpt lat="48.56135" lon="2.54854">
        <ele>45.798577</ele>
        <time>2021-12-05T01:27:03.452Z</time>
      </trkpt>
      <trkpt lat="48.56236" lon="2.54874">
        <ele>46.108712</ele>
        <time>2021-12-05T01:27:28.799Z</time>
      </trkpt>
      <trkpt lat="48.56706" lon="2.54966">
        <ele>48.960038</ele>
        <time>2021-12-05T01:29:35.938Z</time>
      </trkpt>
      <trkpt lat="48.56744" lon="2.54972">
        <ele>49.239012</ele>
        <time>2021-12-05T01:29:46.162Z</time>
      </trkpt>
      <trkpt lat="48.56872" lon="2.54892">
        <ele>50.879374</ele>
        <time>2021-12-05T01:30:24.015Z</time>
      </trkpt>
      <trkpt lat="48.56938" lon="2.5484">
        <ele>52.348547</ele>
        <time>2021-12-05T01:30:49.346Z</time>
      </trkpt>
      <trkpt lat="48.57125" lon="2.54731">
        <ele>58.903405</ele>
        <time>2021-12-05T01:32:29.265Z</time>
      </trkpt>
      <trkpt lat="48.57167" lon="2.54701">
        <ele>60.918196</ele>
        <time>2021-12-05T01:32:57.634Z</time>
      </trkpt>
      <trkpt lat="48.5719" lon="2.54682">
        <ele>62.528774</ele>
        <time>2021-12-05T01:33:16.643Z</time>
      </trkpt>
      <trkpt lat="48.57438" lon="2.54478">
        <ele>78.770655</ele>
        <time>2021-12-05T01:36:54.533Z</time>
      </trkpt>
      <trkpt lat="48.57506" lon="2.54397">
        <ele>81.14387</ele>
        <time>2021-12-05T01:37:29.074Z</time>
      </trkpt>
      <trkpt lat="48.57581" lon="2.53898">
        <ele>81.392589</ele>
        <time>2021-12-05T01:38:44.844Z</time>
      </trkpt>
      <trkpt lat="48.58145" lon="2.53817">
        <ele>90.926823</ele>
        <time>2021-12-05T01:43:27.800Z</time>
      </trkpt>
      <trkpt lat="48.58471" lon="2.53814">
        <ele>92.282838</ele>
        <time>2021-12-05T01:45:37.518Z</time>
      </trkpt>
      <trkpt lat="48.58493" lon="2.53806">
        <ele>92.193146</ele>
        <time>2021-12-05T01:45:45.820Z</time>
      </trkpt>
      <trkpt lat="48.5852" lon="2.53824">
        <ele>92.07422</ele>
        <time>2021-12-05T01:45:56.830Z</time>
      </trkpt>
      <trkpt lat="48.58522" lon="2.53831">
        <ele>92.054223</ele>
        <time>2021-12-05T01:45:58.024Z</time>
      </trkpt>
      <trkpt lat="48.58533" lon="2.53838">
        <ele>92.008227</ele>
        <time>2021-12-05T01:46:00.776Z</time>
      </trkpt>
      <trkpt lat="48.58541" lon="2.53833">
        <ele>91.97592</ele>
        <time>2021-12-05T01:46:02.603Z</time>
      </trkpt>
      <trkpt lat="48.58545" lon="2.53823">
        <ele>91.942892</ele>
        <time>2021-12-05T01:46:04.459Z</time>
      </trkpt>
      <trkpt lat="48.58544" lon="2.5381">
        <ele>91.909616</ele>
        <time>2021-12-05T01:46:06.394Z</time>
      </trkpt>
      <trkpt lat="48.58823" lon="2.53568">
        <ele>89.766251</ele>
        <time>2021-12-05T01:47:17.906Z</time>
      </trkpt>
      <trkpt lat="48.58912" lon="2.53491">
        <ele>88.887329</ele>
        <time>2021-12-05T01:47:39.715Z</time>
      </trkpt>
      <trkpt lat="48.58918" lon="2.53485">
        <ele>88.861706</ele>
        <time>2021-12-05T01:47:41.398Z</time>
      </trkpt>
      <trkpt lat="48.58937" lon="2.53468">
        <ele>88.836489</ele>
        <time>2021-12-05T01:47:46.273Z</time>
      </trkpt>
      <trkpt lat="48.58945" lon="2.53462">
        <ele>88.826472</ele>
        <time>2021-12-05T01:47:48.191Z</time>
      </trkpt>
      <trkpt lat="48.58955" lon="2.53453">
        <ele>88.812677</ele>
        <time>2021-12-05T01:47:50.758Z</time>
      </trkpt>
      <trkpt lat="48.59023" lon="2.53394">
        <ele>88.722666</ele>
        <time>2021-12-05T01:48:08.991Z</time>
      </trkpt>
      <trkpt lat="48.59029" lon="2.53389">
        <ele>88.714306</ele>
        <time>2021-12-05T01:48:10.977Z</time>
      </trkpt>
      <trkpt lat="48.59367" lon="2.53097">
        <ele>91.059376</ele>
        <time>2021-12-05T01:50:02.521Z</time>
      </trkpt>
      <trkpt lat="48.59379" lon="2.53085">
        <ele>91.158313</ele>
        <time>2021-12-05T01:50:08.610Z</time>
      </trkpt>
      <trkpt lat="48.59392" lon="2.53085">
        <ele>91.226875</ele>
        <time>2021-12-05T01:50:13.795Z</time>
      </trkpt>
      <trkpt lat="48.59634" lon="2.53064">
        <ele>91.815586</ele>
        <time>2021-12-05T01:51:22.563Z</time>
      </trkpt>
      <trkpt lat="48.59637" lon="2.53061">
        <ele>91.803565</ele>
        <time>2021-12-05T01:51:23.462Z</time>
      </trkpt>
      <trkpt lat="48.59645" lon="2.53054">
        <ele>91.771586</ele>
        <time>2021-12-05T01:51:25.790Z</time>
      </trkpt>
      <trkpt lat="48.60188" lon="2.53008">
        <ele>89.640263</ele>
        <time>2021-12-05T01:53:36.116Z</time>
      </trkpt>
      <trkpt lat="48.60756" lon="2.52962">
        <ele>88.323916</ele>
        <time>2021-12-05T01:55:57.942Z</time>
      </trkpt>
      <trkpt lat="48.60761" lon="2.52961">
        <ele>88.318268</ele>
        <time>2021-12-05T01:55:59.324Z</time>
      </trkpt>
      <trkpt lat="48.60981" lon="2.52942">
        <ele>88.296162</ele>
        <time>2021-12-05T01:56:56.965Z</time>
      </trkpt>
      <trkpt lat="48.60989" lon="2.52971">
        <ele>88.281526</ele>
        <time>2021-12-05T01:57:02.202Z</time>
      </trkpt>
      <trkpt lat="48.61267" lon="2.52948">
        <ele>87.140827</ele>
        <time>2021-12-05T01:58:09.879Z</time>
      </trkpt>
      <trkpt lat="48.61274" lon="2.52948">
        <ele>87.108131</ele>
        <time>2021-12-05T01:58:11.479Z</time>
      </trkpt>
      <trkpt lat="48.61281" lon="2.52947">
        <ele>87.071935</ele>
        <time>2021-12-05T01:58:14.182Z</time>
      </trkpt>
      <trkpt lat="48.61294" lon="2.52945">
        <ele>87.007757</ele>
        <time>2021-12-05T01:58:17.356Z</time>
      </trkpt>
      <trkpt lat="48.61304" lon="2.52945">
        <ele>86.959933</ele>
        <time>2021-12-05T01:58:19.725Z</time>
      </trkpt>
      <trkpt lat="48.61313" lon="2.52944">
        <ele>86.913528</ele>
        <time>2021-12-05T01:58:22.003Z</time>
      </trkpt>
      <trkpt lat="48.61328" lon="2.52943">
        <ele>86.843146</ele>
        <time>2021-12-05T01:58:25.471Z</time>
      </trkpt>
      <trkpt lat="48.61337" lon="2.52942">
        <ele>86.799647</ele>
        <time>2021-12-05T01:58:28.736Z</time>
      </trkpt>
      <trkpt lat="48.61616" lon="2.52919">
        <ele>85.252754</ele>
        <time>2021-12-05T01:59:35.288Z</time>
      </trkpt>
      <trkpt lat="48.61678" lon="2.52913">
        <ele>84.927411</ele>
        <time>2021-12-05T01:59:50.322Z</time>
      </trkpt>
      <trkpt lat="48.61686" lon="2.52914">
        <ele>84.889173</ele>
        <time>2021-12-05T01:59:52.071Z</time>
      </trkpt>
      <trkpt lat="48.61946" lon="2.52892">
        <ele>84.314649</ele>
        <time>2021-12-05T02:00:56.953Z</time>
      </trkpt>
      <trkpt lat="48.61952" lon="2.52891">
        <ele>84.311158</ele>
        <time>2021-12-05T02:00:58.529Z</time>
      </trkpt>
      <trkpt lat="48.61963" lon="2.5289">
        <ele>84.304712</ele>
        <time>2021-12-05T02:01:02.794Z</time>
      </trkpt>
      <trkpt lat="48.61969" lon="2.5289">
        <ele>84.300983</ele>
        <time>2021-12-05T02:01:04.286Z</time>
      </trkpt>
      <trkpt lat="48.61989" lon="2.52888">
        <ele>84.289152</ele>
        <time>2021-12-05T02:01:08.967Z</time>
      </trkpt>
      <trkpt lat="48.61998" lon="2.52887">
        <ele>84.283828</ele>
        <time>2021-12-05T02:01:11.124Z</time>
      </trkpt>
      <trkpt lat="48.62006" lon="2.52887">
        <ele>84.278976</ele>
        <time>2021-12-05T02:01:14.345Z</time>
      </trkpt>
      <trkpt lat="48.62381" lon="2.52856">
        <ele>84.471015</ele>
        <time>2021-12-05T02:02:52.449Z</time>
      </trkpt>
      <trkpt lat="48.62389" lon="2.52855">
        <ele>84.475887</ele>
        <time>2021-12-05T02:02:55.585Z</time>
      </trkpt>
      <trkpt lat="48.62395" lon="2.52855">
        <ele>84.478978</ele>
        <time>2021-12-05T02:02:56.805Z</time>
      </trkpt>
      <trkpt lat="48.624" lon="2.52854">
        <ele>84.482426</ele>
        <time>2021-12-05T02:02:58.157Z</time>
      </trkpt>
      <trkpt lat="48.62409" lon="2.52853">
        <ele>84.487239</ele>
        <time>2021-12-05T02:03:01.264Z</time>
      </trkpt>
      <trkpt lat="48.62419" lon="2.52852">
        <ele>84.493364</ele>
        <time>2021-12-05T02:03:03.920Z</time>
      </trkpt>
      <trkpt lat="48.6292" lon="2.52811">
        <ele>84.673223</ele>
        <time>2021-12-05T02:05:12.627Z</time>
      </trkpt>
      <trkpt lat="48.62977" lon="2.52806">
        <ele>84.807143</ele>
        <time>2021-12-05T02:05:28.598Z</time>
      </trkpt>
      <trkpt lat="48.62988" lon="2.52792">
        <ele>84.878035</ele>
        <time>2021-12-05T02:05:32.819Z</time>
      </trkpt>
      <trkpt lat="48.6318" lon="2.52777">
        <ele>85.471183</ele>
        <time>2021-12-05T02:06:25.700Z</time>
      </trkpt>
      <trkpt lat="48.63231" lon="2.52773">
        <ele>85.321221</ele>
        <time>2021-12-05T02:06:37.737Z</time>
      </trkpt>
      <trkpt lat="48.63339" lon="2.52765">
        <ele>84.864379</ele>
        <time>2021-12-05T02:07:01.688Z</time>
      </trkpt>
      <trkpt lat="48.63366" lon="2.52763">
        <ele>84.632949</ele>
        <time>2021-12-05T02:07:07.419Z</time>
      </trkpt>
      <trkpt lat="48.6337" lon="2.52762">
        <ele>84.60553</ele>
        <time>2021-12-05T02:07:08.062Z</time>
      </trkpt>
      <trkpt lat="48.63375" lon="2.52762">
        <ele>84.557557</ele>
        <time>2021-12-05T02:07:09.213Z</time>
      </trkpt>
      <trkpt lat="48.63383" lon="2.52761">
        <ele>84.490435</ele>
        <time>2021-12-05T02:07:11.909Z</time>
      </trkpt>
      <trkpt lat="48.63389" lon="2.52746">
        <ele>84.390832</ele>
        <time>2021-12-05T02:07:14.483Z</time>
      </trkpt>
      <trkpt lat="48.63403" lon="2.52741">
        <ele>84.266585</ele>
        <time>2021-12-05T02:07:17.774Z</time>
      </trkpt>
      <trkpt lat="48.63826" lon="2.52706">
        <ele>81.269175</ele>
        <time>2021-12-05T02:08:57.608Z</time>
      </trkpt>
      <trkpt lat="48.64088" lon="2.52685">
        <ele>80.442614</ele>
        <time>2021-12-05T02:09:58.989Z</time>
      </trkpt>
      <trkpt lat="48.64089" lon="2.52696">
        <ele>80.520335</ele>
        <time>2021-12-05T02:10:01.213Z</time>
      </trkpt>
      <trkpt lat="48.64156" lon="2.52689">
        <ele>81.244518</ele>
        <time>2021-12-05T02:10:25.659Z</time>
      </trkpt>
      <trkpt lat="48.64174" lon="2.52688">
        <ele>81.433356</ele>
        <time>2021-12-05T02:10:34.661Z</time>
      </trkpt>
      <trkpt lat="48.64203" lon="2.52685">
        <ele>81.767248</ele>
        <time>2021-12-05T02:10:49.960Z</time>
      </trkpt>
      <trkpt lat="48.64262" lon="2.52682">
        <ele>83.345412</ele>
        <time>2021-12-05T02:11:23.727Z</time>
      </trkpt>
      <trkpt lat="48.64601" lon="2.5265">
        <ele>91.497425</ele>
        <time>2021-12-05T02:14:25.795Z</time>
      </trkpt>
      <trkpt lat="48.64617" lon="2.5263">
        <ele>91.735036</ele>
        <time>2021-12-05T02:14:32.880Z</time>
      </trkpt>
      <trkpt lat="48.64837" lon="2.52367">
        <ele>93.519404</ele>
        <time>2021-12-05T02:15:52.718Z</time>
      </trkpt>
      <trkpt lat="48.65071" lon="2.52089">
        <ele>92.72152</ele>
        <time>2021-12-05T02:17:03.957Z</time>
      </trkpt>
      <trkpt lat="48.65304" lon="2.51814">
        <ele>93.384254</ele>
        <time>2021-12-05T02:18:27.792Z</time>
      </trkpt>
      <trkpt lat="48.65672" lon="2.51374">
        <ele>92.879243</ele>
        <time>2021-12-05T02:20:26.363Z</time>
      </trkpt>
      <trkpt lat="48.65744" lon="2.51292">
        <ele>92.807083</ele>
        <time>2021-12-05T02:20:47.234Z</time>
      </trkpt>
      <trkpt lat="48.65776" lon="2.51332">
        <ele>92.821466</ele>
        <time>2021-12-05T02:20:56.596Z</time>
      </trkpt>
      <trkpt lat="48.65809" lon="2.51404">
        <ele>92.841477</ele>
        <time>2021-12-05T02:21:09.864Z</time>
      </trkpt>
      <trkpt lat="48.65864" lon="2.51506">
        <ele>93.154453</ele>
        <time>2021-12-05T02:21:37.651Z</time>
      </trkpt>
      <trkpt lat="48.65883" lon="2.51528">
        <ele>93.270955</ele>
        <time>2021-12-05T02:21:44.776Z</time>
      </trkpt>
      <trkpt lat="48.65911" lon="2.51583">
        <ele>93.497664</ele>
        <time>2021-12-05T02:21:57.196Z</time>
      </trkpt>
      <trkpt lat="48.65927" lon="2.51596">
        <ele>93.588661</ele>
        <time>2021-12-05T02:22:01.758Z</time>
      </trkpt>
      <trkpt lat="48.65979" lon="2.51691">
        <ele>93.379247</ele>
        <time>2021-12-05T02:22:18.131Z</time>
      </trkpt>
      <trkpt lat="48.66006" lon="2.51788">
        <ele>92.886721</ele>
        <time>2021-12-05T02:22:32.432Z</time>
      </trkpt>
      <trkpt lat="48.66011" lon="2.51791">
        <ele>92.85141</ele>
        <time>2021-12-05T02:22:33.259Z</time>
      </trkpt>
      <trkpt lat="48.66033" lon="2.51794">
        <ele>92.694288</ele>
        <time>2021-12-05T02:22:38.245Z</time>
      </trkpt>
      <trkpt lat="48.66057" lon="2.5183">
        <ele>92.478237</ele>
        <time>2021-12-05T02:22:45.490Z</time>
      </trkpt>
      <trkpt lat="48.66057" lon="2.51855">
        <ele>92.600098</ele>
        <time>2021-12-05T02:22:48.882Z</time>
      </trkpt>
      <trkpt lat="48.66065" lon="2.51871">
        <ele>92.699923</ele>
        <time>2021-12-05T02:22:52.683Z</time>
      </trkpt>
      <trkpt lat="48.66094" lon="2.51888">
        <ele>92.924791</ele>
        <time>2021-12-05T02:22:59.990Z</time>
      </trkpt>
      <trkpt lat="48.66121" lon="2.51927">
        <ele>93.207402</ele>
        <time>2021-12-05T02:23:10.179Z</time>
      </trkpt>
      <trkpt lat="48.66132" lon="2.51949">
        <ele>93.337136</ele>
        <time>2021-12-05T02:23:15.343Z</time>
      </trkpt>
      <trkpt lat="48.66138" lon="2.51994">
        <ele>93.562099</ele>
        <time>2021-12-05T02:23:25.436Z</time>
      </trkpt>
      <trkpt lat="48.66177" lon="2.52052">
        <ele>94.034915</ele>
        <time>2021-12-05T02:23:44.081Z</time>
      </trkpt>
      <trkpt lat="48.66278" lon="2.5226">
        <ele>95.670814</ele>
        <time>2021-12-05T02:24:33.160Z</time>
      </trkpt>
      <trkpt lat="48.66325" lon="2.52329">
        <ele>95.801232</ele>
        <time>2021-12-05T02:24:48.512Z</time>
      </trkpt>
      <trkpt lat="48.66346" lon="2.52369">
        <ele>95.867702</ele>
        <time>2021-12-05T02:24:56.231Z</time>
      </trkpt>
      <trkpt lat="48.66366" lon="2.52435">
        <ele>95.964091</ele>
        <time>2021-12-05T02:25:07.364Z</time>
      </trkpt>
      <trkpt lat="48.66382" lon="2.52456">
        <ele>96.001825</ele>
        <time>2021-12-05T02:25:12.097Z</time>
      </trkpt>
      <trkpt lat="48.66422" lon="2.52492">
        <ele>96.011274</ele>
        <time>2021-12-05T02:25:22.867Z</time>
      </trkpt>
      <trkpt lat="48.66644" lon="2.52892">
        <ele>95.692852</ele>
        <time>2021-12-05T02:26:42.765Z</time>
      </trkpt>
      <trkpt lat="48.66646" lon="2.52889">
        <ele>95.665852</ele>
        <time>2021-12-05T02:26:43.402Z</time>
      </trkpt>
      <trkpt lat="48.66649" lon="2.52885">
        <ele>95.62976</ele>
        <time>2021-12-05T02:26:44.230Z</time>
      </trkpt>
      <trkpt lat="48.66706" lon="2.52803">
        <ele>94.941689</ele>
        <time>2021-12-05T02:27:00.021Z</time>
      </trkpt>
      <trkpt lat="48.66738" lon="2.52797">
        <ele>94.659452</ele>
        <time>2021-12-05T02:27:06.394Z</time>
      </trkpt>
      <trkpt lat="48.6685" lon="2.52762">
        <ele>94.026684</ele>
        <time>2021-12-05T02:27:29.244Z</time>
      </trkpt>
      <trkpt lat="48.67282" lon="2.52512">
        <ele>92.166123</ele>
        <time>2021-12-05T02:29:11.973Z</time>
      </trkpt>
      <trkpt lat="48.67323" lon="2.52497">
        <ele>91.597608</ele>
        <time>2021-12-05T02:29:20.679Z</time>
      </trkpt>
      <trkpt lat="48.6736" lon="2.52485">
        <ele>91.093928</ele>
        <time>2021-12-05T02:29:28.235Z</time>
      </trkpt>
      <trkpt lat="48.67377" lon="2.52469">
        <ele>90.820875</ele>
        <time>2021-12-05T02:29:32.298Z</time>
      </trkpt>
      <trkpt lat="48.67472" lon="2.52472">
        <ele>89.294263</ele>
        <time>2021-12-05T02:29:50.042Z</time>
      </trkpt>
      <trkpt lat="48.67518" lon="2.52484">
        <ele>88.187312</ele>
        <time>2021-12-05T02:29:58.411Z</time>
      </trkpt>
      <trkpt lat="48.67573" lon="2.52509">
        <ele>86.820387</ele>
        <time>2021-12-05T02:30:08.664Z</time>
      </trkpt>
      <trkpt lat="48.6764" lon="2.52556">
        <ele>85.180678</ele>
        <time>2021-12-05T02:30:21.896Z</time>
      </trkpt>
      <trkpt lat="48.67713" lon="2.52631">
        <ele>83.486004</ele>
        <time>2021-12-05T02:30:38.251Z</time>
      </trkpt>
      <trkpt lat="48.67792" lon="2.52717">
        <ele>81.796182</ele>
        <time>2021-12-05T02:30:58.126Z</time>
      </trkpt>
      <trkpt lat="48.67798" lon="2.52744">
        <ele>81.548398</ele>
        <time>2021-12-05T02:31:01.906Z</time>
      </trkpt>
      <trkpt lat="48.67801" lon="2.52746">
        <ele>81.504733</ele>
        <time>2021-12-05T02:31:02.555Z</time>
      </trkpt>
      <trkpt lat="48.67807" lon="2.52751">
        <ele>81.417402</ele>
        <time>2021-12-05T02:31:03.841Z</time>
      </trkpt>
      <trkpt lat="48.67813" lon="2.52757">
        <ele>81.324721</ele>
        <time>2021-12-05T02:31:05.218Z</time>
      </trkpt>
      <trkpt lat="48.6783" lon="2.52759">
        <ele>81.103986</ele>
        <time>2021-12-05T02:31:08.633Z</time>
      </trkpt>
      <trkpt lat="48.67904" lon="2.52835">
        <ele>79.936781</ele>
        <time>2021-12-05T02:31:26.235Z</time>
      </trkpt>
      <trkpt lat="48.67988" lon="2.52933">
        <ele>78.605377</ele>
        <time>2021-12-05T02:31:47.429Z</time>
      </trkpt>
      <trkpt lat="48.6799" lon="2.52929">
        <ele>78.571659</ele>
        <time>2021-12-05T02:31:48.342Z</time>
      </trkpt>
      <trkpt lat="48.68013" lon="2.52872">
        <ele>78.013248</ele>
        <time>2021-12-05T02:31:57.801Z</time>
      </trkpt>
      <trkpt lat="48.68009" lon="2.52867">
        <ele>77.942779</ele>
        <time>2021-12-05T02:31:58.936Z</time>
      </trkpt>
      <trkpt lat="48.67992" lon="2.52848">
        <ele>77.683679</ele>
        <time>2021-12-05T02:32:03.144Z</time>
      </trkpt>
      <trkpt lat="48.67991" lon="2.52839">
        <ele>77.607914</ele>
        <time>2021-12-05T02:32:04.333Z</time>
      </trkpt>
      <trkpt lat="48.68044" lon="2.52899">
        <ele>76.305784</ele>
        <time>2021-12-05T02:32:17.048Z</time>
      </trkpt>
      <trkpt lat="48.68129" lon="2.52974">
        <ele>74.3235</ele>
        <time>2021-12-05T02:32:34.970Z</time>
      </trkpt>
      <trkpt lat="48.68169" lon="2.52994">
        <ele>73.368539</ele>
        <time>2021-12-05T02:32:42.624Z</time>
      </trkpt>
      <trkpt lat="48.68179" lon="2.53001">
        <ele>73.09047</ele>
        <time>2021-12-05T02:32:44.596Z</time>
      </trkpt>
      <trkpt lat="48.68204" lon="2.53018">
        <ele>72.39779</ele>
        <time>2021-12-05T02:32:49.449Z</time>
      </trkpt>
      <trkpt lat="48.68221" lon="2.53033">
        <ele>71.904995</ele>
        <time>2021-12-05T02:32:52.822Z</time>
      </trkpt>
      <trkpt lat="48.68226" lon="2.53053">
        <ele>71.550423</ele>
        <time>2021-12-05T02:32:55.336Z</time>
      </trkpt>
      <trkpt lat="48.68228" lon="2.53091">
        <ele>70.912816</ele>
        <time>2021-12-05T02:32:59.826Z</time>
      </trkpt>
      <trkpt lat="48.68238" lon="2.53111">
        <ele>70.488111</ele>
        <time>2021-12-05T02:33:02.888Z</time>
      </trkpt>
      <trkpt lat="48.68246" lon="2.5312">
        <ele>70.247058</ele>
        <time>2021-12-05T02:33:04.626Z</time>
      </trkpt>
      <trkpt lat="48.68253" lon="2.53129">
        <ele>70.020401</ele>
        <time>2021-12-05T02:33:06.216Z</time>
      </trkpt>
      <trkpt lat="48.6832" lon="2.53195">
        <ele>67.977594</ele>
        <time>2021-12-05T02:33:20.788Z</time>
      </trkpt>
      <trkpt lat="48.68314" lon="2.53206">
        <ele>67.754266</ele>
        <time>2021-12-05T02:33:22.528Z</time>
      </trkpt>
      <trkpt lat="48.68301" lon="2.53227">
        <ele>67.249231</ele>
        <time>2021-12-05T02:33:26.112Z</time>
      </trkpt>
      <trkpt lat="48.68305" lon="2.5324">
        <ele>67.009371</ele>
        <time>2021-12-05T02:33:27.725Z</time>
      </trkpt>
      <trkpt lat="48.68303" lon="2.53251">
        <ele>66.812908</ele>
        <time>2021-12-05T02:33:29.198Z</time>
      </trkpt>
      <trkpt lat="48.68307" lon="2.53275">
        <ele>66.399339</ele>
        <time>2021-12-05T02:33:32.049Z</time>
      </trkpt>
      <trkpt lat="48.68315" lon="2.53285">
        <ele>66.119553</ele>
        <time>2021-12-05T02:33:33.854Z</time>
      </trkpt>
      <trkpt lat="48.68312" lon="2.53299">
        <ele>65.8699</ele>
        <time>2021-12-05T02:33:35.587Z</time>
      </trkpt>
      <trkpt lat="48.68319" lon="2.53315">
        <ele>65.547581</ele>
        <time>2021-12-05T02:33:37.762Z</time>
      </trkpt>
      <trkpt lat="48.68347" lon="2.53367">
        <ele>64.371178</ele>
        <time>2021-12-05T02:33:45.366Z</time>
      </trkpt>
      <trkpt lat="48.68433" lon="2.53557">
        <ele>60.053523</ele>
        <time>2021-12-05T02:34:12.037Z</time>
      </trkpt>
      <trkpt lat="48.68462" lon="2.53624">
        <ele>59.065638</ele>
        <time>2021-12-05T02:34:21.661Z</time>
      </trkpt>
      <trkpt lat="48.68464" lon="2.53641">
        <ele>58.888309</ele>
        <time>2021-12-05T02:34:23.760Z</time>
      </trkpt>
      <trkpt lat="48.68471" lon="2.5364">
        <ele>58.784153</ele>
        <time>2021-12-05T02:34:24.975Z</time>
      </trkpt>
      <trkpt lat="48.68471" lon="2.53644">
        <ele>58.749031</ele>
        <time>2021-12-05T02:34:25.403Z</time>
      </trkpt>
      <trkpt lat="48.68472" lon="2.53656">
        <ele>58.619698</ele>
        <time>2021-12-05T02:34:26.976Z</time>
      </trkpt>
      <trkpt lat="48.6848" lon="2.5367">
        <ele>58.427509</ele>
        <time>2021-12-05T02:34:29.286Z</time>
      </trkpt>
      <trkpt lat="48.68484" lon="2.53672">
        <ele>58.374204</ele>
        <time>2021-12-05T02:34:29.920Z</time>
      </trkpt>
      <trkpt lat="48.68495" lon="2.53671">
        <ele>58.198713</ele>
        <time>2021-12-05T02:34:32.065Z</time>
      </trkpt>
      <trkpt lat="48.68504" lon="2.53658">
        <ele>57.99852</ele>
        <time>2021-12-05T02:34:34.678Z</time>
      </trkpt>
      <trkpt lat="48.68534" lon="2.53644">
        <ele>57.522651</ele>
        <time>2021-12-05T02:34:40.937Z</time>
      </trkpt>
      <trkpt lat="48.6856" lon="2.53641">
        <ele>57.110806</ele>
        <time>2021-12-05T02:34:46.533Z</time>
      </trkpt>
      <trkpt lat="48.68623" lon="2.53635">
        <ele>56.837264</ele>
        <time>2021-12-05T02:34:59.960Z</time>
      </trkpt>
      <trkpt lat="48.68627" lon="2.53635">
        <ele>56.832068</ele>
        <time>2021-12-05T02:35:00.869Z</time>
      </trkpt>
      <trkpt lat="48.68627" lon="2.53667">
        <ele>56.807611</ele>
        <time>2021-12-05T02:35:05.348Z</time>
      </trkpt>
      <trkpt lat="48.68623" lon="2.53687">
        <ele>56.790675</ele>
        <time>2021-12-05T02:35:08.537Z</time>
      </trkpt>
      <trkpt lat="48.68594" lon="2.53755">
        <ele>56.727826</ele>
        <time>2021-12-05T02:35:21.589Z</time>
      </trkpt>
      <trkpt lat="48.68592" lon="2.53787">
        <ele>56.702617</ele>
        <time>2021-12-05T02:35:26.805Z</time>
      </trkpt>
      <trkpt lat="48.68595" lon="2.53809">
        <ele>56.685343</ele>
        <time>2021-12-05T02:35:30.504Z</time>
      </trkpt>
      <trkpt lat="48.68601" lon="2.53857">
        <ele>56.511587</ele>
        <time>2021-12-05T02:35:38.692Z</time>
      </trkpt>
      <trkpt lat="48.68603" lon="2.5388">
        <ele>56.424577</ele>
        <time>2021-12-05T02:35:42.717Z</time>
      </trkpt>
      <trkpt lat="48.68616" lon="2.53934">
        <ele>56.216043</ele>
        <time>2021-12-05T02:35:51.090Z</time>
      </trkpt>
      <trkpt lat="48.68669" lon="2.54107">
        <ele>55.062397</ele>
        <time>2021-12-05T02:36:35.322Z</time>
      </trkpt>
      <trkpt lat="48.68786" lon="2.5436">
        <ele>51.102432</ele>
        <time>2021-12-05T02:37:41.041Z</time>
      </trkpt>
      <trkpt lat="48.68864" lon="2.5457">
        <ele>48.846405</ele>
        <time>2021-12-05T02:38:35.599Z</time>
      </trkpt>
      <trkpt lat="48.68894" lon="2.5469">
        <ele>48.494806</ele>
        <time>2021-12-05T02:39:05.111Z</time>
      </trkpt>
      <trkpt lat="48.68943" lon="2.54828">
        <ele>49.216972</ele>
        <time>2021-12-05T02:39:49.832Z</time>
      </trkpt>
      <trkpt lat="48.68946" lon="2.54848">
        <ele>49.535411</ele>
        <time>2021-12-05T02:39:56.092Z</time>
      </trkpt>
      <trkpt lat="48.68936" lon="2.54926">
        <ele>50.777728</ele>
        <time>2021-12-05T02:40:22.034Z</time>
      </trkpt>
      <trkpt lat="48.68978" lon="2.55026">
        <ele>52.809531</ele>
        <time>2021-12-05T02:41:07.747Z</time>
      </trkpt>
      <trkpt lat="48.69003" lon="2.55059">
        <ele>54.555839</ele>
        <time>2021-12-05T02:41:31.269Z</time>
      </trkpt>
      <trkpt lat="48.69031" lon="2.55085">
        <ele>56.248781</ele>
        <time>2021-12-05T02:41:53.283Z</time>
      </trkpt>
      <trkpt lat="48.69044" lon="2.55085">
        <ele>56.931723</ele>
        <time>2021-12-05T02:42:02.325Z</time>
      </trkpt>
      <trkpt lat="48.69057" lon="2.5507">
        <ele>57.790538</ele>
        <time>2021-12-05T02:42:12.222Z</time>
      </trkpt>
      <trkpt lat="48.69072" lon="2.55099">
        <ele>59.061773</ele>
        <time>2021-12-05T02:42:31.490Z</time>
      </trkpt>
      <trkpt lat="48.69085" lon="2.55113">
        <ele>59.87838</ele>
        <time>2021-12-05T02:42:41.214Z</time>
      </trkpt>
      <trkpt lat="48.69081" lon="2.55115">
        <ele>60.082311</ele>
        <time>2021-12-05T02:42:44.237Z</time>
      </trkpt>
      <trkpt lat="48.6907" lon="2.55124">
        <ele>60.726544</ele>
        <time>2021-12-05T02:42:53.916Z</time>
      </trkpt>
      <trkpt lat="48.69059" lon="2.55131">
        <ele>61.353608</ele>
        <time>2021-12-05T02:43:02.301Z</time>
      </trkpt>
      <trkpt lat="48.69022" lon="2.55128">
        <ele>63.375493</ele>
        <time>2021-12-05T02:43:31.090Z</time>
      </trkpt>
      <trkpt lat="48.68986" lon="2.55103">
        <ele>65.497285</ele>
        <time>2021-12-05T02:44:02.362Z</time>
      </trkpt>
      <trkpt lat="48.68964" lon="2.55124">
        <ele>66.902085</ele>
        <time>2021-12-05T02:44:25.165Z</time>
      </trkpt>
      <trkpt lat="48.68964" lon="2.55161">
        <ele>68.249512</ele>
        <time>2021-12-05T02:44:42.203Z</time>
      </trkpt>
      <trkpt lat="48.68927" lon="2.55265">
        <ele>71.87294</ele>
        <time>2021-12-05T02:45:29.012Z</time>
      </trkpt>
      <trkpt lat="48.68982" lon="2.55285">
        <ele>72.614517</ele>
        <time>2021-12-05T02:45:52.466Z</time>
      </trkpt>
      <trkpt lat="48.69012" lon="2.5529">
        <ele>73.009165</ele>
        <time>2021-12-05T02:46:02.289Z</time>
      </trkpt>
      <trkpt lat="48.69079" lon="2.55275">
        <ele>73.888352</ele>
        <time>2021-12-05T02:46:20.343Z</time>
      </trkpt>
      <trkpt lat="48.69101" lon="2.55296">
        <ele>74.165957</ele>
        <time>2021-12-05T02:46:26.043Z</time>
      </trkpt>
      <trkpt lat="48.69108" lon="2.55308">
        <ele>74.261227</ele>
        <time>2021-12-05T02:46:28.276Z</time>
      </trkpt>
      <trkpt lat="48.69133" lon="2.55351">
        <ele>74.602305</ele>
        <time>2021-12-05T02:46:37.227Z</time>
      </trkpt>
      <trkpt lat="48.69166" lon="2.55394">
        <ele>74.990758</ele>
        <time>2021-12-05T02:46:51.011Z</time>
      </trkpt>
      <trkpt lat="48.69171" lon="2.55388">
        <ele>75.047962</ele>
        <time>2021-12-05T02:46:53.142Z</time>
      </trkpt>
      <trkpt lat="48.69173" lon="2.55385">
        <ele>75.077642</ele>
        <time>2021-12-05T02:46:54.277Z</time>
      </trkpt>
      <trkpt lat="48.69219" lon="2.55333">
        <ele>75.59213</ele>
        <time>2021-12-05T02:47:15.475Z</time>
      </trkpt>
      <trkpt lat="48.693" lon="2.55235">
        <ele>77.872746</ele>
        <time>2021-12-05T02:47:53.234Z</time>
      </trkpt>
      <trkpt lat="48.69333" lon="2.55193">
        <ele>78.866781</ele>
        <time>2021-12-05T02:48:08.939Z</time>
      </trkpt>
      <trkpt lat="48.69366" lon="2.55137">
        <ele>79.999926</ele>
        <time>2021-12-05T02:48:27.715Z</time>
      </trkpt>
      <trkpt lat="48.69369" lon="2.55132">
        <ele>80.113913</ele>
        <time>2021-12-05T02:48:29.739Z</time>
      </trkpt>
      <trkpt lat="48.69367" lon="2.5512">
        <ele>80.30743</ele>
        <time>2021-12-05T02:48:32.338Z</time>
      </trkpt>
      <trkpt lat="48.69436" lon="2.54966">
        <ele>83.229176</ele>
        <time>2021-12-05T02:49:18.655Z</time>
      </trkpt>
      <trkpt lat="48.69446" lon="2.54975">
        <ele>83.496651</ele>
        <time>2021-12-05T02:49:25.211Z</time>
      </trkpt>
      <trkpt lat="48.6947" lon="2.54957">
        <ele>84.118689</ele>
        <time>2021-12-05T02:49:37.781Z</time>
      </trkpt>
      <trkpt lat="48.69484" lon="2.54968">
        <ele>84.427873</ele>
        <time>2021-12-05T02:49:46.364Z</time>
      </trkpt>
      <trkpt lat="48.69488" lon="2.54964">
        <ele>84.527141</ele>
        <time>2021-12-05T02:49:47.938Z</time>
      </trkpt>
      <trkpt lat="48.69522" lon="2.55003">
        <ele>85.35442</ele>
        <time>2021-12-05T02:50:03.136Z</time>
      </trkpt>
      <trkpt lat="48.69532" lon="2.55014">
        <ele>85.591127</ele>
        <time>2021-12-05T02:50:07.734Z</time>
      </trkpt>
      <trkpt lat="48.69571" lon="2.54923">
        <ele>86.987235</ele>
        <time>2021-12-05T02:50:33.640Z</time>
      </trkpt>
      <trkpt lat="48.69591" lon="2.54891">
        <ele>87.571519</ele>
        <time>2021-12-05T02:50:42.988Z</time>
      </trkpt>
      <trkpt lat="48.69647" lon="2.54809">
        <ele>88.338291</ele>
        <time>2021-12-05T02:51:04.068Z</time>
      </trkpt>
      <trkpt lat="48.6965" lon="2.54813">
        <ele>88.375096</ele>
        <time>2021-12-05T02:51:05.114Z</time>
      </trkpt>
      <trkpt lat="48.69647" lon="2.54809">
        <ele>88.411902</ele>
        <time>2021-12-05T02:51:06.067Z</time>
      </trkpt>
      <trkpt lat="48.69664" lon="2.54787">
        <ele>88.628946</ele>
        <time>2021-12-05T02:51:12.110Z</time>
      </trkpt>
      <trkpt lat="48.69681" lon="2.54763">
        <ele>88.852602</ele>
        <time>2021-12-05T02:51:18.832Z</time>
      </trkpt>
      <trkpt lat="48.69729" lon="2.54694">
        <ele>89.537231</ele>
        <time>2021-12-05T02:51:39.239Z</time>
      </trkpt>
      <trkpt lat="48.69766" lon="2.54628">
        <ele>90.25037</ele>
        <time>2021-12-05T02:51:57.341Z</time>
      </trkpt>
      <trkpt lat="48.69786" lon="2.54651">
        <ele>90.568222</ele>
        <time>2021-12-05T02:52:05.578Z</time>
      </trkpt>
      <trkpt lat="48.69798" lon="2.54666">
        <ele>90.762252</ele>
        <time>2021-12-05T02:52:10.599Z</time>
      </trkpt>
      <trkpt lat="48.69814" lon="2.54675">
        <ele>90.967997</ele>
        <time>2021-12-05T02:52:16.072Z</time>
      </trkpt>
      <trkpt lat="48.69844" lon="2.54667">
        <ele>91.357199</ele>
        <time>2021-12-05T02:52:26.234Z</time>
      </trkpt>
      <trkpt lat="48.69846" lon="2.54648">
        <ele>91.516099</ele>
        <time>2021-12-05T02:52:30.326Z</time>
      </trkpt>
      <trkpt lat="48.69887" lon="2.54637">
        <ele>91.866297</ele>
        <time>2021-12-05T02:52:43.234Z</time>
      </trkpt>
      <trkpt lat="48.69898" lon="2.54633">
        <ele>91.954879</ele>
        <time>2021-12-05T02:52:46.669Z</time>
      </trkpt>
      <trkpt lat="48.69907" lon="2.54622">
        <ele>92.043914</ele>
        <time>2021-12-05T02:52:50.084Z</time>
      </trkpt>
      <trkpt lat="48.69906" lon="2.54592">
        <ele>92.196166</ele>
        <time>2021-12-05T02:52:55.759Z</time>
      </trkpt>
      <trkpt lat="48.69949" lon="2.54583">
        <ele>92.5375</ele>
        <time>2021-12-05T02:53:14.425Z</time>
      </trkpt>
      <trkpt lat="48.6996" lon="2.54568">
        <ele>92.653242</ele>
        <time>2021-12-05T02:53:18.533Z</time>
      </trkpt>
      <trkpt lat="48.69979" lon="2.54534">
        <ele>92.881681</ele>
        <time>2021-12-05T02:53:26.577Z</time>
      </trkpt>
      <trkpt lat="48.70033" lon="2.54442">
        <ele>93.012581</ele>
        <time>2021-12-05T02:53:47.664Z</time>
      </trkpt>
      <trkpt lat="48.70032" lon="2.5443">
        <ele>93.014918</ele>
        <time>2021-12-05T02:53:49.623Z</time>
      </trkpt>
      <trkpt lat="48.70021" lon="2.5441">
        <ele>93.020003</ele>
        <time>2021-12-05T02:53:53.915Z</time>
      </trkpt>
      <trkpt lat="48.7005" lon="2.5436">
        <ele>93.032647</ele>
        <time>2021-12-05T02:54:04.370Z</time>
      </trkpt>
      <trkpt lat="48.70057" lon="2.54347">
        <ele>93.035894</ele>
        <time>2021-12-05T02:54:06.975Z</time>
      </trkpt>
      <trkpt lat="48.70089" lon="2.54399">
        <ele>93.016916</ele>
        <time>2021-12-05T02:54:17.184Z</time>
      </trkpt>
      <trkpt lat="48.70133" lon="2.54451">
        <ele>92.902342</ele>
        <time>2021-12-05T02:54:29.258Z</time>
      </trkpt>
      <trkpt lat="48.70155" lon="2.54479">
        <ele>92.842554</ele>
        <time>2021-12-05T02:54:35.600Z</time>
      </trkpt>
      <trkpt lat="48.70177" lon="2.54507">
        <ele>92.783659</ele>
        <time>2021-12-05T02:54:41.886Z</time>
      </trkpt>
      <trkpt lat="48.70191" lon="2.54486">
        <ele>92.743158</ele>
        <time>2021-12-05T02:54:47.776Z</time>
      </trkpt>
      <trkpt lat="48.70226" lon="2.54535">
        <ele>92.712802</ele>
        <time>2021-12-05T02:55:02.588Z</time>
      </trkpt>
      <trkpt lat="48.70243" lon="2.54516">
        <ele>92.765702</ele>
        <time>2021-12-05T02:55:07.763Z</time>
      </trkpt>
      <trkpt lat="48.70252" lon="2.54507">
        <ele>92.79111</ele>
        <time>2021-12-05T02:55:10.212Z</time>
      </trkpt>
      <trkpt lat="48.70265" lon="2.545">
        <ele>92.825545</ele>
        <time>2021-12-05T02:55:13.606Z</time>
      </trkpt>
      <trkpt lat="48.70272" lon="2.54496">
        <ele>92.845388</ele>
        <time>2021-12-05T02:55:15.564Z</time>
      </trkpt>
      <trkpt lat="48.70346" lon="2.54507">
        <ele>93.031474</ele>
        <time>2021-12-05T02:55:34.299Z</time>
      </trkpt>
      <trkpt lat="48.70382" lon="2.54539">
        <ele>93.115519</ele>
        <time>2021-12-05T02:55:44.708Z</time>
      </trkpt>
      <trkpt lat="48.70427" lon="2.54567">
        <ele>92.952763</ele>
        <time>2021-12-05T02:55:56.324Z</time>
      </trkpt>
      <trkpt lat="48.70457" lon="2.54575">
        <ele>92.854647</ele>
        <time>2021-12-05T02:56:03.039Z</time>
      </trkpt>
      <trkpt lat="48.70459" lon="2.54583">
        <ele>92.835245</ele>
        <time>2021-12-05T02:56:04.668Z</time>
      </trkpt>
      <trkpt lat="48.70494" lon="2.54583">
        <ele>92.718372</ele>
        <time>2021-12-05T02:56:14.767Z</time>
      </trkpt>
      <trkpt lat="48.70497" lon="2.54574">
        <ele>92.697342</ele>
        <time>2021-12-05T02:56:16.499Z</time>
      </trkpt>
      <trkpt lat="48.70535" lon="2.54558">
        <ele>92.56764</ele>
        <time>2021-12-05T02:56:24.690Z</time>
      </trkpt>
      <trkpt lat="48.70542" lon="2.54552">
        <ele>92.541288</ele>
        <time>2021-12-05T02:56:26.389Z</time>
      </trkpt>
      <trkpt lat="48.70622" lon="2.54443">
        <ele>92.172387</ele>
        <time>2021-12-05T02:56:49.336Z</time>
      </trkpt>
      <trkpt lat="48.70673" lon="2.54622">
        <ele>92.025711</ele>
        <time>2021-12-05T02:57:38.417Z</time>
      </trkpt>
      <trkpt lat="48.7068" lon="2.54625">
        <ele>92.039714</ele>
        <time>2021-12-05T02:57:41.226Z</time>
      </trkpt>
      <trkpt lat="48.70682" lon="2.54634">
        <ele>92.052141</ele>
        <time>2021-12-05T02:57:43.993Z</time>
      </trkpt>
      <trkpt lat="48.70687" lon="2.54624">
        <ele>92.068228</ele>
        <time>2021-12-05T02:57:46.113Z</time>
      </trkpt>
      <trkpt lat="48.70771" lon="2.54463">
        <ele>92.261838</ele>
        <time>2021-12-05T02:58:21.642Z</time>
      </trkpt>
      <trkpt lat="48.70845" lon="2.54591">
        <ele>92.239162</ele>
        <time>2021-12-05T02:58:48.609Z</time>
      </trkpt>
      <trkpt lat="48.70887" lon="2.54623">
        <ele>92.213197</ele>
        <time>2021-12-05T02:58:59.569Z</time>
      </trkpt>
      <trkpt lat="48.71043" lon="2.5474">
        <ele>91.906593</ele>
        <time>2021-12-05T02:59:41.004Z</time>
      </trkpt>
      <trkpt lat="48.71063" lon="2.54755">
        <ele>91.752577</ele>
        <time>2021-12-05T02:59:46.275Z</time>
      </trkpt>
      <trkpt lat="48.71112" lon="2.54792">
        <ele>91.375801</ele>
        <time>2021-12-05T02:59:58.870Z</time>
      </trkpt>
      <trkpt lat="48.71166" lon="2.54833">
        <ele>90.963939</ele>
        <time>2021-12-05T03:00:12.065Z</time>
      </trkpt>
      <trkpt lat="48.71184" lon="2.54847">
        <ele>90.82196</ele>
        <time>2021-12-05T03:00:16.512Z</time>
      </trkpt>
      <trkpt lat="48.71201" lon="2.5486">
        <ele>90.647388</ele>
        <time>2021-12-05T03:00:20.563Z</time>
      </trkpt>
      <trkpt lat="48.71245" lon="2.54893">
        <ele>89.794159</ele>
        <time>2021-12-05T03:00:30.539Z</time>
      </trkpt>
      <trkpt lat="48.71254" lon="2.54894">
        <ele>89.633157</ele>
        <time>2021-12-05T03:00:32.475Z</time>
      </trkpt>
      <trkpt lat="48.71287" lon="2.54931">
        <ele>88.910319</ele>
        <time>2021-12-05T03:00:41.216Z</time>
      </trkpt>
      <trkpt lat="48.71301" lon="2.54921">
        <ele>88.636051</ele>
        <time>2021-12-05T03:00:46.399Z</time>
      </trkpt>
      <trkpt lat="48.71413" lon="2.54858">
        <ele>86.276045</ele>
        <time>2021-12-05T03:01:25.438Z</time>
      </trkpt>
      <trkpt lat="48.71464" lon="2.54846">
        <ele>85.157164</ele>
        <time>2021-12-05T03:01:41.946Z</time>
      </trkpt>
      <trkpt lat="48.71519" lon="2.54834">
        <ele>83.926624</ele>
        <time>2021-12-05T03:02:00.038Z</time>
      </trkpt>
      <trkpt lat="48.71779" lon="2.54808">
        <ele>80.14921</ele>
        <time>2021-12-05T03:03:26.652Z</time>
      </trkpt>
      <trkpt lat="48.71781" lon="2.54808">
        <ele>80.145882</ele>
        <time>2021-12-05T03:03:27.510Z</time>
      </trkpt>
      <trkpt lat="48.71796" lon="2.54806">
        <ele>80.125297</ele>
        <time>2021-12-05T03:03:31.004Z</time>
      </trkpt>
      <trkpt lat="48.718" lon="2.54806">
        <ele>80.118635</ele>
        <time>2021-12-05T03:03:32.243Z</time>
      </trkpt>
      <trkpt lat="48.71861" lon="2.54798">
        <ele>80.030787</ele>
        <time>2021-12-05T03:03:50.361Z</time>
      </trkpt>
      <trkpt lat="48.71903" lon="2.54792">
        <ele>80.098589</ele>
        <time>2021-12-05T03:04:05.544Z</time>
      </trkpt>
      <trkpt lat="48.72061" lon="2.5479">
        <ele>81.782994</ele>
        <time>2021-12-05T03:04:59.976Z</time>
      </trkpt>
      <trkpt lat="48.72147" lon="2.54771">
        <ele>80.118878</ele>
        <time>2021-12-05T03:05:20.083Z</time>
      </trkpt>
      <trkpt lat="48.72214" lon="2.54733">
        <ele>78.417226</ele>
        <time>2021-12-05T03:05:34.081Z</time>
      </trkpt>
      <trkpt lat="48.72308" lon="2.54671">
        <ele>74.691289</ele>
        <time>2021-12-05T03:05:52.828Z</time>
      </trkpt>
      <trkpt lat="48.72391" lon="2.54586">
        <ele>70.408964</ele>
        <time>2021-12-05T03:06:11.507Z</time>
      </trkpt>
      <trkpt lat="48.72403" lon="2.54572">
        <ele>69.886511</ele>
        <time>2021-12-05T03:06:14.334Z</time>
      </trkpt>
      <trkpt lat="48.72464" lon="2.54488">
        <ele>68.116016</ele>
        <time>2021-12-05T03:06:30.826Z</time>
      </trkpt>
      <trkpt lat="48.72545" lon="2.54331">
        <ele>66.314483</ele>
        <time>2021-12-05T03:07:00.398Z</time>
      </trkpt>
      <trkpt lat="48.72573" lon="2.5425">
        <ele>66.569075</ele>
        <time>2021-12-05T03:07:16.929Z</time>
      </trkpt>
      <trkpt lat="48.72601" lon="2.54143">
        <ele>66.890116</ele>
        <time>2021-12-05T03:07:41.315Z</time>
      </trkpt>
      <trkpt lat="48.72629" lon="2.53947">
        <ele>69.947466</ele>
        <time>2021-12-05T03:08:32.164Z</time>
      </trkpt>
      <trkpt lat="48.72637" lon="2.53764">
        <ele>73.780749</ele>
        <time>2021-12-05T03:09:27.216Z</time>
      </trkpt>
      <trkpt lat="48.72624" lon="2.5354">
        <ele>79.386277</ele>
        <time>2021-12-05T03:10:41.688Z</time>
      </trkpt>
      <trkpt lat="48.72629" lon="2.5353">
        <ele>79.689949</ele>
        <time>2021-12-05T03:10:45.834Z</time>
      </trkpt>
      <trkpt lat="48.7263" lon="2.53524">
        <ele>79.848892</ele>
        <time>2021-12-05T03:10:47.996Z</time>
      </trkpt>
      <trkpt lat="48.72634" lon="2.53487">
        <ele>80.778961</ele>
        <time>2021-12-05T03:11:00.853Z</time>
      </trkpt>
      <trkpt lat="48.72613" lon="2.53395">
        <ele>83.214957</ele>
        <time>2021-12-05T03:11:33.065Z</time>
      </trkpt>
      <trkpt lat="48.72602" lon="2.53357">
        <ele>84.252346</ele>
        <time>2021-12-05T03:11:46.096Z</time>
      </trkpt>
      <trkpt lat="48.72605" lon="2.53158">
        <ele>86.71786</ele>
        <time>2021-12-05T03:12:37.406Z</time>
      </trkpt>
      <trkpt lat="48.72607" lon="2.53155">
        <ele>86.758375</ele>
        <time>2021-12-05T03:12:38.187Z</time>
      </trkpt>
      <trkpt lat="48.72618" lon="2.53137">
        <ele>87.033658</ele>
        <time>2021-12-05T03:12:43.263Z</time>
      </trkpt>
      <trkpt lat="48.72617" lon="2.53125">
        <ele>87.161604</ele>
        <time>2021-12-05T03:12:45.464Z</time>
      </trkpt>
      <trkpt lat="48.72719" lon="2.53098">
        <ele>87.569794</ele>
        <time>2021-12-05T03:13:08.996Z</time>
      </trkpt>
      <trkpt lat="48.72733" lon="2.53105">
        <ele>87.53131</ele>
        <time>2021-12-05T03:13:12.102Z</time>
      </trkpt>
      <trkpt lat="48.72739" lon="2.53108">
        <ele>87.515419</ele>
        <time>2021-12-05T03:13:13.316Z</time>
      </trkpt>
      <trkpt lat="48.72746" lon="2.53112">
        <ele>87.495367</ele>
        <time>2021-12-05T03:13:14.870Z</time>
      </trkpt>
      <trkpt lat="48.72755" lon="2.53116">
        <ele>87.469116</ele>
        <time>2021-12-05T03:13:16.961Z</time>
      </trkpt>
      <trkpt lat="48.72758" lon="2.53106">
        <ele>87.449579</ele>
        <time>2021-12-05T03:13:18.522Z</time>
      </trkpt>
      <trkpt lat="48.72764" lon="2.53102">
        <ele>87.433785</ele>
        <time>2021-12-05T03:13:20.188Z</time>
      </trkpt>
      <trkpt lat="48.72772" lon="2.53102">
        <ele>87.410446</ele>
        <time>2021-12-05T03:13:22.650Z</time>
      </trkpt>
      <trkpt lat="48.72797" lon="2.53014">
        <ele>87.344973</ele>
        <time>2021-12-05T03:13:45.848Z</time>
      </trkpt>
      <trkpt lat="48.7282" lon="2.52956">
        <ele>87.630478</ele>
        <time>2021-12-05T03:14:02.864Z</time>
      </trkpt>
      <trkpt lat="48.73138" lon="2.52389">
        <ele>90.785653</ele>
        <time>2021-12-05T03:17:33.802Z</time>
      </trkpt>
      <trkpt lat="48.73186" lon="2.52304">
        <ele>90.57535</ele>
        <time>2021-12-05T03:17:55.099Z</time>
      </trkpt>
      <trkpt lat="48.73194" lon="2.5229">
        <ele>90.538689</ele>
        <time>2021-12-05T03:17:58.638Z</time>
      </trkpt>
      <trkpt lat="48.73225" lon="2.52245">
        <ele>90.417369</ele>
        <time>2021-12-05T03:18:13.863Z</time>
      </trkpt>
      <trkpt lat="48.73428" lon="2.52076">
        <ele>89.913191</ele>
        <time>2021-12-05T03:19:40.045Z</time>
      </trkpt>
      <trkpt lat="48.74137" lon="2.51475">
        <ele>93.62905</ele>
        <time>2021-12-05T03:23:21.546Z</time>
      </trkpt>
      <trkpt lat="48.74164" lon="2.51485">
        <ele>93.72272</ele>
        <time>2021-12-05T03:23:32.757Z</time>
      </trkpt>
      <trkpt lat="48.74171" lon="2.51498">
        <ele>93.759237</ele>
        <time>2021-12-05T03:23:37.111Z</time>
      </trkpt>
      <trkpt lat="48.7417" lon="2.51493">
        <ele>93.770599</ele>
        <time>2021-12-05T03:23:38.477Z</time>
      </trkpt>
      <trkpt lat="48.74665" lon="2.51518">
        <ele>93.590611</ele>
        <time>2021-12-05T03:26:47.196Z</time>
      </trkpt>
      <trkpt lat="48.74711" lon="2.51529">
        <ele>93.405918</ele>
        <time>2021-12-05T03:27:03.947Z</time>
      </trkpt>
      <trkpt lat="48.7472" lon="2.51533">
        <ele>93.369605</ele>
        <time>2021-12-05T03:27:05.828Z</time>
      </trkpt>
      <trkpt lat="48.74728" lon="2.51521">
        <ele>93.323953</ele>
        <time>2021-12-05T03:27:08.136Z</time>
      </trkpt>
      <trkpt lat="48.74734" lon="2.51514">
        <ele>93.29437</ele>
        <time>2021-12-05T03:27:10.170Z</time>
      </trkpt>
      <trkpt lat="48.74853" lon="2.51316">
        <ele>91.910163</ele>
        <time>2021-12-05T03:28:12.673Z</time>
      </trkpt>
      <trkpt lat="48.74861" lon="2.51303">
        <ele>91.812631</ele>
        <time>2021-12-05T03:28:16.089Z</time>
      </trkpt>
      <trkpt lat="48.74868" lon="2.51291">
        <ele>91.713942</ele>
        <time>2021-12-05T03:28:19.039Z</time>
      </trkpt>
      <trkpt lat="48.74878" lon="2.51286">
        <ele>91.606512</ele>
        <time>2021-12-05T03:28:21.505Z</time>
      </trkpt>
      <trkpt lat="48.74895" lon="2.51268">
        <ele>91.406984</ele>
        <time>2021-12-05T03:28:26.084Z</time>
      </trkpt>
      <trkpt lat="48.74962" lon="2.51196">
        <ele>90.609573</ele>
        <time>2021-12-05T03:28:43.560Z</time>
      </trkpt>
      <trkpt lat="48.74967" lon="2.51192">
        <ele>90.558509</ele>
        <time>2021-12-05T03:28:44.633Z</time>
      </trkpt>
      <trkpt lat="48.75008" lon="2.51151">
        <ele>90.032798</ele>
        <time>2021-12-05T03:28:54.504Z</time>
      </trkpt>
      <trkpt lat="48.75017" lon="2.51143">
        <ele>89.63582</ele>
        <time>2021-12-05T03:28:56.377Z</time>
      </trkpt>
      <trkpt lat="48.75088" lon="2.51062">
        <ele>86.034426</ele>
        <time>2021-12-05T03:29:11.716Z</time>
      </trkpt>
      <trkpt lat="48.75114" lon="2.51026">
        <ele>84.609333</ele>
        <time>2021-12-05T03:29:17.369Z</time>
      </trkpt>
      <trkpt lat="48.75124" lon="2.51004">
        <ele>83.896883</ele>
        <time>2021-12-05T03:29:20.135Z</time>
      </trkpt>
      <trkpt lat="48.75151" lon="2.50965">
        <ele>82.076264</ele>
        <time>2021-12-05T03:29:25.867Z</time>
      </trkpt>
      <trkpt lat="48.75187" lon="2.50927">
        <ele>78.949486</ele>
        <time>2021-12-05T03:29:32.561Z</time>
      </trkpt>
      <trkpt lat="48.75197" lon="2.50916">
        <ele>78.042038</ele>
        <time>2021-12-05T03:29:34.483Z</time>
      </trkpt>
      <trkpt lat="48.75207" lon="2.50902">
        <ele>77.095803</ele>
        <time>2021-12-05T03:29:36.495Z</time>
      </trkpt>
      <trkpt lat="48.75235" lon="2.50865">
        <ele>74.452933</ele>
        <time>2021-12-05T03:29:42.057Z</time>
      </trkpt>
      <trkpt lat="48.75363" lon="2.50691">
        <ele>62.263004</ele>
        <time>2021-12-05T03:30:07.749Z</time>
      </trkpt>
      <trkpt lat="48.75365" lon="2.50678">
        <ele>61.63087</ele>
        <time>2021-12-05T03:30:09.103Z</time>
      </trkpt>
      <trkpt lat="48.75364" lon="2.50663">
        <ele>60.917338</ele>
        <time>2021-12-05T03:30:10.648Z</time>
      </trkpt>
      <trkpt lat="48.75378" lon="2.50659">
        <ele>59.902265</ele>
        <time>2021-12-05T03:30:12.851Z</time>
      </trkpt>
      <trkpt lat="48.75411" lon="2.50644">
        <ele>57.51547</ele>
        <time>2021-12-05T03:30:18.082Z</time>
      </trkpt>
      <trkpt lat="48.75443" lon="2.50607">
        <ele>55.574319</ele>
        <time>2021-12-05T03:30:24.462Z</time>
      </trkpt>
      <trkpt lat="48.75449" lon="2.50597">
        <ele>55.156718</ele>
        <time>2021-12-05T03:30:25.883Z</time>
      </trkpt>
      <trkpt lat="48.75501" lon="2.5053">
        <ele>52.030991</ele>
        <time>2021-12-05T03:30:36.852Z</time>
      </trkpt>
      <trkpt lat="48.75504" lon="2.50514">
        <ele>51.552416</ele>
        <time>2021-12-05T03:30:38.561Z</time>
      </trkpt>
      <trkpt lat="48.75494" lon="2.50503">
        <ele>50.975014</ele>
        <time>2021-12-05T03:30:40.682Z</time>
      </trkpt>
      <trkpt lat="48.75515" lon="2.50493">
        <ele>49.95469</ele>
        <time>2021-12-05T03:30:44.651Z</time>
      </trkpt>
      <trkpt lat="48.75574" lon="2.50476">
        <ele>47.987752</ele>
        <time>2021-12-05T03:30:55.751Z</time>
      </trkpt>
      <trkpt lat="48.75633" lon="2.50437">
        <ele>46.282803</ele>
        <time>2021-12-05T03:31:07.927Z</time>
      </trkpt>
      <trkpt lat="48.75674" lon="2.50395">
        <ele>44.983967</ele>
        <time>2021-12-05T03:31:17.339Z</time>
      </trkpt>
      <trkpt lat="48.75754" lon="2.50273">
        <ele>42.610062</ele>
        <time>2021-12-05T03:31:39.744Z</time>
      </trkpt>
      <trkpt lat="48.75757" lon="2.50261">
        <ele>42.448773</ele>
        <time>2021-12-05T03:31:41.448Z</time>
      </trkpt>
      <trkpt lat="48.75759" lon="2.50249">
        <ele>42.291402</ele>
        <time>2021-12-05T03:31:43.030Z</time>
      </trkpt>
      <trkpt lat="48.75759" lon="2.50244">
        <ele>42.237722</ele>
        <time>2021-12-05T03:31:43.560Z</time>
      </trkpt>
      <trkpt lat="48.75776" lon="2.50233">
        <ele>41.87535</ele>
        <time>2021-12-05T03:31:47.149Z</time>
      </trkpt>
      <trkpt lat="48.75814" lon="2.50176">
        <ele>40.852523</ele>
        <time>2021-12-05T03:31:58.019Z</time>
      </trkpt>
      <trkpt lat="48.75854" lon="2.50105">
        <ele>40.274404</ele>
        <time>2021-12-05T03:32:10.857Z</time>
      </trkpt>
      <trkpt lat="48.75861" lon="2.50078">
        <ele>40.100966</ele>
        <time>2021-12-05T03:32:14.764Z</time>
      </trkpt>
      <trkpt lat="48.7587" lon="2.50067">
        <ele>39.993476</ele>
        <time>2021-12-05T03:32:22.731Z</time>
      </trkpt>
      <trkpt lat="48.75879" lon="2.50061">
        <ele>39.898182</ele>
        <time>2021-12-05T03:32:24.882Z</time>
      </trkpt>
      <trkpt lat="48.75884" lon="2.5005">
        <ele>39.818273</ele>
        <time>2021-12-05T03:32:26.670Z</time>
      </trkpt>
      <trkpt lat="48.75884" lon="2.50044">
        <ele>39.785067</ele>
        <time>2021-12-05T03:32:27.417Z</time>
      </trkpt>
      <trkpt lat="48.759" lon="2.50037">
        <ele>39.626049</ele>
        <time>2021-12-05T03:32:31.133Z</time>
      </trkpt>
      <trkpt lat="48.75934" lon="2.49988">
        <ele>39.190821</ele>
        <time>2021-12-05T03:32:41.058Z</time>
      </trkpt>
      <trkpt lat="48.75992" lon="2.4988">
        <ele>39.052515</ele>
        <time>2021-12-05T03:33:01.515Z</time>
      </trkpt>
      <trkpt lat="48.7606" lon="2.49742">
        <ele>38.882571</ele>
        <time>2021-12-05T03:33:27.927Z</time>
      </trkpt>
      <trkpt lat="48.76075" lon="2.49678">
        <ele>38.783861</ele>
        <time>2021-12-05T03:33:37.871Z</time>
      </trkpt>
      <trkpt lat="48.76083" lon="2.4967">
        <ele>38.76419</ele>
        <time>2021-12-05T03:33:41.155Z</time>
      </trkpt>
      <trkpt lat="48.76086" lon="2.49667">
        <ele>38.754689</ele>
        <time>2021-12-05T03:33:42.687Z</time>
      </trkpt>
      <trkpt lat="48.76095" lon="2.49684">
        <ele>38.722665</ele>
        <time>2021-12-05T03:33:48.103Z</time>
      </trkpt>
      <trkpt lat="48.76101" lon="2.4968">
        <ele>38.707913</ele>
        <time>2021-12-05T03:33:50.595Z</time>
      </trkpt>
      <trkpt lat="48.76149" lon="2.49613">
        <ele>38.564272</ele>
        <time>2021-12-05T03:34:14.665Z</time>
      </trkpt>
      <trkpt lat="48.76166" lon="2.49573">
        <ele>38.461625</ele>
        <time>2021-12-05T03:34:26.521Z</time>
      </trkpt>
      <trkpt lat="48.76172" lon="2.49574">
        <ele>38.439483</ele>
        <time>2021-12-05T03:34:28.606Z</time>
      </trkpt>
      <trkpt lat="48.76179" lon="2.49571">
        <ele>38.409655</ele>
        <time>2021-12-05T03:34:31.487Z</time>
      </trkpt>
      <trkpt lat="48.76194" lon="2.49543">
        <ele>38.318255</ele>
        <time>2021-12-05T03:34:40.071Z</time>
      </trkpt>
      <trkpt lat="48.76207" lon="2.49541">
        <ele>38.269081</ele>
        <time>2021-12-05T03:34:44.738Z</time>
      </trkpt>
      <trkpt lat="48.76284" lon="2.49439">
        <ele>37.868917</ele>
        <time>2021-12-05T03:35:22.546Z</time>
      </trkpt>
      <trkpt lat="48.76287" lon="2.49424">
        <ele>37.835352</ele>
        <time>2021-12-05T03:35:26.330Z</time>
      </trkpt>
      <trkpt lat="48.76287" lon="2.49418">
        <ele>37.830889</ele>
        <time>2021-12-05T03:35:27.910Z</time>
      </trkpt>
      <trkpt lat="48.76323" lon="2.49389">
        <ele>37.789619</ele>
        <time>2021-12-05T03:35:43.240Z</time>
      </trkpt>
      <trkpt lat="48.76329" lon="2.49361">
        <ele>37.770489</ele>
        <time>2021-12-05T03:35:50.358Z</time>
      </trkpt>
      <trkpt lat="48.76332" lon="2.49352">
        <ele>37.763913</ele>
        <time>2021-12-05T03:35:52.871Z</time>
      </trkpt>
      <trkpt lat="48.76353" lon="2.49355">
        <ele>37.742053</ele>
        <time>2021-12-05T03:36:01.033Z</time>
      </trkpt>
      <trkpt lat="48.76422" lon="2.49255">
        <ele>37.675141</ele>
        <time>2021-12-05T03:36:37.557Z</time>
      </trkpt>
      <trkpt lat="48.76426" lon="2.49266">
        <ele>37.688465</ele>
        <time>2021-12-05T03:36:40.138Z</time>
      </trkpt>
      <trkpt lat="48.76429" lon="2.49275">
        <ele>37.700462</ele>
        <time>2021-12-05T03:36:42.455Z</time>
      </trkpt>
      <trkpt lat="48.76432" lon="2.49282">
        <ele>37.70907</ele>
        <time>2021-12-05T03:36:44.107Z</time>
      </trkpt>
      <trkpt lat="48.7654" lon="2.49141">
        <ele>37.943784</ele>
        <time>2021-12-05T03:37:20.725Z</time>
      </trkpt>
      <trkpt lat="48.76596" lon="2.49068">
        <ele>37.797406</ele>
        <time>2021-12-05T03:37:38.442Z</time>
      </trkpt>
      <trkpt lat="48.76617" lon="2.49039">
        <ele>37.732702</ele>
        <time>2021-12-05T03:37:45.004Z</time>
      </trkpt>
      <trkpt lat="48.76632" lon="2.49033">
        <ele>37.695389</ele>
        <time>2021-12-05T03:37:48.824Z</time>
      </trkpt>
      <trkpt lat="48.76639" lon="2.49024">
        <ele>37.674345</ele>
        <time>2021-12-05T03:37:50.913Z</time>
      </trkpt>
      <trkpt lat="48.76642" lon="2.49008">
        <ele>37.64837</ele>
        <time>2021-12-05T03:37:53.470Z</time>
      </trkpt>
      <trkpt lat="48.76649" lon="2.48997">
        <ele>37.624979</ele>
        <time>2021-12-05T03:37:55.807Z</time>
      </trkpt>
      <trkpt lat="48.7671" lon="2.48935">
        <ele>37.547467</ele>
        <time>2021-12-05T03:38:12.391Z</time>
      </trkpt>
      <trkpt lat="48.76725" lon="2.48913">
        <ele>37.55394</ele>
        <time>2021-12-05T03:38:17.080Z</time>
      </trkpt>
      <trkpt lat="48.76746" lon="2.4889">
        <ele>37.561917</ele>
        <time>2021-12-05T03:38:23.172Z</time>
      </trkpt>
      <trkpt lat="48.76779" lon="2.48855">
        <ele>37.57438</ele>
        <time>2021-12-05T03:38:33.209Z</time>
      </trkpt>
      <trkpt lat="48.76812" lon="2.48855">
        <ele>37.584548</ele>
        <time>2021-12-05T03:38:41.977Z</time>
      </trkpt>
      <trkpt lat="48.76853" lon="2.48859">
        <ele>37.803029</ele>
        <time>2021-12-05T03:38:52.979Z</time>
      </trkpt>
      <trkpt lat="48.76855" lon="2.48857">
        <ele>37.830879</ele>
        <time>2021-12-05T03:38:53.610Z</time>
      </trkpt>
      <trkpt lat="48.76858" lon="2.48852">
        <ele>37.892135</ele>
        <time>2021-12-05T03:38:54.980Z</time>
      </trkpt>
      <trkpt lat="48.7686" lon="2.4885">
        <ele>37.930707</ele>
        <time>2021-12-05T03:38:55.821Z</time>
      </trkpt>
      <trkpt lat="48.76862" lon="2.48847">
        <ele>37.958981</ele>
        <time>2021-12-05T03:38:56.476Z</time>
      </trkpt>
      <trkpt lat="48.76869" lon="2.48824">
        <ele>38.171214</ele>
        <time>2021-12-05T03:39:01.312Z</time>
      </trkpt>
      <trkpt lat="48.76872" lon="2.4882">
        <ele>38.231498</ele>
        <time>2021-12-05T03:39:02.634Z</time>
      </trkpt>
      <trkpt lat="48.76878" lon="2.48812">
        <ele>38.331462</ele>
        <time>2021-12-05T03:39:04.905Z</time>
      </trkpt>
      <trkpt lat="48.76871" lon="2.48792">
        <ele>38.521717</ele>
        <time>2021-12-05T03:39:09.397Z</time>
      </trkpt>
      <trkpt lat="48.76878" lon="2.48765">
        <ele>38.767892</ele>
        <time>2021-12-05T03:39:15.167Z</time>
      </trkpt>
      <trkpt lat="48.76883" lon="2.48758">
        <ele>38.853176</ele>
        <time>2021-12-05T03:39:17.261Z</time>
      </trkpt>
      <trkpt lat="48.771" lon="2.48539">
        <ele>43.249328</ele>
        <time>2021-12-05T03:40:49.300Z</time>
      </trkpt>
      <trkpt lat="48.77106" lon="2.48526">
        <ele>43.461994</ele>
        <time>2021-12-05T03:40:53.188Z</time>
      </trkpt>
      <trkpt lat="48.77259" lon="2.48366">
        <ele>47.263235</ele>
        <time>2021-12-05T03:42:01.640Z</time>
      </trkpt>
      <trkpt lat="48.77419" lon="2.48205">
        <ele>50.958371</ele>
        <time>2021-12-05T03:43:11.341Z</time>
      </trkpt>
      <trkpt lat="48.77571" lon="2.48048">
        <ele>53.560726</ele>
        <time>2021-12-05T03:44:13.343Z</time>
      </trkpt>
      <trkpt lat="48.77581" lon="2.48033">
        <ele>53.618082</ele>
        <time>2021-12-05T03:44:17.455Z</time>
      </trkpt>
      <trkpt lat="48.77601" lon="2.4802">
        <ele>53.705302</ele>
        <time>2021-12-05T03:44:23.547Z</time>
      </trkpt>
      <trkpt lat="48.77673" lon="2.47946">
        <ele>54.059713</ele>
        <time>2021-12-05T03:44:45.849Z</time>
      </trkpt>
      <trkpt lat="48.77781" lon="2.47833">
        <ele>53.094165</ele>
        <time>2021-12-05T03:45:14.528Z</time>
      </trkpt>
      <trkpt lat="48.78004" lon="2.47607">
        <ele>49.926371</ele>
        <time>2021-12-05T03:46:10.078Z</time>
      </trkpt>
      <trkpt lat="48.78011" lon="2.47615">
        <ele>49.899148</ele>
        <time>2021-12-05T03:46:12.128Z</time>
      </trkpt>
      <trkpt lat="48.78017" lon="2.47611">
        <ele>49.879155</ele>
        <time>2021-12-05T03:46:13.573Z</time>
      </trkpt>
      <trkpt lat="48.78024" lon="2.47606">
        <ele>49.857876</ele>
        <time>2021-12-05T03:46:15.191Z</time>
      </trkpt>
      <trkpt lat="48.78033" lon="2.47574">
        <ele>49.788431</ele>
        <time>2021-12-05T03:46:20.527Z</time>
      </trkpt>
      <trkpt lat="48.78119" lon="2.47485">
        <ele>49.481262</ele>
        <time>2021-12-05T03:46:45.569Z</time>
      </trkpt>
      <trkpt lat="48.78127" lon="2.47478">
        <ele>49.454215</ele>
        <time>2021-12-05T03:46:47.868Z</time>
      </trkpt>
      <trkpt lat="48.78163" lon="2.47442">
        <ele>49.544479</ele>
        <time>2021-12-05T03:46:59.559Z</time>
      </trkpt>
      <trkpt lat="48.78194" lon="2.47411">
        <ele>49.650517</ele>
        <time>2021-12-05T03:47:09.248Z</time>
      </trkpt>
      <trkpt lat="48.78366" lon="2.47234">
        <ele>50.089827</ele>
        <time>2021-12-05T03:48:02.705Z</time>
      </trkpt>
      <trkpt lat="48.78471" lon="2.47127">
        <ele>50.145454</ele>
        <time>2021-12-05T03:48:34.004Z</time>
      </trkpt>
      <trkpt lat="48.78602" lon="2.46991">
        <ele>49.690052</ele>
        <time>2021-12-05T03:49:11.686Z</time>
      </trkpt>
      <trkpt lat="48.78657" lon="2.46925">
        <ele>48.864172</ele>
        <time>2021-12-05T03:49:27.900Z</time>
      </trkpt>
      <trkpt lat="48.78664" lon="2.46927">
        <ele>48.778156</ele>
        <time>2021-12-05T03:49:29.553Z</time>
      </trkpt>
      <trkpt lat="48.78756" lon="2.46833">
        <ele>46.379326</ele>
        <time>2021-12-05T03:49:51.139Z</time>
      </trkpt>
      <trkpt lat="48.78778" lon="2.46916">
        <ele>43.947006</ele>
        <time>2021-12-05T03:50:01.315Z</time>
      </trkpt>
      <trkpt lat="48.78814" lon="2.47044">
        <ele>40.159469</ele>
        <time>2021-12-05T03:50:16.940Z</time>
      </trkpt>
      <trkpt lat="48.78821" lon="2.4707">
        <ele>39.494653</ele>
        <time>2021-12-05T03:50:20.010Z</time>
      </trkpt>
      <trkpt lat="48.78831" lon="2.47107">
        <ele>38.508639</ele>
        <time>2021-12-05T03:50:24.533Z</time>
      </trkpt>
      <trkpt lat="48.78851" lon="2.47177">
        <ele>36.664081</ele>
        <time>2021-12-05T03:50:33.266Z</time>
      </trkpt>
      <trkpt lat="48.789" lon="2.47287">
        <ele>33.769886</ele>
        <time>2021-12-05T03:50:54.752Z</time>
      </trkpt>
      <trkpt lat="48.78902" lon="2.47293">
        <ele>33.739316</ele>
        <time>2021-12-05T03:50:56.061Z</time>
      </trkpt>
      <trkpt lat="48.78946" lon="2.4739">
        <ele>33.274042</ele>
        <time>2021-12-05T03:51:17.822Z</time>
      </trkpt>
      <trkpt lat="48.78956" lon="2.4738">
        <ele>33.200408</ele>
        <time>2021-12-05T03:51:32.945Z</time>
      </trkpt>
      <trkpt lat="48.78957" lon="2.47381">
        <ele>33.192226</ele>
        <time>2021-12-05T03:51:33.357Z</time>
      </trkpt>
      <trkpt lat="48.78958" lon="2.47383">
        <ele>33.181921</ele>
        <time>2021-12-05T03:51:33.865Z</time>
      </trkpt>
      <trkpt lat="48.78996" lon="2.47346">
        <ele>32.910905</ele>
        <time>2021-12-05T03:51:44.136Z</time>
      </trkpt>
      <trkpt lat="48.79002" lon="2.4734">
        <ele>32.865557</ele>
        <time>2021-12-05T03:51:45.929Z</time>
      </trkpt>
      <trkpt lat="48.79009" lon="2.47334">
        <ele>32.815271</ele>
        <time>2021-12-05T03:51:48.038Z</time>
      </trkpt>
      <trkpt lat="48.79053" lon="2.47294">
        <ele>32.835807</ele>
        <time>2021-12-05T03:52:00.754Z</time>
      </trkpt>
      <trkpt lat="48.79059" lon="2.47288">
        <ele>32.853579</ele>
        <time>2021-12-05T03:52:02.520Z</time>
      </trkpt>
      <trkpt lat="48.79065" lon="2.47283">
        <ele>32.870783</ele>
        <time>2021-12-05T03:52:04.218Z</time>
      </trkpt>
      <trkpt lat="48.79116" lon="2.47255">
        <ele>33.005454</ele>
        <time>2021-12-05T03:52:17.209Z</time>
      </trkpt>
      <trkpt lat="48.79121" lon="2.47254">
        <ele>33.018346</ele>
        <time>2021-12-05T03:52:18.485Z</time>
      </trkpt>
      <trkpt lat="48.79133" lon="2.47252">
        <ele>33.048745</ele>
        <time>2021-12-05T03:52:21.470Z</time>
      </trkpt>
      <trkpt lat="48.79254" lon="2.47241">
        <ele>33.272392</ele>
        <time>2021-12-05T03:52:51.561Z</time>
      </trkpt>
      <trkpt lat="48.79257" lon="2.47241">
        <ele>33.276903</ele>
        <time>2021-12-05T03:52:52.385Z</time>
      </trkpt>
      <trkpt lat="48.79323" lon="2.47247">
        <ele>33.360808</ele>
        <time>2021-12-05T03:53:07.711Z</time>
      </trkpt>
      <trkpt lat="48.79358" lon="2.47247">
        <ele>33.406356</ele>
        <time>2021-12-05T03:53:15.985Z</time>
      </trkpt>
      <trkpt lat="48.79369" lon="2.47245">
        <ele>33.418154</ele>
        <time>2021-12-05T03:53:18.613Z</time>
      </trkpt>
      <trkpt lat="48.79427" lon="2.4723">
        <ele>33.256518</ele>
        <time>2021-12-05T03:53:31.947Z</time>
      </trkpt>
      <trkpt lat="48.79435" lon="2.47228">
        <ele>33.235458</ele>
        <time>2021-12-05T03:53:33.592Z</time>
      </trkpt>
      <trkpt lat="48.79443" lon="2.47225">
        <ele>33.211748</ele>
        <time>2021-12-05T03:53:35.462Z</time>
      </trkpt>
      <trkpt lat="48.79513" lon="2.47201">
        <ele>33.016691</ele>
        <time>2021-12-05T03:53:50.826Z</time>
      </trkpt>
      <trkpt lat="48.79521" lon="2.47198">
        <ele>32.992181</ele>
        <time>2021-12-05T03:53:52.783Z</time>
      </trkpt>
      <trkpt lat="48.79533" lon="2.47194">
        <ele>32.958323</ele>
        <time>2021-12-05T03:53:55.530Z</time>
      </trkpt>
      <trkpt lat="48.79583" lon="2.47178">
        <ele>32.881462</ele>
        <time>2021-12-05T03:54:06.741Z</time>
      </trkpt>
      <trkpt lat="48.79657" lon="2.47159">
        <ele>32.794955</ele>
        <time>2021-12-05T03:54:23.770Z</time>
      </trkpt>
      <trkpt lat="48.79724" lon="2.47143">
        <ele>32.723721</ele>
        <time>2021-12-05T03:54:39.161Z</time>
      </trkpt>
      <trkpt lat="48.79732" lon="2.47141">
        <ele>32.737077</ele>
        <time>2021-12-05T03:54:41.004Z</time>
      </trkpt>
      <trkpt lat="48.7974" lon="2.47139">
        <ele>32.751994</ele>
        <time>2021-12-05T03:54:43.158Z</time>
      </trkpt>
      <trkpt lat="48.799" lon="2.47113">
        <ele>33.031766</ele>
        <time>2021-12-05T03:55:21.627Z</time>
      </trkpt>
      <trkpt lat="48.79905" lon="2.47101">
        <ele>33.068796</ele>
        <time>2021-12-05T03:55:24.027Z</time>
      </trkpt>
      <trkpt lat="48.7991" lon="2.47093">
        <ele>33.099835</ele>
        <time>2021-12-05T03:55:26.055Z</time>
      </trkpt>
      <trkpt lat="48.7995" lon="2.47077">
        <ele>33.265342</ele>
        <time>2021-12-05T03:55:37.386Z</time>
      </trkpt>
      <trkpt lat="48.79953" lon="2.47076">
        <ele>33.277979</ele>
        <time>2021-12-05T03:55:38.193Z</time>
      </trkpt>
      <trkpt lat="48.80067" lon="2.47021">
        <ele>33.756128</ele>
        <time>2021-12-05T03:56:08.130Z</time>
      </trkpt>
      <trkpt lat="48.80199" lon="2.46963">
        <ele>33.659384</ele>
        <time>2021-12-05T03:56:41.337Z</time>
      </trkpt>
      <trkpt lat="48.80274" lon="2.46972">
        <ele>33.538133</ele>
        <time>2021-12-05T03:56:56.912Z</time>
      </trkpt>
      <trkpt lat="48.8035" lon="2.46968">
        <ele>33.3286</ele>
        <time>2021-12-05T03:57:13.065Z</time>
      </trkpt>
      <trkpt lat="48.80403" lon="2.46941">
        <ele>33.174688</ele>
        <time>2021-12-05T03:57:25.856Z</time>
      </trkpt>
      <trkpt lat="48.80471" lon="2.46905">
        <ele>33.357482</ele>
        <time>2021-12-05T03:57:44.196Z</time>
      </trkpt>
      <trkpt lat="48.80495" lon="2.46902">
        <ele>33.449291</ele>
        <time>2021-12-05T03:57:50.367Z</time>
      </trkpt>
      <trkpt lat="48.80498" lon="2.4691">
        <ele>33.472333</ele>
        <time>2021-12-05T03:57:52.009Z</time>
      </trkpt>
      <trkpt lat="48.80576" lon="2.46871">
        <ele>33.792991</ele>
        <time>2021-12-05T03:58:13.402Z</time>
      </trkpt>
      <trkpt lat="48.80584" lon="2.46867">
        <ele>33.823656</ele>
        <time>2021-12-05T03:58:15.437Z</time>
      </trkpt>
      <trkpt lat="48.80608" lon="2.4684">
        <ele>33.758287</ele>
        <time>2021-12-05T03:58:22.899Z</time>
      </trkpt>
      <trkpt lat="48.80665" lon="2.46771">
        <ele>33.560558</ele>
        <time>2021-12-05T03:58:39.944Z</time>
      </trkpt>
      <trkpt lat="48.80715" lon="2.4671">
        <ele>33.386519</ele>
        <time>2021-12-05T03:58:53.422Z</time>
      </trkpt>
      <trkpt lat="48.80722" lon="2.46702">
        <ele>33.362045</ele>
        <time>2021-12-05T03:58:55.217Z</time>
      </trkpt>
      <trkpt lat="48.80729" lon="2.46693">
        <ele>33.318064</ele>
        <time>2021-12-05T03:58:57.033Z</time>
      </trkpt>
      <trkpt lat="48.80747" lon="2.46669">
        <ele>33.097401</ele>
        <time>2021-12-05T03:59:01.835Z</time>
      </trkpt>
      <trkpt lat="48.8075" lon="2.46655">
        <ele>33.007996</ele>
        <time>2021-12-05T03:59:03.768Z</time>
      </trkpt>
      <trkpt lat="48.80742" lon="2.46572">
        <ele>32.502458</ele>
        <time>2021-12-05T03:59:14.837Z</time>
      </trkpt>
      <trkpt lat="48.80711" lon="2.46517">
        <ele>32.059955</ele>
        <time>2021-12-05T03:59:24.574Z</time>
      </trkpt>
      <trkpt lat="48.80708" lon="2.46519">
        <ele>32.031848</ele>
        <time>2021-12-05T03:59:25.197Z</time>
      </trkpt>
      <trkpt lat="48.80712" lon="2.46512">
        <ele>31.974662</ele>
        <time>2021-12-05T03:59:26.518Z</time>
      </trkpt>
      <trkpt lat="48.80815" lon="2.46373">
        <ele>31.421099</ele>
        <time>2021-12-05T03:59:55.996Z</time>
      </trkpt>
      <trkpt lat="48.80924" lon="2.46175">
        <ele>31.366235</ele>
        <time>2021-12-05T04:00:36.635Z</time>
      </trkpt>
      <trkpt lat="48.80956" lon="2.46097">
        <ele>31.448974</ele>
        <time>2021-12-05T04:00:51.195Z</time>
      </trkpt>
      <trkpt lat="48.80959" lon="2.46089">
        <ele>31.457583</ele>
        <time>2021-12-05T04:00:52.669Z</time>
      </trkpt>
      <trkpt lat="48.80974" lon="2.46059">
        <ele>31.491482</ele>
        <time>2021-12-05T04:01:02.086Z</time>
      </trkpt>
      <trkpt lat="48.81001" lon="2.46002">
        <ele>31.559519</ele>
        <time>2021-12-05T04:01:12.792Z</time>
      </trkpt>
      <trkpt lat="48.81058" lon="2.45863">
        <ele>31.716619</ele>
        <time>2021-12-05T04:01:37.878Z</time>
      </trkpt>
      <trkpt lat="48.81114" lon="2.45774">
        <ele>32.365405</ele>
        <time>2021-12-05T04:02:00.094Z</time>
      </trkpt>
      <trkpt lat="48.81123" lon="2.45759">
        <ele>32.489956</ele>
        <time>2021-12-05T04:02:03.946Z</time>
      </trkpt>
      <trkpt lat="48.81135" lon="2.45761">
        <ele>32.604669</ele>
        <time>2021-12-05T04:02:07.233Z</time>
      </trkpt>
      <trkpt lat="48.81159" lon="2.45803">
        <ele>32.955371</ele>
        <time>2021-12-05T04:02:17.964Z</time>
      </trkpt>
      <trkpt lat="48.81214" lon="2.45899">
        <ele>33.971662</ele>
        <time>2021-12-05T04:02:50.203Z</time>
      </trkpt>
      <trkpt lat="48.8121" lon="2.45905">
        <ele>34.061907</ele>
        <time>2021-12-05T04:02:52.418Z</time>
      </trkpt>
      <trkpt lat="48.8133" lon="2.46109">
        <ele>37.583787</ele>
        <time>2021-12-05T04:03:51.673Z</time>
      </trkpt>
      <trkpt lat="48.81404" lon="2.4623">
        <ele>41.008913</ele>
        <time>2021-12-05T04:04:38.908Z</time>
      </trkpt>
      <trkpt lat="48.81421" lon="2.46238">
        <ele>41.564926</ele>
        <time>2021-12-05T04:04:46.995Z</time>
      </trkpt>
      <trkpt lat="48.81433" lon="2.46231">
        <ele>41.970133</ele>
        <time>2021-12-05T04:04:53.396Z</time>
      </trkpt>
      <trkpt lat="48.81434" lon="2.46229">
        <ele>42.039336</ele>
        <time>2021-12-05T04:04:54.385Z</time>
      </trkpt>
      <trkpt lat="48.81438" lon="2.46234">
        <ele>42.208082</ele>
        <time>2021-12-05T04:04:56.657Z</time>
      </trkpt>
      <trkpt lat="48.81441" lon="2.46239">
        <ele>42.408473</ele>
        <time>2021-12-05T04:04:58.976Z</time>
      </trkpt>
      <trkpt lat="48.81488" lon="2.46287">
        <ele>44.76096</ele>
        <time>2021-12-05T04:05:26.302Z</time>
      </trkpt>
      <trkpt lat="48.81495" lon="2.46296">
        <ele>45.146384</ele>
        <time>2021-12-05T04:05:30.861Z</time>
      </trkpt>
      <trkpt lat="48.81503" lon="2.46301">
        <ele>45.496705</ele>
        <time>2021-12-05T04:05:34.942Z</time>
      </trkpt>
      <trkpt lat="48.81505" lon="2.46304">
        <ele>45.626335</ele>
        <time>2021-12-05T04:05:36.454Z</time>
      </trkpt>
      <trkpt lat="48.81506" lon="2.46305">
        <ele>45.664839</ele>
        <time>2021-12-05T04:05:36.916Z</time>
      </trkpt>
      <trkpt lat="48.81579" lon="2.46151">
        <ele>50.856107</ele>
        <time>2021-12-05T04:06:38.480Z</time>
      </trkpt>
      <trkpt lat="48.81652" lon="2.46009">
        <ele>55.768983</ele>
        <time>2021-12-05T04:07:35.084Z</time>
      </trkpt>
      <trkpt lat="48.81668" lon="2.45986">
        <ele>56.671329</ele>
        <time>2021-12-05T04:07:47.274Z</time>
      </trkpt>
      <trkpt lat="48.81678" lon="2.45974">
        <ele>57.120412</ele>
        <time>2021-12-05T04:07:53.008Z</time>
      </trkpt>
      <trkpt lat="48.81686" lon="2.45963">
        <ele>57.454899</ele>
        <time>2021-12-05T04:07:59.230Z</time>
      </trkpt>
      <trkpt lat="48.81696" lon="2.45953">
        <ele>57.794009</ele>
        <time>2021-12-05T04:08:05.777Z</time>
      </trkpt>
      <trkpt lat="48.81724" lon="2.45925">
        <ele>58.746844</ele>
        <time>2021-12-05T04:08:22.675Z</time>
      </trkpt>
      <trkpt lat="48.81729" lon="2.45918">
        <ele>58.951553</ele>
        <time>2021-12-05T04:08:26.088Z</time>
      </trkpt>
      <trkpt lat="48.81734" lon="2.45913">
        <ele>59.127241</ele>
        <time>2021-12-05T04:08:28.847Z</time>
      </trkpt>
      <trkpt lat="48.81739" lon="2.45908">
        <ele>59.307143</ele>
        <time>2021-12-05T04:08:31.683Z</time>
      </trkpt>
      <trkpt lat="48.81743" lon="2.45904">
        <ele>59.442187</ele>
        <time>2021-12-05T04:08:33.772Z</time>
      </trkpt>
      <trkpt lat="48.81784" lon="2.4599">
        <ele>61.438498</ele>
        <time>2021-12-05T04:09:01.777Z</time>
      </trkpt>
      <trkpt lat="48.81823" lon="2.46072">
        <ele>61.586861</ele>
        <time>2021-12-05T04:09:19.182Z</time>
      </trkpt>
      <trkpt lat="48.81846" lon="2.46121">
        <ele>60.961937</ele>
        <time>2021-12-05T04:09:27.812Z</time>
      </trkpt>
      <trkpt lat="48.81895" lon="2.46215">
        <ele>59.727703</ele>
        <time>2021-12-05T04:09:42.653Z</time>
      </trkpt>
      <trkpt lat="48.81911" lon="2.4622">
        <ele>59.471406</ele>
        <time>2021-12-05T04:09:45.554Z</time>
      </trkpt>
      <trkpt lat="48.81981" lon="2.46164">
        <ele>57.428341</ele>
        <time>2021-12-05T04:09:59.263Z</time>
      </trkpt>
      <trkpt lat="48.82075" lon="2.46022">
        <ele>54.318248</ele>
        <time>2021-12-05T04:10:23.239Z</time>
      </trkpt>
      <trkpt lat="48.82077" lon="2.46023">
        <ele>54.287011</ele>
        <time>2021-12-05T04:10:23.734Z</time>
      </trkpt>
      <trkpt lat="48.82142" lon="2.45956">
        <ele>53.286812</ele>
        <time>2021-12-05T04:10:40.128Z</time>
      </trkpt>
      <trkpt lat="48.82239" lon="2.45884">
        <ele>52.320378</ele>
        <time>2021-12-05T04:11:03.894Z</time>
      </trkpt>
      <trkpt lat="48.82368" lon="2.45784">
        <ele>52.121349</ele>
        <time>2021-12-05T04:11:39.030Z</time>
      </trkpt>
      <trkpt lat="48.82369" lon="2.45779">
        <ele>52.13275</ele>
        <time>2021-12-05T04:11:39.979Z</time>
      </trkpt>
      <trkpt lat="48.82375" lon="2.45759">
        <ele>52.180957</ele>
        <time>2021-12-05T04:11:43.899Z</time>
      </trkpt>
      <trkpt lat="48.82383" lon="2.45753">
        <ele>52.209096</ele>
        <time>2021-12-05T04:11:46.120Z</time>
      </trkpt>
      <trkpt lat="48.8239" lon="2.45753">
        <ele>52.23296</ele>
        <time>2021-12-05T04:11:47.970Z</time>
      </trkpt>
      <trkpt lat="48.8241" lon="2.45747">
        <ele>52.299196</ele>
        <time>2021-12-05T04:11:53.124Z</time>
      </trkpt>
      <trkpt lat="48.82443" lon="2.45717">
        <ele>52.425957</ele>
        <time>2021-12-05T04:12:03.046Z</time>
      </trkpt>
      <trkpt lat="48.82561" lon="2.45595">
        <ele>52.97256</ele>
        <time>2021-12-05T04:12:38.495Z</time>
      </trkpt>
      <trkpt lat="48.82671" lon="2.45468">
        <ele>53.665785</ele>
        <time>2021-12-05T04:13:14.499Z</time>
      </trkpt>
      <trkpt lat="48.82674" lon="2.45461">
        <ele>53.714736</ele>
        <time>2021-12-05T04:13:16.247Z</time>
      </trkpt>
      <trkpt lat="48.82674" lon="2.45461">
        <ele>53.715773</ele>
        <time>2021-12-05T04:13:16.284Z</time>
      </trkpt>
      <trkpt lat="48.82677" lon="2.45431">
        <ele>53.872662</ele>
        <time>2021-12-05T04:13:21.553Z</time>
      </trkpt>
      <trkpt lat="48.82688" lon="2.45408">
        <ele>54.018812</ele>
        <time>2021-12-05T04:13:26.777Z</time>
      </trkpt>
      <trkpt lat="48.82706" lon="2.45404">
        <ele>54.162192</ele>
        <time>2021-12-05T04:13:31.736Z</time>
      </trkpt>
      <trkpt lat="48.8272" lon="2.45402">
        <ele>54.272656</ele>
        <time>2021-12-05T04:13:35.820Z</time>
      </trkpt>
      <trkpt lat="48.82734" lon="2.45392">
        <ele>54.390202</ele>
        <time>2021-12-05T04:13:39.963Z</time>
      </trkpt>
      <trkpt lat="48.82899" lon="2.45171">
        <ele>55.951829</ele>
        <time>2021-12-05T04:14:42.548Z</time>
      </trkpt>
      <trkpt lat="48.83108" lon="2.44894">
        <ele>55.489501</ele>
        <time>2021-12-05T04:15:45.389Z</time>
      </trkpt>
      <trkpt lat="48.83299" lon="2.44626">
        <ele>52.631493</ele>
        <time>2021-12-05T04:16:36.400Z</time>
      </trkpt>
      <trkpt lat="48.83355" lon="2.44535">
        <ele>51.537675</ele>
        <time>2021-12-05T04:16:52.736Z</time>
      </trkpt>
      <trkpt lat="48.83384" lon="2.44494">
        <ele>50.988402</ele>
        <time>2021-12-05T04:17:00.646Z</time>
      </trkpt>
      <trkpt lat="48.83403" lon="2.44469">
        <ele>50.647842</ele>
        <time>2021-12-05T04:17:05.474Z</time>
      </trkpt>
      <trkpt lat="48.83421" lon="2.44447">
        <ele>50.337968</ele>
        <time>2021-12-05T04:17:09.972Z</time>
      </trkpt>
      <trkpt lat="48.83518" lon="2.44323">
        <ele>48.799585</ele>
        <time>2021-12-05T04:17:34.563Z</time>
      </trkpt>
      <trkpt lat="48.83647" lon="2.44152">
        <ele>47.676466</ele>
        <time>2021-12-05T04:18:09.788Z</time>
      </trkpt>
      <trkpt lat="48.8366" lon="2.44134">
        <ele>47.669783</ele>
        <time>2021-12-05T04:18:14.076Z</time>
      </trkpt>
      <trkpt lat="48.83672" lon="2.44118">
        <ele>47.664089</ele>
        <time>2021-12-05T04:18:17.720Z</time>
      </trkpt>
      <trkpt lat="48.83703" lon="2.44076">
        <ele>47.648863</ele>
        <time>2021-12-05T04:18:27.867Z</time>
      </trkpt>
      <trkpt lat="48.83923" lon="2.43767">
        <ele>50.355713</ele>
        <time>2021-12-05T04:19:56.402Z</time>
      </trkpt>
      <trkpt lat="48.83929" lon="2.4376">
        <ele>50.422878</ele>
        <time>2021-12-05T04:19:58.483Z</time>
      </trkpt>
      <trkpt lat="48.83934" lon="2.43763">
        <ele>50.470777</ele>
        <time>2021-12-05T04:20:00.804Z</time>
      </trkpt>
      <trkpt lat="48.83937" lon="2.43769">
        <ele>50.519122</ele>
        <time>2021-12-05T04:20:03.152Z</time>
      </trkpt>
      <trkpt lat="48.83942" lon="2.4378">
        <ele>50.600732</ele>
        <time>2021-12-05T04:20:07.049Z</time>
      </trkpt>
      <trkpt lat="48.83953" lon="2.43765">
        <ele>50.735731</ele>
        <time>2021-12-05T04:20:13.236Z</time>
      </trkpt>
      <trkpt lat="48.83989" lon="2.4377">
        <ele>51.078448</ele>
        <time>2021-12-05T04:20:28.903Z</time>
      </trkpt>
      <trkpt lat="48.84042" lon="2.43781">
        <ele>51.277352</ele>
        <time>2021-12-05T04:20:51.120Z</time>
      </trkpt>
      <trkpt lat="48.84038" lon="2.43827">
        <ele>51.327128</ele>
        <time>2021-12-05T04:20:58.736Z</time>
      </trkpt>
      <trkpt lat="48.84041" lon="2.43827">
        <ele>51.331065</ele>
        <time>2021-12-05T04:20:59.459Z</time>
      </trkpt>
      <trkpt lat="48.84043" lon="2.43828">
        <ele>51.3355</ele>
        <time>2021-12-05T04:21:00.226Z</time>
      </trkpt>
      <trkpt lat="48.84048" lon="2.43828">
        <ele>51.343183</ele>
        <time>2021-12-05T04:21:01.491Z</time>
      </trkpt>
      <trkpt lat="48.84052" lon="2.43829">
        <ele>51.348907</ele>
        <time>2021-12-05T04:21:02.353Z</time>
      </trkpt>
      <trkpt lat="48.84067" lon="2.43832">
        <ele>51.373537</ele>
        <time>2021-12-05T04:21:05.831Z</time>
      </trkpt>
      <trkpt lat="48.84066" lon="2.43836">
        <ele>51.378712</ele>
        <time>2021-12-05T04:21:06.618Z</time>
      </trkpt>
      <trkpt lat="48.84065" lon="2.43858">
        <ele>51.402006</ele>
        <time>2021-12-05T04:21:10.157Z</time>
      </trkpt>
      <trkpt lat="48.8407" lon="2.43859">
        <ele>51.411188</ele>
        <time>2021-12-05T04:21:11.510Z</time>
      </trkpt>
      <trkpt lat="48.84091" lon="2.43863">
        <ele>51.444933</ele>
        <time>2021-12-05T04:21:16.204Z</time>
      </trkpt>
      <trkpt lat="48.84237" lon="2.43893">
        <ele>51.460055</ele>
        <time>2021-12-05T04:21:48.988Z</time>
      </trkpt>
      <trkpt lat="48.84239" lon="2.43893">
        <ele>51.458882</ele>
        <time>2021-12-05T04:21:49.596Z</time>
      </trkpt>
      <trkpt lat="48.84249" lon="2.43895">
        <ele>51.454835</ele>
        <time>2021-12-05T04:21:51.807Z</time>
      </trkpt>
      <trkpt lat="48.84258" lon="2.43897">
        <ele>51.450831</ele>
        <time>2021-12-05T04:21:53.997Z</time>
      </trkpt>
      <trkpt lat="48.84426" lon="2.43931">
        <ele>52.001636</ele>
        <time>2021-12-05T04:22:35.858Z</time>
      </trkpt>
      <trkpt lat="48.84427" lon="2.43939">
        <ele>52.025487</ele>
        <time>2021-12-05T04:22:37.412Z</time>
      </trkpt>
      <trkpt lat="48.84434" lon="2.43945">
        <ele>52.066492</ele>
        <time>2021-12-05T04:22:40.293Z</time>
      </trkpt>
      <trkpt lat="48.84437" lon="2.43946">
        <ele>52.077537</ele>
        <time>2021-12-05T04:22:41.050Z</time>
      </trkpt>
      <trkpt lat="48.84448" lon="2.43948">
        <ele>52.134088</ele>
        <time>2021-12-05T04:22:44.512Z</time>
      </trkpt>
      <trkpt lat="48.84457" lon="2.4395">
        <ele>52.176297</ele>
        <time>2021-12-05T04:22:46.939Z</time>
      </trkpt>
      <trkpt lat="48.84461" lon="2.43912">
        <ele>52.302603</ele>
        <time>2021-12-05T04:22:54.119Z</time>
      </trkpt>
      <trkpt lat="48.84464" lon="2.43875">
        <ele>52.515858</ele>
        <time>2021-12-05T04:23:01.114Z</time>
      </trkpt>
      <trkpt lat="48.8447" lon="2.43877">
        <ele>52.569098</ele>
        <time>2021-12-05T04:23:02.896Z</time>
      </trkpt>
      <trkpt lat="48.84538" lon="2.4389">
        <ele>53.161827</ele>
        <time>2021-12-05T04:23:22.692Z</time>
      </trkpt>
      <trkpt lat="48.84586" lon="2.439">
        <ele>53.58353</ele>
        <time>2021-12-05T04:23:37.318Z</time>
      </trkpt>
      <trkpt lat="48.84593" lon="2.43901">
        <ele>53.645501</ele>
        <time>2021-12-05T04:23:39.518Z</time>
      </trkpt>
      <trkpt lat="48.84641" lon="2.43911">
        <ele>54.053826</ele>
        <time>2021-12-05T04:23:53.916Z</time>
      </trkpt>
      <trkpt lat="48.84697" lon="2.43922">
        <ele>54.532912</ele>
        <time>2021-12-05T04:24:10.279Z</time>
      </trkpt>
      <trkpt lat="48.84709" lon="2.43921">
        <ele>54.62898</ele>
        <time>2021-12-05T04:24:13.295Z</time>
      </trkpt>
      <trkpt lat="48.8471" lon="2.43912">
        <ele>54.678336</ele>
        <time>2021-12-05T04:24:15.008Z</time>
      </trkpt>
      <trkpt lat="48.84712" lon="2.43844">
        <ele>55.054016</ele>
        <time>2021-12-05T04:24:27.750Z</time>
      </trkpt>
      <trkpt lat="48.84713" lon="2.43828">
        <ele>55.143738</ele>
        <time>2021-12-05T04:24:30.903Z</time>
      </trkpt>
      <trkpt lat="48.84718" lon="2.43689">
        <ele>56.066388</ele>
        <time>2021-12-05T04:24:59.208Z</time>
      </trkpt>
      <trkpt lat="48.84724" lon="2.43525">
        <ele>57.230418</ele>
        <time>2021-12-05T04:25:32.798Z</time>
      </trkpt>
      <trkpt lat="48.84725" lon="2.43468">
        <ele>57.607234</ele>
        <time>2021-12-05T04:25:43.909Z</time>
      </trkpt>
      <trkpt lat="48.84747" lon="2.43467">
        <ele>57.825297</ele>
        <time>2021-12-05T04:25:50.360Z</time>
      </trkpt>
      <trkpt lat="48.84773" lon="2.43466">
        <ele>58.077932</ele>
        <time>2021-12-05T04:25:58.125Z</time>
      </trkpt>
      <trkpt lat="48.84844" lon="2.43463">
        <ele>58.773887</ele>
        <time>2021-12-05T04:26:20.685Z</time>
      </trkpt>
      <trkpt lat="48.84852" lon="2.43462">
        <ele>58.859038</ele>
        <time>2021-12-05T04:26:23.432Z</time>
      </trkpt>
      <trkpt lat="48.84976" lon="2.43458">
        <ele>59.47828</ele>
        <time>2021-12-05T04:26:55.841Z</time>
      </trkpt>
      <trkpt lat="48.8499" lon="2.43459">
        <ele>59.537599</ele>
        <time>2021-12-05T04:26:59.587Z</time>
      </trkpt>
      <trkpt lat="48.85082" lon="2.43457">
        <ele>59.832141</ele>
        <time>2021-12-05T04:27:21.552Z</time>
      </trkpt>
      <trkpt lat="48.85157" lon="2.43463">
        <ele>59.941642</ele>
        <time>2021-12-05T04:27:38.226Z</time>
      </trkpt>
      <trkpt lat="48.85175" lon="2.43375">
        <ele>60.030309</ele>
        <time>2021-12-05T04:27:52.698Z</time>
      </trkpt>
      <trkpt lat="48.85252" lon="2.43395">
        <ele>60.051226</ele>
        <time>2021-12-05T04:28:14.582Z</time>
      </trkpt>
      <trkpt lat="48.85355" lon="2.43419">
        <ele>60.051226</ele>
        <time>2021-12-05T04:28:45.601Z</time>
      </trkpt>
      <trkpt lat="48.85388" lon="2.43435">
        <ele>60.051226</ele>
        <time>2021-12-05T04:28:56.124Z</time>
      </trkpt>
    </trkseg>
  </trk>
</gpx>